<?xml version="1.0" encoding="UTF-8" standalone="no" ?>
<gpx xmlns="http://www.topografix.com/GPX/1/1" xmlns:xsi="http://www.w3.org/2001/XMLSchema-instance" xsi:schemaLocation="http://www.topografix.com/GPX/1/1 http://www.topografix.com/GPX/1/1/gpx.xsd" version="1.1" creator="VisuGPX - https://www.visugpx.com">
  <metadata>
    <name>[11/12/2016] Hivernale VTT à Gravigny (27)</name>
    <desc><![CDATA[Hivernale VTT à Gravigny (27)
rando organisée par l'USG CYCLO.
parcours de 47 km]]></desc>
  </metadata>
  <trk>
    <name><![CDATA[[11/12/2016] Hivernale VTT à Gravigny (27)_1]]></name>
    <trkseg>
      <trkpt lat="49.04488" lon="1.15682">
        <ele>60.606895</ele>
        <time>2016-12-11T07:32:56Z</time>
      </trkpt>
      <trkpt lat="49.04488" lon="1.15682">
        <ele>60.606895</ele>
        <time>2016-12-11T07:32:57Z</time>
      </trkpt>
      <trkpt lat="49.04479" lon="1.15688">
        <ele>60.6</ele>
        <time>2016-12-11T07:34:32Z</time>
      </trkpt>
      <trkpt lat="49.04489" lon="1.15688">
        <ele>60.3</ele>
        <time>2016-12-11T07:35:12Z</time>
      </trkpt>
      <trkpt lat="49.04497" lon="1.15696">
        <ele>60.3</ele>
        <time>2016-12-11T07:35:19Z</time>
      </trkpt>
      <trkpt lat="49.04507" lon="1.15701">
        <ele>60.3</ele>
        <time>2016-12-11T07:35:23Z</time>
      </trkpt>
      <trkpt lat="49.04516" lon="1.15697">
        <ele>60.3</ele>
        <time>2016-12-11T07:35:26Z</time>
      </trkpt>
      <trkpt lat="49.04526" lon="1.15692">
        <ele>60.2</ele>
        <time>2016-12-11T07:35:30Z</time>
      </trkpt>
      <trkpt lat="49.04535" lon="1.15681">
        <ele>60.2</ele>
        <time>2016-12-11T07:35:34Z</time>
      </trkpt>
      <trkpt lat="49.04539" lon="1.15668">
        <ele>60.2</ele>
        <time>2016-12-11T07:35:37Z</time>
      </trkpt>
      <trkpt lat="49.0454" lon="1.15651">
        <ele>60.2</ele>
        <time>2016-12-11T07:35:41Z</time>
      </trkpt>
      <trkpt lat="49.0454" lon="1.15637">
        <ele>60.2</ele>
        <time>2016-12-11T07:35:44Z</time>
      </trkpt>
      <trkpt lat="49.0454" lon="1.15623">
        <ele>60.2</ele>
        <time>2016-12-11T07:35:47Z</time>
      </trkpt>
      <trkpt lat="49.0454" lon="1.15605">
        <ele>60.2</ele>
        <time>2016-12-11T07:35:51Z</time>
      </trkpt>
      <trkpt lat="49.0454" lon="1.15587">
        <ele>60.4</ele>
        <time>2016-12-11T07:35:55Z</time>
      </trkpt>
      <trkpt lat="49.0454" lon="1.1557">
        <ele>60.7</ele>
        <time>2016-12-11T07:35:59Z</time>
      </trkpt>
      <trkpt lat="49.0454" lon="1.15556">
        <ele>61</ele>
        <time>2016-12-11T07:36:02Z</time>
      </trkpt>
      <trkpt lat="49.0454" lon="1.15542">
        <ele>61.3</ele>
        <time>2016-12-11T07:36:05Z</time>
      </trkpt>
      <trkpt lat="49.04548" lon="1.1553">
        <ele>61.6</ele>
        <time>2016-12-11T07:36:09Z</time>
      </trkpt>
      <trkpt lat="49.04557" lon="1.15526">
        <ele>61.9</ele>
        <time>2016-12-11T07:36:12Z</time>
      </trkpt>
      <trkpt lat="49.04567" lon="1.15524">
        <ele>62.2</ele>
        <time>2016-12-11T07:36:15Z</time>
      </trkpt>
      <trkpt lat="49.04577" lon="1.15521">
        <ele>62.4</ele>
        <time>2016-12-11T07:36:18Z</time>
      </trkpt>
      <trkpt lat="49.04588" lon="1.15518">
        <ele>62.5</ele>
        <time>2016-12-11T07:36:21Z</time>
      </trkpt>
      <trkpt lat="49.04599" lon="1.15515">
        <ele>62.7</ele>
        <time>2016-12-11T07:36:24Z</time>
      </trkpt>
      <trkpt lat="49.04611" lon="1.15512">
        <ele>62.8</ele>
        <time>2016-12-11T07:36:27Z</time>
      </trkpt>
      <trkpt lat="49.04622" lon="1.1551">
        <ele>62.9</ele>
        <time>2016-12-11T07:36:30Z</time>
      </trkpt>
      <trkpt lat="49.04634" lon="1.15509">
        <ele>63</ele>
        <time>2016-12-11T07:36:33Z</time>
      </trkpt>
      <trkpt lat="49.04646" lon="1.15508">
        <ele>63.1</ele>
        <time>2016-12-11T07:36:36Z</time>
      </trkpt>
      <trkpt lat="49.04657" lon="1.15506">
        <ele>63.1</ele>
        <time>2016-12-11T07:36:39Z</time>
      </trkpt>
      <trkpt lat="49.04668" lon="1.15504">
        <ele>63.2</ele>
        <time>2016-12-11T07:36:42Z</time>
      </trkpt>
      <trkpt lat="49.0468" lon="1.15504">
        <ele>63.3</ele>
        <time>2016-12-11T07:36:45Z</time>
      </trkpt>
      <trkpt lat="49.04692" lon="1.15504">
        <ele>63.4</ele>
        <time>2016-12-11T07:36:48Z</time>
      </trkpt>
      <trkpt lat="49.04704" lon="1.15503">
        <ele>63.6</ele>
        <time>2016-12-11T07:36:51Z</time>
      </trkpt>
      <trkpt lat="49.04716" lon="1.15504">
        <ele>63.7</ele>
        <time>2016-12-11T07:36:54Z</time>
      </trkpt>
      <trkpt lat="49.04727" lon="1.15504">
        <ele>63.9</ele>
        <time>2016-12-11T07:36:57Z</time>
      </trkpt>
      <trkpt lat="49.04739" lon="1.15504">
        <ele>64.1</ele>
        <time>2016-12-11T07:37:00Z</time>
      </trkpt>
      <trkpt lat="49.0475" lon="1.15498">
        <ele>64.3</ele>
        <time>2016-12-11T07:37:03Z</time>
      </trkpt>
      <trkpt lat="49.04754" lon="1.15484">
        <ele>64.6</ele>
        <time>2016-12-11T07:37:06Z</time>
      </trkpt>
      <trkpt lat="49.04754" lon="1.15468">
        <ele>65</ele>
        <time>2016-12-11T07:37:09Z</time>
      </trkpt>
      <trkpt lat="49.04754" lon="1.15451">
        <ele>65.5</ele>
        <time>2016-12-11T07:37:13Z</time>
      </trkpt>
      <trkpt lat="49.04744" lon="1.15443">
        <ele>66</ele>
        <time>2016-12-11T07:37:17Z</time>
      </trkpt>
      <trkpt lat="49.04733" lon="1.15442">
        <ele>66.2</ele>
        <time>2016-12-11T07:37:20Z</time>
      </trkpt>
      <trkpt lat="49.04722" lon="1.15443">
        <ele>66.4</ele>
        <time>2016-12-11T07:37:23Z</time>
      </trkpt>
      <trkpt lat="49.04711" lon="1.15443">
        <ele>66.6</ele>
        <time>2016-12-11T07:37:26Z</time>
      </trkpt>
      <trkpt lat="49.04699" lon="1.15444">
        <ele>66.7</ele>
        <time>2016-12-11T07:37:29Z</time>
      </trkpt>
      <trkpt lat="49.04687" lon="1.15445">
        <ele>66.8</ele>
        <time>2016-12-11T07:37:32Z</time>
      </trkpt>
      <trkpt lat="49.04674" lon="1.15446">
        <ele>66.8</ele>
        <time>2016-12-11T07:37:35Z</time>
      </trkpt>
      <trkpt lat="49.04662" lon="1.15448">
        <ele>66.8</ele>
        <time>2016-12-11T07:37:38Z</time>
      </trkpt>
      <trkpt lat="49.04651" lon="1.15451">
        <ele>66.7</ele>
        <time>2016-12-11T07:37:41Z</time>
      </trkpt>
      <trkpt lat="49.04639" lon="1.15452">
        <ele>66.6</ele>
        <time>2016-12-11T07:37:44Z</time>
      </trkpt>
      <trkpt lat="49.04628" lon="1.15453">
        <ele>66.5</ele>
        <time>2016-12-11T07:37:47Z</time>
      </trkpt>
      <trkpt lat="49.04615" lon="1.15454">
        <ele>66.5</ele>
        <time>2016-12-11T07:37:50Z</time>
      </trkpt>
      <trkpt lat="49.04603" lon="1.15455">
        <ele>66.4</ele>
        <time>2016-12-11T07:37:53Z</time>
      </trkpt>
      <trkpt lat="49.04591" lon="1.15456">
        <ele>66.2</ele>
        <time>2016-12-11T07:37:56Z</time>
      </trkpt>
      <trkpt lat="49.04579" lon="1.15458">
        <ele>65.9</ele>
        <time>2016-12-11T07:37:59Z</time>
      </trkpt>
      <trkpt lat="49.04567" lon="1.15459">
        <ele>65.8</ele>
        <time>2016-12-11T07:38:02Z</time>
      </trkpt>
      <trkpt lat="49.04555" lon="1.15462">
        <ele>65.6</ele>
        <time>2016-12-11T07:38:05Z</time>
      </trkpt>
      <trkpt lat="49.04543" lon="1.15465">
        <ele>65.5</ele>
        <time>2016-12-11T07:38:08Z</time>
      </trkpt>
      <trkpt lat="49.04531" lon="1.15467">
        <ele>65.5</ele>
        <time>2016-12-11T07:38:11Z</time>
      </trkpt>
      <trkpt lat="49.0452" lon="1.15468">
        <ele>65.5</ele>
        <time>2016-12-11T07:38:14Z</time>
      </trkpt>
      <trkpt lat="49.04509" lon="1.15468">
        <ele>65.5</ele>
        <time>2016-12-11T07:38:17Z</time>
      </trkpt>
      <trkpt lat="49.04499" lon="1.15469">
        <ele>65.5</ele>
        <time>2016-12-11T07:38:20Z</time>
      </trkpt>
      <trkpt lat="49.04488" lon="1.1547">
        <ele>65.6</ele>
        <time>2016-12-11T07:38:23Z</time>
      </trkpt>
      <trkpt lat="49.04477" lon="1.1547">
        <ele>65.6</ele>
        <time>2016-12-11T07:38:26Z</time>
      </trkpt>
      <trkpt lat="49.04465" lon="1.15471">
        <ele>65.7</ele>
        <time>2016-12-11T07:38:29Z</time>
      </trkpt>
      <trkpt lat="49.04454" lon="1.15471">
        <ele>65.8</ele>
        <time>2016-12-11T07:38:32Z</time>
      </trkpt>
      <trkpt lat="49.04443" lon="1.15471">
        <ele>65.9</ele>
        <time>2016-12-11T07:38:35Z</time>
      </trkpt>
      <trkpt lat="49.04433" lon="1.15472">
        <ele>66</ele>
        <time>2016-12-11T07:38:37Z</time>
      </trkpt>
      <trkpt lat="49.04424" lon="1.15472">
        <ele>66</ele>
        <time>2016-12-11T07:38:39Z</time>
      </trkpt>
      <trkpt lat="49.04411" lon="1.15473">
        <ele>66.1</ele>
        <time>2016-12-11T07:38:42Z</time>
      </trkpt>
      <trkpt lat="49.04399" lon="1.15474">
        <ele>66.1</ele>
        <time>2016-12-11T07:38:45Z</time>
      </trkpt>
      <trkpt lat="49.04386" lon="1.15475">
        <ele>66.1</ele>
        <time>2016-12-11T07:38:48Z</time>
      </trkpt>
      <trkpt lat="49.04374" lon="1.15475">
        <ele>66.2</ele>
        <time>2016-12-11T07:38:51Z</time>
      </trkpt>
      <trkpt lat="49.04362" lon="1.15475">
        <ele>66.2</ele>
        <time>2016-12-11T07:38:54Z</time>
      </trkpt>
      <trkpt lat="49.0435" lon="1.15476">
        <ele>66.2</ele>
        <time>2016-12-11T07:38:57Z</time>
      </trkpt>
      <trkpt lat="49.04338" lon="1.15477">
        <ele>66.2</ele>
        <time>2016-12-11T07:39:00Z</time>
      </trkpt>
      <trkpt lat="49.04326" lon="1.15478">
        <ele>66.2</ele>
        <time>2016-12-11T07:39:03Z</time>
      </trkpt>
      <trkpt lat="49.04313" lon="1.15479">
        <ele>66.2</ele>
        <time>2016-12-11T07:39:06Z</time>
      </trkpt>
      <trkpt lat="49.043" lon="1.15479">
        <ele>66.2</ele>
        <time>2016-12-11T07:39:09Z</time>
      </trkpt>
      <trkpt lat="49.04287" lon="1.1548">
        <ele>66.2</ele>
        <time>2016-12-11T07:39:12Z</time>
      </trkpt>
      <trkpt lat="49.04274" lon="1.15481">
        <ele>66.3</ele>
        <time>2016-12-11T07:39:15Z</time>
      </trkpt>
      <trkpt lat="49.04262" lon="1.15482">
        <ele>66.3</ele>
        <time>2016-12-11T07:39:18Z</time>
      </trkpt>
      <trkpt lat="49.0425" lon="1.15482">
        <ele>66.3</ele>
        <time>2016-12-11T07:39:21Z</time>
      </trkpt>
      <trkpt lat="49.04238" lon="1.15483">
        <ele>66.3</ele>
        <time>2016-12-11T07:39:24Z</time>
      </trkpt>
      <trkpt lat="49.04226" lon="1.15483">
        <ele>66.3</ele>
        <time>2016-12-11T07:39:27Z</time>
      </trkpt>
      <trkpt lat="49.04214" lon="1.15484">
        <ele>66.3</ele>
        <time>2016-12-11T07:39:30Z</time>
      </trkpt>
      <trkpt lat="49.04203" lon="1.15485">
        <ele>66.4</ele>
        <time>2016-12-11T07:39:33Z</time>
      </trkpt>
      <trkpt lat="49.04192" lon="1.15485">
        <ele>66.5</ele>
        <time>2016-12-11T07:39:36Z</time>
      </trkpt>
      <trkpt lat="49.04182" lon="1.15486">
        <ele>66.7</ele>
        <time>2016-12-11T07:39:39Z</time>
      </trkpt>
      <trkpt lat="49.04172" lon="1.15487">
        <ele>66.9</ele>
        <time>2016-12-11T07:39:42Z</time>
      </trkpt>
      <trkpt lat="49.04161" lon="1.15488">
        <ele>67.1</ele>
        <time>2016-12-11T07:39:45Z</time>
      </trkpt>
      <trkpt lat="49.04151" lon="1.15489">
        <ele>67.3</ele>
        <time>2016-12-11T07:39:48Z</time>
      </trkpt>
      <trkpt lat="49.0414" lon="1.15489">
        <ele>67.5</ele>
        <time>2016-12-11T07:39:51Z</time>
      </trkpt>
      <trkpt lat="49.04131" lon="1.1549">
        <ele>67.7</ele>
        <time>2016-12-11T07:39:54Z</time>
      </trkpt>
      <trkpt lat="49.0412" lon="1.15491">
        <ele>67.9</ele>
        <time>2016-12-11T07:39:57Z</time>
      </trkpt>
      <trkpt lat="49.0411" lon="1.15491">
        <ele>68.1</ele>
        <time>2016-12-11T07:40:00Z</time>
      </trkpt>
      <trkpt lat="49.041" lon="1.15491">
        <ele>68.3</ele>
        <time>2016-12-11T07:40:03Z</time>
      </trkpt>
      <trkpt lat="49.0409" lon="1.15492">
        <ele>68.5</ele>
        <time>2016-12-11T07:40:06Z</time>
      </trkpt>
      <trkpt lat="49.0408" lon="1.15493">
        <ele>68.7</ele>
        <time>2016-12-11T07:40:09Z</time>
      </trkpt>
      <trkpt lat="49.0407" lon="1.15492">
        <ele>68.8</ele>
        <time>2016-12-11T07:40:12Z</time>
      </trkpt>
      <trkpt lat="49.04061" lon="1.1549">
        <ele>68.9</ele>
        <time>2016-12-11T07:40:15Z</time>
      </trkpt>
      <trkpt lat="49.0405" lon="1.15488">
        <ele>69</ele>
        <time>2016-12-11T07:40:18Z</time>
      </trkpt>
      <trkpt lat="49.04039" lon="1.15486">
        <ele>69.2</ele>
        <time>2016-12-11T07:40:21Z</time>
      </trkpt>
      <trkpt lat="49.04028" lon="1.15485">
        <ele>69.3</ele>
        <time>2016-12-11T07:40:24Z</time>
      </trkpt>
      <trkpt lat="49.04016" lon="1.15483">
        <ele>69.4</ele>
        <time>2016-12-11T07:40:27Z</time>
      </trkpt>
      <trkpt lat="49.04005" lon="1.15481">
        <ele>69.5</ele>
        <time>2016-12-11T07:40:30Z</time>
      </trkpt>
      <trkpt lat="49.03992" lon="1.15479">
        <ele>69.5</ele>
        <time>2016-12-11T07:40:33Z</time>
      </trkpt>
      <trkpt lat="49.03979" lon="1.15478">
        <ele>69.6</ele>
        <time>2016-12-11T07:40:36Z</time>
      </trkpt>
      <trkpt lat="49.03967" lon="1.15477">
        <ele>69.6</ele>
        <time>2016-12-11T07:40:39Z</time>
      </trkpt>
      <trkpt lat="49.03955" lon="1.15476">
        <ele>69.7</ele>
        <time>2016-12-11T07:40:42Z</time>
      </trkpt>
      <trkpt lat="49.03942" lon="1.15475">
        <ele>69.7</ele>
        <time>2016-12-11T07:40:45Z</time>
      </trkpt>
      <trkpt lat="49.0393" lon="1.15477">
        <ele>69.7</ele>
        <time>2016-12-11T07:40:48Z</time>
      </trkpt>
      <trkpt lat="49.03919" lon="1.15476">
        <ele>69.7</ele>
        <time>2016-12-11T07:40:51Z</time>
      </trkpt>
      <trkpt lat="49.03908" lon="1.15474">
        <ele>69.8</ele>
        <time>2016-12-11T07:40:54Z</time>
      </trkpt>
      <trkpt lat="49.03897" lon="1.15472">
        <ele>69.8</ele>
        <time>2016-12-11T07:40:57Z</time>
      </trkpt>
      <trkpt lat="49.03887" lon="1.15471">
        <ele>69.8</ele>
        <time>2016-12-11T07:41:00Z</time>
      </trkpt>
      <trkpt lat="49.03877" lon="1.1547">
        <ele>70</ele>
        <time>2016-12-11T07:41:03Z</time>
      </trkpt>
      <trkpt lat="49.03868" lon="1.15469">
        <ele>70.1</ele>
        <time>2016-12-11T07:41:06Z</time>
      </trkpt>
      <trkpt lat="49.03858" lon="1.15468">
        <ele>70.3</ele>
        <time>2016-12-11T07:41:09Z</time>
      </trkpt>
      <trkpt lat="49.03849" lon="1.15467">
        <ele>70.6</ele>
        <time>2016-12-11T07:41:12Z</time>
      </trkpt>
      <trkpt lat="49.0384" lon="1.15465">
        <ele>70.8</ele>
        <time>2016-12-11T07:41:15Z</time>
      </trkpt>
      <trkpt lat="49.0383" lon="1.15465">
        <ele>71</ele>
        <time>2016-12-11T07:41:18Z</time>
      </trkpt>
      <trkpt lat="49.03819" lon="1.15464">
        <ele>71.2</ele>
        <time>2016-12-11T07:41:21Z</time>
      </trkpt>
      <trkpt lat="49.03807" lon="1.15463">
        <ele>71.5</ele>
        <time>2016-12-11T07:41:24Z</time>
      </trkpt>
      <trkpt lat="49.03794" lon="1.15461">
        <ele>71.7</ele>
        <time>2016-12-11T07:41:27Z</time>
      </trkpt>
      <trkpt lat="49.03781" lon="1.1546">
        <ele>72.1</ele>
        <time>2016-12-11T07:41:30Z</time>
      </trkpt>
      <trkpt lat="49.03769" lon="1.15463">
        <ele>72.5</ele>
        <time>2016-12-11T07:41:33Z</time>
      </trkpt>
      <trkpt lat="49.03759" lon="1.15466">
        <ele>73</ele>
        <time>2016-12-11T07:41:36Z</time>
      </trkpt>
      <trkpt lat="49.03747" lon="1.15473">
        <ele>73.6</ele>
        <time>2016-12-11T07:41:39Z</time>
      </trkpt>
      <trkpt lat="49.03737" lon="1.15478">
        <ele>73.7</ele>
        <time>2016-12-11T07:41:41Z</time>
      </trkpt>
      <trkpt lat="49.03728" lon="1.15477">
        <ele>73.8</ele>
        <time>2016-12-11T07:41:43Z</time>
      </trkpt>
      <trkpt lat="49.03718" lon="1.15476">
        <ele>73.9</ele>
        <time>2016-12-11T07:41:45Z</time>
      </trkpt>
      <trkpt lat="49.03706" lon="1.15476">
        <ele>74.1</ele>
        <time>2016-12-11T07:41:48Z</time>
      </trkpt>
      <trkpt lat="49.03694" lon="1.15475">
        <ele>74.2</ele>
        <time>2016-12-11T07:41:51Z</time>
      </trkpt>
      <trkpt lat="49.03683" lon="1.15474">
        <ele>74.3</ele>
        <time>2016-12-11T07:41:54Z</time>
      </trkpt>
      <trkpt lat="49.03672" lon="1.15474">
        <ele>74.4</ele>
        <time>2016-12-11T07:41:57Z</time>
      </trkpt>
      <trkpt lat="49.0366" lon="1.15475">
        <ele>74.6</ele>
        <time>2016-12-11T07:42:00Z</time>
      </trkpt>
      <trkpt lat="49.03649" lon="1.15475">
        <ele>74.7</ele>
        <time>2016-12-11T07:42:03Z</time>
      </trkpt>
      <trkpt lat="49.03638" lon="1.15475">
        <ele>74.8</ele>
        <time>2016-12-11T07:42:06Z</time>
      </trkpt>
      <trkpt lat="49.03626" lon="1.15475">
        <ele>74.9</ele>
        <time>2016-12-11T07:42:09Z</time>
      </trkpt>
      <trkpt lat="49.03617" lon="1.15475">
        <ele>75.1</ele>
        <time>2016-12-11T07:42:12Z</time>
      </trkpt>
      <trkpt lat="49.0361" lon="1.1549">
        <ele>75.3</ele>
        <time>2016-12-11T07:42:16Z</time>
      </trkpt>
      <trkpt lat="49.0361" lon="1.15505">
        <ele>75.4</ele>
        <time>2016-12-11T07:42:18Z</time>
      </trkpt>
      <trkpt lat="49.0361" lon="1.15522">
        <ele>75.5</ele>
        <time>2016-12-11T07:42:20Z</time>
      </trkpt>
      <trkpt lat="49.0361" lon="1.1554">
        <ele>75.4</ele>
        <time>2016-12-11T07:42:22Z</time>
      </trkpt>
      <trkpt lat="49.0361" lon="1.15558">
        <ele>75.2</ele>
        <time>2016-12-11T07:42:24Z</time>
      </trkpt>
      <trkpt lat="49.0361" lon="1.15577">
        <ele>74.9</ele>
        <time>2016-12-11T07:42:26Z</time>
      </trkpt>
      <trkpt lat="49.03607" lon="1.15591">
        <ele>74.4</ele>
        <time>2016-12-11T07:42:28Z</time>
      </trkpt>
      <trkpt lat="49.03599" lon="1.156">
        <ele>73.8</ele>
        <time>2016-12-11T07:42:30Z</time>
      </trkpt>
      <trkpt lat="49.03588" lon="1.15601">
        <ele>73.2</ele>
        <time>2016-12-11T07:42:32Z</time>
      </trkpt>
      <trkpt lat="49.03577" lon="1.15597">
        <ele>72.6</ele>
        <time>2016-12-11T07:42:34Z</time>
      </trkpt>
      <trkpt lat="49.03565" lon="1.15592">
        <ele>72</ele>
        <time>2016-12-11T07:42:36Z</time>
      </trkpt>
      <trkpt lat="49.03555" lon="1.15584">
        <ele>71.4</ele>
        <time>2016-12-11T07:42:38Z</time>
      </trkpt>
      <trkpt lat="49.03545" lon="1.15574">
        <ele>70.8</ele>
        <time>2016-12-11T07:42:40Z</time>
      </trkpt>
      <trkpt lat="49.03539" lon="1.15559">
        <ele>70.3</ele>
        <time>2016-12-11T07:42:42Z</time>
      </trkpt>
      <trkpt lat="49.03538" lon="1.15544">
        <ele>69.8</ele>
        <time>2016-12-11T07:42:44Z</time>
      </trkpt>
      <trkpt lat="49.03533" lon="1.15529">
        <ele>69.1</ele>
        <time>2016-12-11T07:42:48Z</time>
      </trkpt>
      <trkpt lat="49.03524" lon="1.15515">
        <ele>68.6</ele>
        <time>2016-12-11T07:42:51Z</time>
      </trkpt>
      <trkpt lat="49.03515" lon="1.15508">
        <ele>68.3</ele>
        <time>2016-12-11T07:42:53Z</time>
      </trkpt>
      <trkpt lat="49.03507" lon="1.15501">
        <ele>68</ele>
        <time>2016-12-11T07:42:55Z</time>
      </trkpt>
      <trkpt lat="49.03499" lon="1.15488">
        <ele>67.6</ele>
        <time>2016-12-11T07:42:58Z</time>
      </trkpt>
      <trkpt lat="49.03488" lon="1.1548">
        <ele>67.2</ele>
        <time>2016-12-11T07:43:01Z</time>
      </trkpt>
      <trkpt lat="49.03477" lon="1.15477">
        <ele>66.8</ele>
        <time>2016-12-11T07:43:04Z</time>
      </trkpt>
      <trkpt lat="49.03471" lon="1.15466">
        <ele>66.4</ele>
        <time>2016-12-11T07:43:07Z</time>
      </trkpt>
      <trkpt lat="49.03467" lon="1.15452">
        <ele>66.1</ele>
        <time>2016-12-11T07:43:10Z</time>
      </trkpt>
      <trkpt lat="49.03461" lon="1.15439">
        <ele>66</ele>
        <time>2016-12-11T07:43:13Z</time>
      </trkpt>
      <trkpt lat="49.03456" lon="1.15426">
        <ele>66</ele>
        <time>2016-12-11T07:43:16Z</time>
      </trkpt>
      <trkpt lat="49.03451" lon="1.15413">
        <ele>66.1</ele>
        <time>2016-12-11T07:43:19Z</time>
      </trkpt>
      <trkpt lat="49.03446" lon="1.15401">
        <ele>66.3</ele>
        <time>2016-12-11T07:43:22Z</time>
      </trkpt>
      <trkpt lat="49.03441" lon="1.15387">
        <ele>66.6</ele>
        <time>2016-12-11T07:43:25Z</time>
      </trkpt>
      <trkpt lat="49.03436" lon="1.15373">
        <ele>66.9</ele>
        <time>2016-12-11T07:43:28Z</time>
      </trkpt>
      <trkpt lat="49.03432" lon="1.1536">
        <ele>67.3</ele>
        <time>2016-12-11T07:43:31Z</time>
      </trkpt>
      <trkpt lat="49.03428" lon="1.15347">
        <ele>67.7</ele>
        <time>2016-12-11T07:43:34Z</time>
      </trkpt>
      <trkpt lat="49.03423" lon="1.15334">
        <ele>68.2</ele>
        <time>2016-12-11T07:43:37Z</time>
      </trkpt>
      <trkpt lat="49.03419" lon="1.15321">
        <ele>68.7</ele>
        <time>2016-12-11T07:43:40Z</time>
      </trkpt>
      <trkpt lat="49.03415" lon="1.15307">
        <ele>69.2</ele>
        <time>2016-12-11T07:43:43Z</time>
      </trkpt>
      <trkpt lat="49.03413" lon="1.15293">
        <ele>69.8</ele>
        <time>2016-12-11T07:43:46Z</time>
      </trkpt>
      <trkpt lat="49.03411" lon="1.15279">
        <ele>70.3</ele>
        <time>2016-12-11T07:43:49Z</time>
      </trkpt>
      <trkpt lat="49.03413" lon="1.15265">
        <ele>71.2</ele>
        <time>2016-12-11T07:43:53Z</time>
      </trkpt>
      <trkpt lat="49.03422" lon="1.15261">
        <ele>73.5</ele>
        <time>2016-12-11T07:44:10Z</time>
      </trkpt>
      <trkpt lat="49.03431" lon="1.1526">
        <ele>74.3</ele>
        <time>2016-12-11T07:44:15Z</time>
      </trkpt>
      <trkpt lat="49.03439" lon="1.1525">
        <ele>76.1</ele>
        <time>2016-12-11T07:44:22Z</time>
      </trkpt>
      <trkpt lat="49.03447" lon="1.15243">
        <ele>78.1</ele>
        <time>2016-12-11T07:44:28Z</time>
      </trkpt>
      <trkpt lat="49.03457" lon="1.15244">
        <ele>80.2</ele>
        <time>2016-12-11T07:44:34Z</time>
      </trkpt>
      <trkpt lat="49.03466" lon="1.15246">
        <ele>81.7</ele>
        <time>2016-12-11T07:44:39Z</time>
      </trkpt>
      <trkpt lat="49.03473" lon="1.15234">
        <ele>83</ele>
        <time>2016-12-11T07:44:44Z</time>
      </trkpt>
      <trkpt lat="49.03478" lon="1.15223">
        <ele>83.9</ele>
        <time>2016-12-11T07:44:48Z</time>
      </trkpt>
      <trkpt lat="49.03483" lon="1.15211">
        <ele>84.8</ele>
        <time>2016-12-11T07:44:52Z</time>
      </trkpt>
      <trkpt lat="49.03488" lon="1.15199">
        <ele>85.7</ele>
        <time>2016-12-11T07:44:56Z</time>
      </trkpt>
      <trkpt lat="49.03494" lon="1.15185">
        <ele>86.8</ele>
        <time>2016-12-11T07:45:01Z</time>
      </trkpt>
      <trkpt lat="49.035" lon="1.15173">
        <ele>87.6</ele>
        <time>2016-12-11T07:45:05Z</time>
      </trkpt>
      <trkpt lat="49.03505" lon="1.15161">
        <ele>88.3</ele>
        <time>2016-12-11T07:45:09Z</time>
      </trkpt>
      <trkpt lat="49.0351" lon="1.15149">
        <ele>89.2</ele>
        <time>2016-12-11T07:45:13Z</time>
      </trkpt>
      <trkpt lat="49.03515" lon="1.15137">
        <ele>89.8</ele>
        <time>2016-12-11T07:45:17Z</time>
      </trkpt>
      <trkpt lat="49.0352" lon="1.15124">
        <ele>90.6</ele>
        <time>2016-12-11T07:45:21Z</time>
      </trkpt>
      <trkpt lat="49.03525" lon="1.15112">
        <ele>91.4</ele>
        <time>2016-12-11T07:45:25Z</time>
      </trkpt>
      <trkpt lat="49.03531" lon="1.15098">
        <ele>92.4</ele>
        <time>2016-12-11T07:45:30Z</time>
      </trkpt>
      <trkpt lat="49.03535" lon="1.15086">
        <ele>93.2</ele>
        <time>2016-12-11T07:45:34Z</time>
      </trkpt>
      <trkpt lat="49.03541" lon="1.15072">
        <ele>94.2</ele>
        <time>2016-12-11T07:45:39Z</time>
      </trkpt>
      <trkpt lat="49.03546" lon="1.1506">
        <ele>95</ele>
        <time>2016-12-11T07:45:43Z</time>
      </trkpt>
      <trkpt lat="49.03551" lon="1.15045">
        <ele>96.1</ele>
        <time>2016-12-11T07:45:48Z</time>
      </trkpt>
      <trkpt lat="49.03557" lon="1.15031">
        <ele>97.4</ele>
        <time>2016-12-11T07:45:53Z</time>
      </trkpt>
      <trkpt lat="49.03565" lon="1.15023">
        <ele>98.7</ele>
        <time>2016-12-11T07:45:58Z</time>
      </trkpt>
      <trkpt lat="49.0357" lon="1.1501">
        <ele>100.2</ele>
        <time>2016-12-11T07:46:03Z</time>
      </trkpt>
      <trkpt lat="49.03575" lon="1.14997">
        <ele>101.8</ele>
        <time>2016-12-11T07:46:08Z</time>
      </trkpt>
      <trkpt lat="49.0358" lon="1.14982">
        <ele>103</ele>
        <time>2016-12-11T07:46:12Z</time>
      </trkpt>
      <trkpt lat="49.03582" lon="1.14968">
        <ele>104.3</ele>
        <time>2016-12-11T07:46:16Z</time>
      </trkpt>
      <trkpt lat="49.03579" lon="1.14952">
        <ele>105.2</ele>
        <time>2016-12-11T07:46:19Z</time>
      </trkpt>
      <trkpt lat="49.03578" lon="1.14934">
        <ele>105.9</ele>
        <time>2016-12-11T07:46:22Z</time>
      </trkpt>
      <trkpt lat="49.03577" lon="1.14918">
        <ele>106.3</ele>
        <time>2016-12-11T07:46:25Z</time>
      </trkpt>
      <trkpt lat="49.03577" lon="1.14903">
        <ele>106.7</ele>
        <time>2016-12-11T07:46:28Z</time>
      </trkpt>
      <trkpt lat="49.03578" lon="1.14887">
        <ele>107.2</ele>
        <time>2016-12-11T07:46:32Z</time>
      </trkpt>
      <trkpt lat="49.03582" lon="1.14872">
        <ele>108.6</ele>
        <time>2016-12-11T07:46:38Z</time>
      </trkpt>
      <trkpt lat="49.03589" lon="1.14861">
        <ele>110.8</ele>
        <time>2016-12-11T07:46:45Z</time>
      </trkpt>
      <trkpt lat="49.03595" lon="1.14849">
        <ele>113.2</ele>
        <time>2016-12-11T07:46:52Z</time>
      </trkpt>
      <trkpt lat="49.03599" lon="1.14836">
        <ele>115</ele>
        <time>2016-12-11T07:46:58Z</time>
      </trkpt>
      <trkpt lat="49.03603" lon="1.14821">
        <ele>116.4</ele>
        <time>2016-12-11T07:47:04Z</time>
      </trkpt>
      <trkpt lat="49.03611" lon="1.14813">
        <ele>117.4</ele>
        <time>2016-12-11T07:47:09Z</time>
      </trkpt>
      <trkpt lat="49.03621" lon="1.14812">
        <ele>118.3</ele>
        <time>2016-12-11T07:47:14Z</time>
      </trkpt>
      <trkpt lat="49.03632" lon="1.14808">
        <ele>119.2</ele>
        <time>2016-12-11T07:47:19Z</time>
      </trkpt>
      <trkpt lat="49.03641" lon="1.14804">
        <ele>120</ele>
        <time>2016-12-11T07:47:25Z</time>
      </trkpt>
      <trkpt lat="49.03653" lon="1.148">
        <ele>120.7</ele>
        <time>2016-12-11T07:47:30Z</time>
      </trkpt>
      <trkpt lat="49.03664" lon="1.14796">
        <ele>121.2</ele>
        <time>2016-12-11T07:47:34Z</time>
      </trkpt>
      <trkpt lat="49.03673" lon="1.14791">
        <ele>121.7</ele>
        <time>2016-12-11T07:47:38Z</time>
      </trkpt>
      <trkpt lat="49.03683" lon="1.14787">
        <ele>122.4</ele>
        <time>2016-12-11T07:47:44Z</time>
      </trkpt>
      <trkpt lat="49.03693" lon="1.14778">
        <ele>122.9</ele>
        <time>2016-12-11T07:47:48Z</time>
      </trkpt>
      <trkpt lat="49.03701" lon="1.14769">
        <ele>123.2</ele>
        <time>2016-12-11T07:47:51Z</time>
      </trkpt>
      <trkpt lat="49.03711" lon="1.14766">
        <ele>123.5</ele>
        <time>2016-12-11T07:47:54Z</time>
      </trkpt>
      <trkpt lat="49.03722" lon="1.1476">
        <ele>123.9</ele>
        <time>2016-12-11T07:47:58Z</time>
      </trkpt>
      <trkpt lat="49.03733" lon="1.14754">
        <ele>124.4</ele>
        <time>2016-12-11T07:48:02Z</time>
      </trkpt>
      <trkpt lat="49.03743" lon="1.1475">
        <ele>124.9</ele>
        <time>2016-12-11T07:48:06Z</time>
      </trkpt>
      <trkpt lat="49.03753" lon="1.14745">
        <ele>125.3</ele>
        <time>2016-12-11T07:48:10Z</time>
      </trkpt>
      <trkpt lat="49.03763" lon="1.14738">
        <ele>125.7</ele>
        <time>2016-12-11T07:48:14Z</time>
      </trkpt>
      <trkpt lat="49.03773" lon="1.14733">
        <ele>125.9</ele>
        <time>2016-12-11T07:48:17Z</time>
      </trkpt>
      <trkpt lat="49.03783" lon="1.14726">
        <ele>126.1</ele>
        <time>2016-12-11T07:48:20Z</time>
      </trkpt>
      <trkpt lat="49.03785" lon="1.14712">
        <ele>126.3</ele>
        <time>2016-12-11T07:48:23Z</time>
      </trkpt>
      <trkpt lat="49.0379" lon="1.14697">
        <ele>126.6</ele>
        <time>2016-12-11T07:48:27Z</time>
      </trkpt>
      <trkpt lat="49.03797" lon="1.14683">
        <ele>126.8</ele>
        <time>2016-12-11T07:48:30Z</time>
      </trkpt>
      <trkpt lat="49.03802" lon="1.14669">
        <ele>127</ele>
        <time>2016-12-11T07:48:33Z</time>
      </trkpt>
      <trkpt lat="49.03809" lon="1.14656">
        <ele>127.2</ele>
        <time>2016-12-11T07:48:36Z</time>
      </trkpt>
      <trkpt lat="49.03816" lon="1.14641">
        <ele>127.4</ele>
        <time>2016-12-11T07:48:39Z</time>
      </trkpt>
      <trkpt lat="49.03823" lon="1.14623">
        <ele>127.6</ele>
        <time>2016-12-11T07:48:42Z</time>
      </trkpt>
      <trkpt lat="49.03825" lon="1.14609">
        <ele>127.7</ele>
        <time>2016-12-11T07:48:44Z</time>
      </trkpt>
      <trkpt lat="49.03824" lon="1.1459">
        <ele>127.8</ele>
        <time>2016-12-11T07:48:47Z</time>
      </trkpt>
      <trkpt lat="49.03828" lon="1.14572">
        <ele>128</ele>
        <time>2016-12-11T07:48:50Z</time>
      </trkpt>
      <trkpt lat="49.03834" lon="1.14558">
        <ele>128.1</ele>
        <time>2016-12-11T07:48:53Z</time>
      </trkpt>
      <trkpt lat="49.03839" lon="1.14542">
        <ele>128.2</ele>
        <time>2016-12-11T07:48:56Z</time>
      </trkpt>
      <trkpt lat="49.03843" lon="1.14528">
        <ele>128.3</ele>
        <time>2016-12-11T07:48:59Z</time>
      </trkpt>
      <trkpt lat="49.03849" lon="1.14518">
        <ele>128.4</ele>
        <time>2016-12-11T07:49:02Z</time>
      </trkpt>
      <trkpt lat="49.03853" lon="1.14505">
        <ele>128.5</ele>
        <time>2016-12-11T07:49:05Z</time>
      </trkpt>
      <trkpt lat="49.03856" lon="1.14492">
        <ele>128.7</ele>
        <time>2016-12-11T07:49:08Z</time>
      </trkpt>
      <trkpt lat="49.03855" lon="1.14478">
        <ele>128.8</ele>
        <time>2016-12-11T07:49:12Z</time>
      </trkpt>
      <trkpt lat="49.03853" lon="1.1446">
        <ele>129</ele>
        <time>2016-12-11T07:49:16Z</time>
      </trkpt>
      <trkpt lat="49.03855" lon="1.14445">
        <ele>129.2</ele>
        <time>2016-12-11T07:49:19Z</time>
      </trkpt>
      <trkpt lat="49.03856" lon="1.14431">
        <ele>129.3</ele>
        <time>2016-12-11T07:49:22Z</time>
      </trkpt>
      <trkpt lat="49.03864" lon="1.14418">
        <ele>129.4</ele>
        <time>2016-12-11T07:49:26Z</time>
      </trkpt>
      <trkpt lat="49.03872" lon="1.14405">
        <ele>129.5</ele>
        <time>2016-12-11T07:49:30Z</time>
      </trkpt>
      <trkpt lat="49.03877" lon="1.14393">
        <ele>129.6</ele>
        <time>2016-12-11T07:49:32Z</time>
      </trkpt>
      <trkpt lat="49.03882" lon="1.14377">
        <ele>129.8</ele>
        <time>2016-12-11T07:49:35Z</time>
      </trkpt>
      <trkpt lat="49.03884" lon="1.14361">
        <ele>129.9</ele>
        <time>2016-12-11T07:49:38Z</time>
      </trkpt>
      <trkpt lat="49.03888" lon="1.14345">
        <ele>130</ele>
        <time>2016-12-11T07:49:41Z</time>
      </trkpt>
      <trkpt lat="49.03889" lon="1.14327">
        <ele>130.2</ele>
        <time>2016-12-11T07:49:45Z</time>
      </trkpt>
      <trkpt lat="49.03888" lon="1.14309">
        <ele>130.2</ele>
        <time>2016-12-11T07:49:48Z</time>
      </trkpt>
      <trkpt lat="49.03882" lon="1.14292">
        <ele>130.4</ele>
        <time>2016-12-11T07:49:51Z</time>
      </trkpt>
      <trkpt lat="49.03878" lon="1.14279">
        <ele>130.4</ele>
        <time>2016-12-11T07:49:53Z</time>
      </trkpt>
      <trkpt lat="49.03879" lon="1.14265">
        <ele>130.5</ele>
        <time>2016-12-11T07:49:55Z</time>
      </trkpt>
      <trkpt lat="49.03883" lon="1.14242">
        <ele>130.7</ele>
        <time>2016-12-11T07:49:58Z</time>
      </trkpt>
      <trkpt lat="49.03889" lon="1.14226">
        <ele>130.8</ele>
        <time>2016-12-11T07:50:01Z</time>
      </trkpt>
      <trkpt lat="49.03897" lon="1.14216">
        <ele>130.9</ele>
        <time>2016-12-11T07:50:03Z</time>
      </trkpt>
      <trkpt lat="49.03903" lon="1.14207">
        <ele>131</ele>
        <time>2016-12-11T07:50:05Z</time>
      </trkpt>
      <trkpt lat="49.03912" lon="1.14197">
        <ele>131.1</ele>
        <time>2016-12-11T07:50:08Z</time>
      </trkpt>
      <trkpt lat="49.03921" lon="1.14191">
        <ele>131.2</ele>
        <time>2016-12-11T07:50:10Z</time>
      </trkpt>
      <trkpt lat="49.03929" lon="1.14186">
        <ele>131.2</ele>
        <time>2016-12-11T07:50:13Z</time>
      </trkpt>
      <trkpt lat="49.03937" lon="1.14178">
        <ele>131.3</ele>
        <time>2016-12-11T07:50:15Z</time>
      </trkpt>
      <trkpt lat="49.03945" lon="1.14168">
        <ele>131.3</ele>
        <time>2016-12-11T07:50:17Z</time>
      </trkpt>
      <trkpt lat="49.03952" lon="1.14157">
        <ele>131.4</ele>
        <time>2016-12-11T07:50:19Z</time>
      </trkpt>
      <trkpt lat="49.03959" lon="1.14147">
        <ele>131.5</ele>
        <time>2016-12-11T07:50:21Z</time>
      </trkpt>
      <trkpt lat="49.03965" lon="1.14134">
        <ele>131.7</ele>
        <time>2016-12-11T07:50:24Z</time>
      </trkpt>
      <trkpt lat="49.0397" lon="1.14116">
        <ele>131.9</ele>
        <time>2016-12-11T07:50:27Z</time>
      </trkpt>
      <trkpt lat="49.03979" lon="1.14106">
        <ele>132</ele>
        <time>2016-12-11T07:50:30Z</time>
      </trkpt>
      <trkpt lat="49.03986" lon="1.14096">
        <ele>132</ele>
        <time>2016-12-11T07:50:32Z</time>
      </trkpt>
      <trkpt lat="49.0399" lon="1.14084">
        <ele>132.1</ele>
        <time>2016-12-11T07:50:34Z</time>
      </trkpt>
      <trkpt lat="49.0399" lon="1.14067">
        <ele>132.1</ele>
        <time>2016-12-11T07:50:36Z</time>
      </trkpt>
      <trkpt lat="49.03989" lon="1.14053">
        <ele>132.2</ele>
        <time>2016-12-11T07:50:38Z</time>
      </trkpt>
      <trkpt lat="49.03996" lon="1.14036">
        <ele>132.3</ele>
        <time>2016-12-11T07:50:41Z</time>
      </trkpt>
      <trkpt lat="49.04001" lon="1.14024">
        <ele>132.3</ele>
        <time>2016-12-11T07:50:43Z</time>
      </trkpt>
      <trkpt lat="49.04006" lon="1.1401">
        <ele>132.3</ele>
        <time>2016-12-11T07:50:45Z</time>
      </trkpt>
      <trkpt lat="49.04009" lon="1.13995">
        <ele>132.4</ele>
        <time>2016-12-11T07:50:47Z</time>
      </trkpt>
      <trkpt lat="49.04013" lon="1.13981">
        <ele>132.4</ele>
        <time>2016-12-11T07:50:49Z</time>
      </trkpt>
      <trkpt lat="49.04015" lon="1.13964">
        <ele>132.4</ele>
        <time>2016-12-11T07:50:51Z</time>
      </trkpt>
      <trkpt lat="49.04013" lon="1.13947">
        <ele>132.5</ele>
        <time>2016-12-11T07:50:53Z</time>
      </trkpt>
      <trkpt lat="49.04006" lon="1.13935">
        <ele>132.5</ele>
        <time>2016-12-11T07:50:55Z</time>
      </trkpt>
      <trkpt lat="49.03996" lon="1.13925">
        <ele>132.6</ele>
        <time>2016-12-11T07:50:57Z</time>
      </trkpt>
      <trkpt lat="49.03985" lon="1.13917">
        <ele>132.7</ele>
        <time>2016-12-11T07:50:59Z</time>
      </trkpt>
      <trkpt lat="49.03976" lon="1.13908">
        <ele>132.7</ele>
        <time>2016-12-11T07:51:01Z</time>
      </trkpt>
      <trkpt lat="49.03968" lon="1.13899">
        <ele>132.8</ele>
        <time>2016-12-11T07:51:03Z</time>
      </trkpt>
      <trkpt lat="49.0396" lon="1.13889">
        <ele>132.8</ele>
        <time>2016-12-11T07:51:05Z</time>
      </trkpt>
      <trkpt lat="49.03951" lon="1.13879">
        <ele>132.8</ele>
        <time>2016-12-11T07:51:07Z</time>
      </trkpt>
      <trkpt lat="49.03942" lon="1.13872">
        <ele>132.9</ele>
        <time>2016-12-11T07:51:09Z</time>
      </trkpt>
      <trkpt lat="49.03934" lon="1.13864">
        <ele>132.9</ele>
        <time>2016-12-11T07:51:11Z</time>
      </trkpt>
      <trkpt lat="49.03926" lon="1.13856">
        <ele>132.9</ele>
        <time>2016-12-11T07:51:13Z</time>
      </trkpt>
      <trkpt lat="49.03917" lon="1.13849">
        <ele>133</ele>
        <time>2016-12-11T07:51:15Z</time>
      </trkpt>
      <trkpt lat="49.03906" lon="1.1384">
        <ele>133</ele>
        <time>2016-12-11T07:51:18Z</time>
      </trkpt>
      <trkpt lat="49.03898" lon="1.13831">
        <ele>133.1</ele>
        <time>2016-12-11T07:51:20Z</time>
      </trkpt>
      <trkpt lat="49.0389" lon="1.13823">
        <ele>133.1</ele>
        <time>2016-12-11T07:51:22Z</time>
      </trkpt>
      <trkpt lat="49.03881" lon="1.13815">
        <ele>133.2</ele>
        <time>2016-12-11T07:51:24Z</time>
      </trkpt>
      <trkpt lat="49.03871" lon="1.13807">
        <ele>133.2</ele>
        <time>2016-12-11T07:51:26Z</time>
      </trkpt>
      <trkpt lat="49.03861" lon="1.13798">
        <ele>133.3</ele>
        <time>2016-12-11T07:51:28Z</time>
      </trkpt>
      <trkpt lat="49.03851" lon="1.1379">
        <ele>133.3</ele>
        <time>2016-12-11T07:51:30Z</time>
      </trkpt>
      <trkpt lat="49.0384" lon="1.13781">
        <ele>133.3</ele>
        <time>2016-12-11T07:51:32Z</time>
      </trkpt>
      <trkpt lat="49.03829" lon="1.13772">
        <ele>133.3</ele>
        <time>2016-12-11T07:51:34Z</time>
      </trkpt>
      <trkpt lat="49.03818" lon="1.13764">
        <ele>133.4</ele>
        <time>2016-12-11T07:51:36Z</time>
      </trkpt>
      <trkpt lat="49.03808" lon="1.13756">
        <ele>133.4</ele>
        <time>2016-12-11T07:51:38Z</time>
      </trkpt>
      <trkpt lat="49.03796" lon="1.13748">
        <ele>133.4</ele>
        <time>2016-12-11T07:51:40Z</time>
      </trkpt>
      <trkpt lat="49.03785" lon="1.1374">
        <ele>133.4</ele>
        <time>2016-12-11T07:51:42Z</time>
      </trkpt>
      <trkpt lat="49.03774" lon="1.13732">
        <ele>133.2</ele>
        <time>2016-12-11T07:51:44Z</time>
      </trkpt>
      <trkpt lat="49.03763" lon="1.13724">
        <ele>133.1</ele>
        <time>2016-12-11T07:51:46Z</time>
      </trkpt>
      <trkpt lat="49.03751" lon="1.13715">
        <ele>133</ele>
        <time>2016-12-11T07:51:48Z</time>
      </trkpt>
      <trkpt lat="49.03739" lon="1.13706">
        <ele>132.9</ele>
        <time>2016-12-11T07:51:50Z</time>
      </trkpt>
      <trkpt lat="49.03727" lon="1.13697">
        <ele>132.8</ele>
        <time>2016-12-11T07:51:52Z</time>
      </trkpt>
      <trkpt lat="49.03715" lon="1.13691">
        <ele>132.7</ele>
        <time>2016-12-11T07:51:54Z</time>
      </trkpt>
      <trkpt lat="49.03705" lon="1.13693">
        <ele>132.6</ele>
        <time>2016-12-11T07:51:56Z</time>
      </trkpt>
      <trkpt lat="49.03697" lon="1.13701">
        <ele>132.4</ele>
        <time>2016-12-11T07:51:58Z</time>
      </trkpt>
      <trkpt lat="49.03693" lon="1.13715">
        <ele>132.3</ele>
        <time>2016-12-11T07:52:00Z</time>
      </trkpt>
      <trkpt lat="49.0369" lon="1.1373">
        <ele>132.2</ele>
        <time>2016-12-11T07:52:02Z</time>
      </trkpt>
      <trkpt lat="49.03687" lon="1.13746">
        <ele>132.2</ele>
        <time>2016-12-11T07:52:04Z</time>
      </trkpt>
      <trkpt lat="49.03684" lon="1.13762">
        <ele>132.1</ele>
        <time>2016-12-11T07:52:06Z</time>
      </trkpt>
      <trkpt lat="49.03682" lon="1.13778">
        <ele>132</ele>
        <time>2016-12-11T07:52:08Z</time>
      </trkpt>
      <trkpt lat="49.03679" lon="1.13793">
        <ele>132</ele>
        <time>2016-12-11T07:52:10Z</time>
      </trkpt>
      <trkpt lat="49.03669" lon="1.13806">
        <ele>131.9</ele>
        <time>2016-12-11T07:52:13Z</time>
      </trkpt>
      <trkpt lat="49.03661" lon="1.1381">
        <ele>131.9</ele>
        <time>2016-12-11T07:52:15Z</time>
      </trkpt>
      <trkpt lat="49.03651" lon="1.13815">
        <ele>131.9</ele>
        <time>2016-12-11T07:52:17Z</time>
      </trkpt>
      <trkpt lat="49.03641" lon="1.13821">
        <ele>131.8</ele>
        <time>2016-12-11T07:52:19Z</time>
      </trkpt>
      <trkpt lat="49.03631" lon="1.13827">
        <ele>131.8</ele>
        <time>2016-12-11T07:52:21Z</time>
      </trkpt>
      <trkpt lat="49.03621" lon="1.13835">
        <ele>131.8</ele>
        <time>2016-12-11T07:52:23Z</time>
      </trkpt>
      <trkpt lat="49.03611" lon="1.13842">
        <ele>131.8</ele>
        <time>2016-12-11T07:52:25Z</time>
      </trkpt>
      <trkpt lat="49.03602" lon="1.1385">
        <ele>131.8</ele>
        <time>2016-12-11T07:52:27Z</time>
      </trkpt>
      <trkpt lat="49.03592" lon="1.13857">
        <ele>131.8</ele>
        <time>2016-12-11T07:52:29Z</time>
      </trkpt>
      <trkpt lat="49.03582" lon="1.13865">
        <ele>131.8</ele>
        <time>2016-12-11T07:52:31Z</time>
      </trkpt>
      <trkpt lat="49.03573" lon="1.13873">
        <ele>131.7</ele>
        <time>2016-12-11T07:52:33Z</time>
      </trkpt>
      <trkpt lat="49.03563" lon="1.13881">
        <ele>131.7</ele>
        <time>2016-12-11T07:52:35Z</time>
      </trkpt>
      <trkpt lat="49.03554" lon="1.13891">
        <ele>131.7</ele>
        <time>2016-12-11T07:52:37Z</time>
      </trkpt>
      <trkpt lat="49.03544" lon="1.13902">
        <ele>131.7</ele>
        <time>2016-12-11T07:52:39Z</time>
      </trkpt>
      <trkpt lat="49.03535" lon="1.13913">
        <ele>131.6</ele>
        <time>2016-12-11T07:52:41Z</time>
      </trkpt>
      <trkpt lat="49.03527" lon="1.13926">
        <ele>131.6</ele>
        <time>2016-12-11T07:52:43Z</time>
      </trkpt>
      <trkpt lat="49.0352" lon="1.13939">
        <ele>131.6</ele>
        <time>2016-12-11T07:52:45Z</time>
      </trkpt>
      <trkpt lat="49.03514" lon="1.13954">
        <ele>131.6</ele>
        <time>2016-12-11T07:52:47Z</time>
      </trkpt>
      <trkpt lat="49.03508" lon="1.1397">
        <ele>131.6</ele>
        <time>2016-12-11T07:52:49Z</time>
      </trkpt>
      <trkpt lat="49.03502" lon="1.13985">
        <ele>131.6</ele>
        <time>2016-12-11T07:52:51Z</time>
      </trkpt>
      <trkpt lat="49.03497" lon="1.14001">
        <ele>131.6</ele>
        <time>2016-12-11T07:52:53Z</time>
      </trkpt>
      <trkpt lat="49.03494" lon="1.14017">
        <ele>131.6</ele>
        <time>2016-12-11T07:52:55Z</time>
      </trkpt>
      <trkpt lat="49.03491" lon="1.14033">
        <ele>131.6</ele>
        <time>2016-12-11T07:52:57Z</time>
      </trkpt>
      <trkpt lat="49.03489" lon="1.1405">
        <ele>131.6</ele>
        <time>2016-12-11T07:52:59Z</time>
      </trkpt>
      <trkpt lat="49.03487" lon="1.14067">
        <ele>131.6</ele>
        <time>2016-12-11T07:53:01Z</time>
      </trkpt>
      <trkpt lat="49.03486" lon="1.14085">
        <ele>131.5</ele>
        <time>2016-12-11T07:53:03Z</time>
      </trkpt>
      <trkpt lat="49.03486" lon="1.14103">
        <ele>131.5</ele>
        <time>2016-12-11T07:53:05Z</time>
      </trkpt>
      <trkpt lat="49.03487" lon="1.14122">
        <ele>131.5</ele>
        <time>2016-12-11T07:53:07Z</time>
      </trkpt>
      <trkpt lat="49.03488" lon="1.1414">
        <ele>131.5</ele>
        <time>2016-12-11T07:53:09Z</time>
      </trkpt>
      <trkpt lat="49.0349" lon="1.14159">
        <ele>131.5</ele>
        <time>2016-12-11T07:53:11Z</time>
      </trkpt>
      <trkpt lat="49.03493" lon="1.14178">
        <ele>131.4</ele>
        <time>2016-12-11T07:53:13Z</time>
      </trkpt>
      <trkpt lat="49.03495" lon="1.14197">
        <ele>131.4</ele>
        <time>2016-12-11T07:53:15Z</time>
      </trkpt>
      <trkpt lat="49.03498" lon="1.14216">
        <ele>131.3</ele>
        <time>2016-12-11T07:53:17Z</time>
      </trkpt>
      <trkpt lat="49.03501" lon="1.14234">
        <ele>131.2</ele>
        <time>2016-12-11T07:53:19Z</time>
      </trkpt>
      <trkpt lat="49.03505" lon="1.14252">
        <ele>131.1</ele>
        <time>2016-12-11T07:53:21Z</time>
      </trkpt>
      <trkpt lat="49.03507" lon="1.14269">
        <ele>131</ele>
        <time>2016-12-11T07:53:23Z</time>
      </trkpt>
      <trkpt lat="49.0351" lon="1.14286">
        <ele>130.9</ele>
        <time>2016-12-11T07:53:25Z</time>
      </trkpt>
      <trkpt lat="49.03512" lon="1.14305">
        <ele>130.8</ele>
        <time>2016-12-11T07:53:27Z</time>
      </trkpt>
      <trkpt lat="49.03514" lon="1.14325">
        <ele>130.7</ele>
        <time>2016-12-11T07:53:29Z</time>
      </trkpt>
      <trkpt lat="49.03516" lon="1.14345">
        <ele>130.5</ele>
        <time>2016-12-11T07:53:31Z</time>
      </trkpt>
      <trkpt lat="49.03519" lon="1.14366">
        <ele>130.3</ele>
        <time>2016-12-11T07:53:33Z</time>
      </trkpt>
      <trkpt lat="49.03521" lon="1.14387">
        <ele>130</ele>
        <time>2016-12-11T07:53:35Z</time>
      </trkpt>
      <trkpt lat="49.03524" lon="1.14408">
        <ele>129.7</ele>
        <time>2016-12-11T07:53:37Z</time>
      </trkpt>
      <trkpt lat="49.03527" lon="1.14428">
        <ele>129.5</ele>
        <time>2016-12-11T07:53:39Z</time>
      </trkpt>
      <trkpt lat="49.03528" lon="1.14448">
        <ele>129.2</ele>
        <time>2016-12-11T07:53:41Z</time>
      </trkpt>
      <trkpt lat="49.03526" lon="1.14467">
        <ele>128.9</ele>
        <time>2016-12-11T07:53:43Z</time>
      </trkpt>
      <trkpt lat="49.03518" lon="1.14483">
        <ele>128.6</ele>
        <time>2016-12-11T07:53:45Z</time>
      </trkpt>
      <trkpt lat="49.03505" lon="1.14489">
        <ele>128.3</ele>
        <time>2016-12-11T07:53:47Z</time>
      </trkpt>
      <trkpt lat="49.03491" lon="1.14489">
        <ele>127.9</ele>
        <time>2016-12-11T07:53:49Z</time>
      </trkpt>
      <trkpt lat="49.03475" lon="1.14488">
        <ele>127.5</ele>
        <time>2016-12-11T07:53:51Z</time>
      </trkpt>
      <trkpt lat="49.03458" lon="1.14483">
        <ele>127.1</ele>
        <time>2016-12-11T07:53:53Z</time>
      </trkpt>
      <trkpt lat="49.03441" lon="1.14477">
        <ele>126.5</ele>
        <time>2016-12-11T07:53:55Z</time>
      </trkpt>
      <trkpt lat="49.03424" lon="1.1447">
        <ele>125.9</ele>
        <time>2016-12-11T07:53:57Z</time>
      </trkpt>
      <trkpt lat="49.03406" lon="1.14464">
        <ele>125.3</ele>
        <time>2016-12-11T07:53:59Z</time>
      </trkpt>
      <trkpt lat="49.03398" lon="1.14461">
        <ele>124.9</ele>
        <time>2016-12-11T07:54:00Z</time>
      </trkpt>
      <trkpt lat="49.03389" lon="1.14458">
        <ele>124.6</ele>
        <time>2016-12-11T07:54:01Z</time>
      </trkpt>
      <trkpt lat="49.0338" lon="1.14456">
        <ele>124.2</ele>
        <time>2016-12-11T07:54:02Z</time>
      </trkpt>
      <trkpt lat="49.0337" lon="1.14454">
        <ele>123.8</ele>
        <time>2016-12-11T07:54:03Z</time>
      </trkpt>
      <trkpt lat="49.03361" lon="1.14454">
        <ele>123.4</ele>
        <time>2016-12-11T07:54:04Z</time>
      </trkpt>
      <trkpt lat="49.03352" lon="1.14455">
        <ele>123</ele>
        <time>2016-12-11T07:54:05Z</time>
      </trkpt>
      <trkpt lat="49.03342" lon="1.14457">
        <ele>122.5</ele>
        <time>2016-12-11T07:54:06Z</time>
      </trkpt>
      <trkpt lat="49.03333" lon="1.1446">
        <ele>122</ele>
        <time>2016-12-11T07:54:07Z</time>
      </trkpt>
      <trkpt lat="49.03323" lon="1.14462">
        <ele>121.5</ele>
        <time>2016-12-11T07:54:08Z</time>
      </trkpt>
      <trkpt lat="49.03314" lon="1.14465">
        <ele>121</ele>
        <time>2016-12-11T07:54:09Z</time>
      </trkpt>
      <trkpt lat="49.03297" lon="1.1447">
        <ele>120</ele>
        <time>2016-12-11T07:54:11Z</time>
      </trkpt>
      <trkpt lat="49.03285" lon="1.14474">
        <ele>118.9</ele>
        <time>2016-12-11T07:54:13Z</time>
      </trkpt>
      <trkpt lat="49.03275" lon="1.14484">
        <ele>117.4</ele>
        <time>2016-12-11T07:54:16Z</time>
      </trkpt>
      <trkpt lat="49.03276" lon="1.14498">
        <ele>116.6</ele>
        <time>2016-12-11T07:54:18Z</time>
      </trkpt>
      <trkpt lat="49.03281" lon="1.14513">
        <ele>115.7</ele>
        <time>2016-12-11T07:54:20Z</time>
      </trkpt>
      <trkpt lat="49.03288" lon="1.14529">
        <ele>114.9</ele>
        <time>2016-12-11T07:54:22Z</time>
      </trkpt>
      <trkpt lat="49.03296" lon="1.14545">
        <ele>114.1</ele>
        <time>2016-12-11T07:54:24Z</time>
      </trkpt>
      <trkpt lat="49.03304" lon="1.14562">
        <ele>113.4</ele>
        <time>2016-12-11T07:54:26Z</time>
      </trkpt>
      <trkpt lat="49.03313" lon="1.1458">
        <ele>112.7</ele>
        <time>2016-12-11T07:54:28Z</time>
      </trkpt>
      <trkpt lat="49.03324" lon="1.14598">
        <ele>112</ele>
        <time>2016-12-11T07:54:30Z</time>
      </trkpt>
      <trkpt lat="49.03334" lon="1.14618">
        <ele>111.4</ele>
        <time>2016-12-11T07:54:32Z</time>
      </trkpt>
      <trkpt lat="49.03346" lon="1.14638">
        <ele>110.7</ele>
        <time>2016-12-11T07:54:34Z</time>
      </trkpt>
      <trkpt lat="49.03358" lon="1.14657">
        <ele>110</ele>
        <time>2016-12-11T07:54:36Z</time>
      </trkpt>
      <trkpt lat="49.0337" lon="1.14675">
        <ele>109.3</ele>
        <time>2016-12-11T07:54:38Z</time>
      </trkpt>
      <trkpt lat="49.03383" lon="1.14694">
        <ele>108.5</ele>
        <time>2016-12-11T07:54:40Z</time>
      </trkpt>
      <trkpt lat="49.03395" lon="1.14713">
        <ele>107.7</ele>
        <time>2016-12-11T07:54:42Z</time>
      </trkpt>
      <trkpt lat="49.03406" lon="1.14732">
        <ele>106.8</ele>
        <time>2016-12-11T07:54:44Z</time>
      </trkpt>
      <trkpt lat="49.03417" lon="1.14753">
        <ele>106</ele>
        <time>2016-12-11T07:54:46Z</time>
      </trkpt>
      <trkpt lat="49.03427" lon="1.14775">
        <ele>105.1</ele>
        <time>2016-12-11T07:54:48Z</time>
      </trkpt>
      <trkpt lat="49.03434" lon="1.14799">
        <ele>104.3</ele>
        <time>2016-12-11T07:54:50Z</time>
      </trkpt>
      <trkpt lat="49.03438" lon="1.14825">
        <ele>103.4</ele>
        <time>2016-12-11T07:54:52Z</time>
      </trkpt>
      <trkpt lat="49.03441" lon="1.14851">
        <ele>102.5</ele>
        <time>2016-12-11T07:54:54Z</time>
      </trkpt>
      <trkpt lat="49.0344" lon="1.14878">
        <ele>101.6</ele>
        <time>2016-12-11T07:54:56Z</time>
      </trkpt>
      <trkpt lat="49.03438" lon="1.14892">
        <ele>101.1</ele>
        <time>2016-12-11T07:54:57Z</time>
      </trkpt>
      <trkpt lat="49.03436" lon="1.14905">
        <ele>100.7</ele>
        <time>2016-12-11T07:54:58Z</time>
      </trkpt>
      <trkpt lat="49.03432" lon="1.14932">
        <ele>99.6</ele>
        <time>2016-12-11T07:55:00Z</time>
      </trkpt>
      <trkpt lat="49.03427" lon="1.14958">
        <ele>98.4</ele>
        <time>2016-12-11T07:55:02Z</time>
      </trkpt>
      <trkpt lat="49.03425" lon="1.14972">
        <ele>97.9</ele>
        <time>2016-12-11T07:55:03Z</time>
      </trkpt>
      <trkpt lat="49.03422" lon="1.14985">
        <ele>97.3</ele>
        <time>2016-12-11T07:55:04Z</time>
      </trkpt>
      <trkpt lat="49.03419" lon="1.1501">
        <ele>96.3</ele>
        <time>2016-12-11T07:55:06Z</time>
      </trkpt>
      <trkpt lat="49.03414" lon="1.15025">
        <ele>95</ele>
        <time>2016-12-11T07:55:08Z</time>
      </trkpt>
      <trkpt lat="49.03406" lon="1.15028">
        <ele>93.3</ele>
        <time>2016-12-11T07:55:11Z</time>
      </trkpt>
      <trkpt lat="49.03397" lon="1.15033">
        <ele>91.1</ele>
        <time>2016-12-11T07:55:16Z</time>
      </trkpt>
      <trkpt lat="49.03389" lon="1.15041">
        <ele>90.2</ele>
        <time>2016-12-11T07:55:19Z</time>
      </trkpt>
      <trkpt lat="49.0338" lon="1.15049">
        <ele>89.5</ele>
        <time>2016-12-11T07:55:23Z</time>
      </trkpt>
      <trkpt lat="49.03371" lon="1.15061">
        <ele>89.1</ele>
        <time>2016-12-11T07:55:27Z</time>
      </trkpt>
      <trkpt lat="49.03363" lon="1.15073">
        <ele>89.1</ele>
        <time>2016-12-11T07:55:31Z</time>
      </trkpt>
      <trkpt lat="49.03356" lon="1.15088">
        <ele>89.2</ele>
        <time>2016-12-11T07:55:35Z</time>
      </trkpt>
      <trkpt lat="49.03353" lon="1.15102">
        <ele>89.4</ele>
        <time>2016-12-11T07:55:38Z</time>
      </trkpt>
      <trkpt lat="49.03351" lon="1.15117">
        <ele>89.9</ele>
        <time>2016-12-11T07:55:41Z</time>
      </trkpt>
      <trkpt lat="49.0335" lon="1.15133">
        <ele>90.3</ele>
        <time>2016-12-11T07:55:44Z</time>
      </trkpt>
      <trkpt lat="49.0335" lon="1.15152">
        <ele>90.8</ele>
        <time>2016-12-11T07:55:47Z</time>
      </trkpt>
      <trkpt lat="49.0335" lon="1.15167">
        <ele>91</ele>
        <time>2016-12-11T07:55:49Z</time>
      </trkpt>
      <trkpt lat="49.03349" lon="1.15182">
        <ele>91.1</ele>
        <time>2016-12-11T07:55:51Z</time>
      </trkpt>
      <trkpt lat="49.03342" lon="1.15198">
        <ele>91.3</ele>
        <time>2016-12-11T07:55:54Z</time>
      </trkpt>
      <trkpt lat="49.03333" lon="1.15203">
        <ele>91.4</ele>
        <time>2016-12-11T07:55:56Z</time>
      </trkpt>
      <trkpt lat="49.03324" lon="1.152">
        <ele>91.6</ele>
        <time>2016-12-11T07:55:58Z</time>
      </trkpt>
      <trkpt lat="49.03316" lon="1.15193">
        <ele>91.7</ele>
        <time>2016-12-11T07:56:00Z</time>
      </trkpt>
      <trkpt lat="49.03307" lon="1.1518">
        <ele>91.7</ele>
        <time>2016-12-11T07:56:03Z</time>
      </trkpt>
      <trkpt lat="49.03302" lon="1.15166">
        <ele>91.8</ele>
        <time>2016-12-11T07:56:06Z</time>
      </trkpt>
      <trkpt lat="49.03298" lon="1.15153">
        <ele>92.1</ele>
        <time>2016-12-11T07:56:09Z</time>
      </trkpt>
      <trkpt lat="49.03293" lon="1.15137">
        <ele>92.5</ele>
        <time>2016-12-11T07:56:13Z</time>
      </trkpt>
      <trkpt lat="49.03288" lon="1.15123">
        <ele>93.4</ele>
        <time>2016-12-11T07:56:17Z</time>
      </trkpt>
      <trkpt lat="49.03283" lon="1.15109">
        <ele>94.7</ele>
        <time>2016-12-11T07:56:22Z</time>
      </trkpt>
      <trkpt lat="49.03278" lon="1.15096">
        <ele>95.9</ele>
        <time>2016-12-11T07:56:26Z</time>
      </trkpt>
      <trkpt lat="49.03273" lon="1.15083">
        <ele>96.9</ele>
        <time>2016-12-11T07:56:30Z</time>
      </trkpt>
      <trkpt lat="49.03266" lon="1.15067">
        <ele>97.8</ele>
        <time>2016-12-11T07:56:34Z</time>
      </trkpt>
      <trkpt lat="49.03261" lon="1.15053">
        <ele>98.3</ele>
        <time>2016-12-11T07:56:37Z</time>
      </trkpt>
      <trkpt lat="49.03255" lon="1.15038">
        <ele>98.8</ele>
        <time>2016-12-11T07:56:40Z</time>
      </trkpt>
      <trkpt lat="49.03249" lon="1.15022">
        <ele>99.2</ele>
        <time>2016-12-11T07:56:43Z</time>
      </trkpt>
      <trkpt lat="49.03244" lon="1.15007">
        <ele>99.5</ele>
        <time>2016-12-11T07:56:46Z</time>
      </trkpt>
      <trkpt lat="49.03239" lon="1.14993">
        <ele>99.9</ele>
        <time>2016-12-11T07:56:49Z</time>
      </trkpt>
      <trkpt lat="49.03234" lon="1.1498">
        <ele>100.3</ele>
        <time>2016-12-11T07:56:52Z</time>
      </trkpt>
      <trkpt lat="49.03228" lon="1.14966">
        <ele>100.7</ele>
        <time>2016-12-11T07:56:55Z</time>
      </trkpt>
      <trkpt lat="49.03222" lon="1.14951">
        <ele>101.1</ele>
        <time>2016-12-11T07:56:58Z</time>
      </trkpt>
      <trkpt lat="49.03217" lon="1.14939">
        <ele>101.7</ele>
        <time>2016-12-11T07:57:01Z</time>
      </trkpt>
      <trkpt lat="49.03211" lon="1.14925">
        <ele>102.5</ele>
        <time>2016-12-11T07:57:05Z</time>
      </trkpt>
      <trkpt lat="49.03204" lon="1.1491">
        <ele>103.4</ele>
        <time>2016-12-11T07:57:09Z</time>
      </trkpt>
      <trkpt lat="49.03199" lon="1.14894">
        <ele>104.3</ele>
        <time>2016-12-11T07:57:13Z</time>
      </trkpt>
      <trkpt lat="49.03193" lon="1.14878">
        <ele>105.1</ele>
        <time>2016-12-11T07:57:17Z</time>
      </trkpt>
      <trkpt lat="49.03189" lon="1.14865">
        <ele>105.8</ele>
        <time>2016-12-11T07:57:20Z</time>
      </trkpt>
      <trkpt lat="49.03186" lon="1.14851">
        <ele>106.5</ele>
        <time>2016-12-11T07:57:23Z</time>
      </trkpt>
      <trkpt lat="49.03183" lon="1.14838">
        <ele>107.1</ele>
        <time>2016-12-11T07:57:26Z</time>
      </trkpt>
      <trkpt lat="49.0318" lon="1.14824">
        <ele>107.8</ele>
        <time>2016-12-11T07:57:29Z</time>
      </trkpt>
      <trkpt lat="49.03177" lon="1.14811">
        <ele>108.4</ele>
        <time>2016-12-11T07:57:32Z</time>
      </trkpt>
      <trkpt lat="49.03174" lon="1.14796">
        <ele>109.1</ele>
        <time>2016-12-11T07:57:35Z</time>
      </trkpt>
      <trkpt lat="49.0317" lon="1.14782">
        <ele>109.7</ele>
        <time>2016-12-11T07:57:38Z</time>
      </trkpt>
      <trkpt lat="49.03167" lon="1.14767">
        <ele>110.4</ele>
        <time>2016-12-11T07:57:41Z</time>
      </trkpt>
      <trkpt lat="49.03163" lon="1.14752">
        <ele>111</ele>
        <time>2016-12-11T07:57:44Z</time>
      </trkpt>
      <trkpt lat="49.03157" lon="1.1474">
        <ele>111.3</ele>
        <time>2016-12-11T07:57:46Z</time>
      </trkpt>
      <trkpt lat="49.0315" lon="1.14725">
        <ele>111.6</ele>
        <time>2016-12-11T07:57:48Z</time>
      </trkpt>
      <trkpt lat="49.0314" lon="1.14708">
        <ele>111.5</ele>
        <time>2016-12-11T07:57:50Z</time>
      </trkpt>
      <trkpt lat="49.03129" lon="1.14689">
        <ele>111.3</ele>
        <time>2016-12-11T07:57:52Z</time>
      </trkpt>
      <trkpt lat="49.03118" lon="1.14668">
        <ele>110.8</ele>
        <time>2016-12-11T07:57:54Z</time>
      </trkpt>
      <trkpt lat="49.03107" lon="1.14649">
        <ele>110.1</ele>
        <time>2016-12-11T07:57:56Z</time>
      </trkpt>
      <trkpt lat="49.03099" lon="1.14635">
        <ele>109.3</ele>
        <time>2016-12-11T07:57:58Z</time>
      </trkpt>
      <trkpt lat="49.03092" lon="1.14623">
        <ele>107.9</ele>
        <time>2016-12-11T07:58:01Z</time>
      </trkpt>
      <trkpt lat="49.03085" lon="1.14614">
        <ele>103.1</ele>
        <time>2016-12-11T07:58:12Z</time>
      </trkpt>
      <trkpt lat="49.03081" lon="1.14601">
        <ele>101.2</ele>
        <time>2016-12-11T07:58:19Z</time>
      </trkpt>
      <trkpt lat="49.0308" lon="1.14585">
        <ele>99.9</ele>
        <time>2016-12-11T07:58:28Z</time>
      </trkpt>
      <trkpt lat="49.03079" lon="1.1457">
        <ele>100.1</ele>
        <time>2016-12-11T07:58:38Z</time>
      </trkpt>
      <trkpt lat="49.03081" lon="1.14556">
        <ele>101.4</ele>
        <time>2016-12-11T07:58:49Z</time>
      </trkpt>
      <trkpt lat="49.03084" lon="1.14543">
        <ele>103.2</ele>
        <time>2016-12-11T07:58:59Z</time>
      </trkpt>
      <trkpt lat="49.03089" lon="1.14531">
        <ele>105.6</ele>
        <time>2016-12-11T07:59:10Z</time>
      </trkpt>
      <trkpt lat="49.03095" lon="1.1452">
        <ele>107.7</ele>
        <time>2016-12-11T07:59:19Z</time>
      </trkpt>
      <trkpt lat="49.031" lon="1.14508">
        <ele>110.1</ele>
        <time>2016-12-11T07:59:29Z</time>
      </trkpt>
      <trkpt lat="49.03097" lon="1.14493">
        <ele>114.9</ele>
        <time>2016-12-11T08:01:29Z</time>
      </trkpt>
      <trkpt lat="49.03091" lon="1.1448">
        <ele>114.7</ele>
        <time>2016-12-11T08:01:32Z</time>
      </trkpt>
      <trkpt lat="49.03086" lon="1.14468">
        <ele>114.3</ele>
        <time>2016-12-11T08:01:34Z</time>
      </trkpt>
      <trkpt lat="49.03079" lon="1.14453">
        <ele>113.8</ele>
        <time>2016-12-11T08:01:36Z</time>
      </trkpt>
      <trkpt lat="49.03073" lon="1.14436">
        <ele>113.3</ele>
        <time>2016-12-11T08:01:38Z</time>
      </trkpt>
      <trkpt lat="49.03069" lon="1.14419">
        <ele>112.8</ele>
        <time>2016-12-11T08:01:40Z</time>
      </trkpt>
      <trkpt lat="49.03065" lon="1.14403">
        <ele>112.5</ele>
        <time>2016-12-11T08:01:42Z</time>
      </trkpt>
      <trkpt lat="49.03062" lon="1.14389">
        <ele>112.1</ele>
        <time>2016-12-11T08:01:44Z</time>
      </trkpt>
      <trkpt lat="49.03059" lon="1.14375">
        <ele>111.8</ele>
        <time>2016-12-11T08:01:46Z</time>
      </trkpt>
      <trkpt lat="49.03056" lon="1.14361">
        <ele>111.5</ele>
        <time>2016-12-11T08:01:48Z</time>
      </trkpt>
      <trkpt lat="49.03052" lon="1.14348">
        <ele>111.3</ele>
        <time>2016-12-11T08:01:50Z</time>
      </trkpt>
      <trkpt lat="49.03049" lon="1.14335">
        <ele>111.1</ele>
        <time>2016-12-11T08:01:52Z</time>
      </trkpt>
      <trkpt lat="49.03044" lon="1.14317">
        <ele>110.8</ele>
        <time>2016-12-11T08:01:55Z</time>
      </trkpt>
      <trkpt lat="49.03039" lon="1.14299">
        <ele>110.8</ele>
        <time>2016-12-11T08:01:58Z</time>
      </trkpt>
      <trkpt lat="49.03035" lon="1.14283">
        <ele>111.1</ele>
        <time>2016-12-11T08:02:01Z</time>
      </trkpt>
      <trkpt lat="49.03031" lon="1.14268">
        <ele>111.4</ele>
        <time>2016-12-11T08:02:04Z</time>
      </trkpt>
      <trkpt lat="49.03027" lon="1.14253">
        <ele>111.8</ele>
        <time>2016-12-11T08:02:07Z</time>
      </trkpt>
      <trkpt lat="49.03024" lon="1.14239">
        <ele>112.4</ele>
        <time>2016-12-11T08:02:10Z</time>
      </trkpt>
      <trkpt lat="49.0302" lon="1.14224">
        <ele>112.9</ele>
        <time>2016-12-11T08:02:13Z</time>
      </trkpt>
      <trkpt lat="49.03016" lon="1.14209">
        <ele>113.4</ele>
        <time>2016-12-11T08:02:16Z</time>
      </trkpt>
      <trkpt lat="49.03012" lon="1.14193">
        <ele>113.8</ele>
        <time>2016-12-11T08:02:19Z</time>
      </trkpt>
      <trkpt lat="49.03008" lon="1.14177">
        <ele>114.3</ele>
        <time>2016-12-11T08:02:22Z</time>
      </trkpt>
      <trkpt lat="49.03003" lon="1.14162">
        <ele>114.7</ele>
        <time>2016-12-11T08:02:25Z</time>
      </trkpt>
      <trkpt lat="49.03" lon="1.14147">
        <ele>115.1</ele>
        <time>2016-12-11T08:02:28Z</time>
      </trkpt>
      <trkpt lat="49.02995" lon="1.1413">
        <ele>115.5</ele>
        <time>2016-12-11T08:02:31Z</time>
      </trkpt>
      <trkpt lat="49.0299" lon="1.14114">
        <ele>115.8</ele>
        <time>2016-12-11T08:02:34Z</time>
      </trkpt>
      <trkpt lat="49.02986" lon="1.14099">
        <ele>116.1</ele>
        <time>2016-12-11T08:02:37Z</time>
      </trkpt>
      <trkpt lat="49.02982" lon="1.14084">
        <ele>116.3</ele>
        <time>2016-12-11T08:02:40Z</time>
      </trkpt>
      <trkpt lat="49.02978" lon="1.14072">
        <ele>116.6</ele>
        <time>2016-12-11T08:02:43Z</time>
      </trkpt>
      <trkpt lat="49.02975" lon="1.14058">
        <ele>117</ele>
        <time>2016-12-11T08:02:47Z</time>
      </trkpt>
      <trkpt lat="49.02976" lon="1.14043">
        <ele>117.9</ele>
        <time>2016-12-11T08:02:53Z</time>
      </trkpt>
      <trkpt lat="49.02975" lon="1.14026">
        <ele>119.4</ele>
        <time>2016-12-11T08:03:03Z</time>
      </trkpt>
      <trkpt lat="49.02969" lon="1.14014">
        <ele>119.8</ele>
        <time>2016-12-11T08:03:06Z</time>
      </trkpt>
      <trkpt lat="49.02963" lon="1.13998">
        <ele>120</ele>
        <time>2016-12-11T08:03:09Z</time>
      </trkpt>
      <trkpt lat="49.02955" lon="1.13983">
        <ele>120.3</ele>
        <time>2016-12-11T08:03:12Z</time>
      </trkpt>
      <trkpt lat="49.02951" lon="1.13968">
        <ele>120.6</ele>
        <time>2016-12-11T08:03:15Z</time>
      </trkpt>
      <trkpt lat="49.02948" lon="1.13954">
        <ele>120.8</ele>
        <time>2016-12-11T08:03:17Z</time>
      </trkpt>
      <trkpt lat="49.02944" lon="1.1394">
        <ele>120.9</ele>
        <time>2016-12-11T08:03:19Z</time>
      </trkpt>
      <trkpt lat="49.0294" lon="1.13924">
        <ele>121.1</ele>
        <time>2016-12-11T08:03:21Z</time>
      </trkpt>
      <trkpt lat="49.02937" lon="1.13907">
        <ele>121.2</ele>
        <time>2016-12-11T08:03:23Z</time>
      </trkpt>
      <trkpt lat="49.02934" lon="1.1389">
        <ele>121.3</ele>
        <time>2016-12-11T08:03:25Z</time>
      </trkpt>
      <trkpt lat="49.02933" lon="1.13871">
        <ele>121.3</ele>
        <time>2016-12-11T08:03:27Z</time>
      </trkpt>
      <trkpt lat="49.02931" lon="1.13852">
        <ele>121.4</ele>
        <time>2016-12-11T08:03:29Z</time>
      </trkpt>
      <trkpt lat="49.02931" lon="1.13834">
        <ele>121.4</ele>
        <time>2016-12-11T08:03:31Z</time>
      </trkpt>
      <trkpt lat="49.02933" lon="1.13815">
        <ele>121.4</ele>
        <time>2016-12-11T08:03:33Z</time>
      </trkpt>
      <trkpt lat="49.02935" lon="1.13797">
        <ele>121.4</ele>
        <time>2016-12-11T08:03:35Z</time>
      </trkpt>
      <trkpt lat="49.02938" lon="1.13781">
        <ele>121.5</ele>
        <time>2016-12-11T08:03:37Z</time>
      </trkpt>
      <trkpt lat="49.02942" lon="1.13765">
        <ele>121.5</ele>
        <time>2016-12-11T08:03:39Z</time>
      </trkpt>
      <trkpt lat="49.02945" lon="1.1375">
        <ele>121.5</ele>
        <time>2016-12-11T08:03:41Z</time>
      </trkpt>
      <trkpt lat="49.0295" lon="1.13736">
        <ele>121.5</ele>
        <time>2016-12-11T08:03:43Z</time>
      </trkpt>
      <trkpt lat="49.02955" lon="1.13722">
        <ele>121.5</ele>
        <time>2016-12-11T08:03:45Z</time>
      </trkpt>
      <trkpt lat="49.02961" lon="1.13707">
        <ele>121.4</ele>
        <time>2016-12-11T08:03:47Z</time>
      </trkpt>
      <trkpt lat="49.02969" lon="1.13693">
        <ele>121.4</ele>
        <time>2016-12-11T08:03:49Z</time>
      </trkpt>
      <trkpt lat="49.02977" lon="1.13681">
        <ele>121.4</ele>
        <time>2016-12-11T08:03:51Z</time>
      </trkpt>
      <trkpt lat="49.02986" lon="1.1367">
        <ele>121.3</ele>
        <time>2016-12-11T08:03:53Z</time>
      </trkpt>
      <trkpt lat="49.02994" lon="1.13662">
        <ele>121.3</ele>
        <time>2016-12-11T08:03:55Z</time>
      </trkpt>
      <trkpt lat="49.03005" lon="1.13651">
        <ele>121.6</ele>
        <time>2016-12-11T08:03:58Z</time>
      </trkpt>
      <trkpt lat="49.03015" lon="1.13642">
        <ele>122</ele>
        <time>2016-12-11T08:04:01Z</time>
      </trkpt>
      <trkpt lat="49.03024" lon="1.13632">
        <ele>122.5</ele>
        <time>2016-12-11T08:04:04Z</time>
      </trkpt>
      <trkpt lat="49.0303" lon="1.13619">
        <ele>123.1</ele>
        <time>2016-12-11T08:04:07Z</time>
      </trkpt>
      <trkpt lat="49.03029" lon="1.136">
        <ele>123.6</ele>
        <time>2016-12-11T08:04:10Z</time>
      </trkpt>
      <trkpt lat="49.03028" lon="1.1358">
        <ele>124.1</ele>
        <time>2016-12-11T08:04:13Z</time>
      </trkpt>
      <trkpt lat="49.03028" lon="1.1356">
        <ele>124.6</ele>
        <time>2016-12-11T08:04:16Z</time>
      </trkpt>
      <trkpt lat="49.03024" lon="1.13547">
        <ele>124.9</ele>
        <time>2016-12-11T08:04:18Z</time>
      </trkpt>
      <trkpt lat="49.03016" lon="1.13538">
        <ele>125.2</ele>
        <time>2016-12-11T08:04:20Z</time>
      </trkpt>
      <trkpt lat="49.03007" lon="1.13533">
        <ele>125.4</ele>
        <time>2016-12-11T08:04:22Z</time>
      </trkpt>
      <trkpt lat="49.02996" lon="1.13531">
        <ele>125.6</ele>
        <time>2016-12-11T08:04:24Z</time>
      </trkpt>
      <trkpt lat="49.02985" lon="1.13532">
        <ele>125.8</ele>
        <time>2016-12-11T08:04:26Z</time>
      </trkpt>
      <trkpt lat="49.02974" lon="1.13536">
        <ele>125.9</ele>
        <time>2016-12-11T08:04:28Z</time>
      </trkpt>
      <trkpt lat="49.02963" lon="1.13539">
        <ele>126.1</ele>
        <time>2016-12-11T08:04:30Z</time>
      </trkpt>
      <trkpt lat="49.02952" lon="1.13543">
        <ele>126.2</ele>
        <time>2016-12-11T08:04:32Z</time>
      </trkpt>
      <trkpt lat="49.0294" lon="1.13545">
        <ele>126.3</ele>
        <time>2016-12-11T08:04:34Z</time>
      </trkpt>
      <trkpt lat="49.02929" lon="1.13546">
        <ele>126.3</ele>
        <time>2016-12-11T08:04:36Z</time>
      </trkpt>
      <trkpt lat="49.0292" lon="1.13539">
        <ele>126.3</ele>
        <time>2016-12-11T08:04:38Z</time>
      </trkpt>
      <trkpt lat="49.02912" lon="1.13526">
        <ele>126.3</ele>
        <time>2016-12-11T08:04:40Z</time>
      </trkpt>
      <trkpt lat="49.02905" lon="1.13512">
        <ele>126.3</ele>
        <time>2016-12-11T08:04:42Z</time>
      </trkpt>
      <trkpt lat="49.02896" lon="1.13497">
        <ele>126.3</ele>
        <time>2016-12-11T08:04:44Z</time>
      </trkpt>
      <trkpt lat="49.02887" lon="1.13486">
        <ele>126.4</ele>
        <time>2016-12-11T08:04:46Z</time>
      </trkpt>
      <trkpt lat="49.02876" lon="1.13475">
        <ele>126.4</ele>
        <time>2016-12-11T08:04:48Z</time>
      </trkpt>
      <trkpt lat="49.02865" lon="1.13465">
        <ele>126.4</ele>
        <time>2016-12-11T08:04:50Z</time>
      </trkpt>
      <trkpt lat="49.02854" lon="1.13456">
        <ele>126.4</ele>
        <time>2016-12-11T08:04:52Z</time>
      </trkpt>
      <trkpt lat="49.02844" lon="1.13446">
        <ele>126.4</ele>
        <time>2016-12-11T08:04:54Z</time>
      </trkpt>
      <trkpt lat="49.02835" lon="1.13433">
        <ele>126.5</ele>
        <time>2016-12-11T08:04:56Z</time>
      </trkpt>
      <trkpt lat="49.02828" lon="1.13419">
        <ele>126.4</ele>
        <time>2016-12-11T08:04:58Z</time>
      </trkpt>
      <trkpt lat="49.02827" lon="1.13402">
        <ele>126.4</ele>
        <time>2016-12-11T08:05:00Z</time>
      </trkpt>
      <trkpt lat="49.0283" lon="1.13387">
        <ele>126.4</ele>
        <time>2016-12-11T08:05:02Z</time>
      </trkpt>
      <trkpt lat="49.02838" lon="1.13374">
        <ele>126.4</ele>
        <time>2016-12-11T08:05:04Z</time>
      </trkpt>
      <trkpt lat="49.02846" lon="1.13363">
        <ele>126.4</ele>
        <time>2016-12-11T08:05:06Z</time>
      </trkpt>
      <trkpt lat="49.02854" lon="1.13352">
        <ele>126.4</ele>
        <time>2016-12-11T08:05:08Z</time>
      </trkpt>
      <trkpt lat="49.02863" lon="1.13342">
        <ele>126.4</ele>
        <time>2016-12-11T08:05:10Z</time>
      </trkpt>
      <trkpt lat="49.02872" lon="1.13331">
        <ele>126.4</ele>
        <time>2016-12-11T08:05:12Z</time>
      </trkpt>
      <trkpt lat="49.02881" lon="1.13317">
        <ele>126.4</ele>
        <time>2016-12-11T08:05:14Z</time>
      </trkpt>
      <trkpt lat="49.0289" lon="1.13305">
        <ele>126.4</ele>
        <time>2016-12-11T08:05:16Z</time>
      </trkpt>
      <trkpt lat="49.02898" lon="1.13291">
        <ele>126.4</ele>
        <time>2016-12-11T08:05:18Z</time>
      </trkpt>
      <trkpt lat="49.02902" lon="1.13273">
        <ele>126.4</ele>
        <time>2016-12-11T08:05:20Z</time>
      </trkpt>
      <trkpt lat="49.02904" lon="1.13255">
        <ele>126.4</ele>
        <time>2016-12-11T08:05:22Z</time>
      </trkpt>
      <trkpt lat="49.02904" lon="1.13237">
        <ele>126.4</ele>
        <time>2016-12-11T08:05:24Z</time>
      </trkpt>
      <trkpt lat="49.02904" lon="1.1322">
        <ele>126.4</ele>
        <time>2016-12-11T08:05:26Z</time>
      </trkpt>
      <trkpt lat="49.02903" lon="1.13202">
        <ele>126.4</ele>
        <time>2016-12-11T08:05:28Z</time>
      </trkpt>
      <trkpt lat="49.029" lon="1.13186">
        <ele>126.4</ele>
        <time>2016-12-11T08:05:30Z</time>
      </trkpt>
      <trkpt lat="49.02897" lon="1.13169">
        <ele>126.4</ele>
        <time>2016-12-11T08:05:32Z</time>
      </trkpt>
      <trkpt lat="49.02894" lon="1.13153">
        <ele>126.5</ele>
        <time>2016-12-11T08:05:34Z</time>
      </trkpt>
      <trkpt lat="49.0289" lon="1.13138">
        <ele>126.6</ele>
        <time>2016-12-11T08:05:36Z</time>
      </trkpt>
      <trkpt lat="49.02887" lon="1.13124">
        <ele>126.6</ele>
        <time>2016-12-11T08:05:38Z</time>
      </trkpt>
      <trkpt lat="49.02883" lon="1.13111">
        <ele>126.7</ele>
        <time>2016-12-11T08:05:40Z</time>
      </trkpt>
      <trkpt lat="49.0288" lon="1.13097">
        <ele>126.8</ele>
        <time>2016-12-11T08:05:42Z</time>
      </trkpt>
      <trkpt lat="49.02876" lon="1.13083">
        <ele>126.9</ele>
        <time>2016-12-11T08:05:44Z</time>
      </trkpt>
      <trkpt lat="49.02873" lon="1.13069">
        <ele>127</ele>
        <time>2016-12-11T08:05:46Z</time>
      </trkpt>
      <trkpt lat="49.02867" lon="1.13057">
        <ele>127.1</ele>
        <time>2016-12-11T08:05:48Z</time>
      </trkpt>
      <trkpt lat="49.02858" lon="1.13053">
        <ele>127.3</ele>
        <time>2016-12-11T08:05:50Z</time>
      </trkpt>
      <trkpt lat="49.02847" lon="1.13052">
        <ele>127.4</ele>
        <time>2016-12-11T08:05:52Z</time>
      </trkpt>
      <trkpt lat="49.02836" lon="1.13053">
        <ele>127.5</ele>
        <time>2016-12-11T08:05:54Z</time>
      </trkpt>
      <trkpt lat="49.02826" lon="1.13053">
        <ele>127.6</ele>
        <time>2016-12-11T08:05:56Z</time>
      </trkpt>
      <trkpt lat="49.02816" lon="1.13052">
        <ele>127.8</ele>
        <time>2016-12-11T08:05:58Z</time>
      </trkpt>
      <trkpt lat="49.02807" lon="1.13059">
        <ele>127.9</ele>
        <time>2016-12-11T08:06:00Z</time>
      </trkpt>
      <trkpt lat="49.028" lon="1.13072">
        <ele>128</ele>
        <time>2016-12-11T08:06:02Z</time>
      </trkpt>
      <trkpt lat="49.02794" lon="1.13088">
        <ele>128.1</ele>
        <time>2016-12-11T08:06:04Z</time>
      </trkpt>
      <trkpt lat="49.02795" lon="1.13104">
        <ele>128.1</ele>
        <time>2016-12-11T08:06:06Z</time>
      </trkpt>
      <trkpt lat="49.02797" lon="1.13121">
        <ele>128.2</ele>
        <time>2016-12-11T08:06:08Z</time>
      </trkpt>
      <trkpt lat="49.02796" lon="1.13138">
        <ele>128.2</ele>
        <time>2016-12-11T08:06:10Z</time>
      </trkpt>
      <trkpt lat="49.02788" lon="1.1315">
        <ele>128.2</ele>
        <time>2016-12-11T08:06:12Z</time>
      </trkpt>
      <trkpt lat="49.02777" lon="1.13154">
        <ele>128.1</ele>
        <time>2016-12-11T08:06:14Z</time>
      </trkpt>
      <trkpt lat="49.02764" lon="1.13156">
        <ele>128.1</ele>
        <time>2016-12-11T08:06:16Z</time>
      </trkpt>
      <trkpt lat="49.02753" lon="1.13158">
        <ele>128</ele>
        <time>2016-12-11T08:06:18Z</time>
      </trkpt>
      <trkpt lat="49.02742" lon="1.13161">
        <ele>127.9</ele>
        <time>2016-12-11T08:06:20Z</time>
      </trkpt>
      <trkpt lat="49.02734" lon="1.13171">
        <ele>127.7</ele>
        <time>2016-12-11T08:06:22Z</time>
      </trkpt>
      <trkpt lat="49.02725" lon="1.13182">
        <ele>127.4</ele>
        <time>2016-12-11T08:06:25Z</time>
      </trkpt>
      <trkpt lat="49.02716" lon="1.13185">
        <ele>127.2</ele>
        <time>2016-12-11T08:06:27Z</time>
      </trkpt>
      <trkpt lat="49.02705" lon="1.1319">
        <ele>127</ele>
        <time>2016-12-11T08:06:29Z</time>
      </trkpt>
      <trkpt lat="49.02694" lon="1.13194">
        <ele>126.8</ele>
        <time>2016-12-11T08:06:31Z</time>
      </trkpt>
      <trkpt lat="49.02684" lon="1.13199">
        <ele>126.4</ele>
        <time>2016-12-11T08:06:33Z</time>
      </trkpt>
      <trkpt lat="49.02671" lon="1.13206">
        <ele>125.5</ele>
        <time>2016-12-11T08:06:36Z</time>
      </trkpt>
      <trkpt lat="49.02664" lon="1.13217">
        <ele>123.6</ele>
        <time>2016-12-11T08:06:41Z</time>
      </trkpt>
      <trkpt lat="49.02657" lon="1.13204">
        <ele>121.6</ele>
        <time>2016-12-11T08:06:47Z</time>
      </trkpt>
      <trkpt lat="49.02653" lon="1.13192">
        <ele>121</ele>
        <time>2016-12-11T08:06:49Z</time>
      </trkpt>
      <trkpt lat="49.02647" lon="1.13179">
        <ele>120.4</ele>
        <time>2016-12-11T08:06:51Z</time>
      </trkpt>
      <trkpt lat="49.02642" lon="1.13165">
        <ele>119.8</ele>
        <time>2016-12-11T08:06:53Z</time>
      </trkpt>
      <trkpt lat="49.02635" lon="1.13151">
        <ele>118.7</ele>
        <time>2016-12-11T08:06:56Z</time>
      </trkpt>
      <trkpt lat="49.02629" lon="1.13138">
        <ele>118</ele>
        <time>2016-12-11T08:06:58Z</time>
      </trkpt>
      <trkpt lat="49.0262" lon="1.13125">
        <ele>117</ele>
        <time>2016-12-11T08:07:00Z</time>
      </trkpt>
      <trkpt lat="49.02612" lon="1.13109">
        <ele>115.8</ele>
        <time>2016-12-11T08:07:02Z</time>
      </trkpt>
      <trkpt lat="49.02604" lon="1.13089">
        <ele>114.7</ele>
        <time>2016-12-11T08:07:04Z</time>
      </trkpt>
      <trkpt lat="49.02598" lon="1.13076">
        <ele>113.5</ele>
        <time>2016-12-11T08:07:06Z</time>
      </trkpt>
      <trkpt lat="49.02589" lon="1.13066">
        <ele>112.1</ele>
        <time>2016-12-11T08:07:08Z</time>
      </trkpt>
      <trkpt lat="49.02583" lon="1.13052">
        <ele>110.7</ele>
        <time>2016-12-11T08:07:10Z</time>
      </trkpt>
      <trkpt lat="49.02579" lon="1.13034">
        <ele>109.2</ele>
        <time>2016-12-11T08:07:12Z</time>
      </trkpt>
      <trkpt lat="49.02577" lon="1.13014">
        <ele>107.8</ele>
        <time>2016-12-11T08:07:14Z</time>
      </trkpt>
      <trkpt lat="49.02577" lon="1.12996">
        <ele>106.6</ele>
        <time>2016-12-11T08:07:16Z</time>
      </trkpt>
      <trkpt lat="49.02578" lon="1.12979">
        <ele>105.6</ele>
        <time>2016-12-11T08:07:18Z</time>
      </trkpt>
      <trkpt lat="49.0258" lon="1.12961">
        <ele>104.2</ele>
        <time>2016-12-11T08:07:21Z</time>
      </trkpt>
      <trkpt lat="49.02578" lon="1.12947">
        <ele>103.5</ele>
        <time>2016-12-11T08:07:23Z</time>
      </trkpt>
      <trkpt lat="49.02575" lon="1.12932">
        <ele>102.8</ele>
        <time>2016-12-11T08:07:25Z</time>
      </trkpt>
      <trkpt lat="49.02571" lon="1.12915">
        <ele>102.2</ele>
        <time>2016-12-11T08:07:27Z</time>
      </trkpt>
      <trkpt lat="49.02567" lon="1.12898">
        <ele>101.6</ele>
        <time>2016-12-11T08:07:29Z</time>
      </trkpt>
      <trkpt lat="49.02564" lon="1.12882">
        <ele>101.2</ele>
        <time>2016-12-11T08:07:31Z</time>
      </trkpt>
      <trkpt lat="49.02561" lon="1.12867">
        <ele>100.7</ele>
        <time>2016-12-11T08:07:33Z</time>
      </trkpt>
      <trkpt lat="49.02557" lon="1.12853">
        <ele>100.2</ele>
        <time>2016-12-11T08:07:35Z</time>
      </trkpt>
      <trkpt lat="49.02554" lon="1.12838">
        <ele>99.8</ele>
        <time>2016-12-11T08:07:37Z</time>
      </trkpt>
      <trkpt lat="49.02552" lon="1.12825">
        <ele>99.4</ele>
        <time>2016-12-11T08:07:39Z</time>
      </trkpt>
      <trkpt lat="49.02551" lon="1.1281">
        <ele>99.1</ele>
        <time>2016-12-11T08:07:41Z</time>
      </trkpt>
      <trkpt lat="49.02549" lon="1.12795">
        <ele>98.9</ele>
        <time>2016-12-11T08:07:43Z</time>
      </trkpt>
      <trkpt lat="49.02548" lon="1.1278">
        <ele>98.8</ele>
        <time>2016-12-11T08:07:45Z</time>
      </trkpt>
      <trkpt lat="49.02545" lon="1.12764">
        <ele>98.6</ele>
        <time>2016-12-11T08:07:47Z</time>
      </trkpt>
      <trkpt lat="49.02544" lon="1.1275">
        <ele>98.5</ele>
        <time>2016-12-11T08:07:49Z</time>
      </trkpt>
      <trkpt lat="49.02543" lon="1.1273">
        <ele>98.4</ele>
        <time>2016-12-11T08:07:52Z</time>
      </trkpt>
      <trkpt lat="49.02543" lon="1.12711">
        <ele>98.3</ele>
        <time>2016-12-11T08:07:55Z</time>
      </trkpt>
      <trkpt lat="49.02544" lon="1.12693">
        <ele>98.3</ele>
        <time>2016-12-11T08:07:58Z</time>
      </trkpt>
      <trkpt lat="49.02545" lon="1.12679">
        <ele>98.5</ele>
        <time>2016-12-11T08:08:01Z</time>
      </trkpt>
      <trkpt lat="49.02546" lon="1.12665">
        <ele>99</ele>
        <time>2016-12-11T08:08:04Z</time>
      </trkpt>
      <trkpt lat="49.02547" lon="1.12648">
        <ele>99.6</ele>
        <time>2016-12-11T08:08:08Z</time>
      </trkpt>
      <trkpt lat="49.02548" lon="1.1263">
        <ele>100.5</ele>
        <time>2016-12-11T08:08:12Z</time>
      </trkpt>
      <trkpt lat="49.02551" lon="1.12613">
        <ele>101.6</ele>
        <time>2016-12-11T08:08:16Z</time>
      </trkpt>
      <trkpt lat="49.02555" lon="1.12599">
        <ele>102.8</ele>
        <time>2016-12-11T08:08:20Z</time>
      </trkpt>
      <trkpt lat="49.0256" lon="1.12588">
        <ele>104.1</ele>
        <time>2016-12-11T08:08:24Z</time>
      </trkpt>
      <trkpt lat="49.02565" lon="1.12575">
        <ele>105.6</ele>
        <time>2016-12-11T08:08:28Z</time>
      </trkpt>
      <trkpt lat="49.0257" lon="1.12563">
        <ele>106.9</ele>
        <time>2016-12-11T08:08:32Z</time>
      </trkpt>
      <trkpt lat="49.02578" lon="1.12553">
        <ele>108.4</ele>
        <time>2016-12-11T08:08:37Z</time>
      </trkpt>
      <trkpt lat="49.02587" lon="1.12551">
        <ele>110.3</ele>
        <time>2016-12-11T08:08:44Z</time>
      </trkpt>
      <trkpt lat="49.02598" lon="1.1255">
        <ele>111.1</ele>
        <time>2016-12-11T08:08:48Z</time>
      </trkpt>
      <trkpt lat="49.02612" lon="1.12551">
        <ele>111.5</ele>
        <time>2016-12-11T08:08:51Z</time>
      </trkpt>
      <trkpt lat="49.02621" lon="1.12552">
        <ele>111.7</ele>
        <time>2016-12-11T08:08:54Z</time>
      </trkpt>
      <trkpt lat="49.02633" lon="1.12552">
        <ele>111.8</ele>
        <time>2016-12-11T08:08:57Z</time>
      </trkpt>
      <trkpt lat="49.02642" lon="1.12554">
        <ele>111.9</ele>
        <time>2016-12-11T08:09:00Z</time>
      </trkpt>
      <trkpt lat="49.02654" lon="1.12554">
        <ele>111.9</ele>
        <time>2016-12-11T08:09:03Z</time>
      </trkpt>
      <trkpt lat="49.02665" lon="1.12557">
        <ele>111.9</ele>
        <time>2016-12-11T08:09:07Z</time>
      </trkpt>
      <trkpt lat="49.02672" lon="1.12569">
        <ele>112</ele>
        <time>2016-12-11T08:09:12Z</time>
      </trkpt>
      <trkpt lat="49.02674" lon="1.12582">
        <ele>112.2</ele>
        <time>2016-12-11T08:09:17Z</time>
      </trkpt>
      <trkpt lat="49.02678" lon="1.12597">
        <ele>112.3</ele>
        <time>2016-12-11T08:09:20Z</time>
      </trkpt>
      <trkpt lat="49.02685" lon="1.12609">
        <ele>112.7</ele>
        <time>2016-12-11T08:09:24Z</time>
      </trkpt>
      <trkpt lat="49.0269" lon="1.12619">
        <ele>113.4</ele>
        <time>2016-12-11T08:09:29Z</time>
      </trkpt>
      <trkpt lat="49.02696" lon="1.12632">
        <ele>114</ele>
        <time>2016-12-11T08:09:33Z</time>
      </trkpt>
      <trkpt lat="49.02701" lon="1.12645">
        <ele>114.4</ele>
        <time>2016-12-11T08:09:36Z</time>
      </trkpt>
      <trkpt lat="49.02707" lon="1.12658">
        <ele>115</ele>
        <time>2016-12-11T08:09:40Z</time>
      </trkpt>
      <trkpt lat="49.02713" lon="1.12672">
        <ele>115.6</ele>
        <time>2016-12-11T08:09:44Z</time>
      </trkpt>
      <trkpt lat="49.02719" lon="1.12684">
        <ele>116</ele>
        <time>2016-12-11T08:09:47Z</time>
      </trkpt>
      <trkpt lat="49.02725" lon="1.127">
        <ele>116.6</ele>
        <time>2016-12-11T08:09:52Z</time>
      </trkpt>
      <trkpt lat="49.02733" lon="1.12708">
        <ele>117</ele>
        <time>2016-12-11T08:09:55Z</time>
      </trkpt>
      <trkpt lat="49.0274" lon="1.12719">
        <ele>117.4</ele>
        <time>2016-12-11T08:09:59Z</time>
      </trkpt>
      <trkpt lat="49.02748" lon="1.12731">
        <ele>118.1</ele>
        <time>2016-12-11T08:10:03Z</time>
      </trkpt>
      <trkpt lat="49.02757" lon="1.12742">
        <ele>118.8</ele>
        <time>2016-12-11T08:10:07Z</time>
      </trkpt>
      <trkpt lat="49.02765" lon="1.12751">
        <ele>119.7</ele>
        <time>2016-12-11T08:10:11Z</time>
      </trkpt>
      <trkpt lat="49.02771" lon="1.12766">
        <ele>120.7</ele>
        <time>2016-12-11T08:10:15Z</time>
      </trkpt>
      <trkpt lat="49.02778" lon="1.12776">
        <ele>121.7</ele>
        <time>2016-12-11T08:10:19Z</time>
      </trkpt>
      <trkpt lat="49.02781" lon="1.12792">
        <ele>123.1</ele>
        <time>2016-12-11T08:10:25Z</time>
      </trkpt>
      <trkpt lat="49.02783" lon="1.12806">
        <ele>123.9</ele>
        <time>2016-12-11T08:10:29Z</time>
      </trkpt>
      <trkpt lat="49.02793" lon="1.12812">
        <ele>124.8</ele>
        <time>2016-12-11T08:10:35Z</time>
      </trkpt>
      <trkpt lat="49.02803" lon="1.1282">
        <ele>125.3</ele>
        <time>2016-12-11T08:10:39Z</time>
      </trkpt>
      <trkpt lat="49.02813" lon="1.12827">
        <ele>125.6</ele>
        <time>2016-12-11T08:10:42Z</time>
      </trkpt>
      <trkpt lat="49.02824" lon="1.12835">
        <ele>125.8</ele>
        <time>2016-12-11T08:10:45Z</time>
      </trkpt>
      <trkpt lat="49.02834" lon="1.12845">
        <ele>126</ele>
        <time>2016-12-11T08:10:48Z</time>
      </trkpt>
      <trkpt lat="49.02845" lon="1.12854">
        <ele>126.2</ele>
        <time>2016-12-11T08:10:51Z</time>
      </trkpt>
      <trkpt lat="49.02856" lon="1.12864">
        <ele>126.3</ele>
        <time>2016-12-11T08:10:54Z</time>
      </trkpt>
      <trkpt lat="49.02867" lon="1.12871">
        <ele>126.4</ele>
        <time>2016-12-11T08:10:57Z</time>
      </trkpt>
      <trkpt lat="49.02876" lon="1.12878">
        <ele>126.5</ele>
        <time>2016-12-11T08:11:00Z</time>
      </trkpt>
      <trkpt lat="49.02885" lon="1.12883">
        <ele>126.6</ele>
        <time>2016-12-11T08:11:03Z</time>
      </trkpt>
      <trkpt lat="49.02894" lon="1.12879">
        <ele>126.7</ele>
        <time>2016-12-11T08:11:06Z</time>
      </trkpt>
      <trkpt lat="49.02902" lon="1.1287">
        <ele>126.7</ele>
        <time>2016-12-11T08:11:09Z</time>
      </trkpt>
      <trkpt lat="49.02911" lon="1.12859">
        <ele>126.8</ele>
        <time>2016-12-11T08:11:13Z</time>
      </trkpt>
      <trkpt lat="49.0292" lon="1.12852">
        <ele>126.8</ele>
        <time>2016-12-11T08:11:17Z</time>
      </trkpt>
      <trkpt lat="49.02929" lon="1.12844">
        <ele>126.8</ele>
        <time>2016-12-11T08:11:21Z</time>
      </trkpt>
      <trkpt lat="49.02936" lon="1.12837">
        <ele>126.9</ele>
        <time>2016-12-11T08:11:24Z</time>
      </trkpt>
      <trkpt lat="49.02948" lon="1.12834">
        <ele>126.9</ele>
        <time>2016-12-11T08:11:28Z</time>
      </trkpt>
      <trkpt lat="49.02958" lon="1.12831">
        <ele>126.9</ele>
        <time>2016-12-11T08:11:31Z</time>
      </trkpt>
      <trkpt lat="49.0297" lon="1.12829">
        <ele>127.1</ele>
        <time>2016-12-11T08:11:34Z</time>
      </trkpt>
      <trkpt lat="49.02982" lon="1.12828">
        <ele>127.2</ele>
        <time>2016-12-11T08:11:37Z</time>
      </trkpt>
      <trkpt lat="49.02994" lon="1.12828">
        <ele>127.3</ele>
        <time>2016-12-11T08:11:40Z</time>
      </trkpt>
      <trkpt lat="49.03008" lon="1.12829">
        <ele>127.4</ele>
        <time>2016-12-11T08:11:43Z</time>
      </trkpt>
      <trkpt lat="49.03018" lon="1.12831">
        <ele>127.4</ele>
        <time>2016-12-11T08:11:45Z</time>
      </trkpt>
      <trkpt lat="49.03028" lon="1.12832">
        <ele>127.5</ele>
        <time>2016-12-11T08:11:47Z</time>
      </trkpt>
      <trkpt lat="49.03038" lon="1.12833">
        <ele>127.5</ele>
        <time>2016-12-11T08:11:49Z</time>
      </trkpt>
      <trkpt lat="49.03048" lon="1.12834">
        <ele>127.5</ele>
        <time>2016-12-11T08:11:51Z</time>
      </trkpt>
      <trkpt lat="49.03057" lon="1.12835">
        <ele>127.6</ele>
        <time>2016-12-11T08:11:53Z</time>
      </trkpt>
      <trkpt lat="49.03068" lon="1.12835">
        <ele>127.6</ele>
        <time>2016-12-11T08:11:55Z</time>
      </trkpt>
      <trkpt lat="49.03079" lon="1.12837">
        <ele>127.6</ele>
        <time>2016-12-11T08:11:57Z</time>
      </trkpt>
      <trkpt lat="49.0309" lon="1.12837">
        <ele>127.7</ele>
        <time>2016-12-11T08:11:59Z</time>
      </trkpt>
      <trkpt lat="49.03102" lon="1.12837">
        <ele>127.7</ele>
        <time>2016-12-11T08:12:01Z</time>
      </trkpt>
      <trkpt lat="49.03115" lon="1.12836">
        <ele>127.7</ele>
        <time>2016-12-11T08:12:03Z</time>
      </trkpt>
      <trkpt lat="49.03128" lon="1.12835">
        <ele>127.7</ele>
        <time>2016-12-11T08:12:05Z</time>
      </trkpt>
      <trkpt lat="49.03141" lon="1.12832">
        <ele>127.7</ele>
        <time>2016-12-11T08:12:07Z</time>
      </trkpt>
      <trkpt lat="49.03153" lon="1.12827">
        <ele>127.6</ele>
        <time>2016-12-11T08:12:09Z</time>
      </trkpt>
      <trkpt lat="49.03166" lon="1.12821">
        <ele>127.5</ele>
        <time>2016-12-11T08:12:11Z</time>
      </trkpt>
      <trkpt lat="49.03179" lon="1.12814">
        <ele>127.3</ele>
        <time>2016-12-11T08:12:13Z</time>
      </trkpt>
      <trkpt lat="49.0319" lon="1.12804">
        <ele>127.1</ele>
        <time>2016-12-11T08:12:15Z</time>
      </trkpt>
      <trkpt lat="49.03202" lon="1.12796">
        <ele>127</ele>
        <time>2016-12-11T08:12:17Z</time>
      </trkpt>
      <trkpt lat="49.03215" lon="1.12791">
        <ele>126.9</ele>
        <time>2016-12-11T08:12:19Z</time>
      </trkpt>
      <trkpt lat="49.03226" lon="1.12787">
        <ele>126.7</ele>
        <time>2016-12-11T08:12:21Z</time>
      </trkpt>
      <trkpt lat="49.03236" lon="1.12783">
        <ele>126.7</ele>
        <time>2016-12-11T08:12:23Z</time>
      </trkpt>
      <trkpt lat="49.03246" lon="1.1278">
        <ele>126.6</ele>
        <time>2016-12-11T08:12:25Z</time>
      </trkpt>
      <trkpt lat="49.03256" lon="1.12778">
        <ele>126.6</ele>
        <time>2016-12-11T08:12:27Z</time>
      </trkpt>
      <trkpt lat="49.03267" lon="1.12777">
        <ele>126.6</ele>
        <time>2016-12-11T08:12:29Z</time>
      </trkpt>
      <trkpt lat="49.03277" lon="1.12777">
        <ele>126.6</ele>
        <time>2016-12-11T08:12:31Z</time>
      </trkpt>
      <trkpt lat="49.03287" lon="1.12779">
        <ele>126.7</ele>
        <time>2016-12-11T08:12:33Z</time>
      </trkpt>
      <trkpt lat="49.03297" lon="1.12783">
        <ele>126.8</ele>
        <time>2016-12-11T08:12:35Z</time>
      </trkpt>
      <trkpt lat="49.03307" lon="1.12789">
        <ele>126.8</ele>
        <time>2016-12-11T08:12:37Z</time>
      </trkpt>
      <trkpt lat="49.03316" lon="1.12797">
        <ele>126.9</ele>
        <time>2016-12-11T08:12:39Z</time>
      </trkpt>
      <trkpt lat="49.03324" lon="1.12807">
        <ele>126.9</ele>
        <time>2016-12-11T08:12:41Z</time>
      </trkpt>
      <trkpt lat="49.0333" lon="1.1282">
        <ele>127</ele>
        <time>2016-12-11T08:12:43Z</time>
      </trkpt>
      <trkpt lat="49.03335" lon="1.12834">
        <ele>127.1</ele>
        <time>2016-12-11T08:12:45Z</time>
      </trkpt>
      <trkpt lat="49.03341" lon="1.12848">
        <ele>127.2</ele>
        <time>2016-12-11T08:12:47Z</time>
      </trkpt>
      <trkpt lat="49.03347" lon="1.12862">
        <ele>127.3</ele>
        <time>2016-12-11T08:12:49Z</time>
      </trkpt>
      <trkpt lat="49.03352" lon="1.12876">
        <ele>127.4</ele>
        <time>2016-12-11T08:12:51Z</time>
      </trkpt>
      <trkpt lat="49.03358" lon="1.12891">
        <ele>127.5</ele>
        <time>2016-12-11T08:12:53Z</time>
      </trkpt>
      <trkpt lat="49.03365" lon="1.12905">
        <ele>127.6</ele>
        <time>2016-12-11T08:12:55Z</time>
      </trkpt>
      <trkpt lat="49.03372" lon="1.12918">
        <ele>127.7</ele>
        <time>2016-12-11T08:12:57Z</time>
      </trkpt>
      <trkpt lat="49.03382" lon="1.12924">
        <ele>127.8</ele>
        <time>2016-12-11T08:12:59Z</time>
      </trkpt>
      <trkpt lat="49.03392" lon="1.12924">
        <ele>127.8</ele>
        <time>2016-12-11T08:13:01Z</time>
      </trkpt>
      <trkpt lat="49.03402" lon="1.12918">
        <ele>127.9</ele>
        <time>2016-12-11T08:13:03Z</time>
      </trkpt>
      <trkpt lat="49.03411" lon="1.1291">
        <ele>127.9</ele>
        <time>2016-12-11T08:13:05Z</time>
      </trkpt>
      <trkpt lat="49.0342" lon="1.12901">
        <ele>127.9</ele>
        <time>2016-12-11T08:13:07Z</time>
      </trkpt>
      <trkpt lat="49.03428" lon="1.12892">
        <ele>127.9</ele>
        <time>2016-12-11T08:13:09Z</time>
      </trkpt>
      <trkpt lat="49.03437" lon="1.12881">
        <ele>127.9</ele>
        <time>2016-12-11T08:13:12Z</time>
      </trkpt>
      <trkpt lat="49.03434" lon="1.12866">
        <ele>127.1</ele>
        <time>2016-12-11T08:14:06Z</time>
      </trkpt>
      <trkpt lat="49.03435" lon="1.1285">
        <ele>127</ele>
        <time>2016-12-11T08:14:10Z</time>
      </trkpt>
      <trkpt lat="49.03436" lon="1.12835">
        <ele>127</ele>
        <time>2016-12-11T08:14:13Z</time>
      </trkpt>
      <trkpt lat="49.03436" lon="1.12816">
        <ele>126.7</ele>
        <time>2016-12-11T08:14:16Z</time>
      </trkpt>
      <trkpt lat="49.03437" lon="1.12797">
        <ele>126.5</ele>
        <time>2016-12-11T08:14:19Z</time>
      </trkpt>
      <trkpt lat="49.03444" lon="1.12787">
        <ele>126.4</ele>
        <time>2016-12-11T08:14:21Z</time>
      </trkpt>
      <trkpt lat="49.0345" lon="1.12777">
        <ele>126.3</ele>
        <time>2016-12-11T08:14:23Z</time>
      </trkpt>
      <trkpt lat="49.03457" lon="1.12767">
        <ele>126.1</ele>
        <time>2016-12-11T08:14:25Z</time>
      </trkpt>
      <trkpt lat="49.03464" lon="1.12755">
        <ele>125.8</ele>
        <time>2016-12-11T08:14:27Z</time>
      </trkpt>
      <trkpt lat="49.0347" lon="1.12742">
        <ele>125.6</ele>
        <time>2016-12-11T08:14:29Z</time>
      </trkpt>
      <trkpt lat="49.03477" lon="1.12725">
        <ele>125.4</ele>
        <time>2016-12-11T08:14:31Z</time>
      </trkpt>
      <trkpt lat="49.03484" lon="1.12709">
        <ele>125.2</ele>
        <time>2016-12-11T08:14:33Z</time>
      </trkpt>
      <trkpt lat="49.03492" lon="1.12696">
        <ele>125</ele>
        <time>2016-12-11T08:14:35Z</time>
      </trkpt>
      <trkpt lat="49.035" lon="1.12684">
        <ele>124.8</ele>
        <time>2016-12-11T08:14:37Z</time>
      </trkpt>
      <trkpt lat="49.03509" lon="1.12674">
        <ele>124.6</ele>
        <time>2016-12-11T08:14:39Z</time>
      </trkpt>
      <trkpt lat="49.03516" lon="1.12665">
        <ele>124.5</ele>
        <time>2016-12-11T08:14:41Z</time>
      </trkpt>
      <trkpt lat="49.03524" lon="1.12657">
        <ele>124.4</ele>
        <time>2016-12-11T08:14:43Z</time>
      </trkpt>
      <trkpt lat="49.03534" lon="1.12644">
        <ele>124.2</ele>
        <time>2016-12-11T08:14:46Z</time>
      </trkpt>
      <trkpt lat="49.03543" lon="1.1263">
        <ele>124.2</ele>
        <time>2016-12-11T08:14:48Z</time>
      </trkpt>
      <trkpt lat="49.03552" lon="1.12615">
        <ele>124.1</ele>
        <time>2016-12-11T08:14:50Z</time>
      </trkpt>
      <trkpt lat="49.0356" lon="1.126">
        <ele>124.1</ele>
        <time>2016-12-11T08:14:52Z</time>
      </trkpt>
      <trkpt lat="49.03567" lon="1.12588">
        <ele>124</ele>
        <time>2016-12-11T08:14:54Z</time>
      </trkpt>
      <trkpt lat="49.03579" lon="1.1258">
        <ele>124</ele>
        <time>2016-12-11T08:14:56Z</time>
      </trkpt>
      <trkpt lat="49.0359" lon="1.12574">
        <ele>124</ele>
        <time>2016-12-11T08:14:58Z</time>
      </trkpt>
      <trkpt lat="49.036" lon="1.12567">
        <ele>123.9</ele>
        <time>2016-12-11T08:15:00Z</time>
      </trkpt>
      <trkpt lat="49.03611" lon="1.1256">
        <ele>124</ele>
        <time>2016-12-11T08:15:02Z</time>
      </trkpt>
      <trkpt lat="49.0362" lon="1.12551">
        <ele>124</ele>
        <time>2016-12-11T08:15:04Z</time>
      </trkpt>
      <trkpt lat="49.03631" lon="1.12541">
        <ele>124</ele>
        <time>2016-12-11T08:15:06Z</time>
      </trkpt>
      <trkpt lat="49.0364" lon="1.12526">
        <ele>123.9</ele>
        <time>2016-12-11T08:15:08Z</time>
      </trkpt>
      <trkpt lat="49.03647" lon="1.12512">
        <ele>123.8</ele>
        <time>2016-12-11T08:15:10Z</time>
      </trkpt>
      <trkpt lat="49.03655" lon="1.12498">
        <ele>123.7</ele>
        <time>2016-12-11T08:15:12Z</time>
      </trkpt>
      <trkpt lat="49.03662" lon="1.12481">
        <ele>123.9</ele>
        <time>2016-12-11T08:15:14Z</time>
      </trkpt>
      <trkpt lat="49.0367" lon="1.12466">
        <ele>124</ele>
        <time>2016-12-11T08:15:16Z</time>
      </trkpt>
      <trkpt lat="49.03677" lon="1.12451">
        <ele>124.1</ele>
        <time>2016-12-11T08:15:18Z</time>
      </trkpt>
      <trkpt lat="49.03682" lon="1.12439">
        <ele>124.3</ele>
        <time>2016-12-11T08:15:20Z</time>
      </trkpt>
      <trkpt lat="49.03685" lon="1.12427">
        <ele>124.5</ele>
        <time>2016-12-11T08:15:22Z</time>
      </trkpt>
      <trkpt lat="49.0369" lon="1.12415">
        <ele>124.7</ele>
        <time>2016-12-11T08:15:24Z</time>
      </trkpt>
      <trkpt lat="49.03692" lon="1.124">
        <ele>124.9</ele>
        <time>2016-12-11T08:15:26Z</time>
      </trkpt>
      <trkpt lat="49.03696" lon="1.12386">
        <ele>125.1</ele>
        <time>2016-12-11T08:15:28Z</time>
      </trkpt>
      <trkpt lat="49.03702" lon="1.12368">
        <ele>125.3</ele>
        <time>2016-12-11T08:15:31Z</time>
      </trkpt>
      <trkpt lat="49.03709" lon="1.12351">
        <ele>125.7</ele>
        <time>2016-12-11T08:15:34Z</time>
      </trkpt>
      <trkpt lat="49.03713" lon="1.12336">
        <ele>126.1</ele>
        <time>2016-12-11T08:15:37Z</time>
      </trkpt>
      <trkpt lat="49.03719" lon="1.12323">
        <ele>126.6</ele>
        <time>2016-12-11T08:15:40Z</time>
      </trkpt>
      <trkpt lat="49.03727" lon="1.12318">
        <ele>127.1</ele>
        <time>2016-12-11T08:15:43Z</time>
      </trkpt>
      <trkpt lat="49.03735" lon="1.12311">
        <ele>127.8</ele>
        <time>2016-12-11T08:15:46Z</time>
      </trkpt>
      <trkpt lat="49.03746" lon="1.12306">
        <ele>128.4</ele>
        <time>2016-12-11T08:15:49Z</time>
      </trkpt>
      <trkpt lat="49.03757" lon="1.12303">
        <ele>129</ele>
        <time>2016-12-11T08:15:52Z</time>
      </trkpt>
      <trkpt lat="49.03767" lon="1.12301">
        <ele>129.5</ele>
        <time>2016-12-11T08:15:56Z</time>
      </trkpt>
      <trkpt lat="49.03776" lon="1.12301">
        <ele>129.8</ele>
        <time>2016-12-11T08:15:59Z</time>
      </trkpt>
      <trkpt lat="49.03784" lon="1.12293">
        <ele>130</ele>
        <time>2016-12-11T08:16:01Z</time>
      </trkpt>
      <trkpt lat="49.03792" lon="1.12279">
        <ele>130.3</ele>
        <time>2016-12-11T08:16:04Z</time>
      </trkpt>
      <trkpt lat="49.03795" lon="1.12263">
        <ele>130.7</ele>
        <time>2016-12-11T08:16:07Z</time>
      </trkpt>
      <trkpt lat="49.03796" lon="1.12245">
        <ele>130.8</ele>
        <time>2016-12-11T08:16:10Z</time>
      </trkpt>
      <trkpt lat="49.03802" lon="1.12228">
        <ele>130.9</ele>
        <time>2016-12-11T08:16:13Z</time>
      </trkpt>
      <trkpt lat="49.03809" lon="1.12218">
        <ele>131</ele>
        <time>2016-12-11T08:16:15Z</time>
      </trkpt>
      <trkpt lat="49.03818" lon="1.12215">
        <ele>131.1</ele>
        <time>2016-12-11T08:16:18Z</time>
      </trkpt>
      <trkpt lat="49.03826" lon="1.12208">
        <ele>131.2</ele>
        <time>2016-12-11T08:16:20Z</time>
      </trkpt>
      <trkpt lat="49.03838" lon="1.12198">
        <ele>131.3</ele>
        <time>2016-12-11T08:16:23Z</time>
      </trkpt>
      <trkpt lat="49.03845" lon="1.12186">
        <ele>131.5</ele>
        <time>2016-12-11T08:16:25Z</time>
      </trkpt>
      <trkpt lat="49.03851" lon="1.12173">
        <ele>131.7</ele>
        <time>2016-12-11T08:16:27Z</time>
      </trkpt>
      <trkpt lat="49.03859" lon="1.12164">
        <ele>131.8</ele>
        <time>2016-12-11T08:16:29Z</time>
      </trkpt>
      <trkpt lat="49.0387" lon="1.12152">
        <ele>132.1</ele>
        <time>2016-12-11T08:16:32Z</time>
      </trkpt>
      <trkpt lat="49.03878" lon="1.12145">
        <ele>132.2</ele>
        <time>2016-12-11T08:16:34Z</time>
      </trkpt>
      <trkpt lat="49.03889" lon="1.12141">
        <ele>132.2</ele>
        <time>2016-12-11T08:16:37Z</time>
      </trkpt>
      <trkpt lat="49.03901" lon="1.1214">
        <ele>132.3</ele>
        <time>2016-12-11T08:16:40Z</time>
      </trkpt>
      <trkpt lat="49.03909" lon="1.12136">
        <ele>132.3</ele>
        <time>2016-12-11T08:16:42Z</time>
      </trkpt>
      <trkpt lat="49.03921" lon="1.1213">
        <ele>132.5</ele>
        <time>2016-12-11T08:16:45Z</time>
      </trkpt>
      <trkpt lat="49.03929" lon="1.12121">
        <ele>132.7</ele>
        <time>2016-12-11T08:16:47Z</time>
      </trkpt>
      <trkpt lat="49.03933" lon="1.12108">
        <ele>132.8</ele>
        <time>2016-12-11T08:16:49Z</time>
      </trkpt>
      <trkpt lat="49.03935" lon="1.12093">
        <ele>133</ele>
        <time>2016-12-11T08:16:51Z</time>
      </trkpt>
      <trkpt lat="49.03939" lon="1.12078">
        <ele>133.1</ele>
        <time>2016-12-11T08:16:53Z</time>
      </trkpt>
      <trkpt lat="49.03943" lon="1.12063">
        <ele>133.1</ele>
        <time>2016-12-11T08:16:55Z</time>
      </trkpt>
      <trkpt lat="49.03946" lon="1.12048">
        <ele>133.1</ele>
        <time>2016-12-11T08:16:57Z</time>
      </trkpt>
      <trkpt lat="49.03949" lon="1.12035">
        <ele>133.2</ele>
        <time>2016-12-11T08:16:59Z</time>
      </trkpt>
      <trkpt lat="49.0395" lon="1.1202">
        <ele>133.1</ele>
        <time>2016-12-11T08:17:01Z</time>
      </trkpt>
      <trkpt lat="49.03955" lon="1.12007">
        <ele>133</ele>
        <time>2016-12-11T08:17:04Z</time>
      </trkpt>
      <trkpt lat="49.03964" lon="1.12016">
        <ele>133</ele>
        <time>2016-12-11T08:17:09Z</time>
      </trkpt>
      <trkpt lat="49.03974" lon="1.1203">
        <ele>133.1</ele>
        <time>2016-12-11T08:17:13Z</time>
      </trkpt>
      <trkpt lat="49.03982" lon="1.12044">
        <ele>133.3</ele>
        <time>2016-12-11T08:17:17Z</time>
      </trkpt>
      <trkpt lat="49.03992" lon="1.12054">
        <ele>133.4</ele>
        <time>2016-12-11T08:17:20Z</time>
      </trkpt>
      <trkpt lat="49.04001" lon="1.12062">
        <ele>133.8</ele>
        <time>2016-12-11T08:17:23Z</time>
      </trkpt>
      <trkpt lat="49.04011" lon="1.12063">
        <ele>134</ele>
        <time>2016-12-11T08:17:26Z</time>
      </trkpt>
      <trkpt lat="49.0402" lon="1.12055">
        <ele>134.2</ele>
        <time>2016-12-11T08:17:28Z</time>
      </trkpt>
      <trkpt lat="49.04027" lon="1.12043">
        <ele>134.4</ele>
        <time>2016-12-11T08:17:30Z</time>
      </trkpt>
      <trkpt lat="49.04033" lon="1.1203">
        <ele>134.7</ele>
        <time>2016-12-11T08:17:32Z</time>
      </trkpt>
      <trkpt lat="49.04039" lon="1.12017">
        <ele>134.9</ele>
        <time>2016-12-11T08:17:34Z</time>
      </trkpt>
      <trkpt lat="49.04044" lon="1.12003">
        <ele>135.2</ele>
        <time>2016-12-11T08:17:36Z</time>
      </trkpt>
      <trkpt lat="49.0405" lon="1.11988">
        <ele>135.4</ele>
        <time>2016-12-11T08:17:38Z</time>
      </trkpt>
      <trkpt lat="49.04056" lon="1.11973">
        <ele>135.5</ele>
        <time>2016-12-11T08:17:40Z</time>
      </trkpt>
      <trkpt lat="49.04062" lon="1.11959">
        <ele>135.5</ele>
        <time>2016-12-11T08:17:42Z</time>
      </trkpt>
      <trkpt lat="49.04068" lon="1.11945">
        <ele>135.5</ele>
        <time>2016-12-11T08:17:44Z</time>
      </trkpt>
      <trkpt lat="49.04075" lon="1.11931">
        <ele>135.4</ele>
        <time>2016-12-11T08:17:46Z</time>
      </trkpt>
      <trkpt lat="49.04081" lon="1.11918">
        <ele>135.2</ele>
        <time>2016-12-11T08:17:48Z</time>
      </trkpt>
      <trkpt lat="49.04089" lon="1.11906">
        <ele>134.7</ele>
        <time>2016-12-11T08:17:51Z</time>
      </trkpt>
      <trkpt lat="49.04101" lon="1.11914">
        <ele>134.1</ele>
        <time>2016-12-11T08:17:56Z</time>
      </trkpt>
      <trkpt lat="49.04108" lon="1.11923">
        <ele>134.1</ele>
        <time>2016-12-11T08:17:58Z</time>
      </trkpt>
      <trkpt lat="49.04114" lon="1.11933">
        <ele>134.2</ele>
        <time>2016-12-11T08:18:00Z</time>
      </trkpt>
      <trkpt lat="49.04122" lon="1.11944">
        <ele>134.2</ele>
        <time>2016-12-11T08:18:02Z</time>
      </trkpt>
      <trkpt lat="49.04129" lon="1.11956">
        <ele>134.2</ele>
        <time>2016-12-11T08:18:04Z</time>
      </trkpt>
      <trkpt lat="49.04138" lon="1.11968">
        <ele>134.3</ele>
        <time>2016-12-11T08:18:06Z</time>
      </trkpt>
      <trkpt lat="49.04147" lon="1.11981">
        <ele>134.4</ele>
        <time>2016-12-11T08:18:08Z</time>
      </trkpt>
      <trkpt lat="49.04154" lon="1.11991">
        <ele>134.5</ele>
        <time>2016-12-11T08:18:10Z</time>
      </trkpt>
      <trkpt lat="49.04162" lon="1.12007">
        <ele>134.6</ele>
        <time>2016-12-11T08:18:13Z</time>
      </trkpt>
      <trkpt lat="49.0417" lon="1.12023">
        <ele>134.8</ele>
        <time>2016-12-11T08:18:16Z</time>
      </trkpt>
      <trkpt lat="49.04177" lon="1.12032">
        <ele>135</ele>
        <time>2016-12-11T08:18:18Z</time>
      </trkpt>
      <trkpt lat="49.04188" lon="1.12047">
        <ele>135.4</ele>
        <time>2016-12-11T08:18:21Z</time>
      </trkpt>
      <trkpt lat="49.04196" lon="1.12059">
        <ele>135.7</ele>
        <time>2016-12-11T08:18:23Z</time>
      </trkpt>
      <trkpt lat="49.04204" lon="1.12072">
        <ele>136</ele>
        <time>2016-12-11T08:18:26Z</time>
      </trkpt>
      <trkpt lat="49.04211" lon="1.12083">
        <ele>136.1</ele>
        <time>2016-12-11T08:18:28Z</time>
      </trkpt>
      <trkpt lat="49.04218" lon="1.12098">
        <ele>136.2</ele>
        <time>2016-12-11T08:18:31Z</time>
      </trkpt>
      <trkpt lat="49.04215" lon="1.12113">
        <ele>136.3</ele>
        <time>2016-12-11T08:18:36Z</time>
      </trkpt>
      <trkpt lat="49.04208" lon="1.12123">
        <ele>136.3</ele>
        <time>2016-12-11T08:18:40Z</time>
      </trkpt>
      <trkpt lat="49.04202" lon="1.12137">
        <ele>136.5</ele>
        <time>2016-12-11T08:18:44Z</time>
      </trkpt>
      <trkpt lat="49.04206" lon="1.12151">
        <ele>136.8</ele>
        <time>2016-12-11T08:18:47Z</time>
      </trkpt>
      <trkpt lat="49.04212" lon="1.12166">
        <ele>136.8</ele>
        <time>2016-12-11T08:18:50Z</time>
      </trkpt>
      <trkpt lat="49.04216" lon="1.12179">
        <ele>136.9</ele>
        <time>2016-12-11T08:18:53Z</time>
      </trkpt>
      <trkpt lat="49.04221" lon="1.12192">
        <ele>137.1</ele>
        <time>2016-12-11T08:18:56Z</time>
      </trkpt>
      <trkpt lat="49.04228" lon="1.12209">
        <ele>137.2</ele>
        <time>2016-12-11T08:18:59Z</time>
      </trkpt>
      <trkpt lat="49.04231" lon="1.12224">
        <ele>137.3</ele>
        <time>2016-12-11T08:19:02Z</time>
      </trkpt>
      <trkpt lat="49.04231" lon="1.12246">
        <ele>137.4</ele>
        <time>2016-12-11T08:19:05Z</time>
      </trkpt>
      <trkpt lat="49.04234" lon="1.12261">
        <ele>137.5</ele>
        <time>2016-12-11T08:19:07Z</time>
      </trkpt>
      <trkpt lat="49.04237" lon="1.12274">
        <ele>137.6</ele>
        <time>2016-12-11T08:19:09Z</time>
      </trkpt>
      <trkpt lat="49.04239" lon="1.1229">
        <ele>137.7</ele>
        <time>2016-12-11T08:19:11Z</time>
      </trkpt>
      <trkpt lat="49.04243" lon="1.12304">
        <ele>137.8</ele>
        <time>2016-12-11T08:19:13Z</time>
      </trkpt>
      <trkpt lat="49.04251" lon="1.1232">
        <ele>137.9</ele>
        <time>2016-12-11T08:19:16Z</time>
      </trkpt>
      <trkpt lat="49.04254" lon="1.12338">
        <ele>138.1</ele>
        <time>2016-12-11T08:19:18Z</time>
      </trkpt>
      <trkpt lat="49.04253" lon="1.12357">
        <ele>138.2</ele>
        <time>2016-12-11T08:19:21Z</time>
      </trkpt>
      <trkpt lat="49.04258" lon="1.1237">
        <ele>138.2</ele>
        <time>2016-12-11T08:19:24Z</time>
      </trkpt>
      <trkpt lat="49.04269" lon="1.12365">
        <ele>138.3</ele>
        <time>2016-12-11T08:19:27Z</time>
      </trkpt>
      <trkpt lat="49.04281" lon="1.12357">
        <ele>138.5</ele>
        <time>2016-12-11T08:19:30Z</time>
      </trkpt>
      <trkpt lat="49.04291" lon="1.12351">
        <ele>138.6</ele>
        <time>2016-12-11T08:19:32Z</time>
      </trkpt>
      <trkpt lat="49.04302" lon="1.12345">
        <ele>138.7</ele>
        <time>2016-12-11T08:19:34Z</time>
      </trkpt>
      <trkpt lat="49.04311" lon="1.12338">
        <ele>138.5</ele>
        <time>2016-12-11T08:19:36Z</time>
      </trkpt>
      <trkpt lat="49.04318" lon="1.12321">
        <ele>138.4</ele>
        <time>2016-12-11T08:19:39Z</time>
      </trkpt>
      <trkpt lat="49.04323" lon="1.12303">
        <ele>138.1</ele>
        <time>2016-12-11T08:19:42Z</time>
      </trkpt>
      <trkpt lat="49.04326" lon="1.12281">
        <ele>138.1</ele>
        <time>2016-12-11T08:19:45Z</time>
      </trkpt>
      <trkpt lat="49.04328" lon="1.12263">
        <ele>138</ele>
        <time>2016-12-11T08:19:47Z</time>
      </trkpt>
      <trkpt lat="49.04333" lon="1.12248">
        <ele>137.9</ele>
        <time>2016-12-11T08:19:49Z</time>
      </trkpt>
      <trkpt lat="49.04337" lon="1.12233">
        <ele>137.7</ele>
        <time>2016-12-11T08:19:51Z</time>
      </trkpt>
      <trkpt lat="49.0434" lon="1.12217">
        <ele>137.5</ele>
        <time>2016-12-11T08:19:53Z</time>
      </trkpt>
      <trkpt lat="49.04343" lon="1.12203">
        <ele>137.4</ele>
        <time>2016-12-11T08:19:55Z</time>
      </trkpt>
      <trkpt lat="49.04347" lon="1.12187">
        <ele>137.1</ele>
        <time>2016-12-11T08:19:57Z</time>
      </trkpt>
      <trkpt lat="49.0435" lon="1.12172">
        <ele>136.8</ele>
        <time>2016-12-11T08:19:59Z</time>
      </trkpt>
      <trkpt lat="49.04353" lon="1.12156">
        <ele>136.6</ele>
        <time>2016-12-11T08:20:01Z</time>
      </trkpt>
      <trkpt lat="49.04356" lon="1.12139">
        <ele>136.4</ele>
        <time>2016-12-11T08:20:03Z</time>
      </trkpt>
      <trkpt lat="49.04357" lon="1.12122">
        <ele>136</ele>
        <time>2016-12-11T08:20:05Z</time>
      </trkpt>
      <trkpt lat="49.04354" lon="1.12105">
        <ele>135.7</ele>
        <time>2016-12-11T08:20:07Z</time>
      </trkpt>
      <trkpt lat="49.0435" lon="1.1209">
        <ele>135.3</ele>
        <time>2016-12-11T08:20:09Z</time>
      </trkpt>
      <trkpt lat="49.04344" lon="1.12072">
        <ele>134.9</ele>
        <time>2016-12-11T08:20:11Z</time>
      </trkpt>
      <trkpt lat="49.04337" lon="1.12055">
        <ele>134.7</ele>
        <time>2016-12-11T08:20:13Z</time>
      </trkpt>
      <trkpt lat="49.04332" lon="1.12039">
        <ele>134.4</ele>
        <time>2016-12-11T08:20:15Z</time>
      </trkpt>
      <trkpt lat="49.04325" lon="1.12024">
        <ele>133.9</ele>
        <time>2016-12-11T08:20:18Z</time>
      </trkpt>
      <trkpt lat="49.04316" lon="1.12026">
        <ele>133.5</ele>
        <time>2016-12-11T08:20:21Z</time>
      </trkpt>
      <trkpt lat="49.04306" lon="1.12032">
        <ele>133.5</ele>
        <time>2016-12-11T08:20:24Z</time>
      </trkpt>
      <trkpt lat="49.04295" lon="1.12041">
        <ele>133.7</ele>
        <time>2016-12-11T08:20:27Z</time>
      </trkpt>
      <trkpt lat="49.04284" lon="1.12052">
        <ele>133.5</ele>
        <time>2016-12-11T08:20:30Z</time>
      </trkpt>
      <trkpt lat="49.04274" lon="1.12063">
        <ele>133.8</ele>
        <time>2016-12-11T08:20:33Z</time>
      </trkpt>
      <trkpt lat="49.04267" lon="1.1207">
        <ele>134</ele>
        <time>2016-12-11T08:20:35Z</time>
      </trkpt>
      <trkpt lat="49.04256" lon="1.12081">
        <ele>134.4</ele>
        <time>2016-12-11T08:20:38Z</time>
      </trkpt>
      <trkpt lat="49.04245" lon="1.12091">
        <ele>134.7</ele>
        <time>2016-12-11T08:20:41Z</time>
      </trkpt>
      <trkpt lat="49.04233" lon="1.12099">
        <ele>135</ele>
        <time>2016-12-11T08:20:44Z</time>
      </trkpt>
      <trkpt lat="49.04224" lon="1.12092">
        <ele>135.3</ele>
        <time>2016-12-11T08:20:47Z</time>
      </trkpt>
      <trkpt lat="49.04215" lon="1.12078">
        <ele>135.7</ele>
        <time>2016-12-11T08:20:50Z</time>
      </trkpt>
      <trkpt lat="49.04208" lon="1.12068">
        <ele>135.9</ele>
        <time>2016-12-11T08:20:52Z</time>
      </trkpt>
      <trkpt lat="49.04201" lon="1.12057">
        <ele>135.8</ele>
        <time>2016-12-11T08:20:54Z</time>
      </trkpt>
      <trkpt lat="49.04191" lon="1.12043">
        <ele>135.9</ele>
        <time>2016-12-11T08:20:57Z</time>
      </trkpt>
      <trkpt lat="49.04183" lon="1.12033">
        <ele>136.1</ele>
        <time>2016-12-11T08:20:59Z</time>
      </trkpt>
      <trkpt lat="49.04176" lon="1.12021">
        <ele>136.2</ele>
        <time>2016-12-11T08:21:01Z</time>
      </trkpt>
      <trkpt lat="49.04168" lon="1.12009">
        <ele>136.3</ele>
        <time>2016-12-11T08:21:03Z</time>
      </trkpt>
      <trkpt lat="49.0416" lon="1.11997">
        <ele>136.3</ele>
        <time>2016-12-11T08:21:05Z</time>
      </trkpt>
      <trkpt lat="49.04153" lon="1.11986">
        <ele>136.3</ele>
        <time>2016-12-11T08:21:07Z</time>
      </trkpt>
      <trkpt lat="49.04161" lon="1.11978">
        <ele>135.8</ele>
        <time>2016-12-11T08:21:14Z</time>
      </trkpt>
      <trkpt lat="49.0417" lon="1.11976">
        <ele>135.6</ele>
        <time>2016-12-11T08:21:17Z</time>
      </trkpt>
      <trkpt lat="49.04181" lon="1.1197">
        <ele>135.3</ele>
        <time>2016-12-11T08:21:20Z</time>
      </trkpt>
      <trkpt lat="49.04188" lon="1.11954">
        <ele>135.1</ele>
        <time>2016-12-11T08:21:23Z</time>
      </trkpt>
      <trkpt lat="49.04198" lon="1.1194">
        <ele>134.9</ele>
        <time>2016-12-11T08:21:26Z</time>
      </trkpt>
      <trkpt lat="49.04205" lon="1.11929">
        <ele>134.7</ele>
        <time>2016-12-11T08:21:28Z</time>
      </trkpt>
      <trkpt lat="49.04214" lon="1.1192">
        <ele>134.5</ele>
        <time>2016-12-11T08:21:30Z</time>
      </trkpt>
      <trkpt lat="49.04223" lon="1.11915">
        <ele>134.1</ele>
        <time>2016-12-11T08:21:32Z</time>
      </trkpt>
      <trkpt lat="49.04232" lon="1.11908">
        <ele>133.8</ele>
        <time>2016-12-11T08:21:34Z</time>
      </trkpt>
      <trkpt lat="49.0424" lon="1.119">
        <ele>133.5</ele>
        <time>2016-12-11T08:21:36Z</time>
      </trkpt>
      <trkpt lat="49.04248" lon="1.11889">
        <ele>133.3</ele>
        <time>2016-12-11T08:21:38Z</time>
      </trkpt>
      <trkpt lat="49.04254" lon="1.11878">
        <ele>133.1</ele>
        <time>2016-12-11T08:21:40Z</time>
      </trkpt>
      <trkpt lat="49.04257" lon="1.11863">
        <ele>132.7</ele>
        <time>2016-12-11T08:21:42Z</time>
      </trkpt>
      <trkpt lat="49.04258" lon="1.11846">
        <ele>132.4</ele>
        <time>2016-12-11T08:21:44Z</time>
      </trkpt>
      <trkpt lat="49.04263" lon="1.11828">
        <ele>132.1</ele>
        <time>2016-12-11T08:21:46Z</time>
      </trkpt>
      <trkpt lat="49.0427" lon="1.11814">
        <ele>131.9</ele>
        <time>2016-12-11T08:21:48Z</time>
      </trkpt>
      <trkpt lat="49.04278" lon="1.118">
        <ele>131.7</ele>
        <time>2016-12-11T08:21:50Z</time>
      </trkpt>
      <trkpt lat="49.04289" lon="1.1179">
        <ele>131.4</ele>
        <time>2016-12-11T08:21:52Z</time>
      </trkpt>
      <trkpt lat="49.04295" lon="1.1178">
        <ele>131</ele>
        <time>2016-12-11T08:21:54Z</time>
      </trkpt>
      <trkpt lat="49.04295" lon="1.11765">
        <ele>130.7</ele>
        <time>2016-12-11T08:21:56Z</time>
      </trkpt>
      <trkpt lat="49.04291" lon="1.11749">
        <ele>130.4</ele>
        <time>2016-12-11T08:21:58Z</time>
      </trkpt>
      <trkpt lat="49.04282" lon="1.11739">
        <ele>130.1</ele>
        <time>2016-12-11T08:22:00Z</time>
      </trkpt>
      <trkpt lat="49.04275" lon="1.11725">
        <ele>129.8</ele>
        <time>2016-12-11T08:22:02Z</time>
      </trkpt>
      <trkpt lat="49.04268" lon="1.11712">
        <ele>129.7</ele>
        <time>2016-12-11T08:22:04Z</time>
      </trkpt>
      <trkpt lat="49.04261" lon="1.11698">
        <ele>129.4</ele>
        <time>2016-12-11T08:22:06Z</time>
      </trkpt>
      <trkpt lat="49.04254" lon="1.11683">
        <ele>129.3</ele>
        <time>2016-12-11T08:22:08Z</time>
      </trkpt>
      <trkpt lat="49.04248" lon="1.11671">
        <ele>129.2</ele>
        <time>2016-12-11T08:22:10Z</time>
      </trkpt>
      <trkpt lat="49.04247" lon="1.11654">
        <ele>129.1</ele>
        <time>2016-12-11T08:22:13Z</time>
      </trkpt>
      <trkpt lat="49.04256" lon="1.11638">
        <ele>128.9</ele>
        <time>2016-12-11T08:22:16Z</time>
      </trkpt>
      <trkpt lat="49.04262" lon="1.11624">
        <ele>128.7</ele>
        <time>2016-12-11T08:22:18Z</time>
      </trkpt>
      <trkpt lat="49.04266" lon="1.11606">
        <ele>128.4</ele>
        <time>2016-12-11T08:22:20Z</time>
      </trkpt>
      <trkpt lat="49.04272" lon="1.11591">
        <ele>128.2</ele>
        <time>2016-12-11T08:22:22Z</time>
      </trkpt>
      <trkpt lat="49.04278" lon="1.11577">
        <ele>128</ele>
        <time>2016-12-11T08:22:24Z</time>
      </trkpt>
      <trkpt lat="49.04282" lon="1.11562">
        <ele>127.8</ele>
        <time>2016-12-11T08:22:26Z</time>
      </trkpt>
      <trkpt lat="49.04283" lon="1.11545">
        <ele>127.6</ele>
        <time>2016-12-11T08:22:28Z</time>
      </trkpt>
      <trkpt lat="49.04284" lon="1.11529">
        <ele>127.3</ele>
        <time>2016-12-11T08:22:30Z</time>
      </trkpt>
      <trkpt lat="49.04277" lon="1.11513">
        <ele>126.9</ele>
        <time>2016-12-11T08:22:33Z</time>
      </trkpt>
      <trkpt lat="49.04267" lon="1.11508">
        <ele>126.8</ele>
        <time>2016-12-11T08:22:36Z</time>
      </trkpt>
      <trkpt lat="49.04258" lon="1.11495">
        <ele>126.6</ele>
        <time>2016-12-11T08:22:39Z</time>
      </trkpt>
      <trkpt lat="49.04259" lon="1.11479">
        <ele>126.4</ele>
        <time>2016-12-11T08:22:42Z</time>
      </trkpt>
      <trkpt lat="49.04269" lon="1.11464">
        <ele>126.3</ele>
        <time>2016-12-11T08:22:45Z</time>
      </trkpt>
      <trkpt lat="49.04277" lon="1.11456">
        <ele>126.2</ele>
        <time>2016-12-11T08:22:47Z</time>
      </trkpt>
      <trkpt lat="49.04285" lon="1.11447">
        <ele>126</ele>
        <time>2016-12-11T08:22:49Z</time>
      </trkpt>
      <trkpt lat="49.04292" lon="1.11438">
        <ele>125.4</ele>
        <time>2016-12-11T08:22:51Z</time>
      </trkpt>
      <trkpt lat="49.04298" lon="1.11425">
        <ele>124.6</ele>
        <time>2016-12-11T08:22:54Z</time>
      </trkpt>
      <trkpt lat="49.04303" lon="1.11414">
        <ele>121.6</ele>
        <time>2016-12-11T08:23:18Z</time>
      </trkpt>
      <trkpt lat="49.04308" lon="1.11401">
        <ele>120.6</ele>
        <time>2016-12-11T08:25:40Z</time>
      </trkpt>
      <trkpt lat="49.04317" lon="1.11405">
        <ele>120.6</ele>
        <time>2016-12-11T08:25:44Z</time>
      </trkpt>
      <trkpt lat="49.04328" lon="1.11406">
        <ele>120.4</ele>
        <time>2016-12-11T08:25:48Z</time>
      </trkpt>
      <trkpt lat="49.04339" lon="1.11402">
        <ele>120.4</ele>
        <time>2016-12-11T08:25:52Z</time>
      </trkpt>
      <trkpt lat="49.04348" lon="1.11397">
        <ele>120.7</ele>
        <time>2016-12-11T08:25:56Z</time>
      </trkpt>
      <trkpt lat="49.04357" lon="1.11394">
        <ele>121.1</ele>
        <time>2016-12-11T08:25:59Z</time>
      </trkpt>
      <trkpt lat="49.04366" lon="1.11393">
        <ele>121.8</ele>
        <time>2016-12-11T08:26:03Z</time>
      </trkpt>
      <trkpt lat="49.04378" lon="1.11389">
        <ele>122.4</ele>
        <time>2016-12-11T08:26:07Z</time>
      </trkpt>
      <trkpt lat="49.04387" lon="1.11394">
        <ele>122.8</ele>
        <time>2016-12-11T08:26:09Z</time>
      </trkpt>
      <trkpt lat="49.04396" lon="1.11398">
        <ele>123.3</ele>
        <time>2016-12-11T08:26:12Z</time>
      </trkpt>
      <trkpt lat="49.04406" lon="1.11403">
        <ele>123.7</ele>
        <time>2016-12-11T08:26:15Z</time>
      </trkpt>
      <trkpt lat="49.04415" lon="1.11407">
        <ele>124.1</ele>
        <time>2016-12-11T08:26:18Z</time>
      </trkpt>
      <trkpt lat="49.04423" lon="1.11414">
        <ele>124.5</ele>
        <time>2016-12-11T08:26:21Z</time>
      </trkpt>
      <trkpt lat="49.04434" lon="1.11419">
        <ele>125.1</ele>
        <time>2016-12-11T08:26:25Z</time>
      </trkpt>
      <trkpt lat="49.04444" lon="1.11427">
        <ele>125.5</ele>
        <time>2016-12-11T08:26:28Z</time>
      </trkpt>
      <trkpt lat="49.04454" lon="1.11432">
        <ele>125.9</ele>
        <time>2016-12-11T08:26:31Z</time>
      </trkpt>
      <trkpt lat="49.04465" lon="1.11439">
        <ele>126.3</ele>
        <time>2016-12-11T08:26:34Z</time>
      </trkpt>
      <trkpt lat="49.04476" lon="1.11445">
        <ele>126.7</ele>
        <time>2016-12-11T08:26:37Z</time>
      </trkpt>
      <trkpt lat="49.04486" lon="1.11449">
        <ele>127.1</ele>
        <time>2016-12-11T08:26:39Z</time>
      </trkpt>
      <trkpt lat="49.04497" lon="1.11454">
        <ele>127.6</ele>
        <time>2016-12-11T08:26:42Z</time>
      </trkpt>
      <trkpt lat="49.04507" lon="1.11458">
        <ele>128</ele>
        <time>2016-12-11T08:26:45Z</time>
      </trkpt>
      <trkpt lat="49.04518" lon="1.11462">
        <ele>128.3</ele>
        <time>2016-12-11T08:26:48Z</time>
      </trkpt>
      <trkpt lat="49.04527" lon="1.11467">
        <ele>128.5</ele>
        <time>2016-12-11T08:26:51Z</time>
      </trkpt>
      <trkpt lat="49.04537" lon="1.11473">
        <ele>128.8</ele>
        <time>2016-12-11T08:26:53Z</time>
      </trkpt>
      <trkpt lat="49.04547" lon="1.11477">
        <ele>129.1</ele>
        <time>2016-12-11T08:26:56Z</time>
      </trkpt>
      <trkpt lat="49.04559" lon="1.1148">
        <ele>129.3</ele>
        <time>2016-12-11T08:26:58Z</time>
      </trkpt>
      <trkpt lat="49.04571" lon="1.11483">
        <ele>129.1</ele>
        <time>2016-12-11T08:27:00Z</time>
      </trkpt>
      <trkpt lat="49.04585" lon="1.11482">
        <ele>129.1</ele>
        <time>2016-12-11T08:27:02Z</time>
      </trkpt>
      <trkpt lat="49.04597" lon="1.11483">
        <ele>129</ele>
        <time>2016-12-11T08:27:04Z</time>
      </trkpt>
      <trkpt lat="49.04607" lon="1.11483">
        <ele>129.1</ele>
        <time>2016-12-11T08:27:06Z</time>
      </trkpt>
      <trkpt lat="49.04618" lon="1.11486">
        <ele>129.2</ele>
        <time>2016-12-11T08:27:08Z</time>
      </trkpt>
      <trkpt lat="49.04628" lon="1.11488">
        <ele>129.2</ele>
        <time>2016-12-11T08:27:10Z</time>
      </trkpt>
      <trkpt lat="49.04639" lon="1.11488">
        <ele>129.3</ele>
        <time>2016-12-11T08:27:12Z</time>
      </trkpt>
      <trkpt lat="49.0465" lon="1.11495">
        <ele>129.5</ele>
        <time>2016-12-11T08:27:14Z</time>
      </trkpt>
      <trkpt lat="49.04664" lon="1.11503">
        <ele>129.3</ele>
        <time>2016-12-11T08:27:17Z</time>
      </trkpt>
      <trkpt lat="49.04681" lon="1.11506">
        <ele>129</ele>
        <time>2016-12-11T08:27:19Z</time>
      </trkpt>
      <trkpt lat="49.04693" lon="1.11511">
        <ele>128.8</ele>
        <time>2016-12-11T08:27:21Z</time>
      </trkpt>
      <trkpt lat="49.04705" lon="1.11515">
        <ele>128.7</ele>
        <time>2016-12-11T08:27:23Z</time>
      </trkpt>
      <trkpt lat="49.04717" lon="1.1152">
        <ele>128.9</ele>
        <time>2016-12-11T08:27:25Z</time>
      </trkpt>
      <trkpt lat="49.0473" lon="1.11525">
        <ele>128.4</ele>
        <time>2016-12-11T08:27:27Z</time>
      </trkpt>
      <trkpt lat="49.04741" lon="1.1153">
        <ele>128.4</ele>
        <time>2016-12-11T08:27:29Z</time>
      </trkpt>
      <trkpt lat="49.04752" lon="1.11535">
        <ele>128.4</ele>
        <time>2016-12-11T08:27:31Z</time>
      </trkpt>
      <trkpt lat="49.04763" lon="1.11539">
        <ele>128.5</ele>
        <time>2016-12-11T08:27:33Z</time>
      </trkpt>
      <trkpt lat="49.04773" lon="1.11543">
        <ele>128.8</ele>
        <time>2016-12-11T08:27:35Z</time>
      </trkpt>
      <trkpt lat="49.04784" lon="1.11547">
        <ele>128.9</ele>
        <time>2016-12-11T08:27:37Z</time>
      </trkpt>
      <trkpt lat="49.04794" lon="1.11551">
        <ele>128.9</ele>
        <time>2016-12-11T08:27:39Z</time>
      </trkpt>
      <trkpt lat="49.04804" lon="1.11554">
        <ele>128.8</ele>
        <time>2016-12-11T08:27:41Z</time>
      </trkpt>
      <trkpt lat="49.04814" lon="1.11559">
        <ele>128.8</ele>
        <time>2016-12-11T08:27:43Z</time>
      </trkpt>
      <trkpt lat="49.04824" lon="1.11564">
        <ele>128.9</ele>
        <time>2016-12-11T08:27:45Z</time>
      </trkpt>
      <trkpt lat="49.04834" lon="1.11571">
        <ele>129</ele>
        <time>2016-12-11T08:27:47Z</time>
      </trkpt>
      <trkpt lat="49.04844" lon="1.11578">
        <ele>129.1</ele>
        <time>2016-12-11T08:27:49Z</time>
      </trkpt>
      <trkpt lat="49.04852" lon="1.11585">
        <ele>129.2</ele>
        <time>2016-12-11T08:27:51Z</time>
      </trkpt>
      <trkpt lat="49.04861" lon="1.11593">
        <ele>129.2</ele>
        <time>2016-12-11T08:27:53Z</time>
      </trkpt>
      <trkpt lat="49.0487" lon="1.11602">
        <ele>129.3</ele>
        <time>2016-12-11T08:27:55Z</time>
      </trkpt>
      <trkpt lat="49.04878" lon="1.1161">
        <ele>129.4</ele>
        <time>2016-12-11T08:27:57Z</time>
      </trkpt>
      <trkpt lat="49.04887" lon="1.11619">
        <ele>129.5</ele>
        <time>2016-12-11T08:27:59Z</time>
      </trkpt>
      <trkpt lat="49.04895" lon="1.11627">
        <ele>129.6</ele>
        <time>2016-12-11T08:28:01Z</time>
      </trkpt>
      <trkpt lat="49.04902" lon="1.11635">
        <ele>129.8</ele>
        <time>2016-12-11T08:28:03Z</time>
      </trkpt>
      <trkpt lat="49.04912" lon="1.11639">
        <ele>129.9</ele>
        <time>2016-12-11T08:28:06Z</time>
      </trkpt>
      <trkpt lat="49.04923" lon="1.11629">
        <ele>130.1</ele>
        <time>2016-12-11T08:28:09Z</time>
      </trkpt>
      <trkpt lat="49.0493" lon="1.11619">
        <ele>130.2</ele>
        <time>2016-12-11T08:28:11Z</time>
      </trkpt>
      <trkpt lat="49.04937" lon="1.1161">
        <ele>130.2</ele>
        <time>2016-12-11T08:28:13Z</time>
      </trkpt>
      <trkpt lat="49.04944" lon="1.11601">
        <ele>130.3</ele>
        <time>2016-12-11T08:28:15Z</time>
      </trkpt>
      <trkpt lat="49.04951" lon="1.11593">
        <ele>130.4</ele>
        <time>2016-12-11T08:28:17Z</time>
      </trkpt>
      <trkpt lat="49.04959" lon="1.11586">
        <ele>130.4</ele>
        <time>2016-12-11T08:28:19Z</time>
      </trkpt>
      <trkpt lat="49.04967" lon="1.11579">
        <ele>130.5</ele>
        <time>2016-12-11T08:28:21Z</time>
      </trkpt>
      <trkpt lat="49.04976" lon="1.11573">
        <ele>130.5</ele>
        <time>2016-12-11T08:28:23Z</time>
      </trkpt>
      <trkpt lat="49.04985" lon="1.11567">
        <ele>130.6</ele>
        <time>2016-12-11T08:28:25Z</time>
      </trkpt>
      <trkpt lat="49.04994" lon="1.11562">
        <ele>130.8</ele>
        <time>2016-12-11T08:28:27Z</time>
      </trkpt>
      <trkpt lat="49.05002" lon="1.11557">
        <ele>131</ele>
        <time>2016-12-11T08:28:29Z</time>
      </trkpt>
      <trkpt lat="49.05011" lon="1.11551">
        <ele>131.1</ele>
        <time>2016-12-11T08:28:31Z</time>
      </trkpt>
      <trkpt lat="49.0502" lon="1.11546">
        <ele>131.2</ele>
        <time>2016-12-11T08:28:33Z</time>
      </trkpt>
      <trkpt lat="49.05029" lon="1.11541">
        <ele>131.4</ele>
        <time>2016-12-11T08:28:35Z</time>
      </trkpt>
      <trkpt lat="49.05038" lon="1.11535">
        <ele>131.6</ele>
        <time>2016-12-11T08:28:37Z</time>
      </trkpt>
      <trkpt lat="49.05047" lon="1.11529">
        <ele>131.8</ele>
        <time>2016-12-11T08:28:39Z</time>
      </trkpt>
      <trkpt lat="49.05056" lon="1.11523">
        <ele>131.9</ele>
        <time>2016-12-11T08:28:41Z</time>
      </trkpt>
      <trkpt lat="49.05066" lon="1.11516">
        <ele>132</ele>
        <time>2016-12-11T08:28:43Z</time>
      </trkpt>
      <trkpt lat="49.05075" lon="1.1151">
        <ele>132.2</ele>
        <time>2016-12-11T08:28:45Z</time>
      </trkpt>
      <trkpt lat="49.05084" lon="1.11505">
        <ele>132.4</ele>
        <time>2016-12-11T08:28:47Z</time>
      </trkpt>
      <trkpt lat="49.05093" lon="1.11498">
        <ele>132.5</ele>
        <time>2016-12-11T08:28:49Z</time>
      </trkpt>
      <trkpt lat="49.05105" lon="1.11496">
        <ele>132.7</ele>
        <time>2016-12-11T08:28:52Z</time>
      </trkpt>
      <trkpt lat="49.05112" lon="1.11505">
        <ele>132.9</ele>
        <time>2016-12-11T08:28:54Z</time>
      </trkpt>
      <trkpt lat="49.05118" lon="1.11517">
        <ele>133</ele>
        <time>2016-12-11T08:28:56Z</time>
      </trkpt>
      <trkpt lat="49.05125" lon="1.11531">
        <ele>133.1</ele>
        <time>2016-12-11T08:28:58Z</time>
      </trkpt>
      <trkpt lat="49.05131" lon="1.11544">
        <ele>133.2</ele>
        <time>2016-12-11T08:29:00Z</time>
      </trkpt>
      <trkpt lat="49.05137" lon="1.11557">
        <ele>133.3</ele>
        <time>2016-12-11T08:29:02Z</time>
      </trkpt>
      <trkpt lat="49.05143" lon="1.1157">
        <ele>133.4</ele>
        <time>2016-12-11T08:29:04Z</time>
      </trkpt>
      <trkpt lat="49.05149" lon="1.11582">
        <ele>133.5</ele>
        <time>2016-12-11T08:29:06Z</time>
      </trkpt>
      <trkpt lat="49.0516" lon="1.11591">
        <ele>133.6</ele>
        <time>2016-12-11T08:29:09Z</time>
      </trkpt>
      <trkpt lat="49.05169" lon="1.11587">
        <ele>133.7</ele>
        <time>2016-12-11T08:29:11Z</time>
      </trkpt>
      <trkpt lat="49.05178" lon="1.11579">
        <ele>133.8</ele>
        <time>2016-12-11T08:29:13Z</time>
      </trkpt>
      <trkpt lat="49.05187" lon="1.11572">
        <ele>133.9</ele>
        <time>2016-12-11T08:29:15Z</time>
      </trkpt>
      <trkpt lat="49.05195" lon="1.11565">
        <ele>134</ele>
        <time>2016-12-11T08:29:17Z</time>
      </trkpt>
      <trkpt lat="49.05204" lon="1.11558">
        <ele>134.2</ele>
        <time>2016-12-11T08:29:19Z</time>
      </trkpt>
      <trkpt lat="49.05213" lon="1.11551">
        <ele>134.2</ele>
        <time>2016-12-11T08:29:21Z</time>
      </trkpt>
      <trkpt lat="49.05222" lon="1.11544">
        <ele>134.3</ele>
        <time>2016-12-11T08:29:23Z</time>
      </trkpt>
      <trkpt lat="49.05231" lon="1.11537">
        <ele>134.5</ele>
        <time>2016-12-11T08:29:25Z</time>
      </trkpt>
      <trkpt lat="49.0524" lon="1.1153">
        <ele>134.5</ele>
        <time>2016-12-11T08:29:27Z</time>
      </trkpt>
      <trkpt lat="49.05249" lon="1.11522">
        <ele>134.6</ele>
        <time>2016-12-11T08:29:29Z</time>
      </trkpt>
      <trkpt lat="49.05258" lon="1.11514">
        <ele>134.7</ele>
        <time>2016-12-11T08:29:31Z</time>
      </trkpt>
      <trkpt lat="49.05267" lon="1.11505">
        <ele>134.8</ele>
        <time>2016-12-11T08:29:33Z</time>
      </trkpt>
      <trkpt lat="49.05276" lon="1.11496">
        <ele>134.9</ele>
        <time>2016-12-11T08:29:35Z</time>
      </trkpt>
      <trkpt lat="49.05284" lon="1.11487">
        <ele>134.7</ele>
        <time>2016-12-11T08:29:37Z</time>
      </trkpt>
      <trkpt lat="49.05293" lon="1.11477">
        <ele>135</ele>
        <time>2016-12-11T08:29:39Z</time>
      </trkpt>
      <trkpt lat="49.05302" lon="1.11468">
        <ele>135</ele>
        <time>2016-12-11T08:29:41Z</time>
      </trkpt>
      <trkpt lat="49.05311" lon="1.11459">
        <ele>134.9</ele>
        <time>2016-12-11T08:29:43Z</time>
      </trkpt>
      <trkpt lat="49.0532" lon="1.11449">
        <ele>135</ele>
        <time>2016-12-11T08:29:45Z</time>
      </trkpt>
      <trkpt lat="49.05329" lon="1.11441">
        <ele>135.1</ele>
        <time>2016-12-11T08:29:47Z</time>
      </trkpt>
      <trkpt lat="49.05338" lon="1.11433">
        <ele>135.2</ele>
        <time>2016-12-11T08:29:49Z</time>
      </trkpt>
      <trkpt lat="49.05347" lon="1.11425">
        <ele>135.5</ele>
        <time>2016-12-11T08:29:51Z</time>
      </trkpt>
      <trkpt lat="49.05357" lon="1.11419">
        <ele>135.6</ele>
        <time>2016-12-11T08:29:53Z</time>
      </trkpt>
      <trkpt lat="49.05367" lon="1.11412">
        <ele>135.5</ele>
        <time>2016-12-11T08:29:55Z</time>
      </trkpt>
      <trkpt lat="49.05377" lon="1.11407">
        <ele>135.6</ele>
        <time>2016-12-11T08:29:57Z</time>
      </trkpt>
      <trkpt lat="49.05387" lon="1.11402">
        <ele>135.8</ele>
        <time>2016-12-11T08:29:59Z</time>
      </trkpt>
      <trkpt lat="49.05397" lon="1.11399">
        <ele>136</ele>
        <time>2016-12-11T08:30:01Z</time>
      </trkpt>
      <trkpt lat="49.05407" lon="1.11396">
        <ele>136.3</ele>
        <time>2016-12-11T08:30:03Z</time>
      </trkpt>
      <trkpt lat="49.05416" lon="1.11391">
        <ele>136.4</ele>
        <time>2016-12-11T08:30:05Z</time>
      </trkpt>
      <trkpt lat="49.05426" lon="1.11387">
        <ele>136.5</ele>
        <time>2016-12-11T08:30:07Z</time>
      </trkpt>
      <trkpt lat="49.05435" lon="1.11383">
        <ele>136.8</ele>
        <time>2016-12-11T08:30:09Z</time>
      </trkpt>
      <trkpt lat="49.05445" lon="1.11379">
        <ele>137.1</ele>
        <time>2016-12-11T08:30:11Z</time>
      </trkpt>
      <trkpt lat="49.05454" lon="1.11374">
        <ele>137.4</ele>
        <time>2016-12-11T08:30:13Z</time>
      </trkpt>
      <trkpt lat="49.05464" lon="1.11371">
        <ele>137.7</ele>
        <time>2016-12-11T08:30:15Z</time>
      </trkpt>
      <trkpt lat="49.05474" lon="1.1137">
        <ele>137.9</ele>
        <time>2016-12-11T08:30:17Z</time>
      </trkpt>
      <trkpt lat="49.05484" lon="1.11368">
        <ele>138</ele>
        <time>2016-12-11T08:30:19Z</time>
      </trkpt>
      <trkpt lat="49.05494" lon="1.11366">
        <ele>138.1</ele>
        <time>2016-12-11T08:30:21Z</time>
      </trkpt>
      <trkpt lat="49.05505" lon="1.11364">
        <ele>138.2</ele>
        <time>2016-12-11T08:30:23Z</time>
      </trkpt>
      <trkpt lat="49.05515" lon="1.11363">
        <ele>138.4</ele>
        <time>2016-12-11T08:30:25Z</time>
      </trkpt>
      <trkpt lat="49.05526" lon="1.11363">
        <ele>138.4</ele>
        <time>2016-12-11T08:30:27Z</time>
      </trkpt>
      <trkpt lat="49.05538" lon="1.11363">
        <ele>138.5</ele>
        <time>2016-12-11T08:30:29Z</time>
      </trkpt>
      <trkpt lat="49.05549" lon="1.11361">
        <ele>138.7</ele>
        <time>2016-12-11T08:30:31Z</time>
      </trkpt>
      <trkpt lat="49.05561" lon="1.1136">
        <ele>138.7</ele>
        <time>2016-12-11T08:30:33Z</time>
      </trkpt>
      <trkpt lat="49.05573" lon="1.11358">
        <ele>138.8</ele>
        <time>2016-12-11T08:30:35Z</time>
      </trkpt>
      <trkpt lat="49.05585" lon="1.11356">
        <ele>138.9</ele>
        <time>2016-12-11T08:30:37Z</time>
      </trkpt>
      <trkpt lat="49.05598" lon="1.11354">
        <ele>139</ele>
        <time>2016-12-11T08:30:39Z</time>
      </trkpt>
      <trkpt lat="49.05611" lon="1.11351">
        <ele>139.1</ele>
        <time>2016-12-11T08:30:41Z</time>
      </trkpt>
      <trkpt lat="49.05624" lon="1.11348">
        <ele>139.2</ele>
        <time>2016-12-11T08:30:43Z</time>
      </trkpt>
      <trkpt lat="49.05637" lon="1.11345">
        <ele>139.2</ele>
        <time>2016-12-11T08:30:45Z</time>
      </trkpt>
      <trkpt lat="49.0565" lon="1.11341">
        <ele>139.2</ele>
        <time>2016-12-11T08:30:47Z</time>
      </trkpt>
      <trkpt lat="49.05662" lon="1.11337">
        <ele>139.3</ele>
        <time>2016-12-11T08:30:49Z</time>
      </trkpt>
      <trkpt lat="49.05674" lon="1.11333">
        <ele>139.2</ele>
        <time>2016-12-11T08:30:51Z</time>
      </trkpt>
      <trkpt lat="49.05686" lon="1.11329">
        <ele>139</ele>
        <time>2016-12-11T08:30:53Z</time>
      </trkpt>
      <trkpt lat="49.05697" lon="1.11325">
        <ele>138.8</ele>
        <time>2016-12-11T08:30:55Z</time>
      </trkpt>
      <trkpt lat="49.05707" lon="1.11321">
        <ele>138.4</ele>
        <time>2016-12-11T08:30:57Z</time>
      </trkpt>
      <trkpt lat="49.05716" lon="1.11317">
        <ele>138.3</ele>
        <time>2016-12-11T08:30:59Z</time>
      </trkpt>
      <trkpt lat="49.05728" lon="1.1131">
        <ele>138.4</ele>
        <time>2016-12-11T08:31:02Z</time>
      </trkpt>
      <trkpt lat="49.05737" lon="1.11301">
        <ele>138.4</ele>
        <time>2016-12-11T08:31:05Z</time>
      </trkpt>
      <trkpt lat="49.05746" lon="1.11296">
        <ele>138.4</ele>
        <time>2016-12-11T08:31:15Z</time>
      </trkpt>
      <trkpt lat="49.05755" lon="1.11293">
        <ele>138.2</ele>
        <time>2016-12-11T08:31:36Z</time>
      </trkpt>
      <trkpt lat="49.05764" lon="1.1129">
        <ele>137.7</ele>
        <time>2016-12-11T08:35:02Z</time>
      </trkpt>
      <trkpt lat="49.05774" lon="1.11287">
        <ele>137.8</ele>
        <time>2016-12-11T08:35:05Z</time>
      </trkpt>
      <trkpt lat="49.05785" lon="1.1128">
        <ele>137.8</ele>
        <time>2016-12-11T08:35:08Z</time>
      </trkpt>
      <trkpt lat="49.05796" lon="1.1127">
        <ele>137.8</ele>
        <time>2016-12-11T08:35:11Z</time>
      </trkpt>
      <trkpt lat="49.05805" lon="1.11255">
        <ele>137.9</ele>
        <time>2016-12-11T08:35:14Z</time>
      </trkpt>
      <trkpt lat="49.05813" lon="1.1124">
        <ele>138</ele>
        <time>2016-12-11T08:35:17Z</time>
      </trkpt>
      <trkpt lat="49.05821" lon="1.11223">
        <ele>138.1</ele>
        <time>2016-12-11T08:35:20Z</time>
      </trkpt>
      <trkpt lat="49.05826" lon="1.11211">
        <ele>138.1</ele>
        <time>2016-12-11T08:35:22Z</time>
      </trkpt>
      <trkpt lat="49.05832" lon="1.11199">
        <ele>138.1</ele>
        <time>2016-12-11T08:35:24Z</time>
      </trkpt>
      <trkpt lat="49.05837" lon="1.11187">
        <ele>138.2</ele>
        <time>2016-12-11T08:35:26Z</time>
      </trkpt>
      <trkpt lat="49.05842" lon="1.11174">
        <ele>138.2</ele>
        <time>2016-12-11T08:35:28Z</time>
      </trkpt>
      <trkpt lat="49.05848" lon="1.11161">
        <ele>138.3</ele>
        <time>2016-12-11T08:35:30Z</time>
      </trkpt>
      <trkpt lat="49.05852" lon="1.11149">
        <ele>138.3</ele>
        <time>2016-12-11T08:35:32Z</time>
      </trkpt>
      <trkpt lat="49.05857" lon="1.11136">
        <ele>138.4</ele>
        <time>2016-12-11T08:35:34Z</time>
      </trkpt>
      <trkpt lat="49.05862" lon="1.11123">
        <ele>138.5</ele>
        <time>2016-12-11T08:35:36Z</time>
      </trkpt>
      <trkpt lat="49.05866" lon="1.1111">
        <ele>138.6</ele>
        <time>2016-12-11T08:35:38Z</time>
      </trkpt>
      <trkpt lat="49.05871" lon="1.11097">
        <ele>138.7</ele>
        <time>2016-12-11T08:35:40Z</time>
      </trkpt>
      <trkpt lat="49.05875" lon="1.11084">
        <ele>138.9</ele>
        <time>2016-12-11T08:35:42Z</time>
      </trkpt>
      <trkpt lat="49.05878" lon="1.11071">
        <ele>139.1</ele>
        <time>2016-12-11T08:35:44Z</time>
      </trkpt>
      <trkpt lat="49.05882" lon="1.11057">
        <ele>139.4</ele>
        <time>2016-12-11T08:35:46Z</time>
      </trkpt>
      <trkpt lat="49.05885" lon="1.11043">
        <ele>139.5</ele>
        <time>2016-12-11T08:35:48Z</time>
      </trkpt>
      <trkpt lat="49.05889" lon="1.11029">
        <ele>139.6</ele>
        <time>2016-12-11T08:35:50Z</time>
      </trkpt>
      <trkpt lat="49.05893" lon="1.11015">
        <ele>139.7</ele>
        <time>2016-12-11T08:35:52Z</time>
      </trkpt>
      <trkpt lat="49.05897" lon="1.11001">
        <ele>139.7</ele>
        <time>2016-12-11T08:35:54Z</time>
      </trkpt>
      <trkpt lat="49.05901" lon="1.10987">
        <ele>139.8</ele>
        <time>2016-12-11T08:35:56Z</time>
      </trkpt>
      <trkpt lat="49.05906" lon="1.10974">
        <ele>139.8</ele>
        <time>2016-12-11T08:35:58Z</time>
      </trkpt>
      <trkpt lat="49.05912" lon="1.10961">
        <ele>139.9</ele>
        <time>2016-12-11T08:36:00Z</time>
      </trkpt>
      <trkpt lat="49.05918" lon="1.10948">
        <ele>140.1</ele>
        <time>2016-12-11T08:36:02Z</time>
      </trkpt>
      <trkpt lat="49.05924" lon="1.10935">
        <ele>140</ele>
        <time>2016-12-11T08:36:04Z</time>
      </trkpt>
      <trkpt lat="49.05931" lon="1.10923">
        <ele>139.9</ele>
        <time>2016-12-11T08:36:06Z</time>
      </trkpt>
      <trkpt lat="49.05938" lon="1.10912">
        <ele>140</ele>
        <time>2016-12-11T08:36:08Z</time>
      </trkpt>
      <trkpt lat="49.05946" lon="1.10903">
        <ele>140.2</ele>
        <time>2016-12-11T08:36:10Z</time>
      </trkpt>
      <trkpt lat="49.05955" lon="1.10896">
        <ele>140.3</ele>
        <time>2016-12-11T08:36:12Z</time>
      </trkpt>
      <trkpt lat="49.05964" lon="1.10893">
        <ele>140.4</ele>
        <time>2016-12-11T08:36:14Z</time>
      </trkpt>
      <trkpt lat="49.05974" lon="1.10893">
        <ele>140.5</ele>
        <time>2016-12-11T08:36:16Z</time>
      </trkpt>
      <trkpt lat="49.05984" lon="1.10896">
        <ele>140.7</ele>
        <time>2016-12-11T08:36:18Z</time>
      </trkpt>
      <trkpt lat="49.05995" lon="1.109">
        <ele>141</ele>
        <time>2016-12-11T08:36:20Z</time>
      </trkpt>
      <trkpt lat="49.06005" lon="1.10904">
        <ele>141</ele>
        <time>2016-12-11T08:36:22Z</time>
      </trkpt>
      <trkpt lat="49.06015" lon="1.10907">
        <ele>141</ele>
        <time>2016-12-11T08:36:24Z</time>
      </trkpt>
      <trkpt lat="49.06026" lon="1.10911">
        <ele>140.8</ele>
        <time>2016-12-11T08:36:26Z</time>
      </trkpt>
      <trkpt lat="49.06036" lon="1.10913">
        <ele>140.8</ele>
        <time>2016-12-11T08:36:28Z</time>
      </trkpt>
      <trkpt lat="49.06046" lon="1.10915">
        <ele>140.8</ele>
        <time>2016-12-11T08:36:30Z</time>
      </trkpt>
      <trkpt lat="49.06056" lon="1.10916">
        <ele>140.9</ele>
        <time>2016-12-11T08:36:32Z</time>
      </trkpt>
      <trkpt lat="49.06066" lon="1.10917">
        <ele>141</ele>
        <time>2016-12-11T08:36:34Z</time>
      </trkpt>
      <trkpt lat="49.06075" lon="1.10918">
        <ele>141</ele>
        <time>2016-12-11T08:36:36Z</time>
      </trkpt>
      <trkpt lat="49.06086" lon="1.10918">
        <ele>141.1</ele>
        <time>2016-12-11T08:36:38Z</time>
      </trkpt>
      <trkpt lat="49.06096" lon="1.10916">
        <ele>141</ele>
        <time>2016-12-11T08:36:40Z</time>
      </trkpt>
      <trkpt lat="49.06106" lon="1.10914">
        <ele>141</ele>
        <time>2016-12-11T08:36:42Z</time>
      </trkpt>
      <trkpt lat="49.06115" lon="1.10912">
        <ele>141</ele>
        <time>2016-12-11T08:36:44Z</time>
      </trkpt>
      <trkpt lat="49.06125" lon="1.10909">
        <ele>140.9</ele>
        <time>2016-12-11T08:36:46Z</time>
      </trkpt>
      <trkpt lat="49.06135" lon="1.10904">
        <ele>140.8</ele>
        <time>2016-12-11T08:36:48Z</time>
      </trkpt>
      <trkpt lat="49.06146" lon="1.10899">
        <ele>140.7</ele>
        <time>2016-12-11T08:36:50Z</time>
      </trkpt>
      <trkpt lat="49.06157" lon="1.10893">
        <ele>140.6</ele>
        <time>2016-12-11T08:36:52Z</time>
      </trkpt>
      <trkpt lat="49.06168" lon="1.10887">
        <ele>140.4</ele>
        <time>2016-12-11T08:36:54Z</time>
      </trkpt>
      <trkpt lat="49.06178" lon="1.10881">
        <ele>140.2</ele>
        <time>2016-12-11T08:36:56Z</time>
      </trkpt>
      <trkpt lat="49.06188" lon="1.10874">
        <ele>140.1</ele>
        <time>2016-12-11T08:36:58Z</time>
      </trkpt>
      <trkpt lat="49.06197" lon="1.10868">
        <ele>139.8</ele>
        <time>2016-12-11T08:37:00Z</time>
      </trkpt>
      <trkpt lat="49.06207" lon="1.10861">
        <ele>139.7</ele>
        <time>2016-12-11T08:37:02Z</time>
      </trkpt>
      <trkpt lat="49.06216" lon="1.10854">
        <ele>139.6</ele>
        <time>2016-12-11T08:37:04Z</time>
      </trkpt>
      <trkpt lat="49.06225" lon="1.10847">
        <ele>139.5</ele>
        <time>2016-12-11T08:37:06Z</time>
      </trkpt>
      <trkpt lat="49.06234" lon="1.1084">
        <ele>139.4</ele>
        <time>2016-12-11T08:37:08Z</time>
      </trkpt>
      <trkpt lat="49.06243" lon="1.10833">
        <ele>139.2</ele>
        <time>2016-12-11T08:37:10Z</time>
      </trkpt>
      <trkpt lat="49.06252" lon="1.10825">
        <ele>139</ele>
        <time>2016-12-11T08:37:12Z</time>
      </trkpt>
      <trkpt lat="49.06261" lon="1.10818">
        <ele>138.9</ele>
        <time>2016-12-11T08:37:14Z</time>
      </trkpt>
      <trkpt lat="49.06269" lon="1.10811">
        <ele>138.8</ele>
        <time>2016-12-11T08:37:16Z</time>
      </trkpt>
      <trkpt lat="49.06281" lon="1.10802">
        <ele>138.6</ele>
        <time>2016-12-11T08:37:19Z</time>
      </trkpt>
      <trkpt lat="49.06289" lon="1.10796">
        <ele>138.5</ele>
        <time>2016-12-11T08:37:21Z</time>
      </trkpt>
      <trkpt lat="49.06298" lon="1.10789">
        <ele>138.5</ele>
        <time>2016-12-11T08:37:23Z</time>
      </trkpt>
      <trkpt lat="49.06307" lon="1.10782">
        <ele>138.4</ele>
        <time>2016-12-11T08:37:25Z</time>
      </trkpt>
      <trkpt lat="49.06315" lon="1.10775">
        <ele>138.4</ele>
        <time>2016-12-11T08:37:27Z</time>
      </trkpt>
      <trkpt lat="49.06324" lon="1.10768">
        <ele>138.3</ele>
        <time>2016-12-11T08:37:29Z</time>
      </trkpt>
      <trkpt lat="49.06333" lon="1.1076">
        <ele>138.3</ele>
        <time>2016-12-11T08:37:31Z</time>
      </trkpt>
      <trkpt lat="49.06341" lon="1.10752">
        <ele>138</ele>
        <time>2016-12-11T08:37:33Z</time>
      </trkpt>
      <trkpt lat="49.0635" lon="1.10743">
        <ele>137.8</ele>
        <time>2016-12-11T08:37:35Z</time>
      </trkpt>
      <trkpt lat="49.06359" lon="1.10735">
        <ele>137.7</ele>
        <time>2016-12-11T08:37:37Z</time>
      </trkpt>
      <trkpt lat="49.06368" lon="1.10725">
        <ele>137.6</ele>
        <time>2016-12-11T08:37:39Z</time>
      </trkpt>
      <trkpt lat="49.06376" lon="1.10716">
        <ele>137.6</ele>
        <time>2016-12-11T08:37:41Z</time>
      </trkpt>
      <trkpt lat="49.06385" lon="1.10707">
        <ele>137.6</ele>
        <time>2016-12-11T08:37:43Z</time>
      </trkpt>
      <trkpt lat="49.06394" lon="1.10698">
        <ele>137.5</ele>
        <time>2016-12-11T08:37:45Z</time>
      </trkpt>
      <trkpt lat="49.06402" lon="1.1069">
        <ele>137.5</ele>
        <time>2016-12-11T08:37:47Z</time>
      </trkpt>
      <trkpt lat="49.06411" lon="1.10681">
        <ele>137.4</ele>
        <time>2016-12-11T08:37:49Z</time>
      </trkpt>
      <trkpt lat="49.06419" lon="1.10673">
        <ele>137.3</ele>
        <time>2016-12-11T08:37:51Z</time>
      </trkpt>
      <trkpt lat="49.06427" lon="1.10665">
        <ele>137.5</ele>
        <time>2016-12-11T08:37:53Z</time>
      </trkpt>
      <trkpt lat="49.06436" lon="1.10657">
        <ele>137.3</ele>
        <time>2016-12-11T08:37:55Z</time>
      </trkpt>
      <trkpt lat="49.06444" lon="1.10648">
        <ele>137.2</ele>
        <time>2016-12-11T08:37:57Z</time>
      </trkpt>
      <trkpt lat="49.06452" lon="1.1064">
        <ele>137.1</ele>
        <time>2016-12-11T08:37:59Z</time>
      </trkpt>
      <trkpt lat="49.06461" lon="1.10631">
        <ele>137.1</ele>
        <time>2016-12-11T08:38:01Z</time>
      </trkpt>
      <trkpt lat="49.06469" lon="1.10622">
        <ele>137.1</ele>
        <time>2016-12-11T08:38:03Z</time>
      </trkpt>
      <trkpt lat="49.06477" lon="1.10613">
        <ele>137.1</ele>
        <time>2016-12-11T08:38:05Z</time>
      </trkpt>
      <trkpt lat="49.06486" lon="1.10603">
        <ele>137</ele>
        <time>2016-12-11T08:38:07Z</time>
      </trkpt>
      <trkpt lat="49.06495" lon="1.10594">
        <ele>137</ele>
        <time>2016-12-11T08:38:09Z</time>
      </trkpt>
      <trkpt lat="49.06504" lon="1.10585">
        <ele>136.9</ele>
        <time>2016-12-11T08:38:11Z</time>
      </trkpt>
      <trkpt lat="49.06513" lon="1.10575">
        <ele>136.7</ele>
        <time>2016-12-11T08:38:13Z</time>
      </trkpt>
      <trkpt lat="49.06522" lon="1.10566">
        <ele>136.6</ele>
        <time>2016-12-11T08:38:15Z</time>
      </trkpt>
      <trkpt lat="49.06531" lon="1.10557">
        <ele>136.5</ele>
        <time>2016-12-11T08:38:17Z</time>
      </trkpt>
      <trkpt lat="49.0654" lon="1.10547">
        <ele>136.4</ele>
        <time>2016-12-11T08:38:19Z</time>
      </trkpt>
      <trkpt lat="49.06549" lon="1.10538">
        <ele>136.3</ele>
        <time>2016-12-11T08:38:21Z</time>
      </trkpt>
      <trkpt lat="49.06559" lon="1.10529">
        <ele>136.3</ele>
        <time>2016-12-11T08:38:23Z</time>
      </trkpt>
      <trkpt lat="49.06568" lon="1.10519">
        <ele>136.3</ele>
        <time>2016-12-11T08:38:25Z</time>
      </trkpt>
      <trkpt lat="49.06577" lon="1.1051">
        <ele>136.3</ele>
        <time>2016-12-11T08:38:27Z</time>
      </trkpt>
      <trkpt lat="49.06586" lon="1.105">
        <ele>136.3</ele>
        <time>2016-12-11T08:38:29Z</time>
      </trkpt>
      <trkpt lat="49.06595" lon="1.10491">
        <ele>136.3</ele>
        <time>2016-12-11T08:38:31Z</time>
      </trkpt>
      <trkpt lat="49.06605" lon="1.10482">
        <ele>136.3</ele>
        <time>2016-12-11T08:38:33Z</time>
      </trkpt>
      <trkpt lat="49.06614" lon="1.10472">
        <ele>136.3</ele>
        <time>2016-12-11T08:38:35Z</time>
      </trkpt>
      <trkpt lat="49.06623" lon="1.10463">
        <ele>136.2</ele>
        <time>2016-12-11T08:38:37Z</time>
      </trkpt>
      <trkpt lat="49.06632" lon="1.10454">
        <ele>136.2</ele>
        <time>2016-12-11T08:38:39Z</time>
      </trkpt>
      <trkpt lat="49.06641" lon="1.10444">
        <ele>136.2</ele>
        <time>2016-12-11T08:38:41Z</time>
      </trkpt>
      <trkpt lat="49.0665" lon="1.10435">
        <ele>136.2</ele>
        <time>2016-12-11T08:38:43Z</time>
      </trkpt>
      <trkpt lat="49.0666" lon="1.10425">
        <ele>136.4</ele>
        <time>2016-12-11T08:38:45Z</time>
      </trkpt>
      <trkpt lat="49.06669" lon="1.10416">
        <ele>136.4</ele>
        <time>2016-12-11T08:38:47Z</time>
      </trkpt>
      <trkpt lat="49.06678" lon="1.10406">
        <ele>136.2</ele>
        <time>2016-12-11T08:38:49Z</time>
      </trkpt>
      <trkpt lat="49.06688" lon="1.10397">
        <ele>136.3</ele>
        <time>2016-12-11T08:38:51Z</time>
      </trkpt>
      <trkpt lat="49.06697" lon="1.10388">
        <ele>136.4</ele>
        <time>2016-12-11T08:38:53Z</time>
      </trkpt>
      <trkpt lat="49.06706" lon="1.10378">
        <ele>136.5</ele>
        <time>2016-12-11T08:38:55Z</time>
      </trkpt>
      <trkpt lat="49.06715" lon="1.10369">
        <ele>136.6</ele>
        <time>2016-12-11T08:38:57Z</time>
      </trkpt>
      <trkpt lat="49.06724" lon="1.10361">
        <ele>136.7</ele>
        <time>2016-12-11T08:38:59Z</time>
      </trkpt>
      <trkpt lat="49.06734" lon="1.10352">
        <ele>136.6</ele>
        <time>2016-12-11T08:39:01Z</time>
      </trkpt>
      <trkpt lat="49.06743" lon="1.10342">
        <ele>136.7</ele>
        <time>2016-12-11T08:39:03Z</time>
      </trkpt>
      <trkpt lat="49.06753" lon="1.10333">
        <ele>136.8</ele>
        <time>2016-12-11T08:39:05Z</time>
      </trkpt>
      <trkpt lat="49.06762" lon="1.10323">
        <ele>136.8</ele>
        <time>2016-12-11T08:39:07Z</time>
      </trkpt>
      <trkpt lat="49.06771" lon="1.10315">
        <ele>137.1</ele>
        <time>2016-12-11T08:39:09Z</time>
      </trkpt>
      <trkpt lat="49.06781" lon="1.10305">
        <ele>137.2</ele>
        <time>2016-12-11T08:39:11Z</time>
      </trkpt>
      <trkpt lat="49.0679" lon="1.10296">
        <ele>137.3</ele>
        <time>2016-12-11T08:39:13Z</time>
      </trkpt>
      <trkpt lat="49.068" lon="1.10287">
        <ele>137.5</ele>
        <time>2016-12-11T08:39:15Z</time>
      </trkpt>
      <trkpt lat="49.06809" lon="1.10279">
        <ele>137.6</ele>
        <time>2016-12-11T08:39:17Z</time>
      </trkpt>
      <trkpt lat="49.06817" lon="1.1027">
        <ele>137.6</ele>
        <time>2016-12-11T08:39:19Z</time>
      </trkpt>
      <trkpt lat="49.06826" lon="1.10264">
        <ele>137.7</ele>
        <time>2016-12-11T08:39:21Z</time>
      </trkpt>
      <trkpt lat="49.06834" lon="1.10274">
        <ele>137.9</ele>
        <time>2016-12-11T08:39:24Z</time>
      </trkpt>
      <trkpt lat="49.06837" lon="1.10294">
        <ele>138</ele>
        <time>2016-12-11T08:39:27Z</time>
      </trkpt>
      <trkpt lat="49.0684" lon="1.10308">
        <ele>138.2</ele>
        <time>2016-12-11T08:39:29Z</time>
      </trkpt>
      <trkpt lat="49.06842" lon="1.10322">
        <ele>138.5</ele>
        <time>2016-12-11T08:39:31Z</time>
      </trkpt>
      <trkpt lat="49.06845" lon="1.10337">
        <ele>138.7</ele>
        <time>2016-12-11T08:39:33Z</time>
      </trkpt>
      <trkpt lat="49.06849" lon="1.10352">
        <ele>138.9</ele>
        <time>2016-12-11T08:39:35Z</time>
      </trkpt>
      <trkpt lat="49.06852" lon="1.10367">
        <ele>139</ele>
        <time>2016-12-11T08:39:37Z</time>
      </trkpt>
      <trkpt lat="49.06855" lon="1.10383">
        <ele>139.1</ele>
        <time>2016-12-11T08:39:39Z</time>
      </trkpt>
      <trkpt lat="49.06857" lon="1.10399">
        <ele>139.3</ele>
        <time>2016-12-11T08:39:41Z</time>
      </trkpt>
      <trkpt lat="49.06861" lon="1.10416">
        <ele>139.3</ele>
        <time>2016-12-11T08:39:43Z</time>
      </trkpt>
      <trkpt lat="49.06864" lon="1.10432">
        <ele>139.4</ele>
        <time>2016-12-11T08:39:45Z</time>
      </trkpt>
      <trkpt lat="49.06868" lon="1.10449">
        <ele>139.5</ele>
        <time>2016-12-11T08:39:47Z</time>
      </trkpt>
      <trkpt lat="49.06872" lon="1.10464">
        <ele>139.5</ele>
        <time>2016-12-11T08:39:49Z</time>
      </trkpt>
      <trkpt lat="49.06876" lon="1.1048">
        <ele>139.6</ele>
        <time>2016-12-11T08:39:51Z</time>
      </trkpt>
      <trkpt lat="49.0688" lon="1.10496">
        <ele>139.6</ele>
        <time>2016-12-11T08:39:53Z</time>
      </trkpt>
      <trkpt lat="49.06883" lon="1.10511">
        <ele>139.7</ele>
        <time>2016-12-11T08:39:55Z</time>
      </trkpt>
      <trkpt lat="49.06887" lon="1.10527">
        <ele>139.8</ele>
        <time>2016-12-11T08:39:57Z</time>
      </trkpt>
      <trkpt lat="49.0689" lon="1.10542">
        <ele>139.9</ele>
        <time>2016-12-11T08:39:59Z</time>
      </trkpt>
      <trkpt lat="49.06894" lon="1.10558">
        <ele>139.9</ele>
        <time>2016-12-11T08:40:01Z</time>
      </trkpt>
      <trkpt lat="49.06897" lon="1.10573">
        <ele>139.8</ele>
        <time>2016-12-11T08:40:03Z</time>
      </trkpt>
      <trkpt lat="49.069" lon="1.10587">
        <ele>139.9</ele>
        <time>2016-12-11T08:40:05Z</time>
      </trkpt>
      <trkpt lat="49.06902" lon="1.10602">
        <ele>140.1</ele>
        <time>2016-12-11T08:40:07Z</time>
      </trkpt>
      <trkpt lat="49.06905" lon="1.10618">
        <ele>140.3</ele>
        <time>2016-12-11T08:40:09Z</time>
      </trkpt>
      <trkpt lat="49.06907" lon="1.10634">
        <ele>140.1</ele>
        <time>2016-12-11T08:40:11Z</time>
      </trkpt>
      <trkpt lat="49.06909" lon="1.1065">
        <ele>140.2</ele>
        <time>2016-12-11T08:40:13Z</time>
      </trkpt>
      <trkpt lat="49.06911" lon="1.10666">
        <ele>140.3</ele>
        <time>2016-12-11T08:40:15Z</time>
      </trkpt>
      <trkpt lat="49.06912" lon="1.10682">
        <ele>140.5</ele>
        <time>2016-12-11T08:40:17Z</time>
      </trkpt>
      <trkpt lat="49.06913" lon="1.10698">
        <ele>140.7</ele>
        <time>2016-12-11T08:40:19Z</time>
      </trkpt>
      <trkpt lat="49.06914" lon="1.10715">
        <ele>140.8</ele>
        <time>2016-12-11T08:40:21Z</time>
      </trkpt>
      <trkpt lat="49.06915" lon="1.10732">
        <ele>140.7</ele>
        <time>2016-12-11T08:40:23Z</time>
      </trkpt>
      <trkpt lat="49.06918" lon="1.10749">
        <ele>140.7</ele>
        <time>2016-12-11T08:40:25Z</time>
      </trkpt>
      <trkpt lat="49.06921" lon="1.10764">
        <ele>140.8</ele>
        <time>2016-12-11T08:40:27Z</time>
      </trkpt>
      <trkpt lat="49.06926" lon="1.10778">
        <ele>140.9</ele>
        <time>2016-12-11T08:40:29Z</time>
      </trkpt>
      <trkpt lat="49.06931" lon="1.10791">
        <ele>141.2</ele>
        <time>2016-12-11T08:40:31Z</time>
      </trkpt>
      <trkpt lat="49.06933" lon="1.10805">
        <ele>141.4</ele>
        <time>2016-12-11T08:40:33Z</time>
      </trkpt>
      <trkpt lat="49.06932" lon="1.1082">
        <ele>141.6</ele>
        <time>2016-12-11T08:40:35Z</time>
      </trkpt>
      <trkpt lat="49.0693" lon="1.10835">
        <ele>141.8</ele>
        <time>2016-12-11T08:40:37Z</time>
      </trkpt>
      <trkpt lat="49.06929" lon="1.1085">
        <ele>141.9</ele>
        <time>2016-12-11T08:40:39Z</time>
      </trkpt>
      <trkpt lat="49.06928" lon="1.10866">
        <ele>142.1</ele>
        <time>2016-12-11T08:40:41Z</time>
      </trkpt>
      <trkpt lat="49.06928" lon="1.1088">
        <ele>142.2</ele>
        <time>2016-12-11T08:40:43Z</time>
      </trkpt>
      <trkpt lat="49.06927" lon="1.10899">
        <ele>142.4</ele>
        <time>2016-12-11T08:40:46Z</time>
      </trkpt>
      <trkpt lat="49.06928" lon="1.10915">
        <ele>142.5</ele>
        <time>2016-12-11T08:40:49Z</time>
      </trkpt>
      <trkpt lat="49.06936" lon="1.10923">
        <ele>142.5</ele>
        <time>2016-12-11T08:40:52Z</time>
      </trkpt>
      <trkpt lat="49.06946" lon="1.10924">
        <ele>142.5</ele>
        <time>2016-12-11T08:40:55Z</time>
      </trkpt>
      <trkpt lat="49.06955" lon="1.10919">
        <ele>142.4</ele>
        <time>2016-12-11T08:40:58Z</time>
      </trkpt>
      <trkpt lat="49.06965" lon="1.1091">
        <ele>142.4</ele>
        <time>2016-12-11T08:41:01Z</time>
      </trkpt>
      <trkpt lat="49.0697" lon="1.109">
        <ele>142.4</ele>
        <time>2016-12-11T08:41:03Z</time>
      </trkpt>
      <trkpt lat="49.06975" lon="1.10888">
        <ele>142.4</ele>
        <time>2016-12-11T08:41:05Z</time>
      </trkpt>
      <trkpt lat="49.0698" lon="1.10875">
        <ele>142.3</ele>
        <time>2016-12-11T08:41:07Z</time>
      </trkpt>
      <trkpt lat="49.06986" lon="1.10862">
        <ele>142.3</ele>
        <time>2016-12-11T08:41:09Z</time>
      </trkpt>
      <trkpt lat="49.06992" lon="1.10849">
        <ele>142.4</ele>
        <time>2016-12-11T08:41:11Z</time>
      </trkpt>
      <trkpt lat="49.06997" lon="1.10835">
        <ele>142.4</ele>
        <time>2016-12-11T08:41:13Z</time>
      </trkpt>
      <trkpt lat="49.07003" lon="1.10821">
        <ele>142.5</ele>
        <time>2016-12-11T08:41:15Z</time>
      </trkpt>
      <trkpt lat="49.07009" lon="1.10807">
        <ele>142.3</ele>
        <time>2016-12-11T08:41:17Z</time>
      </trkpt>
      <trkpt lat="49.07014" lon="1.10792">
        <ele>142.2</ele>
        <time>2016-12-11T08:41:19Z</time>
      </trkpt>
      <trkpt lat="49.0702" lon="1.10777">
        <ele>142.1</ele>
        <time>2016-12-11T08:41:21Z</time>
      </trkpt>
      <trkpt lat="49.07027" lon="1.10762">
        <ele>142.1</ele>
        <time>2016-12-11T08:41:23Z</time>
      </trkpt>
      <trkpt lat="49.07033" lon="1.10747">
        <ele>142</ele>
        <time>2016-12-11T08:41:25Z</time>
      </trkpt>
      <trkpt lat="49.07039" lon="1.10733">
        <ele>142</ele>
        <time>2016-12-11T08:41:27Z</time>
      </trkpt>
      <trkpt lat="49.07046" lon="1.10719">
        <ele>141.9</ele>
        <time>2016-12-11T08:41:29Z</time>
      </trkpt>
      <trkpt lat="49.07054" lon="1.10706">
        <ele>141.8</ele>
        <time>2016-12-11T08:41:31Z</time>
      </trkpt>
      <trkpt lat="49.07061" lon="1.10692">
        <ele>141.5</ele>
        <time>2016-12-11T08:41:33Z</time>
      </trkpt>
      <trkpt lat="49.07067" lon="1.10678">
        <ele>141.3</ele>
        <time>2016-12-11T08:41:35Z</time>
      </trkpt>
      <trkpt lat="49.07074" lon="1.10665">
        <ele>141.1</ele>
        <time>2016-12-11T08:41:37Z</time>
      </trkpt>
      <trkpt lat="49.07079" lon="1.10653">
        <ele>140.9</ele>
        <time>2016-12-11T08:41:39Z</time>
      </trkpt>
      <trkpt lat="49.07085" lon="1.10642">
        <ele>140.6</ele>
        <time>2016-12-11T08:41:41Z</time>
      </trkpt>
      <trkpt lat="49.07091" lon="1.10631">
        <ele>140.4</ele>
        <time>2016-12-11T08:41:43Z</time>
      </trkpt>
      <trkpt lat="49.07099" lon="1.10616">
        <ele>140.1</ele>
        <time>2016-12-11T08:41:46Z</time>
      </trkpt>
      <trkpt lat="49.07108" lon="1.106">
        <ele>140</ele>
        <time>2016-12-11T08:41:49Z</time>
      </trkpt>
      <trkpt lat="49.07116" lon="1.10585">
        <ele>139.9</ele>
        <time>2016-12-11T08:41:52Z</time>
      </trkpt>
      <trkpt lat="49.07124" lon="1.1057">
        <ele>139.9</ele>
        <time>2016-12-11T08:41:55Z</time>
      </trkpt>
      <trkpt lat="49.07132" lon="1.10555">
        <ele>139.9</ele>
        <time>2016-12-11T08:41:58Z</time>
      </trkpt>
      <trkpt lat="49.0714" lon="1.1054">
        <ele>139.9</ele>
        <time>2016-12-11T08:42:01Z</time>
      </trkpt>
      <trkpt lat="49.07148" lon="1.10524">
        <ele>140.1</ele>
        <time>2016-12-11T08:42:04Z</time>
      </trkpt>
      <trkpt lat="49.07157" lon="1.10508">
        <ele>140.2</ele>
        <time>2016-12-11T08:42:07Z</time>
      </trkpt>
      <trkpt lat="49.07166" lon="1.10495">
        <ele>140.3</ele>
        <time>2016-12-11T08:42:10Z</time>
      </trkpt>
      <trkpt lat="49.07174" lon="1.10486">
        <ele>140.4</ele>
        <time>2016-12-11T08:42:12Z</time>
      </trkpt>
      <trkpt lat="49.07184" lon="1.10472">
        <ele>140.5</ele>
        <time>2016-12-11T08:42:15Z</time>
      </trkpt>
      <trkpt lat="49.0719" lon="1.10462">
        <ele>140.6</ele>
        <time>2016-12-11T08:42:17Z</time>
      </trkpt>
      <trkpt lat="49.07196" lon="1.10451">
        <ele>140.6</ele>
        <time>2016-12-11T08:42:19Z</time>
      </trkpt>
      <trkpt lat="49.07205" lon="1.10435">
        <ele>140.8</ele>
        <time>2016-12-11T08:42:22Z</time>
      </trkpt>
      <trkpt lat="49.07213" lon="1.1042">
        <ele>141.1</ele>
        <time>2016-12-11T08:42:25Z</time>
      </trkpt>
      <trkpt lat="49.07222" lon="1.10404">
        <ele>141.3</ele>
        <time>2016-12-11T08:42:28Z</time>
      </trkpt>
      <trkpt lat="49.0723" lon="1.10388">
        <ele>141.5</ele>
        <time>2016-12-11T08:42:31Z</time>
      </trkpt>
      <trkpt lat="49.07236" lon="1.10377">
        <ele>141.6</ele>
        <time>2016-12-11T08:42:33Z</time>
      </trkpt>
      <trkpt lat="49.07242" lon="1.10366">
        <ele>141.7</ele>
        <time>2016-12-11T08:42:35Z</time>
      </trkpt>
      <trkpt lat="49.07248" lon="1.10355">
        <ele>141.8</ele>
        <time>2016-12-11T08:42:37Z</time>
      </trkpt>
      <trkpt lat="49.07254" lon="1.10344">
        <ele>142</ele>
        <time>2016-12-11T08:42:39Z</time>
      </trkpt>
      <trkpt lat="49.0726" lon="1.10333">
        <ele>142.1</ele>
        <time>2016-12-11T08:42:41Z</time>
      </trkpt>
      <trkpt lat="49.07266" lon="1.10321">
        <ele>142.3</ele>
        <time>2016-12-11T08:42:43Z</time>
      </trkpt>
      <trkpt lat="49.07272" lon="1.1031">
        <ele>142.4</ele>
        <time>2016-12-11T08:42:45Z</time>
      </trkpt>
      <trkpt lat="49.07278" lon="1.10299">
        <ele>142.6</ele>
        <time>2016-12-11T08:42:47Z</time>
      </trkpt>
      <trkpt lat="49.07284" lon="1.10287">
        <ele>142.7</ele>
        <time>2016-12-11T08:42:49Z</time>
      </trkpt>
      <trkpt lat="49.0729" lon="1.10276">
        <ele>142.9</ele>
        <time>2016-12-11T08:42:51Z</time>
      </trkpt>
      <trkpt lat="49.07296" lon="1.10264">
        <ele>143</ele>
        <time>2016-12-11T08:42:53Z</time>
      </trkpt>
      <trkpt lat="49.07303" lon="1.10252">
        <ele>143.1</ele>
        <time>2016-12-11T08:42:55Z</time>
      </trkpt>
      <trkpt lat="49.07309" lon="1.10241">
        <ele>143.2</ele>
        <time>2016-12-11T08:42:57Z</time>
      </trkpt>
      <trkpt lat="49.07315" lon="1.10229">
        <ele>143.3</ele>
        <time>2016-12-11T08:42:59Z</time>
      </trkpt>
      <trkpt lat="49.07322" lon="1.10217">
        <ele>143.4</ele>
        <time>2016-12-11T08:43:01Z</time>
      </trkpt>
      <trkpt lat="49.07328" lon="1.10206">
        <ele>143.5</ele>
        <time>2016-12-11T08:43:03Z</time>
      </trkpt>
      <trkpt lat="49.07335" lon="1.10194">
        <ele>143.6</ele>
        <time>2016-12-11T08:43:05Z</time>
      </trkpt>
      <trkpt lat="49.07341" lon="1.10183">
        <ele>143.8</ele>
        <time>2016-12-11T08:43:07Z</time>
      </trkpt>
      <trkpt lat="49.07347" lon="1.10173">
        <ele>144</ele>
        <time>2016-12-11T08:43:09Z</time>
      </trkpt>
      <trkpt lat="49.07354" lon="1.10158">
        <ele>144.2</ele>
        <time>2016-12-11T08:43:12Z</time>
      </trkpt>
      <trkpt lat="49.07362" lon="1.10143">
        <ele>144.4</ele>
        <time>2016-12-11T08:43:15Z</time>
      </trkpt>
      <trkpt lat="49.07369" lon="1.10129">
        <ele>144.5</ele>
        <time>2016-12-11T08:43:18Z</time>
      </trkpt>
      <trkpt lat="49.07378" lon="1.10114">
        <ele>144.5</ele>
        <time>2016-12-11T08:43:21Z</time>
      </trkpt>
      <trkpt lat="49.07384" lon="1.10103">
        <ele>144.5</ele>
        <time>2016-12-11T08:43:23Z</time>
      </trkpt>
      <trkpt lat="49.0739" lon="1.10092">
        <ele>144.4</ele>
        <time>2016-12-11T08:43:25Z</time>
      </trkpt>
      <trkpt lat="49.07396" lon="1.10081">
        <ele>144.4</ele>
        <time>2016-12-11T08:43:27Z</time>
      </trkpt>
      <trkpt lat="49.07403" lon="1.1007">
        <ele>144.4</ele>
        <time>2016-12-11T08:43:29Z</time>
      </trkpt>
      <trkpt lat="49.07409" lon="1.10058">
        <ele>144.4</ele>
        <time>2016-12-11T08:43:31Z</time>
      </trkpt>
      <trkpt lat="49.07416" lon="1.10047">
        <ele>144.4</ele>
        <time>2016-12-11T08:43:33Z</time>
      </trkpt>
      <trkpt lat="49.07422" lon="1.10035">
        <ele>144.5</ele>
        <time>2016-12-11T08:43:35Z</time>
      </trkpt>
      <trkpt lat="49.07428" lon="1.10023">
        <ele>144.5</ele>
        <time>2016-12-11T08:43:37Z</time>
      </trkpt>
      <trkpt lat="49.07435" lon="1.10011">
        <ele>144.6</ele>
        <time>2016-12-11T08:43:39Z</time>
      </trkpt>
      <trkpt lat="49.07442" lon="1.1">
        <ele>144.7</ele>
        <time>2016-12-11T08:43:41Z</time>
      </trkpt>
      <trkpt lat="49.07449" lon="1.09988">
        <ele>144.8</ele>
        <time>2016-12-11T08:43:43Z</time>
      </trkpt>
      <trkpt lat="49.07455" lon="1.09976">
        <ele>144.8</ele>
        <time>2016-12-11T08:43:45Z</time>
      </trkpt>
      <trkpt lat="49.07462" lon="1.09963">
        <ele>144.9</ele>
        <time>2016-12-11T08:43:47Z</time>
      </trkpt>
      <trkpt lat="49.07469" lon="1.09951">
        <ele>144.9</ele>
        <time>2016-12-11T08:43:49Z</time>
      </trkpt>
      <trkpt lat="49.07476" lon="1.09938">
        <ele>145</ele>
        <time>2016-12-11T08:43:51Z</time>
      </trkpt>
      <trkpt lat="49.07483" lon="1.09925">
        <ele>145</ele>
        <time>2016-12-11T08:43:53Z</time>
      </trkpt>
      <trkpt lat="49.0749" lon="1.09914">
        <ele>145</ele>
        <time>2016-12-11T08:43:55Z</time>
      </trkpt>
      <trkpt lat="49.07498" lon="1.09903">
        <ele>145.1</ele>
        <time>2016-12-11T08:43:57Z</time>
      </trkpt>
      <trkpt lat="49.07505" lon="1.09891">
        <ele>145.1</ele>
        <time>2016-12-11T08:43:59Z</time>
      </trkpt>
      <trkpt lat="49.07514" lon="1.0988">
        <ele>145.1</ele>
        <time>2016-12-11T08:44:01Z</time>
      </trkpt>
      <trkpt lat="49.07521" lon="1.0987">
        <ele>145.1</ele>
        <time>2016-12-11T08:44:03Z</time>
      </trkpt>
      <trkpt lat="49.0753" lon="1.09861">
        <ele>145.1</ele>
        <time>2016-12-11T08:44:05Z</time>
      </trkpt>
      <trkpt lat="49.07538" lon="1.09853">
        <ele>145.2</ele>
        <time>2016-12-11T08:44:07Z</time>
      </trkpt>
      <trkpt lat="49.07547" lon="1.09844">
        <ele>145.2</ele>
        <time>2016-12-11T08:44:09Z</time>
      </trkpt>
      <trkpt lat="49.07556" lon="1.09836">
        <ele>145.3</ele>
        <time>2016-12-11T08:44:11Z</time>
      </trkpt>
      <trkpt lat="49.07565" lon="1.09828">
        <ele>145.3</ele>
        <time>2016-12-11T08:44:13Z</time>
      </trkpt>
      <trkpt lat="49.07573" lon="1.09819">
        <ele>145.4</ele>
        <time>2016-12-11T08:44:15Z</time>
      </trkpt>
      <trkpt lat="49.07582" lon="1.09811">
        <ele>145.4</ele>
        <time>2016-12-11T08:44:17Z</time>
      </trkpt>
      <trkpt lat="49.07591" lon="1.09802">
        <ele>145.4</ele>
        <time>2016-12-11T08:44:19Z</time>
      </trkpt>
      <trkpt lat="49.07599" lon="1.09794">
        <ele>145.4</ele>
        <time>2016-12-11T08:44:21Z</time>
      </trkpt>
      <trkpt lat="49.07607" lon="1.09785">
        <ele>145.4</ele>
        <time>2016-12-11T08:44:23Z</time>
      </trkpt>
      <trkpt lat="49.07616" lon="1.09776">
        <ele>145.4</ele>
        <time>2016-12-11T08:44:25Z</time>
      </trkpt>
      <trkpt lat="49.07624" lon="1.09768">
        <ele>145.4</ele>
        <time>2016-12-11T08:44:27Z</time>
      </trkpt>
      <trkpt lat="49.07633" lon="1.0976">
        <ele>145.5</ele>
        <time>2016-12-11T08:44:29Z</time>
      </trkpt>
      <trkpt lat="49.07642" lon="1.09751">
        <ele>145.6</ele>
        <time>2016-12-11T08:44:31Z</time>
      </trkpt>
      <trkpt lat="49.0765" lon="1.09743">
        <ele>145.6</ele>
        <time>2016-12-11T08:44:33Z</time>
      </trkpt>
      <trkpt lat="49.07659" lon="1.09734">
        <ele>145.7</ele>
        <time>2016-12-11T08:44:35Z</time>
      </trkpt>
      <trkpt lat="49.07667" lon="1.09726">
        <ele>145.7</ele>
        <time>2016-12-11T08:44:37Z</time>
      </trkpt>
      <trkpt lat="49.07674" lon="1.09719">
        <ele>145.8</ele>
        <time>2016-12-11T08:44:39Z</time>
      </trkpt>
      <trkpt lat="49.07682" lon="1.09711">
        <ele>145.8</ele>
        <time>2016-12-11T08:44:41Z</time>
      </trkpt>
      <trkpt lat="49.07691" lon="1.09704">
        <ele>145.9</ele>
        <time>2016-12-11T08:44:43Z</time>
      </trkpt>
      <trkpt lat="49.07698" lon="1.09697">
        <ele>146</ele>
        <time>2016-12-11T08:44:45Z</time>
      </trkpt>
      <trkpt lat="49.07706" lon="1.09689">
        <ele>146</ele>
        <time>2016-12-11T08:44:47Z</time>
      </trkpt>
      <trkpt lat="49.07713" lon="1.09681">
        <ele>146.1</ele>
        <time>2016-12-11T08:44:49Z</time>
      </trkpt>
      <trkpt lat="49.07721" lon="1.09673">
        <ele>146.2</ele>
        <time>2016-12-11T08:44:51Z</time>
      </trkpt>
      <trkpt lat="49.07729" lon="1.09665">
        <ele>146.2</ele>
        <time>2016-12-11T08:44:53Z</time>
      </trkpt>
      <trkpt lat="49.07736" lon="1.09657">
        <ele>146.3</ele>
        <time>2016-12-11T08:44:55Z</time>
      </trkpt>
      <trkpt lat="49.07747" lon="1.09645">
        <ele>146.4</ele>
        <time>2016-12-11T08:44:58Z</time>
      </trkpt>
      <trkpt lat="49.07758" lon="1.09634">
        <ele>146.5</ele>
        <time>2016-12-11T08:45:01Z</time>
      </trkpt>
      <trkpt lat="49.07769" lon="1.09622">
        <ele>146.6</ele>
        <time>2016-12-11T08:45:04Z</time>
      </trkpt>
      <trkpt lat="49.0778" lon="1.09611">
        <ele>146.8</ele>
        <time>2016-12-11T08:45:07Z</time>
      </trkpt>
      <trkpt lat="49.07788" lon="1.09603">
        <ele>146.9</ele>
        <time>2016-12-11T08:45:09Z</time>
      </trkpt>
      <trkpt lat="49.07796" lon="1.09595">
        <ele>147</ele>
        <time>2016-12-11T08:45:11Z</time>
      </trkpt>
      <trkpt lat="49.07804" lon="1.09587">
        <ele>147.1</ele>
        <time>2016-12-11T08:45:13Z</time>
      </trkpt>
      <trkpt lat="49.07812" lon="1.09579">
        <ele>147.1</ele>
        <time>2016-12-11T08:45:15Z</time>
      </trkpt>
      <trkpt lat="49.07819" lon="1.0957">
        <ele>147.2</ele>
        <time>2016-12-11T08:45:17Z</time>
      </trkpt>
      <trkpt lat="49.07828" lon="1.09562">
        <ele>147.3</ele>
        <time>2016-12-11T08:45:19Z</time>
      </trkpt>
      <trkpt lat="49.07836" lon="1.09556">
        <ele>147.3</ele>
        <time>2016-12-11T08:45:21Z</time>
      </trkpt>
      <trkpt lat="49.07845" lon="1.0955">
        <ele>147.3</ele>
        <time>2016-12-11T08:45:23Z</time>
      </trkpt>
      <trkpt lat="49.07854" lon="1.09543">
        <ele>147.4</ele>
        <time>2016-12-11T08:45:25Z</time>
      </trkpt>
      <trkpt lat="49.07863" lon="1.09536">
        <ele>147.5</ele>
        <time>2016-12-11T08:45:27Z</time>
      </trkpt>
      <trkpt lat="49.07873" lon="1.0953">
        <ele>147.6</ele>
        <time>2016-12-11T08:45:29Z</time>
      </trkpt>
      <trkpt lat="49.07882" lon="1.09523">
        <ele>147.7</ele>
        <time>2016-12-11T08:45:31Z</time>
      </trkpt>
      <trkpt lat="49.07891" lon="1.09517">
        <ele>147.8</ele>
        <time>2016-12-11T08:45:33Z</time>
      </trkpt>
      <trkpt lat="49.079" lon="1.09511">
        <ele>147.9</ele>
        <time>2016-12-11T08:45:35Z</time>
      </trkpt>
      <trkpt lat="49.07908" lon="1.09505">
        <ele>148</ele>
        <time>2016-12-11T08:45:37Z</time>
      </trkpt>
      <trkpt lat="49.07916" lon="1.095">
        <ele>148</ele>
        <time>2016-12-11T08:45:39Z</time>
      </trkpt>
      <trkpt lat="49.07925" lon="1.09494">
        <ele>148.1</ele>
        <time>2016-12-11T08:45:41Z</time>
      </trkpt>
      <trkpt lat="49.07934" lon="1.09488">
        <ele>148.1</ele>
        <time>2016-12-11T08:45:43Z</time>
      </trkpt>
      <trkpt lat="49.07944" lon="1.09481">
        <ele>148.1</ele>
        <time>2016-12-11T08:45:45Z</time>
      </trkpt>
      <trkpt lat="49.07954" lon="1.09475">
        <ele>148.1</ele>
        <time>2016-12-11T08:45:47Z</time>
      </trkpt>
      <trkpt lat="49.07963" lon="1.09469">
        <ele>148.2</ele>
        <time>2016-12-11T08:45:49Z</time>
      </trkpt>
      <trkpt lat="49.07973" lon="1.09463">
        <ele>148.2</ele>
        <time>2016-12-11T08:45:51Z</time>
      </trkpt>
      <trkpt lat="49.07983" lon="1.09456">
        <ele>148.2</ele>
        <time>2016-12-11T08:45:53Z</time>
      </trkpt>
      <trkpt lat="49.07993" lon="1.0945">
        <ele>148.1</ele>
        <time>2016-12-11T08:45:55Z</time>
      </trkpt>
      <trkpt lat="49.08003" lon="1.09443">
        <ele>148.1</ele>
        <time>2016-12-11T08:45:57Z</time>
      </trkpt>
      <trkpt lat="49.08012" lon="1.09437">
        <ele>148</ele>
        <time>2016-12-11T08:45:59Z</time>
      </trkpt>
      <trkpt lat="49.08022" lon="1.0943">
        <ele>147.8</ele>
        <time>2016-12-11T08:46:01Z</time>
      </trkpt>
      <trkpt lat="49.08032" lon="1.09424">
        <ele>147.8</ele>
        <time>2016-12-11T08:46:03Z</time>
      </trkpt>
      <trkpt lat="49.08041" lon="1.09418">
        <ele>147.7</ele>
        <time>2016-12-11T08:46:05Z</time>
      </trkpt>
      <trkpt lat="49.08051" lon="1.0941">
        <ele>147.6</ele>
        <time>2016-12-11T08:46:07Z</time>
      </trkpt>
      <trkpt lat="49.08061" lon="1.09403">
        <ele>147.6</ele>
        <time>2016-12-11T08:46:09Z</time>
      </trkpt>
      <trkpt lat="49.0807" lon="1.09397">
        <ele>147.6</ele>
        <time>2016-12-11T08:46:11Z</time>
      </trkpt>
      <trkpt lat="49.0808" lon="1.0939">
        <ele>147.6</ele>
        <time>2016-12-11T08:46:13Z</time>
      </trkpt>
      <trkpt lat="49.0809" lon="1.09384">
        <ele>147.5</ele>
        <time>2016-12-11T08:46:15Z</time>
      </trkpt>
      <trkpt lat="49.081" lon="1.09378">
        <ele>147.5</ele>
        <time>2016-12-11T08:46:17Z</time>
      </trkpt>
      <trkpt lat="49.08111" lon="1.09373">
        <ele>147.5</ele>
        <time>2016-12-11T08:46:19Z</time>
      </trkpt>
      <trkpt lat="49.08121" lon="1.09369">
        <ele>147.6</ele>
        <time>2016-12-11T08:46:21Z</time>
      </trkpt>
      <trkpt lat="49.08132" lon="1.09365">
        <ele>147.6</ele>
        <time>2016-12-11T08:46:23Z</time>
      </trkpt>
      <trkpt lat="49.08143" lon="1.09361">
        <ele>147.7</ele>
        <time>2016-12-11T08:46:25Z</time>
      </trkpt>
      <trkpt lat="49.08154" lon="1.09357">
        <ele>147.7</ele>
        <time>2016-12-11T08:46:27Z</time>
      </trkpt>
      <trkpt lat="49.08165" lon="1.09354">
        <ele>147.7</ele>
        <time>2016-12-11T08:46:29Z</time>
      </trkpt>
      <trkpt lat="49.08176" lon="1.0935">
        <ele>147.7</ele>
        <time>2016-12-11T08:46:31Z</time>
      </trkpt>
      <trkpt lat="49.08187" lon="1.09346">
        <ele>147.7</ele>
        <time>2016-12-11T08:46:33Z</time>
      </trkpt>
      <trkpt lat="49.08198" lon="1.09342">
        <ele>147.8</ele>
        <time>2016-12-11T08:46:35Z</time>
      </trkpt>
      <trkpt lat="49.0821" lon="1.09338">
        <ele>147.8</ele>
        <time>2016-12-11T08:46:37Z</time>
      </trkpt>
      <trkpt lat="49.08221" lon="1.09334">
        <ele>147.8</ele>
        <time>2016-12-11T08:46:39Z</time>
      </trkpt>
      <trkpt lat="49.08233" lon="1.09331">
        <ele>147.7</ele>
        <time>2016-12-11T08:46:41Z</time>
      </trkpt>
      <trkpt lat="49.08245" lon="1.09326">
        <ele>147.5</ele>
        <time>2016-12-11T08:46:43Z</time>
      </trkpt>
      <trkpt lat="49.08256" lon="1.09323">
        <ele>147.3</ele>
        <time>2016-12-11T08:46:45Z</time>
      </trkpt>
      <trkpt lat="49.08268" lon="1.09318">
        <ele>147.2</ele>
        <time>2016-12-11T08:46:47Z</time>
      </trkpt>
      <trkpt lat="49.08279" lon="1.09314">
        <ele>147.1</ele>
        <time>2016-12-11T08:46:49Z</time>
      </trkpt>
      <trkpt lat="49.0829" lon="1.09308">
        <ele>147</ele>
        <time>2016-12-11T08:46:51Z</time>
      </trkpt>
      <trkpt lat="49.08299" lon="1.093">
        <ele>146.9</ele>
        <time>2016-12-11T08:46:53Z</time>
      </trkpt>
      <trkpt lat="49.08307" lon="1.09294">
        <ele>146.7</ele>
        <time>2016-12-11T08:46:55Z</time>
      </trkpt>
      <trkpt lat="49.08319" lon="1.09298">
        <ele>146.4</ele>
        <time>2016-12-11T08:46:58Z</time>
      </trkpt>
      <trkpt lat="49.08327" lon="1.09313">
        <ele>146.2</ele>
        <time>2016-12-11T08:47:01Z</time>
      </trkpt>
      <trkpt lat="49.08334" lon="1.09323">
        <ele>146.1</ele>
        <time>2016-12-11T08:47:03Z</time>
      </trkpt>
      <trkpt lat="49.08341" lon="1.09334">
        <ele>145.9</ele>
        <time>2016-12-11T08:47:05Z</time>
      </trkpt>
      <trkpt lat="49.0835" lon="1.09346">
        <ele>145.9</ele>
        <time>2016-12-11T08:47:07Z</time>
      </trkpt>
      <trkpt lat="49.08358" lon="1.09358">
        <ele>145.8</ele>
        <time>2016-12-11T08:47:09Z</time>
      </trkpt>
      <trkpt lat="49.08366" lon="1.09372">
        <ele>145.7</ele>
        <time>2016-12-11T08:47:11Z</time>
      </trkpt>
      <trkpt lat="49.08374" lon="1.09385">
        <ele>145.7</ele>
        <time>2016-12-11T08:47:13Z</time>
      </trkpt>
      <trkpt lat="49.08382" lon="1.09398">
        <ele>145.6</ele>
        <time>2016-12-11T08:47:15Z</time>
      </trkpt>
      <trkpt lat="49.08389" lon="1.09411">
        <ele>145.6</ele>
        <time>2016-12-11T08:47:17Z</time>
      </trkpt>
      <trkpt lat="49.08397" lon="1.09423">
        <ele>145.5</ele>
        <time>2016-12-11T08:47:19Z</time>
      </trkpt>
      <trkpt lat="49.08406" lon="1.09434">
        <ele>145.5</ele>
        <time>2016-12-11T08:47:21Z</time>
      </trkpt>
      <trkpt lat="49.08415" lon="1.09443">
        <ele>145.5</ele>
        <time>2016-12-11T08:47:23Z</time>
      </trkpt>
      <trkpt lat="49.08425" lon="1.09451">
        <ele>145.4</ele>
        <time>2016-12-11T08:47:25Z</time>
      </trkpt>
      <trkpt lat="49.08435" lon="1.09459">
        <ele>145.4</ele>
        <time>2016-12-11T08:47:27Z</time>
      </trkpt>
      <trkpt lat="49.08443" lon="1.09467">
        <ele>145.4</ele>
        <time>2016-12-11T08:47:29Z</time>
      </trkpt>
      <trkpt lat="49.08452" lon="1.09475">
        <ele>145.4</ele>
        <time>2016-12-11T08:47:31Z</time>
      </trkpt>
      <trkpt lat="49.0846" lon="1.09483">
        <ele>145.4</ele>
        <time>2016-12-11T08:47:33Z</time>
      </trkpt>
      <trkpt lat="49.08469" lon="1.09491">
        <ele>145.3</ele>
        <time>2016-12-11T08:47:35Z</time>
      </trkpt>
      <trkpt lat="49.08477" lon="1.09499">
        <ele>145.3</ele>
        <time>2016-12-11T08:47:37Z</time>
      </trkpt>
      <trkpt lat="49.08487" lon="1.09506">
        <ele>145.3</ele>
        <time>2016-12-11T08:47:39Z</time>
      </trkpt>
      <trkpt lat="49.08498" lon="1.09508">
        <ele>145.2</ele>
        <time>2016-12-11T08:47:41Z</time>
      </trkpt>
      <trkpt lat="49.0851" lon="1.0951">
        <ele>145</ele>
        <time>2016-12-11T08:47:43Z</time>
      </trkpt>
      <trkpt lat="49.0852" lon="1.09513">
        <ele>144.6</ele>
        <time>2016-12-11T08:47:45Z</time>
      </trkpt>
      <trkpt lat="49.08534" lon="1.09509">
        <ele>144.4</ele>
        <time>2016-12-11T08:47:47Z</time>
      </trkpt>
      <trkpt lat="49.08543" lon="1.09508">
        <ele>144.1</ele>
        <time>2016-12-11T08:47:48Z</time>
      </trkpt>
      <trkpt lat="49.08557" lon="1.09505">
        <ele>143.9</ele>
        <time>2016-12-11T08:47:50Z</time>
      </trkpt>
      <trkpt lat="49.08572" lon="1.09503">
        <ele>143.8</ele>
        <time>2016-12-11T08:47:52Z</time>
      </trkpt>
      <trkpt lat="49.08586" lon="1.09498">
        <ele>143.7</ele>
        <time>2016-12-11T08:47:54Z</time>
      </trkpt>
      <trkpt lat="49.08601" lon="1.09495">
        <ele>143.4</ele>
        <time>2016-12-11T08:47:56Z</time>
      </trkpt>
      <trkpt lat="49.08618" lon="1.09491">
        <ele>143.1</ele>
        <time>2016-12-11T08:47:58Z</time>
      </trkpt>
      <trkpt lat="49.08632" lon="1.09491">
        <ele>142.8</ele>
        <time>2016-12-11T08:48:00Z</time>
      </trkpt>
      <trkpt lat="49.08647" lon="1.09492">
        <ele>142.5</ele>
        <time>2016-12-11T08:48:02Z</time>
      </trkpt>
      <trkpt lat="49.08661" lon="1.09494">
        <ele>142.3</ele>
        <time>2016-12-11T08:48:04Z</time>
      </trkpt>
      <trkpt lat="49.08676" lon="1.095">
        <ele>141.9</ele>
        <time>2016-12-11T08:48:06Z</time>
      </trkpt>
      <trkpt lat="49.08688" lon="1.0951">
        <ele>141.4</ele>
        <time>2016-12-11T08:48:08Z</time>
      </trkpt>
      <trkpt lat="49.08703" lon="1.09517">
        <ele>140.8</ele>
        <time>2016-12-11T08:48:10Z</time>
      </trkpt>
      <trkpt lat="49.08714" lon="1.0952">
        <ele>140.6</ele>
        <time>2016-12-11T08:48:11Z</time>
      </trkpt>
      <trkpt lat="49.08725" lon="1.09522">
        <ele>140.3</ele>
        <time>2016-12-11T08:48:12Z</time>
      </trkpt>
      <trkpt lat="49.08736" lon="1.09527">
        <ele>140</ele>
        <time>2016-12-11T08:48:13Z</time>
      </trkpt>
      <trkpt lat="49.08749" lon="1.09532">
        <ele>139.3</ele>
        <time>2016-12-11T08:48:15Z</time>
      </trkpt>
      <trkpt lat="49.08758" lon="1.09533">
        <ele>138.9</ele>
        <time>2016-12-11T08:48:16Z</time>
      </trkpt>
      <trkpt lat="49.0877" lon="1.09534">
        <ele>138.2</ele>
        <time>2016-12-11T08:48:18Z</time>
      </trkpt>
      <trkpt lat="49.08782" lon="1.09532">
        <ele>137.6</ele>
        <time>2016-12-11T08:48:20Z</time>
      </trkpt>
      <trkpt lat="49.08798" lon="1.09534">
        <ele>137.1</ele>
        <time>2016-12-11T08:48:22Z</time>
      </trkpt>
      <trkpt lat="49.08811" lon="1.09535">
        <ele>136.4</ele>
        <time>2016-12-11T08:48:24Z</time>
      </trkpt>
      <trkpt lat="49.08824" lon="1.09535">
        <ele>135.7</ele>
        <time>2016-12-11T08:48:26Z</time>
      </trkpt>
      <trkpt lat="49.08836" lon="1.09533">
        <ele>134.9</ele>
        <time>2016-12-11T08:48:28Z</time>
      </trkpt>
      <trkpt lat="49.08851" lon="1.09535">
        <ele>134.2</ele>
        <time>2016-12-11T08:48:30Z</time>
      </trkpt>
      <trkpt lat="49.0886" lon="1.09535">
        <ele>133.8</ele>
        <time>2016-12-11T08:48:31Z</time>
      </trkpt>
      <trkpt lat="49.08872" lon="1.09533">
        <ele>133</ele>
        <time>2016-12-11T08:48:33Z</time>
      </trkpt>
      <trkpt lat="49.08885" lon="1.09539">
        <ele>132.1</ele>
        <time>2016-12-11T08:48:35Z</time>
      </trkpt>
      <trkpt lat="49.08897" lon="1.09552">
        <ele>131.3</ele>
        <time>2016-12-11T08:48:37Z</time>
      </trkpt>
      <trkpt lat="49.08905" lon="1.0956">
        <ele>130.3</ele>
        <time>2016-12-11T08:48:39Z</time>
      </trkpt>
      <trkpt lat="49.08913" lon="1.09568">
        <ele>129.4</ele>
        <time>2016-12-11T08:48:41Z</time>
      </trkpt>
      <trkpt lat="49.08924" lon="1.09577">
        <ele>128.5</ele>
        <time>2016-12-11T08:48:43Z</time>
      </trkpt>
      <trkpt lat="49.08933" lon="1.09586">
        <ele>127.6</ele>
        <time>2016-12-11T08:48:45Z</time>
      </trkpt>
      <trkpt lat="49.08946" lon="1.09595">
        <ele>126.7</ele>
        <time>2016-12-11T08:48:47Z</time>
      </trkpt>
      <trkpt lat="49.08957" lon="1.09605">
        <ele>125.9</ele>
        <time>2016-12-11T08:48:49Z</time>
      </trkpt>
      <trkpt lat="49.08969" lon="1.09613">
        <ele>124.6</ele>
        <time>2016-12-11T08:48:51Z</time>
      </trkpt>
      <trkpt lat="49.0898" lon="1.09617">
        <ele>123.6</ele>
        <time>2016-12-11T08:48:53Z</time>
      </trkpt>
      <trkpt lat="49.08992" lon="1.09618">
        <ele>122.7</ele>
        <time>2016-12-11T08:48:55Z</time>
      </trkpt>
      <trkpt lat="49.09003" lon="1.09621">
        <ele>121.9</ele>
        <time>2016-12-11T08:48:57Z</time>
      </trkpt>
      <trkpt lat="49.09017" lon="1.09621">
        <ele>120.6</ele>
        <time>2016-12-11T08:49:00Z</time>
      </trkpt>
      <trkpt lat="49.09027" lon="1.09622">
        <ele>119.7</ele>
        <time>2016-12-11T08:49:02Z</time>
      </trkpt>
      <trkpt lat="49.0904" lon="1.09621">
        <ele>118.8</ele>
        <time>2016-12-11T08:49:04Z</time>
      </trkpt>
      <trkpt lat="49.09053" lon="1.09623">
        <ele>118.1</ele>
        <time>2016-12-11T08:49:06Z</time>
      </trkpt>
      <trkpt lat="49.09063" lon="1.09623">
        <ele>117.3</ele>
        <time>2016-12-11T08:49:08Z</time>
      </trkpt>
      <trkpt lat="49.09074" lon="1.09621">
        <ele>116.6</ele>
        <time>2016-12-11T08:49:10Z</time>
      </trkpt>
      <trkpt lat="49.09087" lon="1.0962">
        <ele>115.9</ele>
        <time>2016-12-11T08:49:12Z</time>
      </trkpt>
      <trkpt lat="49.09099" lon="1.09616">
        <ele>115.1</ele>
        <time>2016-12-11T08:49:14Z</time>
      </trkpt>
      <trkpt lat="49.09112" lon="1.09616">
        <ele>114.4</ele>
        <time>2016-12-11T08:49:16Z</time>
      </trkpt>
      <trkpt lat="49.09124" lon="1.09615">
        <ele>113.8</ele>
        <time>2016-12-11T08:49:18Z</time>
      </trkpt>
      <trkpt lat="49.09136" lon="1.09614">
        <ele>113</ele>
        <time>2016-12-11T08:49:20Z</time>
      </trkpt>
      <trkpt lat="49.09147" lon="1.09612">
        <ele>112.1</ele>
        <time>2016-12-11T08:49:22Z</time>
      </trkpt>
      <trkpt lat="49.09163" lon="1.09611">
        <ele>111.4</ele>
        <time>2016-12-11T08:49:24Z</time>
      </trkpt>
      <trkpt lat="49.09178" lon="1.09607">
        <ele>110.7</ele>
        <time>2016-12-11T08:49:26Z</time>
      </trkpt>
      <trkpt lat="49.09191" lon="1.096">
        <ele>110</ele>
        <time>2016-12-11T08:49:28Z</time>
      </trkpt>
      <trkpt lat="49.09204" lon="1.09595">
        <ele>109.4</ele>
        <time>2016-12-11T08:49:30Z</time>
      </trkpt>
      <trkpt lat="49.09218" lon="1.0959">
        <ele>108.7</ele>
        <time>2016-12-11T08:49:32Z</time>
      </trkpt>
      <trkpt lat="49.09231" lon="1.09586">
        <ele>108.1</ele>
        <time>2016-12-11T08:49:34Z</time>
      </trkpt>
      <trkpt lat="49.09244" lon="1.0958">
        <ele>107.5</ele>
        <time>2016-12-11T08:49:36Z</time>
      </trkpt>
      <trkpt lat="49.09258" lon="1.09576">
        <ele>106.9</ele>
        <time>2016-12-11T08:49:38Z</time>
      </trkpt>
      <trkpt lat="49.09271" lon="1.09572">
        <ele>106.2</ele>
        <time>2016-12-11T08:49:40Z</time>
      </trkpt>
      <trkpt lat="49.09284" lon="1.09567">
        <ele>105.5</ele>
        <time>2016-12-11T08:49:42Z</time>
      </trkpt>
      <trkpt lat="49.09297" lon="1.09562">
        <ele>104.9</ele>
        <time>2016-12-11T08:49:44Z</time>
      </trkpt>
      <trkpt lat="49.09311" lon="1.09556">
        <ele>104.3</ele>
        <time>2016-12-11T08:49:46Z</time>
      </trkpt>
      <trkpt lat="49.09326" lon="1.0955">
        <ele>103.8</ele>
        <time>2016-12-11T08:49:48Z</time>
      </trkpt>
      <trkpt lat="49.0934" lon="1.09545">
        <ele>103.2</ele>
        <time>2016-12-11T08:49:50Z</time>
      </trkpt>
      <trkpt lat="49.09355" lon="1.0954">
        <ele>102.5</ele>
        <time>2016-12-11T08:49:52Z</time>
      </trkpt>
      <trkpt lat="49.0937" lon="1.09534">
        <ele>101.8</ele>
        <time>2016-12-11T08:49:54Z</time>
      </trkpt>
      <trkpt lat="49.09384" lon="1.09528">
        <ele>101</ele>
        <time>2016-12-11T08:49:56Z</time>
      </trkpt>
      <trkpt lat="49.09398" lon="1.09522">
        <ele>100.2</ele>
        <time>2016-12-11T08:49:58Z</time>
      </trkpt>
      <trkpt lat="49.09413" lon="1.09518">
        <ele>99.5</ele>
        <time>2016-12-11T08:50:00Z</time>
      </trkpt>
      <trkpt lat="49.09427" lon="1.09508">
        <ele>98.9</ele>
        <time>2016-12-11T08:50:02Z</time>
      </trkpt>
      <trkpt lat="49.0944" lon="1.09498">
        <ele>98.4</ele>
        <time>2016-12-11T08:50:04Z</time>
      </trkpt>
      <trkpt lat="49.09451" lon="1.09492">
        <ele>97.6</ele>
        <time>2016-12-11T08:50:06Z</time>
      </trkpt>
      <trkpt lat="49.09462" lon="1.0949">
        <ele>96.7</ele>
        <time>2016-12-11T08:50:09Z</time>
      </trkpt>
      <trkpt lat="49.09469" lon="1.09481">
        <ele>92.6</ele>
        <time>2016-12-11T08:50:22Z</time>
      </trkpt>
      <trkpt lat="49.09478" lon="1.09476">
        <ele>76.1</ele>
        <time>2016-12-11T08:51:44Z</time>
      </trkpt>
      <trkpt lat="49.09472" lon="1.09463">
        <ele>71.6</ele>
        <time>2016-12-11T08:52:23Z</time>
      </trkpt>
      <trkpt lat="49.09468" lon="1.09449">
        <ele>71.1</ele>
        <time>2016-12-11T08:52:29Z</time>
      </trkpt>
      <trkpt lat="49.09462" lon="1.09437">
        <ele>70.9</ele>
        <time>2016-12-11T08:52:33Z</time>
      </trkpt>
      <trkpt lat="49.09454" lon="1.09423">
        <ele>70.7</ele>
        <time>2016-12-11T08:52:37Z</time>
      </trkpt>
      <trkpt lat="49.09448" lon="1.09408">
        <ele>70.5</ele>
        <time>2016-12-11T08:52:41Z</time>
      </trkpt>
      <trkpt lat="49.09443" lon="1.09395">
        <ele>70.5</ele>
        <time>2016-12-11T08:52:44Z</time>
      </trkpt>
      <trkpt lat="49.09437" lon="1.09379">
        <ele>70.5</ele>
        <time>2016-12-11T08:52:48Z</time>
      </trkpt>
      <trkpt lat="49.09431" lon="1.09365">
        <ele>70.7</ele>
        <time>2016-12-11T08:52:52Z</time>
      </trkpt>
      <trkpt lat="49.09427" lon="1.09351">
        <ele>70.9</ele>
        <time>2016-12-11T08:52:55Z</time>
      </trkpt>
      <trkpt lat="49.0942" lon="1.09338">
        <ele>71</ele>
        <time>2016-12-11T08:52:58Z</time>
      </trkpt>
      <trkpt lat="49.09415" lon="1.09326">
        <ele>71.2</ele>
        <time>2016-12-11T08:53:01Z</time>
      </trkpt>
      <trkpt lat="49.09411" lon="1.09311">
        <ele>71.4</ele>
        <time>2016-12-11T08:53:04Z</time>
      </trkpt>
      <trkpt lat="49.0941" lon="1.09293">
        <ele>71.8</ele>
        <time>2016-12-11T08:53:08Z</time>
      </trkpt>
      <trkpt lat="49.09407" lon="1.09276">
        <ele>72.3</ele>
        <time>2016-12-11T08:53:12Z</time>
      </trkpt>
      <trkpt lat="49.09406" lon="1.0926">
        <ele>72.6</ele>
        <time>2016-12-11T08:53:15Z</time>
      </trkpt>
      <trkpt lat="49.09405" lon="1.09242">
        <ele>72.9</ele>
        <time>2016-12-11T08:53:18Z</time>
      </trkpt>
      <trkpt lat="49.09404" lon="1.09225">
        <ele>73.2</ele>
        <time>2016-12-11T08:53:21Z</time>
      </trkpt>
      <trkpt lat="49.09403" lon="1.09209">
        <ele>73.4</ele>
        <time>2016-12-11T08:53:24Z</time>
      </trkpt>
      <trkpt lat="49.09404" lon="1.09195">
        <ele>73.6</ele>
        <time>2016-12-11T08:53:27Z</time>
      </trkpt>
      <trkpt lat="49.09407" lon="1.0918">
        <ele>73.9</ele>
        <time>2016-12-11T08:53:30Z</time>
      </trkpt>
      <trkpt lat="49.09412" lon="1.09165">
        <ele>74.3</ele>
        <time>2016-12-11T08:53:33Z</time>
      </trkpt>
      <trkpt lat="49.09417" lon="1.09149">
        <ele>74.6</ele>
        <time>2016-12-11T08:53:36Z</time>
      </trkpt>
      <trkpt lat="49.09414" lon="1.09133">
        <ele>74.9</ele>
        <time>2016-12-11T08:53:41Z</time>
      </trkpt>
      <trkpt lat="49.09411" lon="1.09117">
        <ele>75.2</ele>
        <time>2016-12-11T08:53:46Z</time>
      </trkpt>
      <trkpt lat="49.09413" lon="1.09101">
        <ele>75.4</ele>
        <time>2016-12-11T08:53:50Z</time>
      </trkpt>
      <trkpt lat="49.09413" lon="1.09085">
        <ele>75.6</ele>
        <time>2016-12-11T08:53:54Z</time>
      </trkpt>
      <trkpt lat="49.09413" lon="1.09069">
        <ele>75.7</ele>
        <time>2016-12-11T08:53:57Z</time>
      </trkpt>
      <trkpt lat="49.09412" lon="1.09053">
        <ele>75.9</ele>
        <time>2016-12-11T08:54:01Z</time>
      </trkpt>
      <trkpt lat="49.09409" lon="1.09037">
        <ele>76.2</ele>
        <time>2016-12-11T08:54:06Z</time>
      </trkpt>
      <trkpt lat="49.09407" lon="1.09021">
        <ele>76.5</ele>
        <time>2016-12-11T08:54:11Z</time>
      </trkpt>
      <trkpt lat="49.09404" lon="1.09007">
        <ele>76.9</ele>
        <time>2016-12-11T08:54:16Z</time>
      </trkpt>
      <trkpt lat="49.09401" lon="1.08991">
        <ele>77.5</ele>
        <time>2016-12-11T08:54:21Z</time>
      </trkpt>
      <trkpt lat="49.094" lon="1.08976">
        <ele>78.1</ele>
        <time>2016-12-11T08:54:26Z</time>
      </trkpt>
      <trkpt lat="49.09397" lon="1.08961">
        <ele>78.8</ele>
        <time>2016-12-11T08:54:31Z</time>
      </trkpt>
      <trkpt lat="49.09396" lon="1.08945">
        <ele>79.7</ele>
        <time>2016-12-11T08:54:37Z</time>
      </trkpt>
      <trkpt lat="49.09396" lon="1.08931">
        <ele>80.3</ele>
        <time>2016-12-11T08:54:41Z</time>
      </trkpt>
      <trkpt lat="49.09396" lon="1.08915">
        <ele>81.1</ele>
        <time>2016-12-11T08:54:46Z</time>
      </trkpt>
      <trkpt lat="49.09396" lon="1.08901">
        <ele>81.7</ele>
        <time>2016-12-11T08:54:50Z</time>
      </trkpt>
      <trkpt lat="49.09397" lon="1.08885">
        <ele>82.4</ele>
        <time>2016-12-11T08:54:55Z</time>
      </trkpt>
      <trkpt lat="49.09397" lon="1.0887">
        <ele>83.2</ele>
        <time>2016-12-11T08:55:00Z</time>
      </trkpt>
      <trkpt lat="49.094" lon="1.08855">
        <ele>83.8</ele>
        <time>2016-12-11T08:55:04Z</time>
      </trkpt>
      <trkpt lat="49.09401" lon="1.08841">
        <ele>84.4</ele>
        <time>2016-12-11T08:55:08Z</time>
      </trkpt>
      <trkpt lat="49.09403" lon="1.08826">
        <ele>85.1</ele>
        <time>2016-12-11T08:55:12Z</time>
      </trkpt>
      <trkpt lat="49.09405" lon="1.08813">
        <ele>85.7</ele>
        <time>2016-12-11T08:55:16Z</time>
      </trkpt>
      <trkpt lat="49.09407" lon="1.08797">
        <ele>86.6</ele>
        <time>2016-12-11T08:55:21Z</time>
      </trkpt>
      <trkpt lat="49.09409" lon="1.08783">
        <ele>87.2</ele>
        <time>2016-12-11T08:55:25Z</time>
      </trkpt>
      <trkpt lat="49.0941" lon="1.08769">
        <ele>87.7</ele>
        <time>2016-12-11T08:55:29Z</time>
      </trkpt>
      <trkpt lat="49.09411" lon="1.08753">
        <ele>88.3</ele>
        <time>2016-12-11T08:55:34Z</time>
      </trkpt>
      <trkpt lat="49.09413" lon="1.08736">
        <ele>88.9</ele>
        <time>2016-12-11T08:55:39Z</time>
      </trkpt>
      <trkpt lat="49.09414" lon="1.08721">
        <ele>89.5</ele>
        <time>2016-12-11T08:55:44Z</time>
      </trkpt>
      <trkpt lat="49.09415" lon="1.08705">
        <ele>90.1</ele>
        <time>2016-12-11T08:55:49Z</time>
      </trkpt>
      <trkpt lat="49.09417" lon="1.08689">
        <ele>90.5</ele>
        <time>2016-12-11T08:55:54Z</time>
      </trkpt>
      <trkpt lat="49.09418" lon="1.08672">
        <ele>90.9</ele>
        <time>2016-12-11T08:55:59Z</time>
      </trkpt>
      <trkpt lat="49.09421" lon="1.08656">
        <ele>91.3</ele>
        <time>2016-12-11T08:56:04Z</time>
      </trkpt>
      <trkpt lat="49.09423" lon="1.0864">
        <ele>91.6</ele>
        <time>2016-12-11T08:56:09Z</time>
      </trkpt>
      <trkpt lat="49.09425" lon="1.08625">
        <ele>91.9</ele>
        <time>2016-12-11T08:56:14Z</time>
      </trkpt>
      <trkpt lat="49.09427" lon="1.08609">
        <ele>92.4</ele>
        <time>2016-12-11T08:56:19Z</time>
      </trkpt>
      <trkpt lat="49.09429" lon="1.08595">
        <ele>92.8</ele>
        <time>2016-12-11T08:56:24Z</time>
      </trkpt>
      <trkpt lat="49.09431" lon="1.08579">
        <ele>93.3</ele>
        <time>2016-12-11T08:56:29Z</time>
      </trkpt>
      <trkpt lat="49.09433" lon="1.08563">
        <ele>93.7</ele>
        <time>2016-12-11T08:56:34Z</time>
      </trkpt>
      <trkpt lat="49.09435" lon="1.08548">
        <ele>94.3</ele>
        <time>2016-12-11T08:56:39Z</time>
      </trkpt>
      <trkpt lat="49.09436" lon="1.08534">
        <ele>94.7</ele>
        <time>2016-12-11T08:56:43Z</time>
      </trkpt>
      <trkpt lat="49.09436" lon="1.0852">
        <ele>95.1</ele>
        <time>2016-12-11T08:56:47Z</time>
      </trkpt>
      <trkpt lat="49.09433" lon="1.08505">
        <ele>95.6</ele>
        <time>2016-12-11T08:56:52Z</time>
      </trkpt>
      <trkpt lat="49.09432" lon="1.08491">
        <ele>96.1</ele>
        <time>2016-12-11T08:56:57Z</time>
      </trkpt>
      <trkpt lat="49.0943" lon="1.08477">
        <ele>96.8</ele>
        <time>2016-12-11T08:57:02Z</time>
      </trkpt>
      <trkpt lat="49.09427" lon="1.08463">
        <ele>97.3</ele>
        <time>2016-12-11T08:57:07Z</time>
      </trkpt>
      <trkpt lat="49.09422" lon="1.08452">
        <ele>97.9</ele>
        <time>2016-12-11T08:57:12Z</time>
      </trkpt>
      <trkpt lat="49.09421" lon="1.08438">
        <ele>98.5</ele>
        <time>2016-12-11T08:57:17Z</time>
      </trkpt>
      <trkpt lat="49.09424" lon="1.08422">
        <ele>99.2</ele>
        <time>2016-12-11T08:57:23Z</time>
      </trkpt>
      <trkpt lat="49.09428" lon="1.08409">
        <ele>99.8</ele>
        <time>2016-12-11T08:57:28Z</time>
      </trkpt>
      <trkpt lat="49.09434" lon="1.08396">
        <ele>100.3</ele>
        <time>2016-12-11T08:57:32Z</time>
      </trkpt>
      <trkpt lat="49.09438" lon="1.08382">
        <ele>100.9</ele>
        <time>2016-12-11T08:57:37Z</time>
      </trkpt>
      <trkpt lat="49.09439" lon="1.08368">
        <ele>101.5</ele>
        <time>2016-12-11T08:57:41Z</time>
      </trkpt>
      <trkpt lat="49.09439" lon="1.08353">
        <ele>102.1</ele>
        <time>2016-12-11T08:57:45Z</time>
      </trkpt>
      <trkpt lat="49.09439" lon="1.08338">
        <ele>102.6</ele>
        <time>2016-12-11T08:57:49Z</time>
      </trkpt>
      <trkpt lat="49.09439" lon="1.08322">
        <ele>103.2</ele>
        <time>2016-12-11T08:57:53Z</time>
      </trkpt>
      <trkpt lat="49.09441" lon="1.08306">
        <ele>103.7</ele>
        <time>2016-12-11T08:57:57Z</time>
      </trkpt>
      <trkpt lat="49.09445" lon="1.08292">
        <ele>104.3</ele>
        <time>2016-12-11T08:58:01Z</time>
      </trkpt>
      <trkpt lat="49.09447" lon="1.08277">
        <ele>104.8</ele>
        <time>2016-12-11T08:58:05Z</time>
      </trkpt>
      <trkpt lat="49.0945" lon="1.08263">
        <ele>105.4</ele>
        <time>2016-12-11T08:58:09Z</time>
      </trkpt>
      <trkpt lat="49.09454" lon="1.08248">
        <ele>106</ele>
        <time>2016-12-11T08:58:14Z</time>
      </trkpt>
      <trkpt lat="49.09457" lon="1.08232">
        <ele>106.7</ele>
        <time>2016-12-11T08:58:19Z</time>
      </trkpt>
      <trkpt lat="49.09457" lon="1.08216">
        <ele>107.2</ele>
        <time>2016-12-11T08:58:23Z</time>
      </trkpt>
      <trkpt lat="49.09462" lon="1.08204">
        <ele>107.9</ele>
        <time>2016-12-11T08:58:28Z</time>
      </trkpt>
      <trkpt lat="49.0947" lon="1.08197">
        <ele>108.4</ele>
        <time>2016-12-11T08:58:32Z</time>
      </trkpt>
      <trkpt lat="49.09481" lon="1.08191">
        <ele>108.9</ele>
        <time>2016-12-11T08:58:36Z</time>
      </trkpt>
      <trkpt lat="49.0949" lon="1.08187">
        <ele>109.3</ele>
        <time>2016-12-11T08:58:40Z</time>
      </trkpt>
      <trkpt lat="49.09499" lon="1.08178">
        <ele>109.8</ele>
        <time>2016-12-11T08:58:44Z</time>
      </trkpt>
      <trkpt lat="49.09506" lon="1.08165">
        <ele>110.3</ele>
        <time>2016-12-11T08:58:48Z</time>
      </trkpt>
      <trkpt lat="49.09513" lon="1.08152">
        <ele>110.8</ele>
        <time>2016-12-11T08:58:52Z</time>
      </trkpt>
      <trkpt lat="49.09518" lon="1.08139">
        <ele>111.2</ele>
        <time>2016-12-11T08:58:56Z</time>
      </trkpt>
      <trkpt lat="49.09522" lon="1.08125">
        <ele>111.6</ele>
        <time>2016-12-11T08:59:02Z</time>
      </trkpt>
      <trkpt lat="49.09525" lon="1.0811">
        <ele>111.8</ele>
        <time>2016-12-11T08:59:07Z</time>
      </trkpt>
      <trkpt lat="49.09526" lon="1.08095">
        <ele>112.1</ele>
        <time>2016-12-11T08:59:11Z</time>
      </trkpt>
      <trkpt lat="49.09525" lon="1.08078">
        <ele>112.3</ele>
        <time>2016-12-11T08:59:15Z</time>
      </trkpt>
      <trkpt lat="49.09521" lon="1.08061">
        <ele>112.4</ele>
        <time>2016-12-11T08:59:19Z</time>
      </trkpt>
      <trkpt lat="49.09515" lon="1.08049">
        <ele>112.5</ele>
        <time>2016-12-11T08:59:22Z</time>
      </trkpt>
      <trkpt lat="49.09509" lon="1.08038">
        <ele>112.6</ele>
        <time>2016-12-11T08:59:25Z</time>
      </trkpt>
      <trkpt lat="49.09502" lon="1.08027">
        <ele>112.7</ele>
        <time>2016-12-11T08:59:28Z</time>
      </trkpt>
      <trkpt lat="49.09495" lon="1.08015">
        <ele>112.8</ele>
        <time>2016-12-11T08:59:31Z</time>
      </trkpt>
      <trkpt lat="49.09489" lon="1.08">
        <ele>112.9</ele>
        <time>2016-12-11T08:59:34Z</time>
      </trkpt>
      <trkpt lat="49.09486" lon="1.07983">
        <ele>113</ele>
        <time>2016-12-11T08:59:37Z</time>
      </trkpt>
      <trkpt lat="49.09485" lon="1.07965">
        <ele>113.1</ele>
        <time>2016-12-11T08:59:40Z</time>
      </trkpt>
      <trkpt lat="49.09484" lon="1.0795">
        <ele>113.2</ele>
        <time>2016-12-11T08:59:43Z</time>
      </trkpt>
      <trkpt lat="49.09481" lon="1.07932">
        <ele>113.2</ele>
        <time>2016-12-11T08:59:46Z</time>
      </trkpt>
      <trkpt lat="49.0948" lon="1.07917">
        <ele>113.4</ele>
        <time>2016-12-11T08:59:49Z</time>
      </trkpt>
      <trkpt lat="49.09479" lon="1.07902">
        <ele>113.5</ele>
        <time>2016-12-11T08:59:52Z</time>
      </trkpt>
      <trkpt lat="49.09476" lon="1.07887">
        <ele>113.5</ele>
        <time>2016-12-11T08:59:55Z</time>
      </trkpt>
      <trkpt lat="49.09474" lon="1.0787">
        <ele>113.6</ele>
        <time>2016-12-11T08:59:58Z</time>
      </trkpt>
      <trkpt lat="49.09472" lon="1.07855">
        <ele>113.7</ele>
        <time>2016-12-11T09:00:01Z</time>
      </trkpt>
      <trkpt lat="49.0947" lon="1.07838">
        <ele>113.8</ele>
        <time>2016-12-11T09:00:04Z</time>
      </trkpt>
      <trkpt lat="49.09468" lon="1.07821">
        <ele>113.8</ele>
        <time>2016-12-11T09:00:07Z</time>
      </trkpt>
      <trkpt lat="49.09465" lon="1.07806">
        <ele>114</ele>
        <time>2016-12-11T09:00:10Z</time>
      </trkpt>
      <trkpt lat="49.09464" lon="1.07789">
        <ele>114.2</ele>
        <time>2016-12-11T09:00:13Z</time>
      </trkpt>
      <trkpt lat="49.0946" lon="1.0777">
        <ele>114.3</ele>
        <time>2016-12-11T09:00:17Z</time>
      </trkpt>
      <trkpt lat="49.09456" lon="1.07754">
        <ele>114.5</ele>
        <time>2016-12-11T09:00:20Z</time>
      </trkpt>
      <trkpt lat="49.09454" lon="1.07735">
        <ele>114.5</ele>
        <time>2016-12-11T09:00:23Z</time>
      </trkpt>
      <trkpt lat="49.09452" lon="1.07718">
        <ele>114.6</ele>
        <time>2016-12-11T09:00:26Z</time>
      </trkpt>
      <trkpt lat="49.09449" lon="1.077">
        <ele>114.7</ele>
        <time>2016-12-11T09:00:29Z</time>
      </trkpt>
      <trkpt lat="49.09448" lon="1.07681">
        <ele>114.8</ele>
        <time>2016-12-11T09:00:32Z</time>
      </trkpt>
      <trkpt lat="49.09446" lon="1.07663">
        <ele>114.9</ele>
        <time>2016-12-11T09:00:35Z</time>
      </trkpt>
      <trkpt lat="49.09443" lon="1.07645">
        <ele>114.9</ele>
        <time>2016-12-11T09:00:38Z</time>
      </trkpt>
      <trkpt lat="49.09438" lon="1.07628">
        <ele>114.9</ele>
        <time>2016-12-11T09:00:41Z</time>
      </trkpt>
      <trkpt lat="49.09432" lon="1.07611">
        <ele>115.1</ele>
        <time>2016-12-11T09:00:44Z</time>
      </trkpt>
      <trkpt lat="49.09425" lon="1.07596">
        <ele>115.3</ele>
        <time>2016-12-11T09:00:47Z</time>
      </trkpt>
      <trkpt lat="49.0942" lon="1.07584">
        <ele>115.5</ele>
        <time>2016-12-11T09:00:50Z</time>
      </trkpt>
      <trkpt lat="49.09415" lon="1.07572">
        <ele>115.7</ele>
        <time>2016-12-11T09:00:54Z</time>
      </trkpt>
      <trkpt lat="49.0941" lon="1.07561">
        <ele>115.9</ele>
        <time>2016-12-11T09:00:59Z</time>
      </trkpt>
      <trkpt lat="49.09404" lon="1.07547">
        <ele>116</ele>
        <time>2016-12-11T09:01:03Z</time>
      </trkpt>
      <trkpt lat="49.09398" lon="1.07533">
        <ele>116</ele>
        <time>2016-12-11T09:01:07Z</time>
      </trkpt>
      <trkpt lat="49.09391" lon="1.0752">
        <ele>116.1</ele>
        <time>2016-12-11T09:01:10Z</time>
      </trkpt>
      <trkpt lat="49.09384" lon="1.07507">
        <ele>116.1</ele>
        <time>2016-12-11T09:01:13Z</time>
      </trkpt>
      <trkpt lat="49.09376" lon="1.07494">
        <ele>116.2</ele>
        <time>2016-12-11T09:01:16Z</time>
      </trkpt>
      <trkpt lat="49.09367" lon="1.07483">
        <ele>116.2</ele>
        <time>2016-12-11T09:01:19Z</time>
      </trkpt>
      <trkpt lat="49.0936" lon="1.07473">
        <ele>116.2</ele>
        <time>2016-12-11T09:01:22Z</time>
      </trkpt>
      <trkpt lat="49.0935" lon="1.07465">
        <ele>116.3</ele>
        <time>2016-12-11T09:01:25Z</time>
      </trkpt>
      <trkpt lat="49.09338" lon="1.07463">
        <ele>116.3</ele>
        <time>2016-12-11T09:01:28Z</time>
      </trkpt>
      <trkpt lat="49.09327" lon="1.07457">
        <ele>116.3</ele>
        <time>2016-12-11T09:01:31Z</time>
      </trkpt>
      <trkpt lat="49.09316" lon="1.07451">
        <ele>116.3</ele>
        <time>2016-12-11T09:01:34Z</time>
      </trkpt>
      <trkpt lat="49.09304" lon="1.07446">
        <ele>116.4</ele>
        <time>2016-12-11T09:01:37Z</time>
      </trkpt>
      <trkpt lat="49.09291" lon="1.07442">
        <ele>116.4</ele>
        <time>2016-12-11T09:01:40Z</time>
      </trkpt>
      <trkpt lat="49.09279" lon="1.07437">
        <ele>116.4</ele>
        <time>2016-12-11T09:01:43Z</time>
      </trkpt>
      <trkpt lat="49.09266" lon="1.07432">
        <ele>116.5</ele>
        <time>2016-12-11T09:01:46Z</time>
      </trkpt>
      <trkpt lat="49.09252" lon="1.07432">
        <ele>116.6</ele>
        <time>2016-12-11T09:01:49Z</time>
      </trkpt>
      <trkpt lat="49.09239" lon="1.07436">
        <ele>116.8</ele>
        <time>2016-12-11T09:01:52Z</time>
      </trkpt>
      <trkpt lat="49.0923" lon="1.07439">
        <ele>117</ele>
        <time>2016-12-11T09:01:54Z</time>
      </trkpt>
      <trkpt lat="49.09217" lon="1.07443">
        <ele>117.2</ele>
        <time>2016-12-11T09:01:57Z</time>
      </trkpt>
      <trkpt lat="49.09208" lon="1.07447">
        <ele>117.3</ele>
        <time>2016-12-11T09:01:59Z</time>
      </trkpt>
      <trkpt lat="49.09195" lon="1.07451">
        <ele>117.5</ele>
        <time>2016-12-11T09:02:02Z</time>
      </trkpt>
      <trkpt lat="49.09186" lon="1.07454">
        <ele>117.6</ele>
        <time>2016-12-11T09:02:04Z</time>
      </trkpt>
      <trkpt lat="49.09178" lon="1.07458">
        <ele>117.6</ele>
        <time>2016-12-11T09:02:06Z</time>
      </trkpt>
      <trkpt lat="49.09166" lon="1.07463">
        <ele>117.7</ele>
        <time>2016-12-11T09:02:09Z</time>
      </trkpt>
      <trkpt lat="49.09153" lon="1.07465">
        <ele>117.8</ele>
        <time>2016-12-11T09:02:12Z</time>
      </trkpt>
      <trkpt lat="49.09143" lon="1.07466">
        <ele>117.8</ele>
        <time>2016-12-11T09:02:14Z</time>
      </trkpt>
      <trkpt lat="49.09132" lon="1.07466">
        <ele>117.9</ele>
        <time>2016-12-11T09:02:16Z</time>
      </trkpt>
      <trkpt lat="49.09122" lon="1.07469">
        <ele>117.9</ele>
        <time>2016-12-11T09:02:18Z</time>
      </trkpt>
      <trkpt lat="49.09112" lon="1.07474">
        <ele>117.9</ele>
        <time>2016-12-11T09:02:20Z</time>
      </trkpt>
      <trkpt lat="49.09103" lon="1.07479">
        <ele>117.9</ele>
        <time>2016-12-11T09:02:22Z</time>
      </trkpt>
      <trkpt lat="49.09092" lon="1.07484">
        <ele>117.9</ele>
        <time>2016-12-11T09:02:24Z</time>
      </trkpt>
      <trkpt lat="49.09083" lon="1.07491">
        <ele>117.9</ele>
        <time>2016-12-11T09:02:27Z</time>
      </trkpt>
      <trkpt lat="49.09071" lon="1.07488">
        <ele>118</ele>
        <time>2016-12-11T09:02:30Z</time>
      </trkpt>
      <trkpt lat="49.0906" lon="1.07481">
        <ele>117.9</ele>
        <time>2016-12-11T09:02:33Z</time>
      </trkpt>
      <trkpt lat="49.09052" lon="1.07468">
        <ele>117.8</ele>
        <time>2016-12-11T09:02:36Z</time>
      </trkpt>
      <trkpt lat="49.09052" lon="1.07454">
        <ele>117.6</ele>
        <time>2016-12-11T09:02:43Z</time>
      </trkpt>
      <trkpt lat="49.09062" lon="1.07445">
        <ele>117.5</ele>
        <time>2016-12-11T09:02:47Z</time>
      </trkpt>
      <trkpt lat="49.0907" lon="1.07437">
        <ele>117.4</ele>
        <time>2016-12-11T09:02:50Z</time>
      </trkpt>
      <trkpt lat="49.09079" lon="1.07428">
        <ele>117.3</ele>
        <time>2016-12-11T09:02:53Z</time>
      </trkpt>
      <trkpt lat="49.09089" lon="1.07416">
        <ele>117.3</ele>
        <time>2016-12-11T09:02:56Z</time>
      </trkpt>
      <trkpt lat="49.09101" lon="1.07406">
        <ele>117.2</ele>
        <time>2016-12-11T09:02:59Z</time>
      </trkpt>
      <trkpt lat="49.0911" lon="1.07398">
        <ele>117.2</ele>
        <time>2016-12-11T09:03:01Z</time>
      </trkpt>
      <trkpt lat="49.09121" lon="1.07391">
        <ele>117.2</ele>
        <time>2016-12-11T09:03:03Z</time>
      </trkpt>
      <trkpt lat="49.09131" lon="1.07383">
        <ele>117.2</ele>
        <time>2016-12-11T09:03:05Z</time>
      </trkpt>
      <trkpt lat="49.09142" lon="1.07374">
        <ele>117.1</ele>
        <time>2016-12-11T09:03:07Z</time>
      </trkpt>
      <trkpt lat="49.09153" lon="1.07364">
        <ele>117</ele>
        <time>2016-12-11T09:03:09Z</time>
      </trkpt>
      <trkpt lat="49.09163" lon="1.07356">
        <ele>117</ele>
        <time>2016-12-11T09:03:11Z</time>
      </trkpt>
      <trkpt lat="49.09173" lon="1.07349">
        <ele>117</ele>
        <time>2016-12-11T09:03:13Z</time>
      </trkpt>
      <trkpt lat="49.09182" lon="1.07343">
        <ele>117.1</ele>
        <time>2016-12-11T09:03:15Z</time>
      </trkpt>
      <trkpt lat="49.09191" lon="1.07336">
        <ele>117.1</ele>
        <time>2016-12-11T09:03:17Z</time>
      </trkpt>
      <trkpt lat="49.09202" lon="1.07327">
        <ele>117.1</ele>
        <time>2016-12-11T09:03:19Z</time>
      </trkpt>
      <trkpt lat="49.09211" lon="1.07318">
        <ele>117.1</ele>
        <time>2016-12-11T09:03:21Z</time>
      </trkpt>
      <trkpt lat="49.0922" lon="1.07309">
        <ele>117.2</ele>
        <time>2016-12-11T09:03:23Z</time>
      </trkpt>
      <trkpt lat="49.0923" lon="1.07301">
        <ele>117.2</ele>
        <time>2016-12-11T09:03:25Z</time>
      </trkpt>
      <trkpt lat="49.0924" lon="1.07293">
        <ele>117.2</ele>
        <time>2016-12-11T09:03:27Z</time>
      </trkpt>
      <trkpt lat="49.09249" lon="1.07285">
        <ele>117.2</ele>
        <time>2016-12-11T09:03:29Z</time>
      </trkpt>
      <trkpt lat="49.0926" lon="1.07276">
        <ele>117.2</ele>
        <time>2016-12-11T09:03:31Z</time>
      </trkpt>
      <trkpt lat="49.09271" lon="1.07267">
        <ele>117.2</ele>
        <time>2016-12-11T09:03:33Z</time>
      </trkpt>
      <trkpt lat="49.09281" lon="1.07258">
        <ele>117.2</ele>
        <time>2016-12-11T09:03:35Z</time>
      </trkpt>
      <trkpt lat="49.09291" lon="1.0725">
        <ele>117.2</ele>
        <time>2016-12-11T09:03:37Z</time>
      </trkpt>
      <trkpt lat="49.09303" lon="1.07241">
        <ele>117.3</ele>
        <time>2016-12-11T09:03:40Z</time>
      </trkpt>
      <trkpt lat="49.09313" lon="1.07234">
        <ele>117.3</ele>
        <time>2016-12-11T09:03:42Z</time>
      </trkpt>
      <trkpt lat="49.09323" lon="1.07227">
        <ele>117.3</ele>
        <time>2016-12-11T09:03:44Z</time>
      </trkpt>
      <trkpt lat="49.09336" lon="1.07224">
        <ele>117.3</ele>
        <time>2016-12-11T09:03:47Z</time>
      </trkpt>
      <trkpt lat="49.09348" lon="1.07227">
        <ele>117.2</ele>
        <time>2016-12-11T09:03:50Z</time>
      </trkpt>
      <trkpt lat="49.09356" lon="1.07232">
        <ele>117.1</ele>
        <time>2016-12-11T09:03:52Z</time>
      </trkpt>
      <trkpt lat="49.09369" lon="1.07236">
        <ele>117.1</ele>
        <time>2016-12-11T09:03:55Z</time>
      </trkpt>
      <trkpt lat="49.09378" lon="1.07238">
        <ele>117</ele>
        <time>2016-12-11T09:03:57Z</time>
      </trkpt>
      <trkpt lat="49.0939" lon="1.07243">
        <ele>117</ele>
        <time>2016-12-11T09:03:59Z</time>
      </trkpt>
      <trkpt lat="49.09404" lon="1.0725">
        <ele>116.9</ele>
        <time>2016-12-11T09:04:01Z</time>
      </trkpt>
      <trkpt lat="49.09416" lon="1.07258">
        <ele>116.9</ele>
        <time>2016-12-11T09:04:03Z</time>
      </trkpt>
      <trkpt lat="49.09429" lon="1.07267">
        <ele>116.9</ele>
        <time>2016-12-11T09:04:05Z</time>
      </trkpt>
      <trkpt lat="49.09441" lon="1.07276">
        <ele>117</ele>
        <time>2016-12-11T09:04:07Z</time>
      </trkpt>
      <trkpt lat="49.09453" lon="1.07284">
        <ele>117</ele>
        <time>2016-12-11T09:04:09Z</time>
      </trkpt>
      <trkpt lat="49.09465" lon="1.07292">
        <ele>117</ele>
        <time>2016-12-11T09:04:11Z</time>
      </trkpt>
      <trkpt lat="49.09477" lon="1.07301">
        <ele>117</ele>
        <time>2016-12-11T09:04:13Z</time>
      </trkpt>
      <trkpt lat="49.09488" lon="1.07312">
        <ele>116.9</ele>
        <time>2016-12-11T09:04:15Z</time>
      </trkpt>
      <trkpt lat="49.09499" lon="1.0732">
        <ele>116.8</ele>
        <time>2016-12-11T09:04:17Z</time>
      </trkpt>
      <trkpt lat="49.09509" lon="1.07331">
        <ele>116.8</ele>
        <time>2016-12-11T09:04:19Z</time>
      </trkpt>
      <trkpt lat="49.09519" lon="1.07343">
        <ele>116.7</ele>
        <time>2016-12-11T09:04:21Z</time>
      </trkpt>
      <trkpt lat="49.0953" lon="1.07355">
        <ele>116.7</ele>
        <time>2016-12-11T09:04:23Z</time>
      </trkpt>
      <trkpt lat="49.0954" lon="1.07366">
        <ele>116.6</ele>
        <time>2016-12-11T09:04:25Z</time>
      </trkpt>
      <trkpt lat="49.09551" lon="1.07378">
        <ele>116.3</ele>
        <time>2016-12-11T09:04:27Z</time>
      </trkpt>
      <trkpt lat="49.0956" lon="1.0739">
        <ele>116.2</ele>
        <time>2016-12-11T09:04:29Z</time>
      </trkpt>
      <trkpt lat="49.09571" lon="1.07401">
        <ele>116</ele>
        <time>2016-12-11T09:04:31Z</time>
      </trkpt>
      <trkpt lat="49.0958" lon="1.07414">
        <ele>115.9</ele>
        <time>2016-12-11T09:04:33Z</time>
      </trkpt>
      <trkpt lat="49.0959" lon="1.07427">
        <ele>115.7</ele>
        <time>2016-12-11T09:04:35Z</time>
      </trkpt>
      <trkpt lat="49.09599" lon="1.0744">
        <ele>115.5</ele>
        <time>2016-12-11T09:04:37Z</time>
      </trkpt>
      <trkpt lat="49.09609" lon="1.07453">
        <ele>115.3</ele>
        <time>2016-12-11T09:04:39Z</time>
      </trkpt>
      <trkpt lat="49.09618" lon="1.07468">
        <ele>115.1</ele>
        <time>2016-12-11T09:04:41Z</time>
      </trkpt>
      <trkpt lat="49.09626" lon="1.07482">
        <ele>115</ele>
        <time>2016-12-11T09:04:43Z</time>
      </trkpt>
      <trkpt lat="49.09633" lon="1.07499">
        <ele>114.9</ele>
        <time>2016-12-11T09:04:45Z</time>
      </trkpt>
      <trkpt lat="49.09639" lon="1.07515">
        <ele>114.7</ele>
        <time>2016-12-11T09:04:47Z</time>
      </trkpt>
      <trkpt lat="49.09645" lon="1.07529">
        <ele>114.5</ele>
        <time>2016-12-11T09:04:49Z</time>
      </trkpt>
      <trkpt lat="49.09653" lon="1.07544">
        <ele>114.2</ele>
        <time>2016-12-11T09:04:51Z</time>
      </trkpt>
      <trkpt lat="49.09658" lon="1.07557">
        <ele>114</ele>
        <time>2016-12-11T09:04:53Z</time>
      </trkpt>
      <trkpt lat="49.09663" lon="1.07572">
        <ele>113.8</ele>
        <time>2016-12-11T09:04:55Z</time>
      </trkpt>
      <trkpt lat="49.0967" lon="1.07589">
        <ele>113.5</ele>
        <time>2016-12-11T09:04:57Z</time>
      </trkpt>
      <trkpt lat="49.09678" lon="1.07606">
        <ele>113.2</ele>
        <time>2016-12-11T09:04:59Z</time>
      </trkpt>
      <trkpt lat="49.09685" lon="1.07621">
        <ele>112.9</ele>
        <time>2016-12-11T09:05:01Z</time>
      </trkpt>
      <trkpt lat="49.09693" lon="1.07637">
        <ele>112.6</ele>
        <time>2016-12-11T09:05:03Z</time>
      </trkpt>
      <trkpt lat="49.097" lon="1.07653">
        <ele>112.3</ele>
        <time>2016-12-11T09:05:05Z</time>
      </trkpt>
      <trkpt lat="49.09708" lon="1.07669">
        <ele>112.1</ele>
        <time>2016-12-11T09:05:07Z</time>
      </trkpt>
      <trkpt lat="49.09716" lon="1.07686">
        <ele>111.8</ele>
        <time>2016-12-11T09:05:09Z</time>
      </trkpt>
      <trkpt lat="49.09724" lon="1.07701">
        <ele>111.6</ele>
        <time>2016-12-11T09:05:11Z</time>
      </trkpt>
      <trkpt lat="49.09733" lon="1.07716">
        <ele>111.5</ele>
        <time>2016-12-11T09:05:13Z</time>
      </trkpt>
      <trkpt lat="49.0974" lon="1.07733">
        <ele>111.3</ele>
        <time>2016-12-11T09:05:15Z</time>
      </trkpt>
      <trkpt lat="49.09747" lon="1.07749">
        <ele>111</ele>
        <time>2016-12-11T09:05:17Z</time>
      </trkpt>
      <trkpt lat="49.09753" lon="1.07765">
        <ele>110.8</ele>
        <time>2016-12-11T09:05:19Z</time>
      </trkpt>
      <trkpt lat="49.09762" lon="1.0778">
        <ele>110.6</ele>
        <time>2016-12-11T09:05:21Z</time>
      </trkpt>
      <trkpt lat="49.09771" lon="1.07792">
        <ele>110.4</ele>
        <time>2016-12-11T09:05:23Z</time>
      </trkpt>
      <trkpt lat="49.09781" lon="1.07799">
        <ele>110.1</ele>
        <time>2016-12-11T09:05:25Z</time>
      </trkpt>
      <trkpt lat="49.09788" lon="1.0781">
        <ele>109.8</ele>
        <time>2016-12-11T09:05:27Z</time>
      </trkpt>
      <trkpt lat="49.09796" lon="1.0782">
        <ele>109.5</ele>
        <time>2016-12-11T09:05:30Z</time>
      </trkpt>
      <trkpt lat="49.09805" lon="1.07829">
        <ele>109.1</ele>
        <time>2016-12-11T09:05:33Z</time>
      </trkpt>
      <trkpt lat="49.09815" lon="1.07832">
        <ele>108.5</ele>
        <time>2016-12-11T09:05:39Z</time>
      </trkpt>
      <trkpt lat="49.09819" lon="1.07844">
        <ele>98.9</ele>
        <time>2016-12-11T09:07:19Z</time>
      </trkpt>
      <trkpt lat="49.09827" lon="1.07838">
        <ele>89</ele>
        <time>2016-12-11T09:10:25Z</time>
      </trkpt>
      <trkpt lat="49.09829" lon="1.07825">
        <ele>75.1</ele>
        <time>2016-12-11T09:14:53Z</time>
      </trkpt>
      <trkpt lat="49.09838" lon="1.07818">
        <ele>70.1</ele>
        <time>2016-12-11T09:17:27Z</time>
      </trkpt>
      <trkpt lat="49.09846" lon="1.07806">
        <ele>69.8</ele>
        <time>2016-12-11T09:17:32Z</time>
      </trkpt>
      <trkpt lat="49.09852" lon="1.07795">
        <ele>69.6</ele>
        <time>2016-12-11T09:17:36Z</time>
      </trkpt>
      <trkpt lat="49.09859" lon="1.07783">
        <ele>69.5</ele>
        <time>2016-12-11T09:17:40Z</time>
      </trkpt>
      <trkpt lat="49.09866" lon="1.07771">
        <ele>69.2</ele>
        <time>2016-12-11T09:17:54Z</time>
      </trkpt>
      <trkpt lat="49.09876" lon="1.07762">
        <ele>69.2</ele>
        <time>2016-12-11T09:17:59Z</time>
      </trkpt>
      <trkpt lat="49.09885" lon="1.07755">
        <ele>69.3</ele>
        <time>2016-12-11T09:18:02Z</time>
      </trkpt>
      <trkpt lat="49.09896" lon="1.07745">
        <ele>69.4</ele>
        <time>2016-12-11T09:18:05Z</time>
      </trkpt>
      <trkpt lat="49.09908" lon="1.07736">
        <ele>69.4</ele>
        <time>2016-12-11T09:18:08Z</time>
      </trkpt>
      <trkpt lat="49.09918" lon="1.07729">
        <ele>69.5</ele>
        <time>2016-12-11T09:18:11Z</time>
      </trkpt>
      <trkpt lat="49.09928" lon="1.07723">
        <ele>69.5</ele>
        <time>2016-12-11T09:18:14Z</time>
      </trkpt>
      <trkpt lat="49.09936" lon="1.07718">
        <ele>69.7</ele>
        <time>2016-12-11T09:18:17Z</time>
      </trkpt>
      <trkpt lat="49.09947" lon="1.07714">
        <ele>70.1</ele>
        <time>2016-12-11T09:18:21Z</time>
      </trkpt>
      <trkpt lat="49.09958" lon="1.07711">
        <ele>70.5</ele>
        <time>2016-12-11T09:18:25Z</time>
      </trkpt>
      <trkpt lat="49.09968" lon="1.07709">
        <ele>71.2</ele>
        <time>2016-12-11T09:18:29Z</time>
      </trkpt>
      <trkpt lat="49.09979" lon="1.07709">
        <ele>71.7</ele>
        <time>2016-12-11T09:18:33Z</time>
      </trkpt>
      <trkpt lat="49.09991" lon="1.07706">
        <ele>72.2</ele>
        <time>2016-12-11T09:18:37Z</time>
      </trkpt>
      <trkpt lat="49.10002" lon="1.077">
        <ele>72.7</ele>
        <time>2016-12-11T09:18:41Z</time>
      </trkpt>
      <trkpt lat="49.10012" lon="1.07691">
        <ele>73.1</ele>
        <time>2016-12-11T09:18:45Z</time>
      </trkpt>
      <trkpt lat="49.1002" lon="1.07684">
        <ele>73.4</ele>
        <time>2016-12-11T09:18:48Z</time>
      </trkpt>
      <trkpt lat="49.10027" lon="1.07677">
        <ele>73.7</ele>
        <time>2016-12-11T09:18:51Z</time>
      </trkpt>
      <trkpt lat="49.10034" lon="1.07668">
        <ele>74.1</ele>
        <time>2016-12-11T09:18:54Z</time>
      </trkpt>
      <trkpt lat="49.10043" lon="1.07655">
        <ele>74.5</ele>
        <time>2016-12-11T09:18:58Z</time>
      </trkpt>
      <trkpt lat="49.1005" lon="1.07641">
        <ele>74.9</ele>
        <time>2016-12-11T09:19:02Z</time>
      </trkpt>
      <trkpt lat="49.10055" lon="1.07629">
        <ele>75.1</ele>
        <time>2016-12-11T09:19:05Z</time>
      </trkpt>
      <trkpt lat="49.1006" lon="1.07618">
        <ele>75.3</ele>
        <time>2016-12-11T09:19:08Z</time>
      </trkpt>
      <trkpt lat="49.10066" lon="1.07607">
        <ele>75.5</ele>
        <time>2016-12-11T09:19:11Z</time>
      </trkpt>
      <trkpt lat="49.10072" lon="1.07596">
        <ele>75.8</ele>
        <time>2016-12-11T09:19:14Z</time>
      </trkpt>
      <trkpt lat="49.10079" lon="1.07585">
        <ele>76.1</ele>
        <time>2016-12-11T09:19:17Z</time>
      </trkpt>
      <trkpt lat="49.10085" lon="1.07574">
        <ele>76.4</ele>
        <time>2016-12-11T09:19:20Z</time>
      </trkpt>
      <trkpt lat="49.10092" lon="1.07563">
        <ele>76.8</ele>
        <time>2016-12-11T09:19:23Z</time>
      </trkpt>
      <trkpt lat="49.10098" lon="1.07553">
        <ele>77.1</ele>
        <time>2016-12-11T09:19:26Z</time>
      </trkpt>
      <trkpt lat="49.10105" lon="1.07543">
        <ele>77.4</ele>
        <time>2016-12-11T09:19:29Z</time>
      </trkpt>
      <trkpt lat="49.10112" lon="1.07532">
        <ele>77.6</ele>
        <time>2016-12-11T09:19:32Z</time>
      </trkpt>
      <trkpt lat="49.10119" lon="1.07522">
        <ele>77.9</ele>
        <time>2016-12-11T09:19:35Z</time>
      </trkpt>
      <trkpt lat="49.10127" lon="1.07512">
        <ele>79.1</ele>
        <time>2016-12-11T09:19:38Z</time>
      </trkpt>
      <trkpt lat="49.10135" lon="1.07504">
        <ele>83.2</ele>
        <time>2016-12-11T09:19:41Z</time>
      </trkpt>
      <trkpt lat="49.10144" lon="1.07496">
        <ele>87.2</ele>
        <time>2016-12-11T09:19:44Z</time>
      </trkpt>
      <trkpt lat="49.10153" lon="1.07489">
        <ele>90.7</ele>
        <time>2016-12-11T09:19:47Z</time>
      </trkpt>
      <trkpt lat="49.10161" lon="1.07483">
        <ele>93.7</ele>
        <time>2016-12-11T09:19:50Z</time>
      </trkpt>
      <trkpt lat="49.10171" lon="1.07477">
        <ele>96.3</ele>
        <time>2016-12-11T09:19:53Z</time>
      </trkpt>
      <trkpt lat="49.1018" lon="1.07472">
        <ele>98.6</ele>
        <time>2016-12-11T09:19:56Z</time>
      </trkpt>
      <trkpt lat="49.10189" lon="1.07466">
        <ele>100.5</ele>
        <time>2016-12-11T09:19:59Z</time>
      </trkpt>
      <trkpt lat="49.10198" lon="1.07461">
        <ele>102.2</ele>
        <time>2016-12-11T09:20:02Z</time>
      </trkpt>
      <trkpt lat="49.10207" lon="1.07456">
        <ele>103.7</ele>
        <time>2016-12-11T09:20:05Z</time>
      </trkpt>
      <trkpt lat="49.10216" lon="1.07451">
        <ele>105.1</ele>
        <time>2016-12-11T09:20:08Z</time>
      </trkpt>
      <trkpt lat="49.10224" lon="1.07446">
        <ele>106.3</ele>
        <time>2016-12-11T09:20:11Z</time>
      </trkpt>
      <trkpt lat="49.10233" lon="1.0744">
        <ele>107.4</ele>
        <time>2016-12-11T09:20:14Z</time>
      </trkpt>
      <trkpt lat="49.10242" lon="1.07435">
        <ele>108.6</ele>
        <time>2016-12-11T09:20:17Z</time>
      </trkpt>
      <trkpt lat="49.10251" lon="1.0743">
        <ele>109.6</ele>
        <time>2016-12-11T09:20:20Z</time>
      </trkpt>
      <trkpt lat="49.1026" lon="1.07426">
        <ele>110.6</ele>
        <time>2016-12-11T09:20:23Z</time>
      </trkpt>
      <trkpt lat="49.10269" lon="1.07421">
        <ele>111.4</ele>
        <time>2016-12-11T09:20:26Z</time>
      </trkpt>
      <trkpt lat="49.1028" lon="1.07416">
        <ele>112.5</ele>
        <time>2016-12-11T09:20:30Z</time>
      </trkpt>
      <trkpt lat="49.10291" lon="1.07412">
        <ele>113.5</ele>
        <time>2016-12-11T09:20:34Z</time>
      </trkpt>
      <trkpt lat="49.10303" lon="1.07408">
        <ele>114.5</ele>
        <time>2016-12-11T09:20:38Z</time>
      </trkpt>
      <trkpt lat="49.10312" lon="1.07406">
        <ele>115.2</ele>
        <time>2016-12-11T09:20:41Z</time>
      </trkpt>
      <trkpt lat="49.10324" lon="1.07406">
        <ele>116.2</ele>
        <time>2016-12-11T09:20:45Z</time>
      </trkpt>
      <trkpt lat="49.10333" lon="1.07406">
        <ele>116.8</ele>
        <time>2016-12-11T09:20:48Z</time>
      </trkpt>
      <trkpt lat="49.10342" lon="1.07409">
        <ele>117.7</ele>
        <time>2016-12-11T09:20:51Z</time>
      </trkpt>
      <trkpt lat="49.10352" lon="1.07414">
        <ele>118.3</ele>
        <time>2016-12-11T09:20:54Z</time>
      </trkpt>
      <trkpt lat="49.10361" lon="1.07418">
        <ele>118.9</ele>
        <time>2016-12-11T09:20:57Z</time>
      </trkpt>
      <trkpt lat="49.10372" lon="1.07421">
        <ele>119.4</ele>
        <time>2016-12-11T09:21:00Z</time>
      </trkpt>
      <trkpt lat="49.10381" lon="1.07425">
        <ele>119.9</ele>
        <time>2016-12-11T09:21:03Z</time>
      </trkpt>
      <trkpt lat="49.1039" lon="1.07429">
        <ele>120.4</ele>
        <time>2016-12-11T09:21:06Z</time>
      </trkpt>
      <trkpt lat="49.10399" lon="1.07433">
        <ele>120.9</ele>
        <time>2016-12-11T09:21:09Z</time>
      </trkpt>
      <trkpt lat="49.10408" lon="1.07436">
        <ele>121.4</ele>
        <time>2016-12-11T09:21:12Z</time>
      </trkpt>
      <trkpt lat="49.10417" lon="1.07438">
        <ele>121.9</ele>
        <time>2016-12-11T09:21:15Z</time>
      </trkpt>
      <trkpt lat="49.10427" lon="1.0744">
        <ele>122.4</ele>
        <time>2016-12-11T09:21:18Z</time>
      </trkpt>
      <trkpt lat="49.10437" lon="1.07443">
        <ele>122.9</ele>
        <time>2016-12-11T09:21:21Z</time>
      </trkpt>
      <trkpt lat="49.10447" lon="1.07444">
        <ele>123.3</ele>
        <time>2016-12-11T09:21:24Z</time>
      </trkpt>
      <trkpt lat="49.10458" lon="1.07444">
        <ele>123.7</ele>
        <time>2016-12-11T09:21:27Z</time>
      </trkpt>
      <trkpt lat="49.10469" lon="1.07445">
        <ele>124.1</ele>
        <time>2016-12-11T09:21:30Z</time>
      </trkpt>
      <trkpt lat="49.1048" lon="1.07444">
        <ele>124.6</ele>
        <time>2016-12-11T09:21:33Z</time>
      </trkpt>
      <trkpt lat="49.10491" lon="1.07442">
        <ele>125</ele>
        <time>2016-12-11T09:21:36Z</time>
      </trkpt>
      <trkpt lat="49.10503" lon="1.0744">
        <ele>125.4</ele>
        <time>2016-12-11T09:21:39Z</time>
      </trkpt>
      <trkpt lat="49.10514" lon="1.07435">
        <ele>125.7</ele>
        <time>2016-12-11T09:21:42Z</time>
      </trkpt>
      <trkpt lat="49.10525" lon="1.07432">
        <ele>126.1</ele>
        <time>2016-12-11T09:21:45Z</time>
      </trkpt>
      <trkpt lat="49.10536" lon="1.07427">
        <ele>126.5</ele>
        <time>2016-12-11T09:21:48Z</time>
      </trkpt>
      <trkpt lat="49.10547" lon="1.07423">
        <ele>127</ele>
        <time>2016-12-11T09:21:51Z</time>
      </trkpt>
      <trkpt lat="49.10558" lon="1.0742">
        <ele>127.4</ele>
        <time>2016-12-11T09:21:54Z</time>
      </trkpt>
      <trkpt lat="49.10569" lon="1.07415">
        <ele>127.9</ele>
        <time>2016-12-11T09:21:57Z</time>
      </trkpt>
      <trkpt lat="49.10579" lon="1.07411">
        <ele>128.3</ele>
        <time>2016-12-11T09:22:00Z</time>
      </trkpt>
      <trkpt lat="49.10588" lon="1.07407">
        <ele>128.7</ele>
        <time>2016-12-11T09:22:03Z</time>
      </trkpt>
      <trkpt lat="49.10597" lon="1.07401">
        <ele>129.2</ele>
        <time>2016-12-11T09:22:06Z</time>
      </trkpt>
      <trkpt lat="49.10604" lon="1.07387">
        <ele>129.6</ele>
        <time>2016-12-11T09:22:09Z</time>
      </trkpt>
      <trkpt lat="49.10608" lon="1.07371">
        <ele>129.9</ele>
        <time>2016-12-11T09:22:12Z</time>
      </trkpt>
      <trkpt lat="49.10613" lon="1.07355">
        <ele>130.2</ele>
        <time>2016-12-11T09:22:15Z</time>
      </trkpt>
      <trkpt lat="49.10618" lon="1.0734">
        <ele>130.4</ele>
        <time>2016-12-11T09:22:18Z</time>
      </trkpt>
      <trkpt lat="49.10625" lon="1.07326">
        <ele>130.6</ele>
        <time>2016-12-11T09:22:21Z</time>
      </trkpt>
      <trkpt lat="49.10634" lon="1.07314">
        <ele>130.8</ele>
        <time>2016-12-11T09:22:24Z</time>
      </trkpt>
      <trkpt lat="49.10644" lon="1.07303">
        <ele>131</ele>
        <time>2016-12-11T09:22:27Z</time>
      </trkpt>
      <trkpt lat="49.10655" lon="1.07293">
        <ele>131.2</ele>
        <time>2016-12-11T09:22:30Z</time>
      </trkpt>
      <trkpt lat="49.10665" lon="1.07283">
        <ele>131.4</ele>
        <time>2016-12-11T09:22:33Z</time>
      </trkpt>
      <trkpt lat="49.10674" lon="1.07269">
        <ele>131.7</ele>
        <time>2016-12-11T09:22:36Z</time>
      </trkpt>
      <trkpt lat="49.10681" lon="1.07253">
        <ele>132</ele>
        <time>2016-12-11T09:22:39Z</time>
      </trkpt>
      <trkpt lat="49.10687" lon="1.07235">
        <ele>132.3</ele>
        <time>2016-12-11T09:22:42Z</time>
      </trkpt>
      <trkpt lat="49.10694" lon="1.07217">
        <ele>132.5</ele>
        <time>2016-12-11T09:22:45Z</time>
      </trkpt>
      <trkpt lat="49.107" lon="1.072">
        <ele>132.7</ele>
        <time>2016-12-11T09:22:48Z</time>
      </trkpt>
      <trkpt lat="49.10708" lon="1.07185">
        <ele>132.9</ele>
        <time>2016-12-11T09:22:51Z</time>
      </trkpt>
      <trkpt lat="49.10717" lon="1.0717">
        <ele>133.1</ele>
        <time>2016-12-11T09:22:54Z</time>
      </trkpt>
      <trkpt lat="49.10724" lon="1.07161">
        <ele>133.2</ele>
        <time>2016-12-11T09:22:56Z</time>
      </trkpt>
      <trkpt lat="49.10735" lon="1.07148">
        <ele>133.4</ele>
        <time>2016-12-11T09:22:59Z</time>
      </trkpt>
      <trkpt lat="49.10745" lon="1.07135">
        <ele>133.7</ele>
        <time>2016-12-11T09:23:02Z</time>
      </trkpt>
      <trkpt lat="49.10753" lon="1.07119">
        <ele>133.9</ele>
        <time>2016-12-11T09:23:05Z</time>
      </trkpt>
      <trkpt lat="49.10759" lon="1.07102">
        <ele>134.1</ele>
        <time>2016-12-11T09:23:08Z</time>
      </trkpt>
      <trkpt lat="49.10764" lon="1.07084">
        <ele>134.3</ele>
        <time>2016-12-11T09:23:11Z</time>
      </trkpt>
      <trkpt lat="49.10768" lon="1.07071">
        <ele>134.5</ele>
        <time>2016-12-11T09:23:13Z</time>
      </trkpt>
      <trkpt lat="49.10771" lon="1.07058">
        <ele>134.6</ele>
        <time>2016-12-11T09:23:15Z</time>
      </trkpt>
      <trkpt lat="49.10774" lon="1.07045">
        <ele>134.8</ele>
        <time>2016-12-11T09:23:17Z</time>
      </trkpt>
      <trkpt lat="49.10778" lon="1.07032">
        <ele>135</ele>
        <time>2016-12-11T09:23:19Z</time>
      </trkpt>
      <trkpt lat="49.10783" lon="1.07019">
        <ele>135.3</ele>
        <time>2016-12-11T09:23:21Z</time>
      </trkpt>
      <trkpt lat="49.10787" lon="1.07006">
        <ele>135.4</ele>
        <time>2016-12-11T09:23:23Z</time>
      </trkpt>
      <trkpt lat="49.10792" lon="1.06988">
        <ele>135.7</ele>
        <time>2016-12-11T09:23:26Z</time>
      </trkpt>
      <trkpt lat="49.10796" lon="1.06975">
        <ele>135.8</ele>
        <time>2016-12-11T09:23:28Z</time>
      </trkpt>
      <trkpt lat="49.108" lon="1.06962">
        <ele>135.9</ele>
        <time>2016-12-11T09:23:30Z</time>
      </trkpt>
      <trkpt lat="49.10811" lon="1.06951">
        <ele>136.1</ele>
        <time>2016-12-11T09:23:33Z</time>
      </trkpt>
      <trkpt lat="49.1082" lon="1.06953">
        <ele>136.2</ele>
        <time>2016-12-11T09:23:35Z</time>
      </trkpt>
      <trkpt lat="49.10829" lon="1.06954">
        <ele>136.3</ele>
        <time>2016-12-11T09:23:37Z</time>
      </trkpt>
      <trkpt lat="49.10839" lon="1.06954">
        <ele>136.4</ele>
        <time>2016-12-11T09:23:39Z</time>
      </trkpt>
      <trkpt lat="49.10848" lon="1.06953">
        <ele>136.4</ele>
        <time>2016-12-11T09:23:41Z</time>
      </trkpt>
      <trkpt lat="49.1086" lon="1.06958">
        <ele>136.5</ele>
        <time>2016-12-11T09:23:44Z</time>
      </trkpt>
      <trkpt lat="49.10867" lon="1.06967">
        <ele>136.6</ele>
        <time>2016-12-11T09:23:46Z</time>
      </trkpt>
      <trkpt lat="49.10875" lon="1.06975">
        <ele>136.6</ele>
        <time>2016-12-11T09:23:48Z</time>
      </trkpt>
      <trkpt lat="49.10882" lon="1.06983">
        <ele>136.7</ele>
        <time>2016-12-11T09:23:50Z</time>
      </trkpt>
      <trkpt lat="49.1089" lon="1.06991">
        <ele>136.8</ele>
        <time>2016-12-11T09:23:52Z</time>
      </trkpt>
      <trkpt lat="49.10899" lon="1.06998">
        <ele>136.8</ele>
        <time>2016-12-11T09:23:54Z</time>
      </trkpt>
      <trkpt lat="49.10907" lon="1.07005">
        <ele>136.8</ele>
        <time>2016-12-11T09:23:56Z</time>
      </trkpt>
      <trkpt lat="49.10915" lon="1.07012">
        <ele>136.8</ele>
        <time>2016-12-11T09:23:58Z</time>
      </trkpt>
      <trkpt lat="49.10923" lon="1.0702">
        <ele>136.9</ele>
        <time>2016-12-11T09:24:00Z</time>
      </trkpt>
      <trkpt lat="49.10931" lon="1.07028">
        <ele>136.9</ele>
        <time>2016-12-11T09:24:02Z</time>
      </trkpt>
      <trkpt lat="49.10938" lon="1.07037">
        <ele>137.1</ele>
        <time>2016-12-11T09:24:04Z</time>
      </trkpt>
      <trkpt lat="49.10946" lon="1.07047">
        <ele>137.2</ele>
        <time>2016-12-11T09:24:06Z</time>
      </trkpt>
      <trkpt lat="49.10954" lon="1.07057">
        <ele>137.3</ele>
        <time>2016-12-11T09:24:08Z</time>
      </trkpt>
      <trkpt lat="49.10963" lon="1.07067">
        <ele>137.4</ele>
        <time>2016-12-11T09:24:10Z</time>
      </trkpt>
      <trkpt lat="49.10971" lon="1.07078">
        <ele>137.5</ele>
        <time>2016-12-11T09:24:12Z</time>
      </trkpt>
      <trkpt lat="49.10979" lon="1.0709">
        <ele>137.6</ele>
        <time>2016-12-11T09:24:14Z</time>
      </trkpt>
      <trkpt lat="49.10986" lon="1.07102">
        <ele>137.7</ele>
        <time>2016-12-11T09:24:16Z</time>
      </trkpt>
      <trkpt lat="49.10993" lon="1.07113">
        <ele>137.8</ele>
        <time>2016-12-11T09:24:18Z</time>
      </trkpt>
      <trkpt lat="49.11001" lon="1.07125">
        <ele>138</ele>
        <time>2016-12-11T09:24:20Z</time>
      </trkpt>
      <trkpt lat="49.11009" lon="1.07137">
        <ele>138.1</ele>
        <time>2016-12-11T09:24:22Z</time>
      </trkpt>
      <trkpt lat="49.11016" lon="1.07149">
        <ele>138.3</ele>
        <time>2016-12-11T09:24:24Z</time>
      </trkpt>
      <trkpt lat="49.11023" lon="1.0716">
        <ele>138.4</ele>
        <time>2016-12-11T09:24:26Z</time>
      </trkpt>
      <trkpt lat="49.11029" lon="1.0717">
        <ele>138.5</ele>
        <time>2016-12-11T09:24:28Z</time>
      </trkpt>
      <trkpt lat="49.11038" lon="1.07185">
        <ele>138.7</ele>
        <time>2016-12-11T09:24:31Z</time>
      </trkpt>
      <trkpt lat="49.11048" lon="1.07196">
        <ele>138.8</ele>
        <time>2016-12-11T09:24:34Z</time>
      </trkpt>
      <trkpt lat="49.1106" lon="1.07207">
        <ele>138.9</ele>
        <time>2016-12-11T09:24:37Z</time>
      </trkpt>
      <trkpt lat="49.11068" lon="1.07215">
        <ele>139</ele>
        <time>2016-12-11T09:24:39Z</time>
      </trkpt>
      <trkpt lat="49.11076" lon="1.07222">
        <ele>139.1</ele>
        <time>2016-12-11T09:24:41Z</time>
      </trkpt>
      <trkpt lat="49.11085" lon="1.07234">
        <ele>139.2</ele>
        <time>2016-12-11T09:24:44Z</time>
      </trkpt>
      <trkpt lat="49.11086" lon="1.07252">
        <ele>139.3</ele>
        <time>2016-12-11T09:24:47Z</time>
      </trkpt>
      <trkpt lat="49.11087" lon="1.07267">
        <ele>139.3</ele>
        <time>2016-12-11T09:24:49Z</time>
      </trkpt>
      <trkpt lat="49.1109" lon="1.07281">
        <ele>139.4</ele>
        <time>2016-12-11T09:24:51Z</time>
      </trkpt>
      <trkpt lat="49.11094" lon="1.07295">
        <ele>139.4</ele>
        <time>2016-12-11T09:24:53Z</time>
      </trkpt>
      <trkpt lat="49.11098" lon="1.07308">
        <ele>139.4</ele>
        <time>2016-12-11T09:24:55Z</time>
      </trkpt>
      <trkpt lat="49.11102" lon="1.07323">
        <ele>139.4</ele>
        <time>2016-12-11T09:24:57Z</time>
      </trkpt>
      <trkpt lat="49.11106" lon="1.07339">
        <ele>139.5</ele>
        <time>2016-12-11T09:24:59Z</time>
      </trkpt>
      <trkpt lat="49.11108" lon="1.07355">
        <ele>139.5</ele>
        <time>2016-12-11T09:25:01Z</time>
      </trkpt>
      <trkpt lat="49.11111" lon="1.0737">
        <ele>139.5</ele>
        <time>2016-12-11T09:25:03Z</time>
      </trkpt>
      <trkpt lat="49.11113" lon="1.07385">
        <ele>139.5</ele>
        <time>2016-12-11T09:25:05Z</time>
      </trkpt>
      <trkpt lat="49.11115" lon="1.074">
        <ele>139.6</ele>
        <time>2016-12-11T09:25:07Z</time>
      </trkpt>
      <trkpt lat="49.11116" lon="1.07416">
        <ele>139.6</ele>
        <time>2016-12-11T09:25:09Z</time>
      </trkpt>
      <trkpt lat="49.11115" lon="1.07432">
        <ele>139.6</ele>
        <time>2016-12-11T09:25:11Z</time>
      </trkpt>
      <trkpt lat="49.11115" lon="1.07448">
        <ele>139.6</ele>
        <time>2016-12-11T09:25:13Z</time>
      </trkpt>
      <trkpt lat="49.11113" lon="1.07464">
        <ele>139.5</ele>
        <time>2016-12-11T09:25:15Z</time>
      </trkpt>
      <trkpt lat="49.11111" lon="1.07479">
        <ele>139.3</ele>
        <time>2016-12-11T09:25:17Z</time>
      </trkpt>
      <trkpt lat="49.11109" lon="1.07494">
        <ele>139.2</ele>
        <time>2016-12-11T09:25:19Z</time>
      </trkpt>
      <trkpt lat="49.11106" lon="1.07509">
        <ele>139.1</ele>
        <time>2016-12-11T09:25:21Z</time>
      </trkpt>
      <trkpt lat="49.11103" lon="1.07523">
        <ele>139</ele>
        <time>2016-12-11T09:25:23Z</time>
      </trkpt>
      <trkpt lat="49.111" lon="1.07538">
        <ele>138.9</ele>
        <time>2016-12-11T09:25:25Z</time>
      </trkpt>
      <trkpt lat="49.11097" lon="1.07553">
        <ele>138.9</ele>
        <time>2016-12-11T09:25:27Z</time>
      </trkpt>
      <trkpt lat="49.11093" lon="1.07568">
        <ele>138.8</ele>
        <time>2016-12-11T09:25:29Z</time>
      </trkpt>
      <trkpt lat="49.1109" lon="1.07583">
        <ele>138.6</ele>
        <time>2016-12-11T09:25:31Z</time>
      </trkpt>
      <trkpt lat="49.11086" lon="1.07598">
        <ele>138.5</ele>
        <time>2016-12-11T09:25:33Z</time>
      </trkpt>
      <trkpt lat="49.11082" lon="1.07614">
        <ele>138.5</ele>
        <time>2016-12-11T09:25:35Z</time>
      </trkpt>
      <trkpt lat="49.11079" lon="1.0763">
        <ele>138.5</ele>
        <time>2016-12-11T09:25:37Z</time>
      </trkpt>
      <trkpt lat="49.11075" lon="1.07645">
        <ele>138.4</ele>
        <time>2016-12-11T09:25:39Z</time>
      </trkpt>
      <trkpt lat="49.11073" lon="1.07661">
        <ele>138.3</ele>
        <time>2016-12-11T09:25:41Z</time>
      </trkpt>
      <trkpt lat="49.1107" lon="1.07677">
        <ele>138.1</ele>
        <time>2016-12-11T09:25:43Z</time>
      </trkpt>
      <trkpt lat="49.11068" lon="1.07693">
        <ele>137.9</ele>
        <time>2016-12-11T09:25:45Z</time>
      </trkpt>
      <trkpt lat="49.11066" lon="1.0771">
        <ele>137.9</ele>
        <time>2016-12-11T09:25:47Z</time>
      </trkpt>
      <trkpt lat="49.11065" lon="1.07727">
        <ele>137.8</ele>
        <time>2016-12-11T09:25:49Z</time>
      </trkpt>
      <trkpt lat="49.11064" lon="1.07743">
        <ele>137.8</ele>
        <time>2016-12-11T09:25:51Z</time>
      </trkpt>
      <trkpt lat="49.11064" lon="1.07761">
        <ele>137.8</ele>
        <time>2016-12-11T09:25:53Z</time>
      </trkpt>
      <trkpt lat="49.11064" lon="1.07777">
        <ele>137.7</ele>
        <time>2016-12-11T09:25:55Z</time>
      </trkpt>
      <trkpt lat="49.11065" lon="1.07794">
        <ele>137.7</ele>
        <time>2016-12-11T09:25:57Z</time>
      </trkpt>
      <trkpt lat="49.11067" lon="1.07811">
        <ele>137.7</ele>
        <time>2016-12-11T09:25:59Z</time>
      </trkpt>
      <trkpt lat="49.11069" lon="1.07828">
        <ele>137.8</ele>
        <time>2016-12-11T09:26:01Z</time>
      </trkpt>
      <trkpt lat="49.11071" lon="1.07844">
        <ele>137.8</ele>
        <time>2016-12-11T09:26:03Z</time>
      </trkpt>
      <trkpt lat="49.11073" lon="1.07861">
        <ele>137.8</ele>
        <time>2016-12-11T09:26:05Z</time>
      </trkpt>
      <trkpt lat="49.11076" lon="1.07877">
        <ele>137.8</ele>
        <time>2016-12-11T09:26:07Z</time>
      </trkpt>
      <trkpt lat="49.11078" lon="1.07894">
        <ele>137.8</ele>
        <time>2016-12-11T09:26:09Z</time>
      </trkpt>
      <trkpt lat="49.1108" lon="1.07911">
        <ele>137.9</ele>
        <time>2016-12-11T09:26:11Z</time>
      </trkpt>
      <trkpt lat="49.11083" lon="1.07928">
        <ele>137.9</ele>
        <time>2016-12-11T09:26:13Z</time>
      </trkpt>
      <trkpt lat="49.11085" lon="1.07945">
        <ele>137.9</ele>
        <time>2016-12-11T09:26:15Z</time>
      </trkpt>
      <trkpt lat="49.11087" lon="1.07961">
        <ele>137.9</ele>
        <time>2016-12-11T09:26:17Z</time>
      </trkpt>
      <trkpt lat="49.11089" lon="1.07977">
        <ele>137.9</ele>
        <time>2016-12-11T09:26:19Z</time>
      </trkpt>
      <trkpt lat="49.11091" lon="1.07994">
        <ele>137.9</ele>
        <time>2016-12-11T09:26:21Z</time>
      </trkpt>
      <trkpt lat="49.11093" lon="1.0801">
        <ele>137.9</ele>
        <time>2016-12-11T09:26:23Z</time>
      </trkpt>
      <trkpt lat="49.11094" lon="1.08027">
        <ele>137.7</ele>
        <time>2016-12-11T09:26:25Z</time>
      </trkpt>
      <trkpt lat="49.11094" lon="1.08044">
        <ele>137.6</ele>
        <time>2016-12-11T09:26:27Z</time>
      </trkpt>
      <trkpt lat="49.11094" lon="1.08061">
        <ele>137.4</ele>
        <time>2016-12-11T09:26:29Z</time>
      </trkpt>
      <trkpt lat="49.11094" lon="1.08077">
        <ele>137.3</ele>
        <time>2016-12-11T09:26:31Z</time>
      </trkpt>
      <trkpt lat="49.11094" lon="1.08093">
        <ele>137.2</ele>
        <time>2016-12-11T09:26:33Z</time>
      </trkpt>
      <trkpt lat="49.11094" lon="1.08109">
        <ele>137.2</ele>
        <time>2016-12-11T09:26:35Z</time>
      </trkpt>
      <trkpt lat="49.11094" lon="1.08125">
        <ele>137.1</ele>
        <time>2016-12-11T09:26:37Z</time>
      </trkpt>
      <trkpt lat="49.11093" lon="1.0814">
        <ele>137.1</ele>
        <time>2016-12-11T09:26:39Z</time>
      </trkpt>
      <trkpt lat="49.11093" lon="1.08156">
        <ele>137.1</ele>
        <time>2016-12-11T09:26:41Z</time>
      </trkpt>
      <trkpt lat="49.11093" lon="1.08172">
        <ele>137.2</ele>
        <time>2016-12-11T09:26:43Z</time>
      </trkpt>
      <trkpt lat="49.11093" lon="1.08187">
        <ele>137.2</ele>
        <time>2016-12-11T09:26:45Z</time>
      </trkpt>
      <trkpt lat="49.11092" lon="1.08202">
        <ele>137.2</ele>
        <time>2016-12-11T09:26:47Z</time>
      </trkpt>
      <trkpt lat="49.11092" lon="1.08217">
        <ele>137.3</ele>
        <time>2016-12-11T09:26:49Z</time>
      </trkpt>
      <trkpt lat="49.11093" lon="1.08233">
        <ele>137.4</ele>
        <time>2016-12-11T09:26:51Z</time>
      </trkpt>
      <trkpt lat="49.11093" lon="1.08248">
        <ele>137.6</ele>
        <time>2016-12-11T09:26:53Z</time>
      </trkpt>
      <trkpt lat="49.11095" lon="1.08263">
        <ele>137.7</ele>
        <time>2016-12-11T09:26:55Z</time>
      </trkpt>
      <trkpt lat="49.11099" lon="1.08281">
        <ele>137.9</ele>
        <time>2016-12-11T09:26:58Z</time>
      </trkpt>
      <trkpt lat="49.11102" lon="1.08295">
        <ele>138.1</ele>
        <time>2016-12-11T09:27:01Z</time>
      </trkpt>
      <trkpt lat="49.11103" lon="1.08317">
        <ele>138.3</ele>
        <time>2016-12-11T09:27:04Z</time>
      </trkpt>
      <trkpt lat="49.11104" lon="1.08331">
        <ele>138.5</ele>
        <time>2016-12-11T09:27:06Z</time>
      </trkpt>
      <trkpt lat="49.11107" lon="1.08345">
        <ele>138.7</ele>
        <time>2016-12-11T09:27:08Z</time>
      </trkpt>
      <trkpt lat="49.1111" lon="1.08364">
        <ele>138.9</ele>
        <time>2016-12-11T09:27:11Z</time>
      </trkpt>
      <trkpt lat="49.11114" lon="1.08384">
        <ele>139.2</ele>
        <time>2016-12-11T09:27:14Z</time>
      </trkpt>
      <trkpt lat="49.11117" lon="1.08403">
        <ele>139.4</ele>
        <time>2016-12-11T09:27:17Z</time>
      </trkpt>
      <trkpt lat="49.11117" lon="1.0842">
        <ele>139.5</ele>
        <time>2016-12-11T09:27:19Z</time>
      </trkpt>
      <trkpt lat="49.11117" lon="1.08435">
        <ele>139.8</ele>
        <time>2016-12-11T09:27:21Z</time>
      </trkpt>
      <trkpt lat="49.11115" lon="1.08453">
        <ele>140</ele>
        <time>2016-12-11T09:27:23Z</time>
      </trkpt>
      <trkpt lat="49.11116" lon="1.0847">
        <ele>140.2</ele>
        <time>2016-12-11T09:27:25Z</time>
      </trkpt>
      <trkpt lat="49.11117" lon="1.08488">
        <ele>140.4</ele>
        <time>2016-12-11T09:27:27Z</time>
      </trkpt>
      <trkpt lat="49.11118" lon="1.08507">
        <ele>140.6</ele>
        <time>2016-12-11T09:27:29Z</time>
      </trkpt>
      <trkpt lat="49.11117" lon="1.08529">
        <ele>140.8</ele>
        <time>2016-12-11T09:27:31Z</time>
      </trkpt>
      <trkpt lat="49.11116" lon="1.08548">
        <ele>140.9</ele>
        <time>2016-12-11T09:27:33Z</time>
      </trkpt>
      <trkpt lat="49.11114" lon="1.08568">
        <ele>141.1</ele>
        <time>2016-12-11T09:27:35Z</time>
      </trkpt>
      <trkpt lat="49.11112" lon="1.08586">
        <ele>141.2</ele>
        <time>2016-12-11T09:27:37Z</time>
      </trkpt>
      <trkpt lat="49.1111" lon="1.08603">
        <ele>141.3</ele>
        <time>2016-12-11T09:27:39Z</time>
      </trkpt>
      <trkpt lat="49.11108" lon="1.0862">
        <ele>141.3</ele>
        <time>2016-12-11T09:27:41Z</time>
      </trkpt>
      <trkpt lat="49.11105" lon="1.08637">
        <ele>141.3</ele>
        <time>2016-12-11T09:27:43Z</time>
      </trkpt>
      <trkpt lat="49.11102" lon="1.08654">
        <ele>141.3</ele>
        <time>2016-12-11T09:27:45Z</time>
      </trkpt>
      <trkpt lat="49.111" lon="1.08672">
        <ele>141.4</ele>
        <time>2016-12-11T09:27:47Z</time>
      </trkpt>
      <trkpt lat="49.11097" lon="1.0869">
        <ele>141.5</ele>
        <time>2016-12-11T09:27:49Z</time>
      </trkpt>
      <trkpt lat="49.11094" lon="1.08708">
        <ele>141.6</ele>
        <time>2016-12-11T09:27:51Z</time>
      </trkpt>
      <trkpt lat="49.11092" lon="1.08726">
        <ele>141.5</ele>
        <time>2016-12-11T09:27:53Z</time>
      </trkpt>
      <trkpt lat="49.1109" lon="1.08744">
        <ele>141.5</ele>
        <time>2016-12-11T09:27:55Z</time>
      </trkpt>
      <trkpt lat="49.11088" lon="1.08762">
        <ele>141.6</ele>
        <time>2016-12-11T09:27:57Z</time>
      </trkpt>
      <trkpt lat="49.11086" lon="1.08779">
        <ele>141.6</ele>
        <time>2016-12-11T09:27:59Z</time>
      </trkpt>
      <trkpt lat="49.11084" lon="1.08795">
        <ele>141.6</ele>
        <time>2016-12-11T09:28:01Z</time>
      </trkpt>
      <trkpt lat="49.11083" lon="1.08812">
        <ele>141.6</ele>
        <time>2016-12-11T09:28:03Z</time>
      </trkpt>
      <trkpt lat="49.11082" lon="1.0883">
        <ele>141.6</ele>
        <time>2016-12-11T09:28:05Z</time>
      </trkpt>
      <trkpt lat="49.11081" lon="1.08848">
        <ele>141.7</ele>
        <time>2016-12-11T09:28:07Z</time>
      </trkpt>
      <trkpt lat="49.11079" lon="1.08866">
        <ele>141.7</ele>
        <time>2016-12-11T09:28:09Z</time>
      </trkpt>
      <trkpt lat="49.11077" lon="1.08885">
        <ele>141.7</ele>
        <time>2016-12-11T09:28:11Z</time>
      </trkpt>
      <trkpt lat="49.11075" lon="1.08905">
        <ele>141.7</ele>
        <time>2016-12-11T09:28:13Z</time>
      </trkpt>
      <trkpt lat="49.11072" lon="1.08925">
        <ele>141.7</ele>
        <time>2016-12-11T09:28:15Z</time>
      </trkpt>
      <trkpt lat="49.1107" lon="1.08945">
        <ele>141.7</ele>
        <time>2016-12-11T09:28:17Z</time>
      </trkpt>
      <trkpt lat="49.11069" lon="1.08966">
        <ele>141.7</ele>
        <time>2016-12-11T09:28:19Z</time>
      </trkpt>
      <trkpt lat="49.11068" lon="1.08989">
        <ele>141.6</ele>
        <time>2016-12-11T09:28:21Z</time>
      </trkpt>
      <trkpt lat="49.11067" lon="1.09011">
        <ele>141.6</ele>
        <time>2016-12-11T09:28:23Z</time>
      </trkpt>
      <trkpt lat="49.11066" lon="1.09033">
        <ele>141.5</ele>
        <time>2016-12-11T09:28:25Z</time>
      </trkpt>
      <trkpt lat="49.11065" lon="1.09054">
        <ele>141.5</ele>
        <time>2016-12-11T09:28:27Z</time>
      </trkpt>
      <trkpt lat="49.11064" lon="1.09074">
        <ele>141.5</ele>
        <time>2016-12-11T09:28:29Z</time>
      </trkpt>
      <trkpt lat="49.11063" lon="1.09092">
        <ele>141.4</ele>
        <time>2016-12-11T09:28:31Z</time>
      </trkpt>
      <trkpt lat="49.11062" lon="1.09107">
        <ele>141.3</ele>
        <time>2016-12-11T09:28:33Z</time>
      </trkpt>
      <trkpt lat="49.11062" lon="1.09122">
        <ele>141.3</ele>
        <time>2016-12-11T09:28:35Z</time>
      </trkpt>
      <trkpt lat="49.11062" lon="1.09136">
        <ele>141.3</ele>
        <time>2016-12-11T09:28:37Z</time>
      </trkpt>
      <trkpt lat="49.11059" lon="1.09149">
        <ele>141.3</ele>
        <time>2016-12-11T09:28:39Z</time>
      </trkpt>
      <trkpt lat="49.11052" lon="1.09161">
        <ele>141.3</ele>
        <time>2016-12-11T09:28:41Z</time>
      </trkpt>
      <trkpt lat="49.11044" lon="1.09171">
        <ele>141.3</ele>
        <time>2016-12-11T09:28:43Z</time>
      </trkpt>
      <trkpt lat="49.11035" lon="1.09181">
        <ele>141.4</ele>
        <time>2016-12-11T09:28:45Z</time>
      </trkpt>
      <trkpt lat="49.11028" lon="1.09194">
        <ele>141.4</ele>
        <time>2016-12-11T09:28:47Z</time>
      </trkpt>
      <trkpt lat="49.11023" lon="1.09207">
        <ele>141.4</ele>
        <time>2016-12-11T09:28:49Z</time>
      </trkpt>
      <trkpt lat="49.11014" lon="1.09214">
        <ele>141.4</ele>
        <time>2016-12-11T09:28:51Z</time>
      </trkpt>
      <trkpt lat="49.11004" lon="1.09213">
        <ele>141.5</ele>
        <time>2016-12-11T09:28:53Z</time>
      </trkpt>
      <trkpt lat="49.10993" lon="1.09209">
        <ele>141.5</ele>
        <time>2016-12-11T09:28:55Z</time>
      </trkpt>
      <trkpt lat="49.10982" lon="1.09207">
        <ele>141.4</ele>
        <time>2016-12-11T09:28:57Z</time>
      </trkpt>
      <trkpt lat="49.10971" lon="1.09207">
        <ele>141.3</ele>
        <time>2016-12-11T09:28:59Z</time>
      </trkpt>
      <trkpt lat="49.1096" lon="1.0921">
        <ele>140.9</ele>
        <time>2016-12-11T09:29:01Z</time>
      </trkpt>
      <trkpt lat="49.1095" lon="1.09216">
        <ele>140.6</ele>
        <time>2016-12-11T09:29:03Z</time>
      </trkpt>
      <trkpt lat="49.10939" lon="1.09225">
        <ele>140.1</ele>
        <time>2016-12-11T09:29:05Z</time>
      </trkpt>
      <trkpt lat="49.10927" lon="1.09239">
        <ele>139.6</ele>
        <time>2016-12-11T09:29:07Z</time>
      </trkpt>
      <trkpt lat="49.10918" lon="1.09257">
        <ele>138.8</ele>
        <time>2016-12-11T09:29:09Z</time>
      </trkpt>
      <trkpt lat="49.1091" lon="1.09272">
        <ele>138.2</ele>
        <time>2016-12-11T09:29:11Z</time>
      </trkpt>
      <trkpt lat="49.10902" lon="1.09287">
        <ele>137.5</ele>
        <time>2016-12-11T09:29:13Z</time>
      </trkpt>
      <trkpt lat="49.10894" lon="1.09304">
        <ele>136.8</ele>
        <time>2016-12-11T09:29:15Z</time>
      </trkpt>
      <trkpt lat="49.10885" lon="1.09322">
        <ele>136</ele>
        <time>2016-12-11T09:29:17Z</time>
      </trkpt>
      <trkpt lat="49.10878" lon="1.09338">
        <ele>135.3</ele>
        <time>2016-12-11T09:29:19Z</time>
      </trkpt>
      <trkpt lat="49.10869" lon="1.09355">
        <ele>134.7</ele>
        <time>2016-12-11T09:29:21Z</time>
      </trkpt>
      <trkpt lat="49.10862" lon="1.09374">
        <ele>134.1</ele>
        <time>2016-12-11T09:29:23Z</time>
      </trkpt>
      <trkpt lat="49.10854" lon="1.09391">
        <ele>133.6</ele>
        <time>2016-12-11T09:29:25Z</time>
      </trkpt>
      <trkpt lat="49.10846" lon="1.09408">
        <ele>133</ele>
        <time>2016-12-11T09:29:27Z</time>
      </trkpt>
      <trkpt lat="49.10837" lon="1.09423">
        <ele>132.6</ele>
        <time>2016-12-11T09:29:29Z</time>
      </trkpt>
      <trkpt lat="49.10829" lon="1.09438">
        <ele>132.1</ele>
        <time>2016-12-11T09:29:31Z</time>
      </trkpt>
      <trkpt lat="49.1082" lon="1.09453">
        <ele>131.9</ele>
        <time>2016-12-11T09:29:33Z</time>
      </trkpt>
      <trkpt lat="49.10809" lon="1.09467">
        <ele>131.7</ele>
        <time>2016-12-11T09:29:35Z</time>
      </trkpt>
      <trkpt lat="49.10799" lon="1.09479">
        <ele>131.5</ele>
        <time>2016-12-11T09:29:37Z</time>
      </trkpt>
      <trkpt lat="49.10788" lon="1.09492">
        <ele>131.3</ele>
        <time>2016-12-11T09:29:39Z</time>
      </trkpt>
      <trkpt lat="49.10779" lon="1.09509">
        <ele>131.1</ele>
        <time>2016-12-11T09:29:41Z</time>
      </trkpt>
      <trkpt lat="49.10771" lon="1.09524">
        <ele>130.9</ele>
        <time>2016-12-11T09:29:43Z</time>
      </trkpt>
      <trkpt lat="49.10761" lon="1.0954">
        <ele>130.6</ele>
        <time>2016-12-11T09:29:45Z</time>
      </trkpt>
      <trkpt lat="49.10752" lon="1.09558">
        <ele>130.4</ele>
        <time>2016-12-11T09:29:47Z</time>
      </trkpt>
      <trkpt lat="49.10741" lon="1.09574">
        <ele>130.1</ele>
        <time>2016-12-11T09:29:49Z</time>
      </trkpt>
      <trkpt lat="49.10729" lon="1.0959">
        <ele>129.8</ele>
        <time>2016-12-11T09:29:51Z</time>
      </trkpt>
      <trkpt lat="49.10717" lon="1.09607">
        <ele>129.6</ele>
        <time>2016-12-11T09:29:53Z</time>
      </trkpt>
      <trkpt lat="49.10704" lon="1.09619">
        <ele>129.4</ele>
        <time>2016-12-11T09:29:55Z</time>
      </trkpt>
      <trkpt lat="49.10694" lon="1.09633">
        <ele>129</ele>
        <time>2016-12-11T09:29:57Z</time>
      </trkpt>
      <trkpt lat="49.10686" lon="1.09649">
        <ele>128.6</ele>
        <time>2016-12-11T09:29:59Z</time>
      </trkpt>
      <trkpt lat="49.10675" lon="1.09668">
        <ele>128.2</ele>
        <time>2016-12-11T09:30:01Z</time>
      </trkpt>
      <trkpt lat="49.10669" lon="1.09678">
        <ele>128.1</ele>
        <time>2016-12-11T09:30:02Z</time>
      </trkpt>
      <trkpt lat="49.10659" lon="1.09698">
        <ele>127.6</ele>
        <time>2016-12-11T09:30:04Z</time>
      </trkpt>
      <trkpt lat="49.1065" lon="1.09718">
        <ele>127.2</ele>
        <time>2016-12-11T09:30:06Z</time>
      </trkpt>
      <trkpt lat="49.1064" lon="1.09738">
        <ele>126.7</ele>
        <time>2016-12-11T09:30:08Z</time>
      </trkpt>
      <trkpt lat="49.10633" lon="1.09749">
        <ele>126.4</ele>
        <time>2016-12-11T09:30:09Z</time>
      </trkpt>
      <trkpt lat="49.10625" lon="1.09764">
        <ele>126</ele>
        <time>2016-12-11T09:30:11Z</time>
      </trkpt>
      <trkpt lat="49.10616" lon="1.09781">
        <ele>125.7</ele>
        <time>2016-12-11T09:30:13Z</time>
      </trkpt>
      <trkpt lat="49.10607" lon="1.09797">
        <ele>125.4</ele>
        <time>2016-12-11T09:30:15Z</time>
      </trkpt>
      <trkpt lat="49.10595" lon="1.09816">
        <ele>125</ele>
        <time>2016-12-11T09:30:17Z</time>
      </trkpt>
      <trkpt lat="49.10585" lon="1.09833">
        <ele>124.5</ele>
        <time>2016-12-11T09:30:19Z</time>
      </trkpt>
      <trkpt lat="49.10576" lon="1.09847">
        <ele>124</ele>
        <time>2016-12-11T09:30:21Z</time>
      </trkpt>
      <trkpt lat="49.10563" lon="1.09862">
        <ele>123.4</ele>
        <time>2016-12-11T09:30:23Z</time>
      </trkpt>
      <trkpt lat="49.1055" lon="1.0988">
        <ele>122.8</ele>
        <time>2016-12-11T09:30:25Z</time>
      </trkpt>
      <trkpt lat="49.10538" lon="1.09897">
        <ele>122.2</ele>
        <time>2016-12-11T09:30:27Z</time>
      </trkpt>
      <trkpt lat="49.10527" lon="1.09913">
        <ele>121.6</ele>
        <time>2016-12-11T09:30:29Z</time>
      </trkpt>
      <trkpt lat="49.10516" lon="1.09931">
        <ele>121</ele>
        <time>2016-12-11T09:30:31Z</time>
      </trkpt>
      <trkpt lat="49.10507" lon="1.0995">
        <ele>120.5</ele>
        <time>2016-12-11T09:30:33Z</time>
      </trkpt>
      <trkpt lat="49.10499" lon="1.09968">
        <ele>119.9</ele>
        <time>2016-12-11T09:30:35Z</time>
      </trkpt>
      <trkpt lat="49.10496" lon="1.09986">
        <ele>119.3</ele>
        <time>2016-12-11T09:30:37Z</time>
      </trkpt>
      <trkpt lat="49.10492" lon="1.1">
        <ele>118.9</ele>
        <time>2016-12-11T09:30:39Z</time>
      </trkpt>
      <trkpt lat="49.10486" lon="1.10016">
        <ele>118.4</ele>
        <time>2016-12-11T09:30:41Z</time>
      </trkpt>
      <trkpt lat="49.10479" lon="1.10034">
        <ele>117.8</ele>
        <time>2016-12-11T09:30:43Z</time>
      </trkpt>
      <trkpt lat="49.10476" lon="1.10048">
        <ele>117.1</ele>
        <time>2016-12-11T09:30:45Z</time>
      </trkpt>
      <trkpt lat="49.10469" lon="1.10062">
        <ele>116.5</ele>
        <time>2016-12-11T09:30:47Z</time>
      </trkpt>
      <trkpt lat="49.10464" lon="1.1008">
        <ele>115.6</ele>
        <time>2016-12-11T09:30:50Z</time>
      </trkpt>
      <trkpt lat="49.10462" lon="1.10095">
        <ele>114.3</ele>
        <time>2016-12-11T09:30:56Z</time>
      </trkpt>
      <trkpt lat="49.10467" lon="1.10083">
        <ele>112.2</ele>
        <time>2016-12-11T09:31:09Z</time>
      </trkpt>
      <trkpt lat="49.10474" lon="1.10072">
        <ele>111.5</ele>
        <time>2016-12-11T09:31:17Z</time>
      </trkpt>
      <trkpt lat="49.10477" lon="1.10057">
        <ele>111</ele>
        <time>2016-12-11T09:31:24Z</time>
      </trkpt>
      <trkpt lat="49.10479" lon="1.10043">
        <ele>109.8</ele>
        <time>2016-12-11T09:31:32Z</time>
      </trkpt>
      <trkpt lat="49.10483" lon="1.1003">
        <ele>109.4</ele>
        <time>2016-12-11T09:31:39Z</time>
      </trkpt>
      <trkpt lat="49.10487" lon="1.10016">
        <ele>109.1</ele>
        <time>2016-12-11T09:31:47Z</time>
      </trkpt>
      <trkpt lat="49.10494" lon="1.10006">
        <ele>108.8</ele>
        <time>2016-12-11T09:31:53Z</time>
      </trkpt>
      <trkpt lat="49.10501" lon="1.09997">
        <ele>108.6</ele>
        <time>2016-12-11T09:31:59Z</time>
      </trkpt>
      <trkpt lat="49.10507" lon="1.09984">
        <ele>108.5</ele>
        <time>2016-12-11T09:32:05Z</time>
      </trkpt>
      <trkpt lat="49.10511" lon="1.09972">
        <ele>108.4</ele>
        <time>2016-12-11T09:32:12Z</time>
      </trkpt>
      <trkpt lat="49.10517" lon="1.09961">
        <ele>108.3</ele>
        <time>2016-12-11T09:32:17Z</time>
      </trkpt>
      <trkpt lat="49.10524" lon="1.0995">
        <ele>108.3</ele>
        <time>2016-12-11T09:32:24Z</time>
      </trkpt>
      <trkpt lat="49.10532" lon="1.09942">
        <ele>108.4</ele>
        <time>2016-12-11T09:32:30Z</time>
      </trkpt>
      <trkpt lat="49.1054" lon="1.09934">
        <ele>108.8</ele>
        <time>2016-12-11T09:32:36Z</time>
      </trkpt>
      <trkpt lat="49.10547" lon="1.09924">
        <ele>109.4</ele>
        <time>2016-12-11T09:32:43Z</time>
      </trkpt>
      <trkpt lat="49.10549" lon="1.09938">
        <ele>110.3</ele>
        <time>2016-12-11T09:32:53Z</time>
      </trkpt>
      <trkpt lat="49.10546" lon="1.09953">
        <ele>110.8</ele>
        <time>2016-12-11T09:33:00Z</time>
      </trkpt>
      <trkpt lat="49.10543" lon="1.09968">
        <ele>111.5</ele>
        <time>2016-12-11T09:33:07Z</time>
      </trkpt>
      <trkpt lat="49.10543" lon="1.09985">
        <ele>112.3</ele>
        <time>2016-12-11T09:33:14Z</time>
      </trkpt>
      <trkpt lat="49.10542" lon="1.09999">
        <ele>112.6</ele>
        <time>2016-12-11T09:33:18Z</time>
      </trkpt>
      <trkpt lat="49.1054" lon="1.10013">
        <ele>113.2</ele>
        <time>2016-12-11T09:33:23Z</time>
      </trkpt>
      <trkpt lat="49.1054" lon="1.10028">
        <ele>113.8</ele>
        <time>2016-12-11T09:33:28Z</time>
      </trkpt>
      <trkpt lat="49.1054" lon="1.10044">
        <ele>114.5</ele>
        <time>2016-12-11T09:33:33Z</time>
      </trkpt>
      <trkpt lat="49.10542" lon="1.10058">
        <ele>115.3</ele>
        <time>2016-12-11T09:33:38Z</time>
      </trkpt>
      <trkpt lat="49.10543" lon="1.10072">
        <ele>115.9</ele>
        <time>2016-12-11T09:33:42Z</time>
      </trkpt>
      <trkpt lat="49.10545" lon="1.10087">
        <ele>116.7</ele>
        <time>2016-12-11T09:33:47Z</time>
      </trkpt>
      <trkpt lat="49.10549" lon="1.10102">
        <ele>117.7</ele>
        <time>2016-12-11T09:33:52Z</time>
      </trkpt>
      <trkpt lat="49.10554" lon="1.10114">
        <ele>118.6</ele>
        <time>2016-12-11T09:33:57Z</time>
      </trkpt>
      <trkpt lat="49.1056" lon="1.10127">
        <ele>119.5</ele>
        <time>2016-12-11T09:34:01Z</time>
      </trkpt>
      <trkpt lat="49.10568" lon="1.10136">
        <ele>120.3</ele>
        <time>2016-12-11T09:34:05Z</time>
      </trkpt>
      <trkpt lat="49.10576" lon="1.10143">
        <ele>121.2</ele>
        <time>2016-12-11T09:34:09Z</time>
      </trkpt>
      <trkpt lat="49.10585" lon="1.10149">
        <ele>122.1</ele>
        <time>2016-12-11T09:34:13Z</time>
      </trkpt>
      <trkpt lat="49.10594" lon="1.10154">
        <ele>123.1</ele>
        <time>2016-12-11T09:34:17Z</time>
      </trkpt>
      <trkpt lat="49.10604" lon="1.10161">
        <ele>123.9</ele>
        <time>2016-12-11T09:34:21Z</time>
      </trkpt>
      <trkpt lat="49.10614" lon="1.10167">
        <ele>124.7</ele>
        <time>2016-12-11T09:34:26Z</time>
      </trkpt>
      <trkpt lat="49.10624" lon="1.10169">
        <ele>125.2</ele>
        <time>2016-12-11T09:34:30Z</time>
      </trkpt>
      <trkpt lat="49.10634" lon="1.10172">
        <ele>125.8</ele>
        <time>2016-12-11T09:34:35Z</time>
      </trkpt>
      <trkpt lat="49.10643" lon="1.10177">
        <ele>126.1</ele>
        <time>2016-12-11T09:34:39Z</time>
      </trkpt>
      <trkpt lat="49.10652" lon="1.10179">
        <ele>126.4</ele>
        <time>2016-12-11T09:34:42Z</time>
      </trkpt>
      <trkpt lat="49.10664" lon="1.10183">
        <ele>126.6</ele>
        <time>2016-12-11T09:34:45Z</time>
      </trkpt>
      <trkpt lat="49.10676" lon="1.10189">
        <ele>126.8</ele>
        <time>2016-12-11T09:34:48Z</time>
      </trkpt>
      <trkpt lat="49.10687" lon="1.10198">
        <ele>127</ele>
        <time>2016-12-11T09:34:51Z</time>
      </trkpt>
      <trkpt lat="49.10697" lon="1.10205">
        <ele>127.1</ele>
        <time>2016-12-11T09:34:54Z</time>
      </trkpt>
      <trkpt lat="49.10708" lon="1.10212">
        <ele>127.3</ele>
        <time>2016-12-11T09:34:57Z</time>
      </trkpt>
      <trkpt lat="49.10717" lon="1.10216">
        <ele>127.4</ele>
        <time>2016-12-11T09:35:00Z</time>
      </trkpt>
      <trkpt lat="49.10728" lon="1.10221">
        <ele>127.6</ele>
        <time>2016-12-11T09:35:03Z</time>
      </trkpt>
      <trkpt lat="49.10737" lon="1.10224">
        <ele>127.8</ele>
        <time>2016-12-11T09:35:06Z</time>
      </trkpt>
      <trkpt lat="49.10747" lon="1.10227">
        <ele>128</ele>
        <time>2016-12-11T09:35:09Z</time>
      </trkpt>
      <trkpt lat="49.10756" lon="1.10231">
        <ele>128.3</ele>
        <time>2016-12-11T09:35:12Z</time>
      </trkpt>
      <trkpt lat="49.10768" lon="1.10235">
        <ele>128.6</ele>
        <time>2016-12-11T09:35:16Z</time>
      </trkpt>
      <trkpt lat="49.10778" lon="1.10237">
        <ele>128.9</ele>
        <time>2016-12-11T09:35:19Z</time>
      </trkpt>
      <trkpt lat="49.1079" lon="1.10242">
        <ele>129.3</ele>
        <time>2016-12-11T09:35:23Z</time>
      </trkpt>
      <trkpt lat="49.10801" lon="1.10246">
        <ele>129.6</ele>
        <time>2016-12-11T09:35:26Z</time>
      </trkpt>
      <trkpt lat="49.1081" lon="1.10251">
        <ele>129.8</ele>
        <time>2016-12-11T09:35:28Z</time>
      </trkpt>
      <trkpt lat="49.10819" lon="1.10255">
        <ele>130.2</ele>
        <time>2016-12-11T09:35:30Z</time>
      </trkpt>
      <trkpt lat="49.10828" lon="1.1026">
        <ele>130.4</ele>
        <time>2016-12-11T09:35:32Z</time>
      </trkpt>
      <trkpt lat="49.10841" lon="1.10264">
        <ele>130.8</ele>
        <time>2016-12-11T09:35:35Z</time>
      </trkpt>
      <trkpt lat="49.10852" lon="1.10271">
        <ele>131.1</ele>
        <time>2016-12-11T09:35:38Z</time>
      </trkpt>
      <trkpt lat="49.10861" lon="1.10274">
        <ele>131.3</ele>
        <time>2016-12-11T09:35:40Z</time>
      </trkpt>
      <trkpt lat="49.1087" lon="1.10278">
        <ele>131.4</ele>
        <time>2016-12-11T09:35:42Z</time>
      </trkpt>
      <trkpt lat="49.10879" lon="1.10283">
        <ele>131.6</ele>
        <time>2016-12-11T09:35:44Z</time>
      </trkpt>
      <trkpt lat="49.10888" lon="1.10286">
        <ele>131.7</ele>
        <time>2016-12-11T09:35:46Z</time>
      </trkpt>
      <trkpt lat="49.10897" lon="1.10291">
        <ele>131.8</ele>
        <time>2016-12-11T09:35:48Z</time>
      </trkpt>
      <trkpt lat="49.10906" lon="1.10296">
        <ele>131.9</ele>
        <time>2016-12-11T09:35:50Z</time>
      </trkpt>
      <trkpt lat="49.10917" lon="1.10299">
        <ele>132</ele>
        <time>2016-12-11T09:35:52Z</time>
      </trkpt>
      <trkpt lat="49.10926" lon="1.10303">
        <ele>132.2</ele>
        <time>2016-12-11T09:35:54Z</time>
      </trkpt>
      <trkpt lat="49.10936" lon="1.10307">
        <ele>132.4</ele>
        <time>2016-12-11T09:35:56Z</time>
      </trkpt>
      <trkpt lat="49.10945" lon="1.10311">
        <ele>132.5</ele>
        <time>2016-12-11T09:35:58Z</time>
      </trkpt>
      <trkpt lat="49.10955" lon="1.10314">
        <ele>132.7</ele>
        <time>2016-12-11T09:36:00Z</time>
      </trkpt>
      <trkpt lat="49.10964" lon="1.10318">
        <ele>132.9</ele>
        <time>2016-12-11T09:36:02Z</time>
      </trkpt>
      <trkpt lat="49.10973" lon="1.10322">
        <ele>133</ele>
        <time>2016-12-11T09:36:04Z</time>
      </trkpt>
      <trkpt lat="49.10983" lon="1.10325">
        <ele>133.1</ele>
        <time>2016-12-11T09:36:06Z</time>
      </trkpt>
      <trkpt lat="49.10992" lon="1.10329">
        <ele>133.2</ele>
        <time>2016-12-11T09:36:08Z</time>
      </trkpt>
      <trkpt lat="49.11002" lon="1.10332">
        <ele>133.3</ele>
        <time>2016-12-11T09:36:10Z</time>
      </trkpt>
      <trkpt lat="49.11014" lon="1.10335">
        <ele>133.3</ele>
        <time>2016-12-11T09:36:12Z</time>
      </trkpt>
      <trkpt lat="49.11026" lon="1.10339">
        <ele>133.4</ele>
        <time>2016-12-11T09:36:14Z</time>
      </trkpt>
      <trkpt lat="49.11039" lon="1.10343">
        <ele>133.4</ele>
        <time>2016-12-11T09:36:16Z</time>
      </trkpt>
      <trkpt lat="49.11052" lon="1.10349">
        <ele>133.4</ele>
        <time>2016-12-11T09:36:18Z</time>
      </trkpt>
      <trkpt lat="49.11065" lon="1.10355">
        <ele>133.3</ele>
        <time>2016-12-11T09:36:20Z</time>
      </trkpt>
      <trkpt lat="49.11077" lon="1.10362">
        <ele>133.2</ele>
        <time>2016-12-11T09:36:22Z</time>
      </trkpt>
      <trkpt lat="49.11089" lon="1.10368">
        <ele>133.1</ele>
        <time>2016-12-11T09:36:24Z</time>
      </trkpt>
      <trkpt lat="49.11101" lon="1.10373">
        <ele>133</ele>
        <time>2016-12-11T09:36:26Z</time>
      </trkpt>
      <trkpt lat="49.11112" lon="1.10378">
        <ele>132.9</ele>
        <time>2016-12-11T09:36:28Z</time>
      </trkpt>
      <trkpt lat="49.11123" lon="1.10382">
        <ele>132.8</ele>
        <time>2016-12-11T09:36:30Z</time>
      </trkpt>
      <trkpt lat="49.11135" lon="1.10388">
        <ele>132.6</ele>
        <time>2016-12-11T09:36:32Z</time>
      </trkpt>
      <trkpt lat="49.11146" lon="1.10393">
        <ele>132.5</ele>
        <time>2016-12-11T09:36:34Z</time>
      </trkpt>
      <trkpt lat="49.11157" lon="1.10398">
        <ele>132.4</ele>
        <time>2016-12-11T09:36:36Z</time>
      </trkpt>
      <trkpt lat="49.11168" lon="1.10403">
        <ele>132.3</ele>
        <time>2016-12-11T09:36:38Z</time>
      </trkpt>
      <trkpt lat="49.11179" lon="1.10408">
        <ele>132.3</ele>
        <time>2016-12-11T09:36:40Z</time>
      </trkpt>
      <trkpt lat="49.11189" lon="1.10415">
        <ele>132</ele>
        <time>2016-12-11T09:36:42Z</time>
      </trkpt>
      <trkpt lat="49.11195" lon="1.10426">
        <ele>131.8</ele>
        <time>2016-12-11T09:36:44Z</time>
      </trkpt>
      <trkpt lat="49.11201" lon="1.10438">
        <ele>131.6</ele>
        <time>2016-12-11T09:36:46Z</time>
      </trkpt>
      <trkpt lat="49.11207" lon="1.10451">
        <ele>131.4</ele>
        <time>2016-12-11T09:36:48Z</time>
      </trkpt>
      <trkpt lat="49.11212" lon="1.10463">
        <ele>131.4</ele>
        <time>2016-12-11T09:36:49Z</time>
      </trkpt>
      <trkpt lat="49.11219" lon="1.1048">
        <ele>131.2</ele>
        <time>2016-12-11T09:36:51Z</time>
      </trkpt>
      <trkpt lat="49.11226" lon="1.10501">
        <ele>131.1</ele>
        <time>2016-12-11T09:36:53Z</time>
      </trkpt>
      <trkpt lat="49.11232" lon="1.10523">
        <ele>130.9</ele>
        <time>2016-12-11T09:36:55Z</time>
      </trkpt>
      <trkpt lat="49.11239" lon="1.10544">
        <ele>130.8</ele>
        <time>2016-12-11T09:36:57Z</time>
      </trkpt>
      <trkpt lat="49.11246" lon="1.10566">
        <ele>130.6</ele>
        <time>2016-12-11T09:36:59Z</time>
      </trkpt>
      <trkpt lat="49.11254" lon="1.10587">
        <ele>130.2</ele>
        <time>2016-12-11T09:37:01Z</time>
      </trkpt>
      <trkpt lat="49.1126" lon="1.10608">
        <ele>129.9</ele>
        <time>2016-12-11T09:37:03Z</time>
      </trkpt>
      <trkpt lat="49.11266" lon="1.10627">
        <ele>129.4</ele>
        <time>2016-12-11T09:37:05Z</time>
      </trkpt>
      <trkpt lat="49.11271" lon="1.10647">
        <ele>128.9</ele>
        <time>2016-12-11T09:37:07Z</time>
      </trkpt>
      <trkpt lat="49.11274" lon="1.1067">
        <ele>128.6</ele>
        <time>2016-12-11T09:37:09Z</time>
      </trkpt>
      <trkpt lat="49.11276" lon="1.10693">
        <ele>128.1</ele>
        <time>2016-12-11T09:37:11Z</time>
      </trkpt>
      <trkpt lat="49.11276" lon="1.10717">
        <ele>127.7</ele>
        <time>2016-12-11T09:37:13Z</time>
      </trkpt>
      <trkpt lat="49.11272" lon="1.10739">
        <ele>127.4</ele>
        <time>2016-12-11T09:37:15Z</time>
      </trkpt>
      <trkpt lat="49.11266" lon="1.10761">
        <ele>126.8</ele>
        <time>2016-12-11T09:37:17Z</time>
      </trkpt>
      <trkpt lat="49.11257" lon="1.10779">
        <ele>126.4</ele>
        <time>2016-12-11T09:37:19Z</time>
      </trkpt>
      <trkpt lat="49.11243" lon="1.10794">
        <ele>125.7</ele>
        <time>2016-12-11T09:37:21Z</time>
      </trkpt>
      <trkpt lat="49.11228" lon="1.10802">
        <ele>125</ele>
        <time>2016-12-11T09:37:23Z</time>
      </trkpt>
      <trkpt lat="49.11212" lon="1.10806">
        <ele>124.3</ele>
        <time>2016-12-11T09:37:25Z</time>
      </trkpt>
      <trkpt lat="49.11195" lon="1.10806">
        <ele>123.5</ele>
        <time>2016-12-11T09:37:27Z</time>
      </trkpt>
      <trkpt lat="49.11178" lon="1.10806">
        <ele>122.8</ele>
        <time>2016-12-11T09:37:29Z</time>
      </trkpt>
      <trkpt lat="49.11161" lon="1.10808">
        <ele>122.2</ele>
        <time>2016-12-11T09:37:31Z</time>
      </trkpt>
      <trkpt lat="49.11149" lon="1.10816">
        <ele>121.4</ele>
        <time>2016-12-11T09:37:33Z</time>
      </trkpt>
      <trkpt lat="49.11148" lon="1.10831">
        <ele>120.6</ele>
        <time>2016-12-11T09:37:35Z</time>
      </trkpt>
      <trkpt lat="49.11158" lon="1.10848">
        <ele>119.8</ele>
        <time>2016-12-11T09:37:37Z</time>
      </trkpt>
      <trkpt lat="49.11169" lon="1.10866">
        <ele>118.7</ele>
        <time>2016-12-11T09:37:39Z</time>
      </trkpt>
      <trkpt lat="49.11175" lon="1.10878">
        <ele>118.2</ele>
        <time>2016-12-11T09:37:40Z</time>
      </trkpt>
      <trkpt lat="49.11179" lon="1.1089">
        <ele>117.8</ele>
        <time>2016-12-11T09:37:41Z</time>
      </trkpt>
      <trkpt lat="49.11184" lon="1.10903">
        <ele>117.3</ele>
        <time>2016-12-11T09:37:42Z</time>
      </trkpt>
      <trkpt lat="49.11187" lon="1.10918">
        <ele>116.8</ele>
        <time>2016-12-11T09:37:43Z</time>
      </trkpt>
      <trkpt lat="49.1119" lon="1.10933">
        <ele>116.2</ele>
        <time>2016-12-11T09:37:44Z</time>
      </trkpt>
      <trkpt lat="49.11191" lon="1.10948">
        <ele>115.7</ele>
        <time>2016-12-11T09:37:45Z</time>
      </trkpt>
      <trkpt lat="49.11192" lon="1.10964">
        <ele>115.2</ele>
        <time>2016-12-11T09:37:46Z</time>
      </trkpt>
      <trkpt lat="49.11193" lon="1.1098">
        <ele>114.7</ele>
        <time>2016-12-11T09:37:47Z</time>
      </trkpt>
      <trkpt lat="49.11193" lon="1.10997">
        <ele>114.2</ele>
        <time>2016-12-11T09:37:48Z</time>
      </trkpt>
      <trkpt lat="49.11193" lon="1.11012">
        <ele>113.8</ele>
        <time>2016-12-11T09:37:49Z</time>
      </trkpt>
      <trkpt lat="49.11194" lon="1.11038">
        <ele>112.9</ele>
        <time>2016-12-11T09:37:51Z</time>
      </trkpt>
      <trkpt lat="49.11195" lon="1.11065">
        <ele>111.8</ele>
        <time>2016-12-11T09:37:53Z</time>
      </trkpt>
      <trkpt lat="49.11194" lon="1.11079">
        <ele>111.2</ele>
        <time>2016-12-11T09:37:54Z</time>
      </trkpt>
      <trkpt lat="49.11193" lon="1.11093">
        <ele>110.5</ele>
        <time>2016-12-11T09:37:55Z</time>
      </trkpt>
      <trkpt lat="49.1119" lon="1.11106">
        <ele>110</ele>
        <time>2016-12-11T09:37:56Z</time>
      </trkpt>
      <trkpt lat="49.11186" lon="1.11119">
        <ele>109.4</ele>
        <time>2016-12-11T09:37:57Z</time>
      </trkpt>
      <trkpt lat="49.11182" lon="1.11133">
        <ele>108.7</ele>
        <time>2016-12-11T09:37:58Z</time>
      </trkpt>
      <trkpt lat="49.11177" lon="1.11146">
        <ele>108.2</ele>
        <time>2016-12-11T09:37:59Z</time>
      </trkpt>
      <trkpt lat="49.11172" lon="1.11159">
        <ele>107.7</ele>
        <time>2016-12-11T09:38:00Z</time>
      </trkpt>
      <trkpt lat="49.11169" lon="1.11172">
        <ele>107.2</ele>
        <time>2016-12-11T09:38:01Z</time>
      </trkpt>
      <trkpt lat="49.11167" lon="1.11186">
        <ele>106.7</ele>
        <time>2016-12-11T09:38:02Z</time>
      </trkpt>
      <trkpt lat="49.11167" lon="1.112">
        <ele>106.1</ele>
        <time>2016-12-11T09:38:03Z</time>
      </trkpt>
      <trkpt lat="49.11167" lon="1.11215">
        <ele>105.5</ele>
        <time>2016-12-11T09:38:04Z</time>
      </trkpt>
      <trkpt lat="49.11167" lon="1.1123">
        <ele>105</ele>
        <time>2016-12-11T09:38:05Z</time>
      </trkpt>
      <trkpt lat="49.11167" lon="1.11245">
        <ele>104.4</ele>
        <time>2016-12-11T09:38:06Z</time>
      </trkpt>
      <trkpt lat="49.11167" lon="1.1126">
        <ele>103.8</ele>
        <time>2016-12-11T09:38:07Z</time>
      </trkpt>
      <trkpt lat="49.11167" lon="1.11275">
        <ele>103.2</ele>
        <time>2016-12-11T09:38:08Z</time>
      </trkpt>
      <trkpt lat="49.11166" lon="1.1129">
        <ele>102.7</ele>
        <time>2016-12-11T09:38:09Z</time>
      </trkpt>
      <trkpt lat="49.11166" lon="1.11304">
        <ele>102.1</ele>
        <time>2016-12-11T09:38:10Z</time>
      </trkpt>
      <trkpt lat="49.11166" lon="1.11319">
        <ele>101.5</ele>
        <time>2016-12-11T09:38:11Z</time>
      </trkpt>
      <trkpt lat="49.11165" lon="1.11346">
        <ele>100.4</ele>
        <time>2016-12-11T09:38:13Z</time>
      </trkpt>
      <trkpt lat="49.11166" lon="1.11371">
        <ele>99.3</ele>
        <time>2016-12-11T09:38:15Z</time>
      </trkpt>
      <trkpt lat="49.11165" lon="1.11393">
        <ele>98.2</ele>
        <time>2016-12-11T09:38:17Z</time>
      </trkpt>
      <trkpt lat="49.11163" lon="1.11412">
        <ele>97.2</ele>
        <time>2016-12-11T09:38:19Z</time>
      </trkpt>
      <trkpt lat="49.1116" lon="1.11429">
        <ele>95.8</ele>
        <time>2016-12-11T09:38:22Z</time>
      </trkpt>
      <trkpt lat="49.11151" lon="1.11426">
        <ele>71.7</ele>
        <time>2016-12-11T09:41:06Z</time>
      </trkpt>
      <trkpt lat="49.11144" lon="1.11418">
        <ele>71.4</ele>
        <time>2016-12-11T09:41:11Z</time>
      </trkpt>
      <trkpt lat="49.11134" lon="1.11408">
        <ele>71</ele>
        <time>2016-12-11T09:41:22Z</time>
      </trkpt>
      <trkpt lat="49.11125" lon="1.11397">
        <ele>71</ele>
        <time>2016-12-11T09:41:25Z</time>
      </trkpt>
      <trkpt lat="49.11115" lon="1.11386">
        <ele>71</ele>
        <time>2016-12-11T09:41:28Z</time>
      </trkpt>
      <trkpt lat="49.11105" lon="1.11375">
        <ele>70.9</ele>
        <time>2016-12-11T09:41:31Z</time>
      </trkpt>
      <trkpt lat="49.11097" lon="1.11366">
        <ele>70.9</ele>
        <time>2016-12-11T09:41:33Z</time>
      </trkpt>
      <trkpt lat="49.1109" lon="1.11358">
        <ele>70.9</ele>
        <time>2016-12-11T09:41:35Z</time>
      </trkpt>
      <trkpt lat="49.11083" lon="1.11349">
        <ele>70.9</ele>
        <time>2016-12-11T09:41:37Z</time>
      </trkpt>
      <trkpt lat="49.11072" lon="1.11338">
        <ele>70.9</ele>
        <time>2016-12-11T09:41:40Z</time>
      </trkpt>
      <trkpt lat="49.11061" lon="1.11329">
        <ele>71</ele>
        <time>2016-12-11T09:41:43Z</time>
      </trkpt>
      <trkpt lat="49.1105" lon="1.11319">
        <ele>71</ele>
        <time>2016-12-11T09:41:46Z</time>
      </trkpt>
      <trkpt lat="49.11041" lon="1.11312">
        <ele>71</ele>
        <time>2016-12-11T09:41:48Z</time>
      </trkpt>
      <trkpt lat="49.11033" lon="1.11304">
        <ele>71</ele>
        <time>2016-12-11T09:41:50Z</time>
      </trkpt>
      <trkpt lat="49.11024" lon="1.11295">
        <ele>71</ele>
        <time>2016-12-11T09:41:52Z</time>
      </trkpt>
      <trkpt lat="49.11016" lon="1.11286">
        <ele>71.1</ele>
        <time>2016-12-11T09:41:54Z</time>
      </trkpt>
      <trkpt lat="49.11008" lon="1.11277">
        <ele>71.1</ele>
        <time>2016-12-11T09:41:56Z</time>
      </trkpt>
      <trkpt lat="49.11001" lon="1.11267">
        <ele>71.1</ele>
        <time>2016-12-11T09:41:58Z</time>
      </trkpt>
      <trkpt lat="49.1099" lon="1.11265">
        <ele>71.2</ele>
        <time>2016-12-11T09:42:01Z</time>
      </trkpt>
      <trkpt lat="49.1098" lon="1.11276">
        <ele>71.1</ele>
        <time>2016-12-11T09:42:04Z</time>
      </trkpt>
      <trkpt lat="49.10968" lon="1.11282">
        <ele>71.1</ele>
        <time>2016-12-11T09:42:07Z</time>
      </trkpt>
      <trkpt lat="49.10958" lon="1.11281">
        <ele>71.2</ele>
        <time>2016-12-11T09:42:09Z</time>
      </trkpt>
      <trkpt lat="49.10949" lon="1.11282">
        <ele>71.2</ele>
        <time>2016-12-11T09:42:11Z</time>
      </trkpt>
      <trkpt lat="49.1094" lon="1.11292">
        <ele>71.3</ele>
        <time>2016-12-11T09:42:14Z</time>
      </trkpt>
      <trkpt lat="49.10931" lon="1.11284">
        <ele>71.5</ele>
        <time>2016-12-11T09:42:19Z</time>
      </trkpt>
      <trkpt lat="49.10924" lon="1.11271">
        <ele>71.6</ele>
        <time>2016-12-11T09:42:23Z</time>
      </trkpt>
      <trkpt lat="49.10917" lon="1.11257">
        <ele>71.5</ele>
        <time>2016-12-11T09:42:27Z</time>
      </trkpt>
      <trkpt lat="49.10909" lon="1.11244">
        <ele>71.3</ele>
        <time>2016-12-11T09:42:31Z</time>
      </trkpt>
      <trkpt lat="49.109" lon="1.11239">
        <ele>71.3</ele>
        <time>2016-12-11T09:42:34Z</time>
      </trkpt>
      <trkpt lat="49.10891" lon="1.11233">
        <ele>71.1</ele>
        <time>2016-12-11T09:42:37Z</time>
      </trkpt>
      <trkpt lat="49.10879" lon="1.11227">
        <ele>71</ele>
        <time>2016-12-11T09:42:40Z</time>
      </trkpt>
      <trkpt lat="49.1087" lon="1.11224">
        <ele>71</ele>
        <time>2016-12-11T09:42:42Z</time>
      </trkpt>
      <trkpt lat="49.10861" lon="1.1122">
        <ele>70.9</ele>
        <time>2016-12-11T09:42:44Z</time>
      </trkpt>
      <trkpt lat="49.10852" lon="1.11216">
        <ele>71</ele>
        <time>2016-12-11T09:42:46Z</time>
      </trkpt>
      <trkpt lat="49.10839" lon="1.1121">
        <ele>71.1</ele>
        <time>2016-12-11T09:42:49Z</time>
      </trkpt>
      <trkpt lat="49.10831" lon="1.11206">
        <ele>71.2</ele>
        <time>2016-12-11T09:42:51Z</time>
      </trkpt>
      <trkpt lat="49.10822" lon="1.11202">
        <ele>71.3</ele>
        <time>2016-12-11T09:42:53Z</time>
      </trkpt>
      <trkpt lat="49.10809" lon="1.11196">
        <ele>71.4</ele>
        <time>2016-12-11T09:42:56Z</time>
      </trkpt>
      <trkpt lat="49.10796" lon="1.1119">
        <ele>71.5</ele>
        <time>2016-12-11T09:42:59Z</time>
      </trkpt>
      <trkpt lat="49.10784" lon="1.11192">
        <ele>71.6</ele>
        <time>2016-12-11T09:43:02Z</time>
      </trkpt>
      <trkpt lat="49.10773" lon="1.11201">
        <ele>71.7</ele>
        <time>2016-12-11T09:43:05Z</time>
      </trkpt>
      <trkpt lat="49.10761" lon="1.1121">
        <ele>71.8</ele>
        <time>2016-12-11T09:43:08Z</time>
      </trkpt>
      <trkpt lat="49.1075" lon="1.11219">
        <ele>71.9</ele>
        <time>2016-12-11T09:43:11Z</time>
      </trkpt>
      <trkpt lat="49.10739" lon="1.11228">
        <ele>72</ele>
        <time>2016-12-11T09:43:14Z</time>
      </trkpt>
      <trkpt lat="49.10727" lon="1.11236">
        <ele>72</ele>
        <time>2016-12-11T09:43:17Z</time>
      </trkpt>
      <trkpt lat="49.10716" lon="1.11245">
        <ele>72.1</ele>
        <time>2016-12-11T09:43:20Z</time>
      </trkpt>
      <trkpt lat="49.10705" lon="1.11253">
        <ele>72.2</ele>
        <time>2016-12-11T09:43:23Z</time>
      </trkpt>
      <trkpt lat="49.10694" lon="1.11262">
        <ele>72.2</ele>
        <time>2016-12-11T09:43:26Z</time>
      </trkpt>
      <trkpt lat="49.10684" lon="1.11271">
        <ele>72.3</ele>
        <time>2016-12-11T09:43:29Z</time>
      </trkpt>
      <trkpt lat="49.10674" lon="1.1128">
        <ele>72.4</ele>
        <time>2016-12-11T09:43:32Z</time>
      </trkpt>
      <trkpt lat="49.10663" lon="1.11289">
        <ele>72.4</ele>
        <time>2016-12-11T09:43:35Z</time>
      </trkpt>
      <trkpt lat="49.10653" lon="1.11299">
        <ele>72.5</ele>
        <time>2016-12-11T09:43:38Z</time>
      </trkpt>
      <trkpt lat="49.10643" lon="1.1131">
        <ele>72.6</ele>
        <time>2016-12-11T09:43:41Z</time>
      </trkpt>
      <trkpt lat="49.10635" lon="1.11324">
        <ele>72.6</ele>
        <time>2016-12-11T09:43:44Z</time>
      </trkpt>
      <trkpt lat="49.10626" lon="1.1133">
        <ele>72.7</ele>
        <time>2016-12-11T09:43:46Z</time>
      </trkpt>
      <trkpt lat="49.10614" lon="1.1133">
        <ele>72.8</ele>
        <time>2016-12-11T09:43:49Z</time>
      </trkpt>
      <trkpt lat="49.10602" lon="1.11326">
        <ele>72.8</ele>
        <time>2016-12-11T09:43:52Z</time>
      </trkpt>
      <trkpt lat="49.1059" lon="1.1132">
        <ele>72.9</ele>
        <time>2016-12-11T09:43:55Z</time>
      </trkpt>
      <trkpt lat="49.10579" lon="1.11322">
        <ele>73</ele>
        <time>2016-12-11T09:43:58Z</time>
      </trkpt>
      <trkpt lat="49.10574" lon="1.11337">
        <ele>73</ele>
        <time>2016-12-11T09:44:01Z</time>
      </trkpt>
      <trkpt lat="49.10571" lon="1.11356">
        <ele>73.1</ele>
        <time>2016-12-11T09:44:04Z</time>
      </trkpt>
      <trkpt lat="49.10569" lon="1.1137">
        <ele>73.2</ele>
        <time>2016-12-11T09:44:06Z</time>
      </trkpt>
      <trkpt lat="49.10568" lon="1.11384">
        <ele>73.2</ele>
        <time>2016-12-11T09:44:08Z</time>
      </trkpt>
      <trkpt lat="49.10567" lon="1.11398">
        <ele>73.2</ele>
        <time>2016-12-11T09:44:10Z</time>
      </trkpt>
      <trkpt lat="49.10565" lon="1.11412">
        <ele>73.3</ele>
        <time>2016-12-11T09:44:12Z</time>
      </trkpt>
      <trkpt lat="49.10563" lon="1.11432">
        <ele>73.3</ele>
        <time>2016-12-11T09:44:15Z</time>
      </trkpt>
      <trkpt lat="49.10559" lon="1.1145">
        <ele>73.4</ele>
        <time>2016-12-11T09:44:18Z</time>
      </trkpt>
      <trkpt lat="49.10551" lon="1.11457">
        <ele>73.5</ele>
        <time>2016-12-11T09:44:21Z</time>
      </trkpt>
      <trkpt lat="49.10541" lon="1.11456">
        <ele>73.6</ele>
        <time>2016-12-11T09:44:24Z</time>
      </trkpt>
      <trkpt lat="49.1053" lon="1.11454">
        <ele>73.7</ele>
        <time>2016-12-11T09:44:27Z</time>
      </trkpt>
      <trkpt lat="49.10518" lon="1.11453">
        <ele>73.9</ele>
        <time>2016-12-11T09:44:30Z</time>
      </trkpt>
      <trkpt lat="49.10506" lon="1.11451">
        <ele>74</ele>
        <time>2016-12-11T09:44:33Z</time>
      </trkpt>
      <trkpt lat="49.10493" lon="1.11448">
        <ele>74.1</ele>
        <time>2016-12-11T09:44:36Z</time>
      </trkpt>
      <trkpt lat="49.10481" lon="1.11447">
        <ele>74.3</ele>
        <time>2016-12-11T09:44:39Z</time>
      </trkpt>
      <trkpt lat="49.10468" lon="1.11445">
        <ele>74.4</ele>
        <time>2016-12-11T09:44:42Z</time>
      </trkpt>
      <trkpt lat="49.10456" lon="1.11443">
        <ele>74.5</ele>
        <time>2016-12-11T09:44:45Z</time>
      </trkpt>
      <trkpt lat="49.10445" lon="1.11445">
        <ele>74.6</ele>
        <time>2016-12-11T09:44:48Z</time>
      </trkpt>
      <trkpt lat="49.10436" lon="1.11457">
        <ele>74.6</ele>
        <time>2016-12-11T09:44:51Z</time>
      </trkpt>
      <trkpt lat="49.10425" lon="1.11466">
        <ele>74.7</ele>
        <time>2016-12-11T09:44:54Z</time>
      </trkpt>
      <trkpt lat="49.10415" lon="1.11461">
        <ele>74.9</ele>
        <time>2016-12-11T09:44:57Z</time>
      </trkpt>
      <trkpt lat="49.10405" lon="1.11453">
        <ele>75</ele>
        <time>2016-12-11T09:45:00Z</time>
      </trkpt>
      <trkpt lat="49.10394" lon="1.11448">
        <ele>75.1</ele>
        <time>2016-12-11T09:45:03Z</time>
      </trkpt>
      <trkpt lat="49.10383" lon="1.11444">
        <ele>75.2</ele>
        <time>2016-12-11T09:45:06Z</time>
      </trkpt>
      <trkpt lat="49.10372" lon="1.11439">
        <ele>75.4</ele>
        <time>2016-12-11T09:45:09Z</time>
      </trkpt>
      <trkpt lat="49.10361" lon="1.11435">
        <ele>75.5</ele>
        <time>2016-12-11T09:45:12Z</time>
      </trkpt>
      <trkpt lat="49.1035" lon="1.1143">
        <ele>75.7</ele>
        <time>2016-12-11T09:45:15Z</time>
      </trkpt>
      <trkpt lat="49.10339" lon="1.11425">
        <ele>75.8</ele>
        <time>2016-12-11T09:45:18Z</time>
      </trkpt>
      <trkpt lat="49.10329" lon="1.11421">
        <ele>75.9</ele>
        <time>2016-12-11T09:45:21Z</time>
      </trkpt>
      <trkpt lat="49.10317" lon="1.11416">
        <ele>76.1</ele>
        <time>2016-12-11T09:45:24Z</time>
      </trkpt>
      <trkpt lat="49.10306" lon="1.11414">
        <ele>76.2</ele>
        <time>2016-12-11T09:45:27Z</time>
      </trkpt>
      <trkpt lat="49.10296" lon="1.1142">
        <ele>76.3</ele>
        <time>2016-12-11T09:45:30Z</time>
      </trkpt>
      <trkpt lat="49.10291" lon="1.11435">
        <ele>76.7</ele>
        <time>2016-12-11T09:45:34Z</time>
      </trkpt>
      <trkpt lat="49.10288" lon="1.11452">
        <ele>77.1</ele>
        <time>2016-12-11T09:45:39Z</time>
      </trkpt>
      <trkpt lat="49.10286" lon="1.11466">
        <ele>77.5</ele>
        <time>2016-12-11T09:45:43Z</time>
      </trkpt>
      <trkpt lat="49.10285" lon="1.1148">
        <ele>77.8</ele>
        <time>2016-12-11T09:45:47Z</time>
      </trkpt>
      <trkpt lat="49.10283" lon="1.11494">
        <ele>78.3</ele>
        <time>2016-12-11T09:45:51Z</time>
      </trkpt>
      <trkpt lat="49.10281" lon="1.11508">
        <ele>78.7</ele>
        <time>2016-12-11T09:45:55Z</time>
      </trkpt>
      <trkpt lat="49.10279" lon="1.11522">
        <ele>79.1</ele>
        <time>2016-12-11T09:45:59Z</time>
      </trkpt>
      <trkpt lat="49.10279" lon="1.11536">
        <ele>79.6</ele>
        <time>2016-12-11T09:46:03Z</time>
      </trkpt>
      <trkpt lat="49.1028" lon="1.11551">
        <ele>80.1</ele>
        <time>2016-12-11T09:46:07Z</time>
      </trkpt>
      <trkpt lat="49.10284" lon="1.11566">
        <ele>80.9</ele>
        <time>2016-12-11T09:46:12Z</time>
      </trkpt>
      <trkpt lat="49.10289" lon="1.1158">
        <ele>81.6</ele>
        <time>2016-12-11T09:46:17Z</time>
      </trkpt>
      <trkpt lat="49.10291" lon="1.11596">
        <ele>82.3</ele>
        <time>2016-12-11T09:46:22Z</time>
      </trkpt>
      <trkpt lat="49.10286" lon="1.11608">
        <ele>83.1</ele>
        <time>2016-12-11T09:46:27Z</time>
      </trkpt>
      <trkpt lat="49.10276" lon="1.11611">
        <ele>84.4</ele>
        <time>2016-12-11T09:46:34Z</time>
      </trkpt>
      <trkpt lat="49.10265" lon="1.11612">
        <ele>85.3</ele>
        <time>2016-12-11T09:46:39Z</time>
      </trkpt>
      <trkpt lat="49.10255" lon="1.11612">
        <ele>86.3</ele>
        <time>2016-12-11T09:46:44Z</time>
      </trkpt>
      <trkpt lat="49.10246" lon="1.11614">
        <ele>87.1</ele>
        <time>2016-12-11T09:46:49Z</time>
      </trkpt>
      <trkpt lat="49.10237" lon="1.11618">
        <ele>87.9</ele>
        <time>2016-12-11T09:46:54Z</time>
      </trkpt>
      <trkpt lat="49.10228" lon="1.11619">
        <ele>88.8</ele>
        <time>2016-12-11T09:46:59Z</time>
      </trkpt>
      <trkpt lat="49.10218" lon="1.11614">
        <ele>89.8</ele>
        <time>2016-12-11T09:47:05Z</time>
      </trkpt>
      <trkpt lat="49.10209" lon="1.1161">
        <ele>90.5</ele>
        <time>2016-12-11T09:47:10Z</time>
      </trkpt>
      <trkpt lat="49.10199" lon="1.11607">
        <ele>91.4</ele>
        <time>2016-12-11T09:47:15Z</time>
      </trkpt>
      <trkpt lat="49.10188" lon="1.11608">
        <ele>92</ele>
        <time>2016-12-11T09:47:19Z</time>
      </trkpt>
      <trkpt lat="49.10178" lon="1.11611">
        <ele>92.7</ele>
        <time>2016-12-11T09:47:23Z</time>
      </trkpt>
      <trkpt lat="49.1017" lon="1.11616">
        <ele>93.4</ele>
        <time>2016-12-11T09:47:27Z</time>
      </trkpt>
      <trkpt lat="49.10162" lon="1.11622">
        <ele>94</ele>
        <time>2016-12-11T09:47:31Z</time>
      </trkpt>
      <trkpt lat="49.10154" lon="1.11632">
        <ele>94.6</ele>
        <time>2016-12-11T09:47:35Z</time>
      </trkpt>
      <trkpt lat="49.10151" lon="1.11648">
        <ele>95.4</ele>
        <time>2016-12-11T09:47:40Z</time>
      </trkpt>
      <trkpt lat="49.10148" lon="1.11661">
        <ele>96</ele>
        <time>2016-12-11T09:47:44Z</time>
      </trkpt>
      <trkpt lat="49.10146" lon="1.11676">
        <ele>97.1</ele>
        <time>2016-12-11T09:47:49Z</time>
      </trkpt>
      <trkpt lat="49.10152" lon="1.11689">
        <ele>98.1</ele>
        <time>2016-12-11T09:47:54Z</time>
      </trkpt>
      <trkpt lat="49.1016" lon="1.11698">
        <ele>99.2</ele>
        <time>2016-12-11T09:47:58Z</time>
      </trkpt>
      <trkpt lat="49.10168" lon="1.11706">
        <ele>100.1</ele>
        <time>2016-12-11T09:48:02Z</time>
      </trkpt>
      <trkpt lat="49.10177" lon="1.11714">
        <ele>101</ele>
        <time>2016-12-11T09:48:06Z</time>
      </trkpt>
      <trkpt lat="49.10185" lon="1.11722">
        <ele>102</ele>
        <time>2016-12-11T09:48:10Z</time>
      </trkpt>
      <trkpt lat="49.10194" lon="1.11729">
        <ele>102.9</ele>
        <time>2016-12-11T09:48:14Z</time>
      </trkpt>
      <trkpt lat="49.10202" lon="1.11736">
        <ele>103.6</ele>
        <time>2016-12-11T09:48:18Z</time>
      </trkpt>
      <trkpt lat="49.10211" lon="1.11745">
        <ele>104.3</ele>
        <time>2016-12-11T09:48:22Z</time>
      </trkpt>
      <trkpt lat="49.1022" lon="1.11755">
        <ele>105.1</ele>
        <time>2016-12-11T09:48:26Z</time>
      </trkpt>
      <trkpt lat="49.10227" lon="1.11766">
        <ele>105.8</ele>
        <time>2016-12-11T09:48:30Z</time>
      </trkpt>
      <trkpt lat="49.10235" lon="1.11778">
        <ele>106.4</ele>
        <time>2016-12-11T09:48:34Z</time>
      </trkpt>
      <trkpt lat="49.10242" lon="1.1179">
        <ele>107</ele>
        <time>2016-12-11T09:48:38Z</time>
      </trkpt>
      <trkpt lat="49.1025" lon="1.11803">
        <ele>107.5</ele>
        <time>2016-12-11T09:48:42Z</time>
      </trkpt>
      <trkpt lat="49.10258" lon="1.11817">
        <ele>108</ele>
        <time>2016-12-11T09:48:46Z</time>
      </trkpt>
      <trkpt lat="49.10266" lon="1.1183">
        <ele>108.5</ele>
        <time>2016-12-11T09:48:50Z</time>
      </trkpt>
      <trkpt lat="49.10272" lon="1.11839">
        <ele>108.8</ele>
        <time>2016-12-11T09:48:53Z</time>
      </trkpt>
      <trkpt lat="49.10281" lon="1.11851">
        <ele>109.3</ele>
        <time>2016-12-11T09:48:57Z</time>
      </trkpt>
      <trkpt lat="49.10289" lon="1.11864">
        <ele>109.7</ele>
        <time>2016-12-11T09:49:01Z</time>
      </trkpt>
      <trkpt lat="49.10298" lon="1.11877">
        <ele>110.2</ele>
        <time>2016-12-11T09:49:05Z</time>
      </trkpt>
      <trkpt lat="49.10305" lon="1.11891">
        <ele>110.9</ele>
        <time>2016-12-11T09:49:09Z</time>
      </trkpt>
      <trkpt lat="49.10312" lon="1.11905">
        <ele>111.4</ele>
        <time>2016-12-11T09:49:13Z</time>
      </trkpt>
      <trkpt lat="49.10318" lon="1.11921">
        <ele>111.9</ele>
        <time>2016-12-11T09:49:17Z</time>
      </trkpt>
      <trkpt lat="49.10322" lon="1.11937">
        <ele>112.4</ele>
        <time>2016-12-11T09:49:21Z</time>
      </trkpt>
      <trkpt lat="49.10326" lon="1.11953">
        <ele>112.9</ele>
        <time>2016-12-11T09:49:25Z</time>
      </trkpt>
      <trkpt lat="49.1033" lon="1.11969">
        <ele>113.4</ele>
        <time>2016-12-11T09:49:29Z</time>
      </trkpt>
      <trkpt lat="49.10334" lon="1.11985">
        <ele>114</ele>
        <time>2016-12-11T09:49:33Z</time>
      </trkpt>
      <trkpt lat="49.10339" lon="1.12002">
        <ele>114.6</ele>
        <time>2016-12-11T09:49:37Z</time>
      </trkpt>
      <trkpt lat="49.10345" lon="1.12017">
        <ele>115.1</ele>
        <time>2016-12-11T09:49:41Z</time>
      </trkpt>
      <trkpt lat="49.10353" lon="1.1203">
        <ele>115.6</ele>
        <time>2016-12-11T09:49:45Z</time>
      </trkpt>
      <trkpt lat="49.10362" lon="1.12041">
        <ele>116.1</ele>
        <time>2016-12-11T09:49:49Z</time>
      </trkpt>
      <trkpt lat="49.1037" lon="1.12054">
        <ele>116.6</ele>
        <time>2016-12-11T09:49:53Z</time>
      </trkpt>
      <trkpt lat="49.10378" lon="1.12065">
        <ele>117.1</ele>
        <time>2016-12-11T09:49:57Z</time>
      </trkpt>
      <trkpt lat="49.10386" lon="1.12078">
        <ele>117.7</ele>
        <time>2016-12-11T09:50:01Z</time>
      </trkpt>
      <trkpt lat="49.10393" lon="1.12089">
        <ele>118.2</ele>
        <time>2016-12-11T09:50:04Z</time>
      </trkpt>
      <trkpt lat="49.10399" lon="1.12099">
        <ele>118.6</ele>
        <time>2016-12-11T09:50:07Z</time>
      </trkpt>
      <trkpt lat="49.10405" lon="1.1211">
        <ele>118.9</ele>
        <time>2016-12-11T09:50:10Z</time>
      </trkpt>
      <trkpt lat="49.10412" lon="1.12124">
        <ele>119.5</ele>
        <time>2016-12-11T09:50:14Z</time>
      </trkpt>
      <trkpt lat="49.10419" lon="1.12136">
        <ele>119.8</ele>
        <time>2016-12-11T09:50:17Z</time>
      </trkpt>
      <trkpt lat="49.10426" lon="1.12146">
        <ele>120.2</ele>
        <time>2016-12-11T09:50:20Z</time>
      </trkpt>
      <trkpt lat="49.10433" lon="1.12156">
        <ele>120.6</ele>
        <time>2016-12-11T09:50:23Z</time>
      </trkpt>
      <trkpt lat="49.10441" lon="1.12165">
        <ele>120.9</ele>
        <time>2016-12-11T09:50:26Z</time>
      </trkpt>
      <trkpt lat="49.10449" lon="1.12174">
        <ele>121.2</ele>
        <time>2016-12-11T09:50:29Z</time>
      </trkpt>
      <trkpt lat="49.10457" lon="1.12184">
        <ele>121.6</ele>
        <time>2016-12-11T09:50:32Z</time>
      </trkpt>
      <trkpt lat="49.10463" lon="1.12194">
        <ele>121.9</ele>
        <time>2016-12-11T09:50:35Z</time>
      </trkpt>
      <trkpt lat="49.10468" lon="1.12205">
        <ele>122.4</ele>
        <time>2016-12-11T09:50:39Z</time>
      </trkpt>
      <trkpt lat="49.10474" lon="1.1222">
        <ele>122.9</ele>
        <time>2016-12-11T09:50:44Z</time>
      </trkpt>
      <trkpt lat="49.10479" lon="1.12232">
        <ele>123.3</ele>
        <time>2016-12-11T09:50:48Z</time>
      </trkpt>
      <trkpt lat="49.10478" lon="1.12246">
        <ele>115.1</ele>
        <time>2016-12-11T09:59:54Z</time>
      </trkpt>
      <trkpt lat="49.10481" lon="1.1226">
        <ele>114.8</ele>
        <time>2016-12-11T09:59:59Z</time>
      </trkpt>
      <trkpt lat="49.10485" lon="1.12275">
        <ele>114.5</ele>
        <time>2016-12-11T10:00:04Z</time>
      </trkpt>
      <trkpt lat="49.1049" lon="1.12292">
        <ele>114.3</ele>
        <time>2016-12-11T10:00:08Z</time>
      </trkpt>
      <trkpt lat="49.10493" lon="1.12309">
        <ele>114.2</ele>
        <time>2016-12-11T10:00:12Z</time>
      </trkpt>
      <trkpt lat="49.10497" lon="1.12326">
        <ele>114.1</ele>
        <time>2016-12-11T10:00:16Z</time>
      </trkpt>
      <trkpt lat="49.10501" lon="1.12343">
        <ele>114</ele>
        <time>2016-12-11T10:00:20Z</time>
      </trkpt>
      <trkpt lat="49.10505" lon="1.12356">
        <ele>114</ele>
        <time>2016-12-11T10:00:23Z</time>
      </trkpt>
      <trkpt lat="49.10509" lon="1.12374">
        <ele>113.9</ele>
        <time>2016-12-11T10:00:27Z</time>
      </trkpt>
      <trkpt lat="49.10512" lon="1.12387">
        <ele>113.9</ele>
        <time>2016-12-11T10:00:30Z</time>
      </trkpt>
      <trkpt lat="49.10515" lon="1.12401">
        <ele>113.9</ele>
        <time>2016-12-11T10:00:33Z</time>
      </trkpt>
      <trkpt lat="49.10519" lon="1.12415">
        <ele>114</ele>
        <time>2016-12-11T10:00:36Z</time>
      </trkpt>
      <trkpt lat="49.10522" lon="1.1243">
        <ele>114.2</ele>
        <time>2016-12-11T10:00:39Z</time>
      </trkpt>
      <trkpt lat="49.10526" lon="1.12445">
        <ele>114.3</ele>
        <time>2016-12-11T10:00:42Z</time>
      </trkpt>
      <trkpt lat="49.10529" lon="1.12461">
        <ele>114.5</ele>
        <time>2016-12-11T10:00:45Z</time>
      </trkpt>
      <trkpt lat="49.10533" lon="1.12477">
        <ele>114.7</ele>
        <time>2016-12-11T10:00:48Z</time>
      </trkpt>
      <trkpt lat="49.10537" lon="1.12493">
        <ele>114.8</ele>
        <time>2016-12-11T10:00:51Z</time>
      </trkpt>
      <trkpt lat="49.10542" lon="1.12508">
        <ele>115.1</ele>
        <time>2016-12-11T10:00:54Z</time>
      </trkpt>
      <trkpt lat="49.10546" lon="1.12523">
        <ele>115.3</ele>
        <time>2016-12-11T10:00:57Z</time>
      </trkpt>
      <trkpt lat="49.10551" lon="1.12539">
        <ele>115.5</ele>
        <time>2016-12-11T10:01:00Z</time>
      </trkpt>
      <trkpt lat="49.10555" lon="1.12555">
        <ele>115.7</ele>
        <time>2016-12-11T10:01:03Z</time>
      </trkpt>
      <trkpt lat="49.10559" lon="1.1257">
        <ele>115.9</ele>
        <time>2016-12-11T10:01:06Z</time>
      </trkpt>
      <trkpt lat="49.10564" lon="1.12586">
        <ele>116.1</ele>
        <time>2016-12-11T10:01:09Z</time>
      </trkpt>
      <trkpt lat="49.10568" lon="1.12601">
        <ele>116.3</ele>
        <time>2016-12-11T10:01:12Z</time>
      </trkpt>
      <trkpt lat="49.10573" lon="1.12617">
        <ele>116.5</ele>
        <time>2016-12-11T10:01:15Z</time>
      </trkpt>
      <trkpt lat="49.10578" lon="1.12634">
        <ele>116.7</ele>
        <time>2016-12-11T10:01:18Z</time>
      </trkpt>
      <trkpt lat="49.10583" lon="1.12652">
        <ele>116.8</ele>
        <time>2016-12-11T10:01:21Z</time>
      </trkpt>
      <trkpt lat="49.10588" lon="1.12669">
        <ele>116.9</ele>
        <time>2016-12-11T10:01:24Z</time>
      </trkpt>
      <trkpt lat="49.10594" lon="1.12687">
        <ele>117.1</ele>
        <time>2016-12-11T10:01:27Z</time>
      </trkpt>
      <trkpt lat="49.10599" lon="1.12704">
        <ele>117.4</ele>
        <time>2016-12-11T10:01:30Z</time>
      </trkpt>
      <trkpt lat="49.10604" lon="1.1272">
        <ele>117.6</ele>
        <time>2016-12-11T10:01:33Z</time>
      </trkpt>
      <trkpt lat="49.10609" lon="1.12737">
        <ele>117.8</ele>
        <time>2016-12-11T10:01:36Z</time>
      </trkpt>
      <trkpt lat="49.10613" lon="1.12754">
        <ele>118</ele>
        <time>2016-12-11T10:01:39Z</time>
      </trkpt>
      <trkpt lat="49.10617" lon="1.12769">
        <ele>118.2</ele>
        <time>2016-12-11T10:01:42Z</time>
      </trkpt>
      <trkpt lat="49.10621" lon="1.12784">
        <ele>118.3</ele>
        <time>2016-12-11T10:01:45Z</time>
      </trkpt>
      <trkpt lat="49.10626" lon="1.12799">
        <ele>118.6</ele>
        <time>2016-12-11T10:01:48Z</time>
      </trkpt>
      <trkpt lat="49.1063" lon="1.12813">
        <ele>118.7</ele>
        <time>2016-12-11T10:01:51Z</time>
      </trkpt>
      <trkpt lat="49.10634" lon="1.12828">
        <ele>118.9</ele>
        <time>2016-12-11T10:01:54Z</time>
      </trkpt>
      <trkpt lat="49.10638" lon="1.12843">
        <ele>119.1</ele>
        <time>2016-12-11T10:01:57Z</time>
      </trkpt>
      <trkpt lat="49.10643" lon="1.1286">
        <ele>119.2</ele>
        <time>2016-12-11T10:02:00Z</time>
      </trkpt>
      <trkpt lat="49.10648" lon="1.12878">
        <ele>119.4</ele>
        <time>2016-12-11T10:02:03Z</time>
      </trkpt>
      <trkpt lat="49.10653" lon="1.12897">
        <ele>119.6</ele>
        <time>2016-12-11T10:02:06Z</time>
      </trkpt>
      <trkpt lat="49.10656" lon="1.12909">
        <ele>119.7</ele>
        <time>2016-12-11T10:02:08Z</time>
      </trkpt>
      <trkpt lat="49.10662" lon="1.12928">
        <ele>119.9</ele>
        <time>2016-12-11T10:02:11Z</time>
      </trkpt>
      <trkpt lat="49.10666" lon="1.1294">
        <ele>120</ele>
        <time>2016-12-11T10:02:13Z</time>
      </trkpt>
      <trkpt lat="49.10666" lon="1.12959">
        <ele>120.1</ele>
        <time>2016-12-11T10:02:16Z</time>
      </trkpt>
      <trkpt lat="49.10655" lon="1.1297">
        <ele>120.2</ele>
        <time>2016-12-11T10:02:19Z</time>
      </trkpt>
      <trkpt lat="49.10646" lon="1.12978">
        <ele>120.3</ele>
        <time>2016-12-11T10:02:21Z</time>
      </trkpt>
      <trkpt lat="49.10637" lon="1.12987">
        <ele>120.4</ele>
        <time>2016-12-11T10:02:23Z</time>
      </trkpt>
      <trkpt lat="49.10627" lon="1.12994">
        <ele>120.4</ele>
        <time>2016-12-11T10:02:25Z</time>
      </trkpt>
      <trkpt lat="49.10616" lon="1.13004">
        <ele>120.5</ele>
        <time>2016-12-11T10:02:27Z</time>
      </trkpt>
      <trkpt lat="49.10605" lon="1.13015">
        <ele>120.5</ele>
        <time>2016-12-11T10:02:29Z</time>
      </trkpt>
      <trkpt lat="49.10593" lon="1.13024">
        <ele>120.4</ele>
        <time>2016-12-11T10:02:31Z</time>
      </trkpt>
      <trkpt lat="49.10582" lon="1.13031">
        <ele>120.4</ele>
        <time>2016-12-11T10:02:33Z</time>
      </trkpt>
      <trkpt lat="49.10572" lon="1.13037">
        <ele>120.4</ele>
        <time>2016-12-11T10:02:36Z</time>
      </trkpt>
      <trkpt lat="49.10563" lon="1.13043">
        <ele>120.4</ele>
        <time>2016-12-11T10:02:39Z</time>
      </trkpt>
      <trkpt lat="49.10552" lon="1.13052">
        <ele>120.4</ele>
        <time>2016-12-11T10:02:43Z</time>
      </trkpt>
      <trkpt lat="49.10543" lon="1.1306">
        <ele>120.4</ele>
        <time>2016-12-11T10:02:46Z</time>
      </trkpt>
      <trkpt lat="49.10534" lon="1.13066">
        <ele>120.4</ele>
        <time>2016-12-11T10:02:49Z</time>
      </trkpt>
      <trkpt lat="49.10525" lon="1.13074">
        <ele>120.6</ele>
        <time>2016-12-11T10:02:52Z</time>
      </trkpt>
      <trkpt lat="49.10515" lon="1.13082">
        <ele>120.8</ele>
        <time>2016-12-11T10:02:55Z</time>
      </trkpt>
      <trkpt lat="49.10505" lon="1.13091">
        <ele>120.9</ele>
        <time>2016-12-11T10:02:58Z</time>
      </trkpt>
      <trkpt lat="49.10496" lon="1.131">
        <ele>121.1</ele>
        <time>2016-12-11T10:03:01Z</time>
      </trkpt>
      <trkpt lat="49.10486" lon="1.13107">
        <ele>121.2</ele>
        <time>2016-12-11T10:03:04Z</time>
      </trkpt>
      <trkpt lat="49.10475" lon="1.13116">
        <ele>121.5</ele>
        <time>2016-12-11T10:03:07Z</time>
      </trkpt>
      <trkpt lat="49.10464" lon="1.13125">
        <ele>121.7</ele>
        <time>2016-12-11T10:03:10Z</time>
      </trkpt>
      <trkpt lat="49.10453" lon="1.13134">
        <ele>121.9</ele>
        <time>2016-12-11T10:03:13Z</time>
      </trkpt>
      <trkpt lat="49.10442" lon="1.13142">
        <ele>122.1</ele>
        <time>2016-12-11T10:03:16Z</time>
      </trkpt>
      <trkpt lat="49.10434" lon="1.13148">
        <ele>122.2</ele>
        <time>2016-12-11T10:03:18Z</time>
      </trkpt>
      <trkpt lat="49.10425" lon="1.13154">
        <ele>122.3</ele>
        <time>2016-12-11T10:03:20Z</time>
      </trkpt>
      <trkpt lat="49.10416" lon="1.13163">
        <ele>122.5</ele>
        <time>2016-12-11T10:03:22Z</time>
      </trkpt>
      <trkpt lat="49.10406" lon="1.1317">
        <ele>122.5</ele>
        <time>2016-12-11T10:03:24Z</time>
      </trkpt>
      <trkpt lat="49.10397" lon="1.1318">
        <ele>122.5</ele>
        <time>2016-12-11T10:03:26Z</time>
      </trkpt>
      <trkpt lat="49.10396" lon="1.13193">
        <ele>122.6</ele>
        <time>2016-12-11T10:03:28Z</time>
      </trkpt>
      <trkpt lat="49.104" lon="1.13212">
        <ele>122.8</ele>
        <time>2016-12-11T10:03:31Z</time>
      </trkpt>
      <trkpt lat="49.10402" lon="1.13228">
        <ele>123</ele>
        <time>2016-12-11T10:03:34Z</time>
      </trkpt>
      <trkpt lat="49.10404" lon="1.13246">
        <ele>123.3</ele>
        <time>2016-12-11T10:03:37Z</time>
      </trkpt>
      <trkpt lat="49.10407" lon="1.13264">
        <ele>123.4</ele>
        <time>2016-12-11T10:03:40Z</time>
      </trkpt>
      <trkpt lat="49.10412" lon="1.13279">
        <ele>123.5</ele>
        <time>2016-12-11T10:03:43Z</time>
      </trkpt>
      <trkpt lat="49.10416" lon="1.13295">
        <ele>123.6</ele>
        <time>2016-12-11T10:03:46Z</time>
      </trkpt>
      <trkpt lat="49.1042" lon="1.1331">
        <ele>123.8</ele>
        <time>2016-12-11T10:03:49Z</time>
      </trkpt>
      <trkpt lat="49.10422" lon="1.13327">
        <ele>124</ele>
        <time>2016-12-11T10:03:52Z</time>
      </trkpt>
      <trkpt lat="49.10427" lon="1.13341">
        <ele>124.2</ele>
        <time>2016-12-11T10:03:55Z</time>
      </trkpt>
      <trkpt lat="49.1043" lon="1.13355">
        <ele>124.4</ele>
        <time>2016-12-11T10:03:58Z</time>
      </trkpt>
      <trkpt lat="49.10433" lon="1.13368">
        <ele>124.6</ele>
        <time>2016-12-11T10:04:01Z</time>
      </trkpt>
      <trkpt lat="49.10434" lon="1.13383">
        <ele>125</ele>
        <time>2016-12-11T10:04:04Z</time>
      </trkpt>
      <trkpt lat="49.10436" lon="1.13397">
        <ele>125.3</ele>
        <time>2016-12-11T10:04:07Z</time>
      </trkpt>
      <trkpt lat="49.10439" lon="1.13412">
        <ele>125.6</ele>
        <time>2016-12-11T10:04:10Z</time>
      </trkpt>
      <trkpt lat="49.10444" lon="1.13425">
        <ele>125.8</ele>
        <time>2016-12-11T10:04:12Z</time>
      </trkpt>
      <trkpt lat="49.10449" lon="1.13441">
        <ele>126</ele>
        <time>2016-12-11T10:04:15Z</time>
      </trkpt>
      <trkpt lat="49.10454" lon="1.13457">
        <ele>126.2</ele>
        <time>2016-12-11T10:04:18Z</time>
      </trkpt>
      <trkpt lat="49.10458" lon="1.13472">
        <ele>126.5</ele>
        <time>2016-12-11T10:04:21Z</time>
      </trkpt>
      <trkpt lat="49.10463" lon="1.13489">
        <ele>126.7</ele>
        <time>2016-12-11T10:04:24Z</time>
      </trkpt>
      <trkpt lat="49.10468" lon="1.13508">
        <ele>127</ele>
        <time>2016-12-11T10:04:27Z</time>
      </trkpt>
      <trkpt lat="49.10471" lon="1.13521">
        <ele>127.2</ele>
        <time>2016-12-11T10:04:29Z</time>
      </trkpt>
      <trkpt lat="49.10475" lon="1.13534">
        <ele>127.5</ele>
        <time>2016-12-11T10:04:31Z</time>
      </trkpt>
      <trkpt lat="49.10478" lon="1.13552">
        <ele>127.8</ele>
        <time>2016-12-11T10:04:34Z</time>
      </trkpt>
      <trkpt lat="49.1048" lon="1.13569">
        <ele>128.1</ele>
        <time>2016-12-11T10:04:37Z</time>
      </trkpt>
      <trkpt lat="49.10485" lon="1.13587">
        <ele>128.3</ele>
        <time>2016-12-11T10:04:40Z</time>
      </trkpt>
      <trkpt lat="49.10489" lon="1.13606">
        <ele>128.6</ele>
        <time>2016-12-11T10:04:43Z</time>
      </trkpt>
      <trkpt lat="49.10481" lon="1.13622">
        <ele>128.9</ele>
        <time>2016-12-11T10:04:46Z</time>
      </trkpt>
      <trkpt lat="49.10474" lon="1.13633">
        <ele>129</ele>
        <time>2016-12-11T10:04:48Z</time>
      </trkpt>
      <trkpt lat="49.10468" lon="1.13646">
        <ele>129.1</ele>
        <time>2016-12-11T10:04:50Z</time>
      </trkpt>
      <trkpt lat="49.10463" lon="1.1366">
        <ele>129.3</ele>
        <time>2016-12-11T10:04:52Z</time>
      </trkpt>
      <trkpt lat="49.10457" lon="1.13675">
        <ele>129.4</ele>
        <time>2016-12-11T10:04:54Z</time>
      </trkpt>
      <trkpt lat="49.10451" lon="1.1369">
        <ele>129.5</ele>
        <time>2016-12-11T10:04:56Z</time>
      </trkpt>
      <trkpt lat="49.10446" lon="1.13706">
        <ele>129.5</ele>
        <time>2016-12-11T10:04:58Z</time>
      </trkpt>
      <trkpt lat="49.1044" lon="1.13722">
        <ele>129.7</ele>
        <time>2016-12-11T10:05:00Z</time>
      </trkpt>
      <trkpt lat="49.10434" lon="1.13739">
        <ele>129.8</ele>
        <time>2016-12-11T10:05:02Z</time>
      </trkpt>
      <trkpt lat="49.10428" lon="1.13755">
        <ele>129.9</ele>
        <time>2016-12-11T10:05:04Z</time>
      </trkpt>
      <trkpt lat="49.10423" lon="1.13771">
        <ele>130</ele>
        <time>2016-12-11T10:05:06Z</time>
      </trkpt>
      <trkpt lat="49.10418" lon="1.13789">
        <ele>130.1</ele>
        <time>2016-12-11T10:05:08Z</time>
      </trkpt>
      <trkpt lat="49.10412" lon="1.13807">
        <ele>130.2</ele>
        <time>2016-12-11T10:05:10Z</time>
      </trkpt>
      <trkpt lat="49.10406" lon="1.13826">
        <ele>130.2</ele>
        <time>2016-12-11T10:05:12Z</time>
      </trkpt>
      <trkpt lat="49.10399" lon="1.13845">
        <ele>130.3</ele>
        <time>2016-12-11T10:05:14Z</time>
      </trkpt>
      <trkpt lat="49.1039" lon="1.13865">
        <ele>130.4</ele>
        <time>2016-12-11T10:05:16Z</time>
      </trkpt>
      <trkpt lat="49.10382" lon="1.13884">
        <ele>130.4</ele>
        <time>2016-12-11T10:05:18Z</time>
      </trkpt>
      <trkpt lat="49.10374" lon="1.13901">
        <ele>130.5</ele>
        <time>2016-12-11T10:05:20Z</time>
      </trkpt>
      <trkpt lat="49.10365" lon="1.13917">
        <ele>130.6</ele>
        <time>2016-12-11T10:05:22Z</time>
      </trkpt>
      <trkpt lat="49.10355" lon="1.13931">
        <ele>130.7</ele>
        <time>2016-12-11T10:05:24Z</time>
      </trkpt>
      <trkpt lat="49.10346" lon="1.13946">
        <ele>130.8</ele>
        <time>2016-12-11T10:05:26Z</time>
      </trkpt>
      <trkpt lat="49.10338" lon="1.13959">
        <ele>130.9</ele>
        <time>2016-12-11T10:05:28Z</time>
      </trkpt>
      <trkpt lat="49.10328" lon="1.13962">
        <ele>131</ele>
        <time>2016-12-11T10:05:31Z</time>
      </trkpt>
      <trkpt lat="49.10322" lon="1.13946">
        <ele>131.1</ele>
        <time>2016-12-11T10:05:34Z</time>
      </trkpt>
      <trkpt lat="49.10314" lon="1.13936">
        <ele>131.1</ele>
        <time>2016-12-11T10:05:36Z</time>
      </trkpt>
      <trkpt lat="49.10303" lon="1.13927">
        <ele>131.2</ele>
        <time>2016-12-11T10:05:38Z</time>
      </trkpt>
      <trkpt lat="49.10295" lon="1.13916">
        <ele>131.2</ele>
        <time>2016-12-11T10:05:40Z</time>
      </trkpt>
      <trkpt lat="49.10287" lon="1.13905">
        <ele>131.2</ele>
        <time>2016-12-11T10:05:42Z</time>
      </trkpt>
      <trkpt lat="49.10277" lon="1.13897">
        <ele>131.3</ele>
        <time>2016-12-11T10:05:45Z</time>
      </trkpt>
      <trkpt lat="49.10265" lon="1.13887">
        <ele>131.3</ele>
        <time>2016-12-11T10:05:48Z</time>
      </trkpt>
      <trkpt lat="49.10255" lon="1.13875">
        <ele>131.3</ele>
        <time>2016-12-11T10:05:50Z</time>
      </trkpt>
      <trkpt lat="49.10247" lon="1.13866">
        <ele>131.4</ele>
        <time>2016-12-11T10:05:52Z</time>
      </trkpt>
      <trkpt lat="49.10236" lon="1.13857">
        <ele>131.5</ele>
        <time>2016-12-11T10:05:54Z</time>
      </trkpt>
      <trkpt lat="49.10227" lon="1.13851">
        <ele>131.6</ele>
        <time>2016-12-11T10:05:56Z</time>
      </trkpt>
      <trkpt lat="49.10219" lon="1.13844">
        <ele>131.7</ele>
        <time>2016-12-11T10:05:58Z</time>
      </trkpt>
      <trkpt lat="49.10208" lon="1.13835">
        <ele>131.7</ele>
        <time>2016-12-11T10:06:00Z</time>
      </trkpt>
      <trkpt lat="49.10199" lon="1.13829">
        <ele>131.6</ele>
        <time>2016-12-11T10:06:02Z</time>
      </trkpt>
      <trkpt lat="49.10188" lon="1.13824">
        <ele>131.6</ele>
        <time>2016-12-11T10:06:04Z</time>
      </trkpt>
      <trkpt lat="49.10174" lon="1.13821">
        <ele>131.6</ele>
        <time>2016-12-11T10:06:06Z</time>
      </trkpt>
      <trkpt lat="49.10162" lon="1.13816">
        <ele>131.6</ele>
        <time>2016-12-11T10:06:08Z</time>
      </trkpt>
      <trkpt lat="49.10153" lon="1.13811">
        <ele>131.6</ele>
        <time>2016-12-11T10:06:10Z</time>
      </trkpt>
      <trkpt lat="49.10143" lon="1.13809">
        <ele>131.5</ele>
        <time>2016-12-11T10:06:12Z</time>
      </trkpt>
      <trkpt lat="49.10131" lon="1.13818">
        <ele>131.4</ele>
        <time>2016-12-11T10:06:15Z</time>
      </trkpt>
      <trkpt lat="49.10121" lon="1.13826">
        <ele>131.4</ele>
        <time>2016-12-11T10:06:17Z</time>
      </trkpt>
      <trkpt lat="49.10112" lon="1.13831">
        <ele>131.2</ele>
        <time>2016-12-11T10:06:19Z</time>
      </trkpt>
      <trkpt lat="49.10103" lon="1.13839">
        <ele>131.1</ele>
        <time>2016-12-11T10:06:21Z</time>
      </trkpt>
      <trkpt lat="49.10095" lon="1.13845">
        <ele>130.8</ele>
        <time>2016-12-11T10:06:23Z</time>
      </trkpt>
      <trkpt lat="49.10084" lon="1.13851">
        <ele>130.6</ele>
        <time>2016-12-11T10:06:25Z</time>
      </trkpt>
      <trkpt lat="49.10075" lon="1.13858">
        <ele>130.2</ele>
        <time>2016-12-11T10:06:27Z</time>
      </trkpt>
      <trkpt lat="49.10065" lon="1.13868">
        <ele>129.5</ele>
        <time>2016-12-11T10:06:29Z</time>
      </trkpt>
      <trkpt lat="49.10054" lon="1.13877">
        <ele>128.9</ele>
        <time>2016-12-11T10:06:31Z</time>
      </trkpt>
      <trkpt lat="49.10041" lon="1.13888">
        <ele>128.1</ele>
        <time>2016-12-11T10:06:33Z</time>
      </trkpt>
      <trkpt lat="49.10028" lon="1.13901">
        <ele>127.2</ele>
        <time>2016-12-11T10:06:35Z</time>
      </trkpt>
      <trkpt lat="49.10019" lon="1.13908">
        <ele>126.8</ele>
        <time>2016-12-11T10:06:36Z</time>
      </trkpt>
      <trkpt lat="49.10005" lon="1.13923">
        <ele>125.9</ele>
        <time>2016-12-11T10:06:38Z</time>
      </trkpt>
      <trkpt lat="49.09991" lon="1.13937">
        <ele>124.7</ele>
        <time>2016-12-11T10:06:40Z</time>
      </trkpt>
      <trkpt lat="49.09977" lon="1.13952">
        <ele>123.4</ele>
        <time>2016-12-11T10:06:42Z</time>
      </trkpt>
      <trkpt lat="49.09963" lon="1.13969">
        <ele>122</ele>
        <time>2016-12-11T10:06:44Z</time>
      </trkpt>
      <trkpt lat="49.09955" lon="1.13979">
        <ele>121.3</ele>
        <time>2016-12-11T10:06:45Z</time>
      </trkpt>
      <trkpt lat="49.09946" lon="1.13988">
        <ele>120.6</ele>
        <time>2016-12-11T10:06:46Z</time>
      </trkpt>
      <trkpt lat="49.09938" lon="1.13998">
        <ele>120</ele>
        <time>2016-12-11T10:06:47Z</time>
      </trkpt>
      <trkpt lat="49.09929" lon="1.14005">
        <ele>119.4</ele>
        <time>2016-12-11T10:06:48Z</time>
      </trkpt>
      <trkpt lat="49.09921" lon="1.14012">
        <ele>118.8</ele>
        <time>2016-12-11T10:06:49Z</time>
      </trkpt>
      <trkpt lat="49.09912" lon="1.14019">
        <ele>118.2</ele>
        <time>2016-12-11T10:06:50Z</time>
      </trkpt>
      <trkpt lat="49.09903" lon="1.14024">
        <ele>117.5</ele>
        <time>2016-12-11T10:06:51Z</time>
      </trkpt>
      <trkpt lat="49.09889" lon="1.14035">
        <ele>116.2</ele>
        <time>2016-12-11T10:06:53Z</time>
      </trkpt>
      <trkpt lat="49.09874" lon="1.14042">
        <ele>114.6</ele>
        <time>2016-12-11T10:06:55Z</time>
      </trkpt>
      <trkpt lat="49.0986" lon="1.14048">
        <ele>113.1</ele>
        <time>2016-12-11T10:06:57Z</time>
      </trkpt>
      <trkpt lat="49.09846" lon="1.14058">
        <ele>111.6</ele>
        <time>2016-12-11T10:06:59Z</time>
      </trkpt>
      <trkpt lat="49.09835" lon="1.14068">
        <ele>110.1</ele>
        <time>2016-12-11T10:07:01Z</time>
      </trkpt>
      <trkpt lat="49.09825" lon="1.14081">
        <ele>108.7</ele>
        <time>2016-12-11T10:07:03Z</time>
      </trkpt>
      <trkpt lat="49.09813" lon="1.14085">
        <ele>106.7</ele>
        <time>2016-12-11T10:07:06Z</time>
      </trkpt>
      <trkpt lat="49.09805" lon="1.14077">
        <ele>105.4</ele>
        <time>2016-12-11T10:07:08Z</time>
      </trkpt>
      <trkpt lat="49.09795" lon="1.14077">
        <ele>104.2</ele>
        <time>2016-12-11T10:07:10Z</time>
      </trkpt>
      <trkpt lat="49.09783" lon="1.14074">
        <ele>103</ele>
        <time>2016-12-11T10:07:12Z</time>
      </trkpt>
      <trkpt lat="49.09764" lon="1.14067">
        <ele>101.9</ele>
        <time>2016-12-11T10:07:14Z</time>
      </trkpt>
      <trkpt lat="49.09751" lon="1.14061">
        <ele>100.9</ele>
        <time>2016-12-11T10:07:16Z</time>
      </trkpt>
      <trkpt lat="49.09741" lon="1.14056">
        <ele>99.9</ele>
        <time>2016-12-11T10:07:18Z</time>
      </trkpt>
      <trkpt lat="49.09731" lon="1.14048">
        <ele>99</ele>
        <time>2016-12-11T10:07:20Z</time>
      </trkpt>
      <trkpt lat="49.09723" lon="1.14039">
        <ele>98.1</ele>
        <time>2016-12-11T10:07:22Z</time>
      </trkpt>
      <trkpt lat="49.09712" lon="1.14029">
        <ele>97</ele>
        <time>2016-12-11T10:07:25Z</time>
      </trkpt>
      <trkpt lat="49.097" lon="1.14031">
        <ele>96.1</ele>
        <time>2016-12-11T10:07:28Z</time>
      </trkpt>
      <trkpt lat="49.0969" lon="1.14035">
        <ele>95.2</ele>
        <time>2016-12-11T10:07:31Z</time>
      </trkpt>
      <trkpt lat="49.09679" lon="1.14039">
        <ele>94.4</ele>
        <time>2016-12-11T10:07:34Z</time>
      </trkpt>
      <trkpt lat="49.09669" lon="1.14043">
        <ele>93.7</ele>
        <time>2016-12-11T10:07:37Z</time>
      </trkpt>
      <trkpt lat="49.09659" lon="1.14046">
        <ele>93</ele>
        <time>2016-12-11T10:07:40Z</time>
      </trkpt>
      <trkpt lat="49.09649" lon="1.14051">
        <ele>92.3</ele>
        <time>2016-12-11T10:07:43Z</time>
      </trkpt>
      <trkpt lat="49.09638" lon="1.14056">
        <ele>91.6</ele>
        <time>2016-12-11T10:07:46Z</time>
      </trkpt>
      <trkpt lat="49.09627" lon="1.14061">
        <ele>91.1</ele>
        <time>2016-12-11T10:07:49Z</time>
      </trkpt>
      <trkpt lat="49.09615" lon="1.14066">
        <ele>90.7</ele>
        <time>2016-12-11T10:07:52Z</time>
      </trkpt>
      <trkpt lat="49.09603" lon="1.14071">
        <ele>90.2</ele>
        <time>2016-12-11T10:07:55Z</time>
      </trkpt>
      <trkpt lat="49.09595" lon="1.14075">
        <ele>89.9</ele>
        <time>2016-12-11T10:07:57Z</time>
      </trkpt>
      <trkpt lat="49.09586" lon="1.14078">
        <ele>89.6</ele>
        <time>2016-12-11T10:07:59Z</time>
      </trkpt>
      <trkpt lat="49.09577" lon="1.14082">
        <ele>89.3</ele>
        <time>2016-12-11T10:08:01Z</time>
      </trkpt>
      <trkpt lat="49.09569" lon="1.14086">
        <ele>89.1</ele>
        <time>2016-12-11T10:08:03Z</time>
      </trkpt>
      <trkpt lat="49.0956" lon="1.1409">
        <ele>88.9</ele>
        <time>2016-12-11T10:08:05Z</time>
      </trkpt>
      <trkpt lat="49.09551" lon="1.14094">
        <ele>88.7</ele>
        <time>2016-12-11T10:08:07Z</time>
      </trkpt>
      <trkpt lat="49.09542" lon="1.14097">
        <ele>88.5</ele>
        <time>2016-12-11T10:08:09Z</time>
      </trkpt>
      <trkpt lat="49.09533" lon="1.141">
        <ele>88.3</ele>
        <time>2016-12-11T10:08:11Z</time>
      </trkpt>
      <trkpt lat="49.09524" lon="1.14104">
        <ele>88.2</ele>
        <time>2016-12-11T10:08:13Z</time>
      </trkpt>
      <trkpt lat="49.09515" lon="1.14108">
        <ele>88</ele>
        <time>2016-12-11T10:08:15Z</time>
      </trkpt>
      <trkpt lat="49.09506" lon="1.14111">
        <ele>87.9</ele>
        <time>2016-12-11T10:08:17Z</time>
      </trkpt>
      <trkpt lat="49.09497" lon="1.14114">
        <ele>87.8</ele>
        <time>2016-12-11T10:08:19Z</time>
      </trkpt>
      <trkpt lat="49.09488" lon="1.14118">
        <ele>87.7</ele>
        <time>2016-12-11T10:08:21Z</time>
      </trkpt>
      <trkpt lat="49.09478" lon="1.14121">
        <ele>87.6</ele>
        <time>2016-12-11T10:08:23Z</time>
      </trkpt>
      <trkpt lat="49.09469" lon="1.14125">
        <ele>87.5</ele>
        <time>2016-12-11T10:08:25Z</time>
      </trkpt>
      <trkpt lat="49.0946" lon="1.14129">
        <ele>87.4</ele>
        <time>2016-12-11T10:08:27Z</time>
      </trkpt>
      <trkpt lat="49.09451" lon="1.14133">
        <ele>87.3</ele>
        <time>2016-12-11T10:08:29Z</time>
      </trkpt>
      <trkpt lat="49.09442" lon="1.14136">
        <ele>87.2</ele>
        <time>2016-12-11T10:08:31Z</time>
      </trkpt>
      <trkpt lat="49.09433" lon="1.1414">
        <ele>87.2</ele>
        <time>2016-12-11T10:08:33Z</time>
      </trkpt>
      <trkpt lat="49.0942" lon="1.14146">
        <ele>87.1</ele>
        <time>2016-12-11T10:08:36Z</time>
      </trkpt>
      <trkpt lat="49.09411" lon="1.14149">
        <ele>87</ele>
        <time>2016-12-11T10:08:38Z</time>
      </trkpt>
      <trkpt lat="49.09402" lon="1.14153">
        <ele>87</ele>
        <time>2016-12-11T10:08:40Z</time>
      </trkpt>
      <trkpt lat="49.0939" lon="1.14159">
        <ele>86.9</ele>
        <time>2016-12-11T10:08:43Z</time>
      </trkpt>
      <trkpt lat="49.09377" lon="1.14163">
        <ele>86.9</ele>
        <time>2016-12-11T10:08:46Z</time>
      </trkpt>
      <trkpt lat="49.09366" lon="1.14169">
        <ele>86.9</ele>
        <time>2016-12-11T10:08:49Z</time>
      </trkpt>
      <trkpt lat="49.09354" lon="1.14174">
        <ele>86.8</ele>
        <time>2016-12-11T10:08:52Z</time>
      </trkpt>
      <trkpt lat="49.09343" lon="1.14179">
        <ele>86.8</ele>
        <time>2016-12-11T10:08:55Z</time>
      </trkpt>
      <trkpt lat="49.09332" lon="1.14184">
        <ele>86.8</ele>
        <time>2016-12-11T10:08:58Z</time>
      </trkpt>
      <trkpt lat="49.09321" lon="1.14188">
        <ele>86.8</ele>
        <time>2016-12-11T10:09:01Z</time>
      </trkpt>
      <trkpt lat="49.0931" lon="1.14193">
        <ele>86.8</ele>
        <time>2016-12-11T10:09:04Z</time>
      </trkpt>
      <trkpt lat="49.09298" lon="1.14197">
        <ele>86.8</ele>
        <time>2016-12-11T10:09:07Z</time>
      </trkpt>
      <trkpt lat="49.09286" lon="1.14201">
        <ele>86.8</ele>
        <time>2016-12-11T10:09:10Z</time>
      </trkpt>
      <trkpt lat="49.09274" lon="1.14206">
        <ele>87</ele>
        <time>2016-12-11T10:09:13Z</time>
      </trkpt>
      <trkpt lat="49.09262" lon="1.1421">
        <ele>87.1</ele>
        <time>2016-12-11T10:09:16Z</time>
      </trkpt>
      <trkpt lat="49.0925" lon="1.14213">
        <ele>87.2</ele>
        <time>2016-12-11T10:09:19Z</time>
      </trkpt>
      <trkpt lat="49.09238" lon="1.14215">
        <ele>87.4</ele>
        <time>2016-12-11T10:09:22Z</time>
      </trkpt>
      <trkpt lat="49.09225" lon="1.14217">
        <ele>87.5</ele>
        <time>2016-12-11T10:09:25Z</time>
      </trkpt>
      <trkpt lat="49.09213" lon="1.14219">
        <ele>87.7</ele>
        <time>2016-12-11T10:09:28Z</time>
      </trkpt>
      <trkpt lat="49.09201" lon="1.14222">
        <ele>87.8</ele>
        <time>2016-12-11T10:09:31Z</time>
      </trkpt>
      <trkpt lat="49.09188" lon="1.1422">
        <ele>88.1</ele>
        <time>2016-12-11T10:09:34Z</time>
      </trkpt>
      <trkpt lat="49.09175" lon="1.14214">
        <ele>88.3</ele>
        <time>2016-12-11T10:09:37Z</time>
      </trkpt>
      <trkpt lat="49.09162" lon="1.1421">
        <ele>88.5</ele>
        <time>2016-12-11T10:09:40Z</time>
      </trkpt>
      <trkpt lat="49.09151" lon="1.14221">
        <ele>88.6</ele>
        <time>2016-12-11T10:09:43Z</time>
      </trkpt>
      <trkpt lat="49.09148" lon="1.14236">
        <ele>88.8</ele>
        <time>2016-12-11T10:09:46Z</time>
      </trkpt>
      <trkpt lat="49.09146" lon="1.14249">
        <ele>88.9</ele>
        <time>2016-12-11T10:09:49Z</time>
      </trkpt>
      <trkpt lat="49.09143" lon="1.14266">
        <ele>89</ele>
        <time>2016-12-11T10:09:53Z</time>
      </trkpt>
      <trkpt lat="49.09141" lon="1.14282">
        <ele>89.3</ele>
        <time>2016-12-11T10:09:57Z</time>
      </trkpt>
      <trkpt lat="49.0914" lon="1.14298">
        <ele>89.5</ele>
        <time>2016-12-11T10:10:01Z</time>
      </trkpt>
      <trkpt lat="49.09141" lon="1.14313">
        <ele>89.9</ele>
        <time>2016-12-11T10:10:05Z</time>
      </trkpt>
      <trkpt lat="49.09143" lon="1.14327">
        <ele>90.2</ele>
        <time>2016-12-11T10:10:09Z</time>
      </trkpt>
      <trkpt lat="49.09144" lon="1.14344">
        <ele>90.8</ele>
        <time>2016-12-11T10:10:14Z</time>
      </trkpt>
      <trkpt lat="49.09147" lon="1.14359">
        <ele>91.5</ele>
        <time>2016-12-11T10:10:19Z</time>
      </trkpt>
      <trkpt lat="49.09149" lon="1.14373">
        <ele>92.2</ele>
        <time>2016-12-11T10:10:24Z</time>
      </trkpt>
      <trkpt lat="49.09152" lon="1.14386">
        <ele>92.8</ele>
        <time>2016-12-11T10:10:29Z</time>
      </trkpt>
      <trkpt lat="49.09156" lon="1.144">
        <ele>93.6</ele>
        <time>2016-12-11T10:10:35Z</time>
      </trkpt>
      <trkpt lat="49.0916" lon="1.14414">
        <ele>94.4</ele>
        <time>2016-12-11T10:10:41Z</time>
      </trkpt>
      <trkpt lat="49.09166" lon="1.14426">
        <ele>95.2</ele>
        <time>2016-12-11T10:10:47Z</time>
      </trkpt>
      <trkpt lat="49.09171" lon="1.14437">
        <ele>96</ele>
        <time>2016-12-11T10:10:53Z</time>
      </trkpt>
      <trkpt lat="49.09176" lon="1.14449">
        <ele>96.7</ele>
        <time>2016-12-11T10:10:59Z</time>
      </trkpt>
      <trkpt lat="49.09179" lon="1.14462">
        <ele>97.5</ele>
        <time>2016-12-11T10:11:05Z</time>
      </trkpt>
      <trkpt lat="49.09177" lon="1.14478">
        <ele>98.5</ele>
        <time>2016-12-11T10:11:12Z</time>
      </trkpt>
      <trkpt lat="49.09171" lon="1.14489">
        <ele>99.2</ele>
        <time>2016-12-11T10:11:18Z</time>
      </trkpt>
      <trkpt lat="49.09167" lon="1.14503">
        <ele>100.2</ele>
        <time>2016-12-11T10:11:24Z</time>
      </trkpt>
      <trkpt lat="49.09167" lon="1.14519">
        <ele>101.1</ele>
        <time>2016-12-11T10:11:30Z</time>
      </trkpt>
      <trkpt lat="49.0917" lon="1.14533">
        <ele>102.1</ele>
        <time>2016-12-11T10:11:36Z</time>
      </trkpt>
      <trkpt lat="49.09175" lon="1.14546">
        <ele>103.2</ele>
        <time>2016-12-11T10:11:42Z</time>
      </trkpt>
      <trkpt lat="49.09176" lon="1.14561">
        <ele>104.5</ele>
        <time>2016-12-11T10:11:49Z</time>
      </trkpt>
      <trkpt lat="49.09171" lon="1.14575">
        <ele>105.5</ele>
        <time>2016-12-11T10:11:55Z</time>
      </trkpt>
      <trkpt lat="49.09164" lon="1.14586">
        <ele>106.5</ele>
        <time>2016-12-11T10:12:01Z</time>
      </trkpt>
      <trkpt lat="49.09159" lon="1.14598">
        <ele>107.3</ele>
        <time>2016-12-11T10:12:07Z</time>
      </trkpt>
      <trkpt lat="49.09154" lon="1.14611">
        <ele>108</ele>
        <time>2016-12-11T10:12:13Z</time>
      </trkpt>
      <trkpt lat="49.0915" lon="1.14624">
        <ele>108.8</ele>
        <time>2016-12-11T10:12:20Z</time>
      </trkpt>
      <trkpt lat="49.09146" lon="1.14637">
        <ele>109.3</ele>
        <time>2016-12-11T10:12:25Z</time>
      </trkpt>
      <trkpt lat="49.09142" lon="1.14653">
        <ele>109.9</ele>
        <time>2016-12-11T10:12:31Z</time>
      </trkpt>
      <trkpt lat="49.09139" lon="1.14666">
        <ele>110.3</ele>
        <time>2016-12-11T10:12:36Z</time>
      </trkpt>
      <trkpt lat="49.09144" lon="1.14678">
        <ele>110.8</ele>
        <time>2016-12-11T10:12:42Z</time>
      </trkpt>
      <trkpt lat="49.09154" lon="1.14675">
        <ele>111.3</ele>
        <time>2016-12-11T10:12:48Z</time>
      </trkpt>
      <trkpt lat="49.09164" lon="1.14672">
        <ele>111.7</ele>
        <time>2016-12-11T10:12:53Z</time>
      </trkpt>
      <trkpt lat="49.09175" lon="1.14669">
        <ele>112.1</ele>
        <time>2016-12-11T10:12:58Z</time>
      </trkpt>
      <trkpt lat="49.09186" lon="1.14668">
        <ele>112.4</ele>
        <time>2016-12-11T10:13:03Z</time>
      </trkpt>
      <trkpt lat="49.09197" lon="1.1467">
        <ele>112.7</ele>
        <time>2016-12-11T10:13:08Z</time>
      </trkpt>
      <trkpt lat="49.09206" lon="1.14674">
        <ele>112.9</ele>
        <time>2016-12-11T10:13:12Z</time>
      </trkpt>
      <trkpt lat="49.09215" lon="1.1468">
        <ele>113.2</ele>
        <time>2016-12-11T10:13:16Z</time>
      </trkpt>
      <trkpt lat="49.09223" lon="1.14687">
        <ele>113.4</ele>
        <time>2016-12-11T10:13:20Z</time>
      </trkpt>
      <trkpt lat="49.09231" lon="1.14696">
        <ele>113.7</ele>
        <time>2016-12-11T10:13:24Z</time>
      </trkpt>
      <trkpt lat="49.0924" lon="1.14705">
        <ele>114</ele>
        <time>2016-12-11T10:13:29Z</time>
      </trkpt>
      <trkpt lat="49.09248" lon="1.14716">
        <ele>114.4</ele>
        <time>2016-12-11T10:13:34Z</time>
      </trkpt>
      <trkpt lat="49.09255" lon="1.14728">
        <ele>114.8</ele>
        <time>2016-12-11T10:13:39Z</time>
      </trkpt>
      <trkpt lat="49.09262" lon="1.14739">
        <ele>115.1</ele>
        <time>2016-12-11T10:13:44Z</time>
      </trkpt>
      <trkpt lat="49.0927" lon="1.1475">
        <ele>115.3</ele>
        <time>2016-12-11T10:13:49Z</time>
      </trkpt>
      <trkpt lat="49.09276" lon="1.14761">
        <ele>115.6</ele>
        <time>2016-12-11T10:13:54Z</time>
      </trkpt>
      <trkpt lat="49.09284" lon="1.1477">
        <ele>115.9</ele>
        <time>2016-12-11T10:13:59Z</time>
      </trkpt>
      <trkpt lat="49.09292" lon="1.14779">
        <ele>116.2</ele>
        <time>2016-12-11T10:14:04Z</time>
      </trkpt>
      <trkpt lat="49.093" lon="1.14789">
        <ele>116.4</ele>
        <time>2016-12-11T10:14:09Z</time>
      </trkpt>
      <trkpt lat="49.09307" lon="1.14801">
        <ele>116.5</ele>
        <time>2016-12-11T10:14:14Z</time>
      </trkpt>
      <trkpt lat="49.09313" lon="1.14814">
        <ele>116.7</ele>
        <time>2016-12-11T10:14:19Z</time>
      </trkpt>
      <trkpt lat="49.09319" lon="1.14826">
        <ele>117</ele>
        <time>2016-12-11T10:14:24Z</time>
      </trkpt>
      <trkpt lat="49.09325" lon="1.1484">
        <ele>117.2</ele>
        <time>2016-12-11T10:14:29Z</time>
      </trkpt>
      <trkpt lat="49.09331" lon="1.14852">
        <ele>117.4</ele>
        <time>2016-12-11T10:14:33Z</time>
      </trkpt>
      <trkpt lat="49.09338" lon="1.14863">
        <ele>117.6</ele>
        <time>2016-12-11T10:14:38Z</time>
      </trkpt>
      <trkpt lat="49.09346" lon="1.1487">
        <ele>117.7</ele>
        <time>2016-12-11T10:14:42Z</time>
      </trkpt>
      <trkpt lat="49.09356" lon="1.14866">
        <ele>117.8</ele>
        <time>2016-12-11T10:14:46Z</time>
      </trkpt>
      <trkpt lat="49.09363" lon="1.14859">
        <ele>117.9</ele>
        <time>2016-12-11T10:14:49Z</time>
      </trkpt>
      <trkpt lat="49.09373" lon="1.1485">
        <ele>117.9</ele>
        <time>2016-12-11T10:14:52Z</time>
      </trkpt>
      <trkpt lat="49.09381" lon="1.1484">
        <ele>118.1</ele>
        <time>2016-12-11T10:14:55Z</time>
      </trkpt>
      <trkpt lat="49.09388" lon="1.14828">
        <ele>118.3</ele>
        <time>2016-12-11T10:14:58Z</time>
      </trkpt>
      <trkpt lat="49.09395" lon="1.14817">
        <ele>118.5</ele>
        <time>2016-12-11T10:15:01Z</time>
      </trkpt>
      <trkpt lat="49.09401" lon="1.14805">
        <ele>118.6</ele>
        <time>2016-12-11T10:15:04Z</time>
      </trkpt>
      <trkpt lat="49.09407" lon="1.1479">
        <ele>118.7</ele>
        <time>2016-12-11T10:15:07Z</time>
      </trkpt>
      <trkpt lat="49.09416" lon="1.14781">
        <ele>118.8</ele>
        <time>2016-12-11T10:15:10Z</time>
      </trkpt>
      <trkpt lat="49.0942" lon="1.14768">
        <ele>118.8</ele>
        <time>2016-12-11T10:15:13Z</time>
      </trkpt>
      <trkpt lat="49.09428" lon="1.14758">
        <ele>119</ele>
        <time>2016-12-11T10:15:16Z</time>
      </trkpt>
      <trkpt lat="49.09437" lon="1.1475">
        <ele>119.3</ele>
        <time>2016-12-11T10:15:20Z</time>
      </trkpt>
      <trkpt lat="49.09446" lon="1.14746">
        <ele>119.4</ele>
        <time>2016-12-11T10:15:23Z</time>
      </trkpt>
      <trkpt lat="49.09456" lon="1.14741">
        <ele>119.7</ele>
        <time>2016-12-11T10:15:27Z</time>
      </trkpt>
      <trkpt lat="49.09466" lon="1.14739">
        <ele>119.9</ele>
        <time>2016-12-11T10:15:31Z</time>
      </trkpt>
      <trkpt lat="49.09476" lon="1.14742">
        <ele>120.1</ele>
        <time>2016-12-11T10:15:34Z</time>
      </trkpt>
      <trkpt lat="49.09485" lon="1.14742">
        <ele>120.1</ele>
        <time>2016-12-11T10:15:37Z</time>
      </trkpt>
      <trkpt lat="49.09495" lon="1.14743">
        <ele>120.3</ele>
        <time>2016-12-11T10:15:40Z</time>
      </trkpt>
      <trkpt lat="49.09507" lon="1.14739">
        <ele>120.6</ele>
        <time>2016-12-11T10:15:43Z</time>
      </trkpt>
      <trkpt lat="49.09518" lon="1.14728">
        <ele>120.9</ele>
        <time>2016-12-11T10:15:46Z</time>
      </trkpt>
      <trkpt lat="49.09528" lon="1.1472">
        <ele>121.1</ele>
        <time>2016-12-11T10:15:49Z</time>
      </trkpt>
      <trkpt lat="49.09539" lon="1.14715">
        <ele>121.2</ele>
        <time>2016-12-11T10:15:51Z</time>
      </trkpt>
      <trkpt lat="49.0955" lon="1.14711">
        <ele>121.4</ele>
        <time>2016-12-11T10:15:53Z</time>
      </trkpt>
      <trkpt lat="49.09563" lon="1.1471">
        <ele>121.5</ele>
        <time>2016-12-11T10:15:56Z</time>
      </trkpt>
      <trkpt lat="49.09575" lon="1.14708">
        <ele>121.9</ele>
        <time>2016-12-11T10:15:59Z</time>
      </trkpt>
      <trkpt lat="49.09585" lon="1.14703">
        <ele>122.2</ele>
        <time>2016-12-11T10:16:02Z</time>
      </trkpt>
      <trkpt lat="49.09595" lon="1.14695">
        <ele>122.4</ele>
        <time>2016-12-11T10:16:05Z</time>
      </trkpt>
      <trkpt lat="49.09605" lon="1.14688">
        <ele>122.6</ele>
        <time>2016-12-11T10:16:08Z</time>
      </trkpt>
      <trkpt lat="49.09614" lon="1.14684">
        <ele>122.7</ele>
        <time>2016-12-11T10:16:10Z</time>
      </trkpt>
      <trkpt lat="49.09626" lon="1.14676">
        <ele>122.9</ele>
        <time>2016-12-11T10:16:13Z</time>
      </trkpt>
      <trkpt lat="49.09636" lon="1.1467">
        <ele>123.1</ele>
        <time>2016-12-11T10:16:15Z</time>
      </trkpt>
      <trkpt lat="49.09647" lon="1.1466">
        <ele>123.3</ele>
        <time>2016-12-11T10:16:18Z</time>
      </trkpt>
      <trkpt lat="49.09656" lon="1.14651">
        <ele>123.6</ele>
        <time>2016-12-11T10:16:21Z</time>
      </trkpt>
      <trkpt lat="49.09666" lon="1.14649">
        <ele>123.8</ele>
        <time>2016-12-11T10:16:23Z</time>
      </trkpt>
      <trkpt lat="49.09678" lon="1.14646">
        <ele>124.1</ele>
        <time>2016-12-11T10:16:26Z</time>
      </trkpt>
      <trkpt lat="49.09691" lon="1.14642">
        <ele>124.3</ele>
        <time>2016-12-11T10:16:29Z</time>
      </trkpt>
      <trkpt lat="49.09703" lon="1.14641">
        <ele>124.6</ele>
        <time>2016-12-11T10:16:32Z</time>
      </trkpt>
      <trkpt lat="49.09712" lon="1.14639">
        <ele>124.7</ele>
        <time>2016-12-11T10:16:34Z</time>
      </trkpt>
      <trkpt lat="49.09722" lon="1.14636">
        <ele>125</ele>
        <time>2016-12-11T10:16:37Z</time>
      </trkpt>
      <trkpt lat="49.09732" lon="1.14634">
        <ele>125.2</ele>
        <time>2016-12-11T10:16:40Z</time>
      </trkpt>
      <trkpt lat="49.09743" lon="1.14631">
        <ele>125.4</ele>
        <time>2016-12-11T10:16:43Z</time>
      </trkpt>
      <trkpt lat="49.09752" lon="1.14626">
        <ele>125.6</ele>
        <time>2016-12-11T10:16:46Z</time>
      </trkpt>
      <trkpt lat="49.09762" lon="1.1462">
        <ele>125.7</ele>
        <time>2016-12-11T10:16:49Z</time>
      </trkpt>
      <trkpt lat="49.09772" lon="1.14615">
        <ele>125.9</ele>
        <time>2016-12-11T10:16:52Z</time>
      </trkpt>
      <trkpt lat="49.09781" lon="1.14609">
        <ele>126</ele>
        <time>2016-12-11T10:16:55Z</time>
      </trkpt>
      <trkpt lat="49.0979" lon="1.14604">
        <ele>126.2</ele>
        <time>2016-12-11T10:16:58Z</time>
      </trkpt>
      <trkpt lat="49.09799" lon="1.14596">
        <ele>126.5</ele>
        <time>2016-12-11T10:17:02Z</time>
      </trkpt>
      <trkpt lat="49.09808" lon="1.14587">
        <ele>126.8</ele>
        <time>2016-12-11T10:17:07Z</time>
      </trkpt>
      <trkpt lat="49.09816" lon="1.1458">
        <ele>127.1</ele>
        <time>2016-12-11T10:17:18Z</time>
      </trkpt>
      <trkpt lat="49.09827" lon="1.14576">
        <ele>121.2</ele>
        <time>2016-12-11T10:18:38Z</time>
      </trkpt>
      <trkpt lat="49.09835" lon="1.14587">
        <ele>120.6</ele>
        <time>2016-12-11T10:18:44Z</time>
      </trkpt>
      <trkpt lat="49.09842" lon="1.14601">
        <ele>120.1</ele>
        <time>2016-12-11T10:18:49Z</time>
      </trkpt>
      <trkpt lat="49.09852" lon="1.1461">
        <ele>119.8</ele>
        <time>2016-12-11T10:18:53Z</time>
      </trkpt>
      <trkpt lat="49.09862" lon="1.14615">
        <ele>119.6</ele>
        <time>2016-12-11T10:18:56Z</time>
      </trkpt>
      <trkpt lat="49.09872" lon="1.14619">
        <ele>119.4</ele>
        <time>2016-12-11T10:18:59Z</time>
      </trkpt>
      <trkpt lat="49.09882" lon="1.14624">
        <ele>119.2</ele>
        <time>2016-12-11T10:19:02Z</time>
      </trkpt>
      <trkpt lat="49.09894" lon="1.14629">
        <ele>119</ele>
        <time>2016-12-11T10:19:05Z</time>
      </trkpt>
      <trkpt lat="49.09906" lon="1.14635">
        <ele>118.8</ele>
        <time>2016-12-11T10:19:08Z</time>
      </trkpt>
      <trkpt lat="49.09916" lon="1.14638">
        <ele>118.7</ele>
        <time>2016-12-11T10:19:11Z</time>
      </trkpt>
      <trkpt lat="49.09925" lon="1.14627">
        <ele>118.5</ele>
        <time>2016-12-11T10:19:15Z</time>
      </trkpt>
      <trkpt lat="49.09931" lon="1.14613">
        <ele>118.4</ele>
        <time>2016-12-11T10:19:18Z</time>
      </trkpt>
      <trkpt lat="49.09939" lon="1.14599">
        <ele>118.2</ele>
        <time>2016-12-11T10:19:21Z</time>
      </trkpt>
      <trkpt lat="49.09947" lon="1.14585">
        <ele>118.1</ele>
        <time>2016-12-11T10:19:24Z</time>
      </trkpt>
      <trkpt lat="49.09955" lon="1.1457">
        <ele>118</ele>
        <time>2016-12-11T10:19:27Z</time>
      </trkpt>
      <trkpt lat="49.09964" lon="1.14556">
        <ele>117.8</ele>
        <time>2016-12-11T10:19:30Z</time>
      </trkpt>
      <trkpt lat="49.0997" lon="1.14546">
        <ele>117.7</ele>
        <time>2016-12-11T10:19:32Z</time>
      </trkpt>
      <trkpt lat="49.0998" lon="1.14532">
        <ele>117.5</ele>
        <time>2016-12-11T10:19:35Z</time>
      </trkpt>
      <trkpt lat="49.09987" lon="1.14522">
        <ele>117.4</ele>
        <time>2016-12-11T10:19:37Z</time>
      </trkpt>
      <trkpt lat="49.09994" lon="1.14513">
        <ele>117.4</ele>
        <time>2016-12-11T10:19:39Z</time>
      </trkpt>
      <trkpt lat="49.10002" lon="1.14504">
        <ele>117.3</ele>
        <time>2016-12-11T10:19:41Z</time>
      </trkpt>
      <trkpt lat="49.1001" lon="1.14494">
        <ele>117.3</ele>
        <time>2016-12-11T10:19:43Z</time>
      </trkpt>
      <trkpt lat="49.10019" lon="1.14484">
        <ele>117.3</ele>
        <time>2016-12-11T10:19:45Z</time>
      </trkpt>
      <trkpt lat="49.10027" lon="1.14472">
        <ele>117.3</ele>
        <time>2016-12-11T10:19:47Z</time>
      </trkpt>
      <trkpt lat="49.10035" lon="1.14462">
        <ele>117.4</ele>
        <time>2016-12-11T10:19:49Z</time>
      </trkpt>
      <trkpt lat="49.10044" lon="1.14452">
        <ele>117.4</ele>
        <time>2016-12-11T10:19:51Z</time>
      </trkpt>
      <trkpt lat="49.10052" lon="1.14443">
        <ele>117.4</ele>
        <time>2016-12-11T10:19:53Z</time>
      </trkpt>
      <trkpt lat="49.10061" lon="1.14433">
        <ele>117.4</ele>
        <time>2016-12-11T10:19:55Z</time>
      </trkpt>
      <trkpt lat="49.10071" lon="1.14424">
        <ele>117.4</ele>
        <time>2016-12-11T10:19:57Z</time>
      </trkpt>
      <trkpt lat="49.10081" lon="1.14416">
        <ele>117.4</ele>
        <time>2016-12-11T10:19:59Z</time>
      </trkpt>
      <trkpt lat="49.10088" lon="1.14407">
        <ele>117.4</ele>
        <time>2016-12-11T10:20:01Z</time>
      </trkpt>
      <trkpt lat="49.10093" lon="1.14393">
        <ele>117.4</ele>
        <time>2016-12-11T10:20:04Z</time>
      </trkpt>
      <trkpt lat="49.10099" lon="1.14376">
        <ele>117.4</ele>
        <time>2016-12-11T10:20:07Z</time>
      </trkpt>
      <trkpt lat="49.10105" lon="1.14364">
        <ele>117.4</ele>
        <time>2016-12-11T10:20:09Z</time>
      </trkpt>
      <trkpt lat="49.10113" lon="1.14354">
        <ele>117.4</ele>
        <time>2016-12-11T10:20:11Z</time>
      </trkpt>
      <trkpt lat="49.10121" lon="1.14341">
        <ele>117.5</ele>
        <time>2016-12-11T10:20:13Z</time>
      </trkpt>
      <trkpt lat="49.10129" lon="1.14328">
        <ele>117.6</ele>
        <time>2016-12-11T10:20:15Z</time>
      </trkpt>
      <trkpt lat="49.10136" lon="1.14316">
        <ele>117.6</ele>
        <time>2016-12-11T10:20:17Z</time>
      </trkpt>
      <trkpt lat="49.10142" lon="1.14305">
        <ele>117.7</ele>
        <time>2016-12-11T10:20:19Z</time>
      </trkpt>
      <trkpt lat="49.10148" lon="1.14294">
        <ele>117.8</ele>
        <time>2016-12-11T10:20:21Z</time>
      </trkpt>
      <trkpt lat="49.10154" lon="1.14282">
        <ele>118</ele>
        <time>2016-12-11T10:20:23Z</time>
      </trkpt>
      <trkpt lat="49.10161" lon="1.1427">
        <ele>118.2</ele>
        <time>2016-12-11T10:20:25Z</time>
      </trkpt>
      <trkpt lat="49.10167" lon="1.14258">
        <ele>118.4</ele>
        <time>2016-12-11T10:20:27Z</time>
      </trkpt>
      <trkpt lat="49.10174" lon="1.14246">
        <ele>118.6</ele>
        <time>2016-12-11T10:20:29Z</time>
      </trkpt>
      <trkpt lat="49.10182" lon="1.14234">
        <ele>118.8</ele>
        <time>2016-12-11T10:20:31Z</time>
      </trkpt>
      <trkpt lat="49.10189" lon="1.14222">
        <ele>119</ele>
        <time>2016-12-11T10:20:33Z</time>
      </trkpt>
      <trkpt lat="49.10196" lon="1.14209">
        <ele>119.2</ele>
        <time>2016-12-11T10:20:35Z</time>
      </trkpt>
      <trkpt lat="49.10203" lon="1.14196">
        <ele>119.4</ele>
        <time>2016-12-11T10:20:37Z</time>
      </trkpt>
      <trkpt lat="49.1021" lon="1.14185">
        <ele>119.6</ele>
        <time>2016-12-11T10:20:39Z</time>
      </trkpt>
      <trkpt lat="49.10216" lon="1.14173">
        <ele>119.7</ele>
        <time>2016-12-11T10:20:41Z</time>
      </trkpt>
      <trkpt lat="49.10225" lon="1.14172">
        <ele>120</ele>
        <time>2016-12-11T10:20:44Z</time>
      </trkpt>
      <trkpt lat="49.10232" lon="1.14186">
        <ele>120.2</ele>
        <time>2016-12-11T10:20:47Z</time>
      </trkpt>
      <trkpt lat="49.1024" lon="1.14202">
        <ele>120.5</ele>
        <time>2016-12-11T10:20:50Z</time>
      </trkpt>
      <trkpt lat="49.10246" lon="1.14214">
        <ele>120.7</ele>
        <time>2016-12-11T10:20:52Z</time>
      </trkpt>
      <trkpt lat="49.10253" lon="1.14225">
        <ele>120.8</ele>
        <time>2016-12-11T10:20:54Z</time>
      </trkpt>
      <trkpt lat="49.1026" lon="1.14234">
        <ele>120.9</ele>
        <time>2016-12-11T10:20:56Z</time>
      </trkpt>
      <trkpt lat="49.10267" lon="1.14244">
        <ele>121.1</ele>
        <time>2016-12-11T10:20:58Z</time>
      </trkpt>
      <trkpt lat="49.10275" lon="1.14255">
        <ele>121.2</ele>
        <time>2016-12-11T10:21:00Z</time>
      </trkpt>
      <trkpt lat="49.10283" lon="1.14266">
        <ele>121.3</ele>
        <time>2016-12-11T10:21:02Z</time>
      </trkpt>
      <trkpt lat="49.1029" lon="1.14279">
        <ele>121.4</ele>
        <time>2016-12-11T10:21:04Z</time>
      </trkpt>
      <trkpt lat="49.10297" lon="1.14291">
        <ele>121.5</ele>
        <time>2016-12-11T10:21:06Z</time>
      </trkpt>
      <trkpt lat="49.10303" lon="1.14303">
        <ele>121.6</ele>
        <time>2016-12-11T10:21:08Z</time>
      </trkpt>
      <trkpt lat="49.1031" lon="1.14317">
        <ele>121.7</ele>
        <time>2016-12-11T10:21:10Z</time>
      </trkpt>
      <trkpt lat="49.10316" lon="1.1433">
        <ele>121.8</ele>
        <time>2016-12-11T10:21:12Z</time>
      </trkpt>
      <trkpt lat="49.1032" lon="1.14344">
        <ele>121.9</ele>
        <time>2016-12-11T10:21:14Z</time>
      </trkpt>
      <trkpt lat="49.10324" lon="1.14357">
        <ele>122.1</ele>
        <time>2016-12-11T10:21:16Z</time>
      </trkpt>
      <trkpt lat="49.10328" lon="1.14371">
        <ele>122.2</ele>
        <time>2016-12-11T10:21:18Z</time>
      </trkpt>
      <trkpt lat="49.10331" lon="1.14384">
        <ele>122.4</ele>
        <time>2016-12-11T10:21:20Z</time>
      </trkpt>
      <trkpt lat="49.10335" lon="1.14402">
        <ele>122.6</ele>
        <time>2016-12-11T10:21:23Z</time>
      </trkpt>
      <trkpt lat="49.10339" lon="1.1442">
        <ele>122.8</ele>
        <time>2016-12-11T10:21:26Z</time>
      </trkpt>
      <trkpt lat="49.10341" lon="1.14439">
        <ele>123.1</ele>
        <time>2016-12-11T10:21:29Z</time>
      </trkpt>
      <trkpt lat="49.10343" lon="1.14454">
        <ele>123.4</ele>
        <time>2016-12-11T10:21:31Z</time>
      </trkpt>
      <trkpt lat="49.10345" lon="1.1447">
        <ele>123.6</ele>
        <time>2016-12-11T10:21:33Z</time>
      </trkpt>
      <trkpt lat="49.10346" lon="1.14487">
        <ele>123.8</ele>
        <time>2016-12-11T10:21:35Z</time>
      </trkpt>
      <trkpt lat="49.10345" lon="1.14505">
        <ele>124</ele>
        <time>2016-12-11T10:21:37Z</time>
      </trkpt>
      <trkpt lat="49.10345" lon="1.14522">
        <ele>124.2</ele>
        <time>2016-12-11T10:21:39Z</time>
      </trkpt>
      <trkpt lat="49.10343" lon="1.14538">
        <ele>124.4</ele>
        <time>2016-12-11T10:21:41Z</time>
      </trkpt>
      <trkpt lat="49.10342" lon="1.14554">
        <ele>124.5</ele>
        <time>2016-12-11T10:21:43Z</time>
      </trkpt>
      <trkpt lat="49.10344" lon="1.14572">
        <ele>124.6</ele>
        <time>2016-12-11T10:21:45Z</time>
      </trkpt>
      <trkpt lat="49.10351" lon="1.1459">
        <ele>124.8</ele>
        <time>2016-12-11T10:21:47Z</time>
      </trkpt>
      <trkpt lat="49.10359" lon="1.14611">
        <ele>124.9</ele>
        <time>2016-12-11T10:21:49Z</time>
      </trkpt>
      <trkpt lat="49.10365" lon="1.14623">
        <ele>125.1</ele>
        <time>2016-12-11T10:21:51Z</time>
      </trkpt>
      <trkpt lat="49.1036" lon="1.1464">
        <ele>125.2</ele>
        <time>2016-12-11T10:21:54Z</time>
      </trkpt>
      <trkpt lat="49.10353" lon="1.1465">
        <ele>125.3</ele>
        <time>2016-12-11T10:21:56Z</time>
      </trkpt>
      <trkpt lat="49.10346" lon="1.1466">
        <ele>125.4</ele>
        <time>2016-12-11T10:21:58Z</time>
      </trkpt>
      <trkpt lat="49.10338" lon="1.14671">
        <ele>125.5</ele>
        <time>2016-12-11T10:22:00Z</time>
      </trkpt>
      <trkpt lat="49.10331" lon="1.14682">
        <ele>125.6</ele>
        <time>2016-12-11T10:22:02Z</time>
      </trkpt>
      <trkpt lat="49.10323" lon="1.14693">
        <ele>125.7</ele>
        <time>2016-12-11T10:22:04Z</time>
      </trkpt>
      <trkpt lat="49.10315" lon="1.14704">
        <ele>125.8</ele>
        <time>2016-12-11T10:22:06Z</time>
      </trkpt>
      <trkpt lat="49.10307" lon="1.14716">
        <ele>125.9</ele>
        <time>2016-12-11T10:22:08Z</time>
      </trkpt>
      <trkpt lat="49.10298" lon="1.14727">
        <ele>126</ele>
        <time>2016-12-11T10:22:10Z</time>
      </trkpt>
      <trkpt lat="49.10289" lon="1.14739">
        <ele>126.1</ele>
        <time>2016-12-11T10:22:12Z</time>
      </trkpt>
      <trkpt lat="49.1028" lon="1.1475">
        <ele>126.2</ele>
        <time>2016-12-11T10:22:14Z</time>
      </trkpt>
      <trkpt lat="49.10271" lon="1.1476">
        <ele>126.2</ele>
        <time>2016-12-11T10:22:16Z</time>
      </trkpt>
      <trkpt lat="49.10262" lon="1.14771">
        <ele>126.3</ele>
        <time>2016-12-11T10:22:18Z</time>
      </trkpt>
      <trkpt lat="49.10253" lon="1.14781">
        <ele>126.4</ele>
        <time>2016-12-11T10:22:20Z</time>
      </trkpt>
      <trkpt lat="49.10244" lon="1.14791">
        <ele>126.4</ele>
        <time>2016-12-11T10:22:22Z</time>
      </trkpt>
      <trkpt lat="49.10236" lon="1.14802">
        <ele>126.5</ele>
        <time>2016-12-11T10:22:24Z</time>
      </trkpt>
      <trkpt lat="49.10227" lon="1.14812">
        <ele>126.5</ele>
        <time>2016-12-11T10:22:26Z</time>
      </trkpt>
      <trkpt lat="49.10218" lon="1.14823">
        <ele>126.6</ele>
        <time>2016-12-11T10:22:28Z</time>
      </trkpt>
      <trkpt lat="49.1021" lon="1.14834">
        <ele>126.6</ele>
        <time>2016-12-11T10:22:30Z</time>
      </trkpt>
      <trkpt lat="49.10203" lon="1.14845">
        <ele>126.7</ele>
        <time>2016-12-11T10:22:32Z</time>
      </trkpt>
      <trkpt lat="49.10195" lon="1.14858">
        <ele>126.7</ele>
        <time>2016-12-11T10:22:34Z</time>
      </trkpt>
      <trkpt lat="49.10188" lon="1.1487">
        <ele>126.7</ele>
        <time>2016-12-11T10:22:36Z</time>
      </trkpt>
      <trkpt lat="49.10181" lon="1.14884">
        <ele>126.7</ele>
        <time>2016-12-11T10:22:38Z</time>
      </trkpt>
      <trkpt lat="49.10173" lon="1.14897">
        <ele>126.8</ele>
        <time>2016-12-11T10:22:40Z</time>
      </trkpt>
      <trkpt lat="49.10166" lon="1.14911">
        <ele>126.8</ele>
        <time>2016-12-11T10:22:42Z</time>
      </trkpt>
      <trkpt lat="49.10159" lon="1.14925">
        <ele>126.9</ele>
        <time>2016-12-11T10:22:44Z</time>
      </trkpt>
      <trkpt lat="49.10152" lon="1.14938">
        <ele>127</ele>
        <time>2016-12-11T10:22:46Z</time>
      </trkpt>
      <trkpt lat="49.10144" lon="1.14949">
        <ele>127.1</ele>
        <time>2016-12-11T10:22:48Z</time>
      </trkpt>
      <trkpt lat="49.10135" lon="1.14956">
        <ele>127.3</ele>
        <time>2016-12-11T10:22:50Z</time>
      </trkpt>
      <trkpt lat="49.10124" lon="1.14961">
        <ele>127.4</ele>
        <time>2016-12-11T10:22:52Z</time>
      </trkpt>
      <trkpt lat="49.10113" lon="1.14964">
        <ele>127.5</ele>
        <time>2016-12-11T10:22:54Z</time>
      </trkpt>
      <trkpt lat="49.10103" lon="1.14968">
        <ele>127.6</ele>
        <time>2016-12-11T10:22:56Z</time>
      </trkpt>
      <trkpt lat="49.10094" lon="1.14972">
        <ele>127.7</ele>
        <time>2016-12-11T10:22:58Z</time>
      </trkpt>
      <trkpt lat="49.10084" lon="1.14978">
        <ele>127.8</ele>
        <time>2016-12-11T10:23:00Z</time>
      </trkpt>
      <trkpt lat="49.10074" lon="1.14983">
        <ele>127.8</ele>
        <time>2016-12-11T10:23:02Z</time>
      </trkpt>
      <trkpt lat="49.10064" lon="1.14989">
        <ele>127.8</ele>
        <time>2016-12-11T10:23:04Z</time>
      </trkpt>
      <trkpt lat="49.10053" lon="1.14995">
        <ele>127.9</ele>
        <time>2016-12-11T10:23:06Z</time>
      </trkpt>
      <trkpt lat="49.10042" lon="1.15002">
        <ele>127.9</ele>
        <time>2016-12-11T10:23:08Z</time>
      </trkpt>
      <trkpt lat="49.10032" lon="1.15009">
        <ele>127.9</ele>
        <time>2016-12-11T10:23:10Z</time>
      </trkpt>
      <trkpt lat="49.10022" lon="1.15016">
        <ele>127.9</ele>
        <time>2016-12-11T10:23:12Z</time>
      </trkpt>
      <trkpt lat="49.10012" lon="1.15022">
        <ele>128</ele>
        <time>2016-12-11T10:23:14Z</time>
      </trkpt>
      <trkpt lat="49.10001" lon="1.15028">
        <ele>128</ele>
        <time>2016-12-11T10:23:16Z</time>
      </trkpt>
      <trkpt lat="49.09991" lon="1.15035">
        <ele>128</ele>
        <time>2016-12-11T10:23:18Z</time>
      </trkpt>
      <trkpt lat="49.09981" lon="1.15043">
        <ele>127.9</ele>
        <time>2016-12-11T10:23:20Z</time>
      </trkpt>
      <trkpt lat="49.0997" lon="1.15051">
        <ele>127.9</ele>
        <time>2016-12-11T10:23:22Z</time>
      </trkpt>
      <trkpt lat="49.0996" lon="1.1506">
        <ele>127.9</ele>
        <time>2016-12-11T10:23:24Z</time>
      </trkpt>
      <trkpt lat="49.09952" lon="1.1507">
        <ele>127.8</ele>
        <time>2016-12-11T10:23:26Z</time>
      </trkpt>
      <trkpt lat="49.09945" lon="1.15081">
        <ele>127.8</ele>
        <time>2016-12-11T10:23:28Z</time>
      </trkpt>
      <trkpt lat="49.0994" lon="1.15094">
        <ele>127.8</ele>
        <time>2016-12-11T10:23:30Z</time>
      </trkpt>
      <trkpt lat="49.09936" lon="1.15109">
        <ele>127.8</ele>
        <time>2016-12-11T10:23:32Z</time>
      </trkpt>
      <trkpt lat="49.09933" lon="1.15123">
        <ele>127.8</ele>
        <time>2016-12-11T10:23:34Z</time>
      </trkpt>
      <trkpt lat="49.0993" lon="1.15137">
        <ele>127.8</ele>
        <time>2016-12-11T10:23:36Z</time>
      </trkpt>
      <trkpt lat="49.09927" lon="1.15152">
        <ele>127.8</ele>
        <time>2016-12-11T10:23:38Z</time>
      </trkpt>
      <trkpt lat="49.09924" lon="1.15167">
        <ele>127.8</ele>
        <time>2016-12-11T10:23:40Z</time>
      </trkpt>
      <trkpt lat="49.09921" lon="1.15181">
        <ele>127.8</ele>
        <time>2016-12-11T10:23:42Z</time>
      </trkpt>
      <trkpt lat="49.09917" lon="1.15195">
        <ele>127.8</ele>
        <time>2016-12-11T10:23:44Z</time>
      </trkpt>
      <trkpt lat="49.09914" lon="1.15211">
        <ele>127.8</ele>
        <time>2016-12-11T10:23:46Z</time>
      </trkpt>
      <trkpt lat="49.09911" lon="1.15227">
        <ele>127.8</ele>
        <time>2016-12-11T10:23:48Z</time>
      </trkpt>
      <trkpt lat="49.09908" lon="1.15242">
        <ele>127.8</ele>
        <time>2016-12-11T10:23:50Z</time>
      </trkpt>
      <trkpt lat="49.09905" lon="1.15257">
        <ele>127.8</ele>
        <time>2016-12-11T10:23:52Z</time>
      </trkpt>
      <trkpt lat="49.09895" lon="1.15266">
        <ele>127.8</ele>
        <time>2016-12-11T10:23:55Z</time>
      </trkpt>
      <trkpt lat="49.09884" lon="1.15258">
        <ele>127.8</ele>
        <time>2016-12-11T10:23:58Z</time>
      </trkpt>
      <trkpt lat="49.09875" lon="1.15251">
        <ele>127.8</ele>
        <time>2016-12-11T10:24:00Z</time>
      </trkpt>
      <trkpt lat="49.09865" lon="1.15243">
        <ele>127.7</ele>
        <time>2016-12-11T10:24:02Z</time>
      </trkpt>
      <trkpt lat="49.09855" lon="1.15234">
        <ele>127.7</ele>
        <time>2016-12-11T10:24:04Z</time>
      </trkpt>
      <trkpt lat="49.09846" lon="1.15225">
        <ele>127.7</ele>
        <time>2016-12-11T10:24:06Z</time>
      </trkpt>
      <trkpt lat="49.09837" lon="1.15216">
        <ele>127.5</ele>
        <time>2016-12-11T10:24:08Z</time>
      </trkpt>
      <trkpt lat="49.09827" lon="1.15205">
        <ele>127.4</ele>
        <time>2016-12-11T10:24:10Z</time>
      </trkpt>
      <trkpt lat="49.09817" lon="1.15196">
        <ele>127.3</ele>
        <time>2016-12-11T10:24:12Z</time>
      </trkpt>
      <trkpt lat="49.09806" lon="1.15189">
        <ele>127.3</ele>
        <time>2016-12-11T10:24:14Z</time>
      </trkpt>
      <trkpt lat="49.09795" lon="1.15183">
        <ele>127.2</ele>
        <time>2016-12-11T10:24:16Z</time>
      </trkpt>
      <trkpt lat="49.09784" lon="1.15174">
        <ele>127.1</ele>
        <time>2016-12-11T10:24:18Z</time>
      </trkpt>
      <trkpt lat="49.09776" lon="1.15162">
        <ele>127.1</ele>
        <time>2016-12-11T10:24:20Z</time>
      </trkpt>
      <trkpt lat="49.09767" lon="1.15152">
        <ele>127.1</ele>
        <time>2016-12-11T10:24:22Z</time>
      </trkpt>
      <trkpt lat="49.09757" lon="1.15144">
        <ele>127.1</ele>
        <time>2016-12-11T10:24:24Z</time>
      </trkpt>
      <trkpt lat="49.09747" lon="1.15138">
        <ele>127.2</ele>
        <time>2016-12-11T10:24:26Z</time>
      </trkpt>
      <trkpt lat="49.09738" lon="1.15131">
        <ele>127.2</ele>
        <time>2016-12-11T10:24:28Z</time>
      </trkpt>
      <trkpt lat="49.0973" lon="1.15125">
        <ele>127.3</ele>
        <time>2016-12-11T10:24:30Z</time>
      </trkpt>
      <trkpt lat="49.09721" lon="1.15115">
        <ele>127.3</ele>
        <time>2016-12-11T10:24:33Z</time>
      </trkpt>
      <trkpt lat="49.09724" lon="1.15101">
        <ele>127.4</ele>
        <time>2016-12-11T10:24:37Z</time>
      </trkpt>
      <trkpt lat="49.09728" lon="1.15089">
        <ele>127.5</ele>
        <time>2016-12-11T10:24:41Z</time>
      </trkpt>
      <trkpt lat="49.09731" lon="1.15074">
        <ele>127.5</ele>
        <time>2016-12-11T10:24:44Z</time>
      </trkpt>
      <trkpt lat="49.09729" lon="1.15057">
        <ele>127.5</ele>
        <time>2016-12-11T10:24:47Z</time>
      </trkpt>
      <trkpt lat="49.09723" lon="1.1504">
        <ele>127.6</ele>
        <time>2016-12-11T10:24:50Z</time>
      </trkpt>
      <trkpt lat="49.09715" lon="1.15024">
        <ele>127.6</ele>
        <time>2016-12-11T10:24:53Z</time>
      </trkpt>
      <trkpt lat="49.09705" lon="1.15021">
        <ele>127.7</ele>
        <time>2016-12-11T10:24:56Z</time>
      </trkpt>
      <trkpt lat="49.09695" lon="1.1503">
        <ele>127.9</ele>
        <time>2016-12-11T10:24:59Z</time>
      </trkpt>
      <trkpt lat="49.09684" lon="1.15037">
        <ele>128</ele>
        <time>2016-12-11T10:25:02Z</time>
      </trkpt>
      <trkpt lat="49.09671" lon="1.15043">
        <ele>128.1</ele>
        <time>2016-12-11T10:25:05Z</time>
      </trkpt>
      <trkpt lat="49.09657" lon="1.15048">
        <ele>128.2</ele>
        <time>2016-12-11T10:25:08Z</time>
      </trkpt>
      <trkpt lat="49.09648" lon="1.1505">
        <ele>128.3</ele>
        <time>2016-12-11T10:25:10Z</time>
      </trkpt>
      <trkpt lat="49.09639" lon="1.15053">
        <ele>128.4</ele>
        <time>2016-12-11T10:25:12Z</time>
      </trkpt>
      <trkpt lat="49.09628" lon="1.15056">
        <ele>128.4</ele>
        <time>2016-12-11T10:25:14Z</time>
      </trkpt>
      <trkpt lat="49.09618" lon="1.1506">
        <ele>128.5</ele>
        <time>2016-12-11T10:25:16Z</time>
      </trkpt>
      <trkpt lat="49.09608" lon="1.15063">
        <ele>128.5</ele>
        <time>2016-12-11T10:25:18Z</time>
      </trkpt>
      <trkpt lat="49.09598" lon="1.15064">
        <ele>128.5</ele>
        <time>2016-12-11T10:25:20Z</time>
      </trkpt>
      <trkpt lat="49.09587" lon="1.15062">
        <ele>128.6</ele>
        <time>2016-12-11T10:25:22Z</time>
      </trkpt>
      <trkpt lat="49.09576" lon="1.15059">
        <ele>128.6</ele>
        <time>2016-12-11T10:25:24Z</time>
      </trkpt>
      <trkpt lat="49.09565" lon="1.15055">
        <ele>128.7</ele>
        <time>2016-12-11T10:25:26Z</time>
      </trkpt>
      <trkpt lat="49.09553" lon="1.15052">
        <ele>128.7</ele>
        <time>2016-12-11T10:25:28Z</time>
      </trkpt>
      <trkpt lat="49.09542" lon="1.15049">
        <ele>128.8</ele>
        <time>2016-12-11T10:25:30Z</time>
      </trkpt>
      <trkpt lat="49.09532" lon="1.15045">
        <ele>128.8</ele>
        <time>2016-12-11T10:25:32Z</time>
      </trkpt>
      <trkpt lat="49.09521" lon="1.15042">
        <ele>128.9</ele>
        <time>2016-12-11T10:25:34Z</time>
      </trkpt>
      <trkpt lat="49.0951" lon="1.15041">
        <ele>129.1</ele>
        <time>2016-12-11T10:25:36Z</time>
      </trkpt>
      <trkpt lat="49.09499" lon="1.1504">
        <ele>129.2</ele>
        <time>2016-12-11T10:25:38Z</time>
      </trkpt>
      <trkpt lat="49.09488" lon="1.15039">
        <ele>129.3</ele>
        <time>2016-12-11T10:25:40Z</time>
      </trkpt>
      <trkpt lat="49.09479" lon="1.15039">
        <ele>129.5</ele>
        <time>2016-12-11T10:25:42Z</time>
      </trkpt>
      <trkpt lat="49.09471" lon="1.15047">
        <ele>129.7</ele>
        <time>2016-12-11T10:25:45Z</time>
      </trkpt>
      <trkpt lat="49.09469" lon="1.15062">
        <ele>129.8</ele>
        <time>2016-12-11T10:25:49Z</time>
      </trkpt>
      <trkpt lat="49.09461" lon="1.15072">
        <ele>130</ele>
        <time>2016-12-11T10:25:55Z</time>
      </trkpt>
      <trkpt lat="49.09457" lon="1.15087">
        <ele>130.1</ele>
        <time>2016-12-11T10:25:58Z</time>
      </trkpt>
      <trkpt lat="49.09453" lon="1.15104">
        <ele>130.2</ele>
        <time>2016-12-11T10:26:01Z</time>
      </trkpt>
      <trkpt lat="49.09447" lon="1.15122">
        <ele>130.3</ele>
        <time>2016-12-11T10:26:04Z</time>
      </trkpt>
      <trkpt lat="49.09444" lon="1.15138">
        <ele>130.4</ele>
        <time>2016-12-11T10:26:06Z</time>
      </trkpt>
      <trkpt lat="49.09441" lon="1.15155">
        <ele>130.5</ele>
        <time>2016-12-11T10:26:08Z</time>
      </trkpt>
      <trkpt lat="49.09441" lon="1.15174">
        <ele>130.6</ele>
        <time>2016-12-11T10:26:10Z</time>
      </trkpt>
      <trkpt lat="49.09437" lon="1.15191">
        <ele>130.8</ele>
        <time>2016-12-11T10:26:12Z</time>
      </trkpt>
      <trkpt lat="49.09437" lon="1.15206">
        <ele>131</ele>
        <time>2016-12-11T10:26:14Z</time>
      </trkpt>
      <trkpt lat="49.09435" lon="1.15221">
        <ele>131.2</ele>
        <time>2016-12-11T10:26:16Z</time>
      </trkpt>
      <trkpt lat="49.09433" lon="1.1524">
        <ele>131.5</ele>
        <time>2016-12-11T10:26:19Z</time>
      </trkpt>
      <trkpt lat="49.0943" lon="1.15255">
        <ele>131.7</ele>
        <time>2016-12-11T10:26:22Z</time>
      </trkpt>
      <trkpt lat="49.09427" lon="1.15269">
        <ele>131.8</ele>
        <time>2016-12-11T10:26:24Z</time>
      </trkpt>
      <trkpt lat="49.0942" lon="1.15282">
        <ele>131.9</ele>
        <time>2016-12-11T10:26:26Z</time>
      </trkpt>
      <trkpt lat="49.09414" lon="1.15296">
        <ele>132.1</ele>
        <time>2016-12-11T10:26:28Z</time>
      </trkpt>
      <trkpt lat="49.09405" lon="1.15307">
        <ele>132.4</ele>
        <time>2016-12-11T10:26:31Z</time>
      </trkpt>
      <trkpt lat="49.09396" lon="1.15316">
        <ele>132.6</ele>
        <time>2016-12-11T10:26:33Z</time>
      </trkpt>
      <trkpt lat="49.09388" lon="1.15331">
        <ele>132.7</ele>
        <time>2016-12-11T10:26:35Z</time>
      </trkpt>
      <trkpt lat="49.09381" lon="1.1534">
        <ele>132.8</ele>
        <time>2016-12-11T10:26:37Z</time>
      </trkpt>
      <trkpt lat="49.09373" lon="1.15349">
        <ele>133</ele>
        <time>2016-12-11T10:26:39Z</time>
      </trkpt>
      <trkpt lat="49.09364" lon="1.15357">
        <ele>133.2</ele>
        <time>2016-12-11T10:26:41Z</time>
      </trkpt>
      <trkpt lat="49.09354" lon="1.15365">
        <ele>133.3</ele>
        <time>2016-12-11T10:26:43Z</time>
      </trkpt>
      <trkpt lat="49.09344" lon="1.15372">
        <ele>133.5</ele>
        <time>2016-12-11T10:26:45Z</time>
      </trkpt>
      <trkpt lat="49.09334" lon="1.15383">
        <ele>133.6</ele>
        <time>2016-12-11T10:26:47Z</time>
      </trkpt>
      <trkpt lat="49.09323" lon="1.15396">
        <ele>133.7</ele>
        <time>2016-12-11T10:26:49Z</time>
      </trkpt>
      <trkpt lat="49.09315" lon="1.1541">
        <ele>133.8</ele>
        <time>2016-12-11T10:26:51Z</time>
      </trkpt>
      <trkpt lat="49.0931" lon="1.15423">
        <ele>133.9</ele>
        <time>2016-12-11T10:26:53Z</time>
      </trkpt>
      <trkpt lat="49.09304" lon="1.15436">
        <ele>133.9</ele>
        <time>2016-12-11T10:26:55Z</time>
      </trkpt>
      <trkpt lat="49.09298" lon="1.15448">
        <ele>134</ele>
        <time>2016-12-11T10:26:57Z</time>
      </trkpt>
      <trkpt lat="49.09288" lon="1.15464">
        <ele>134.1</ele>
        <time>2016-12-11T10:27:00Z</time>
      </trkpt>
      <trkpt lat="49.09282" lon="1.1548">
        <ele>134.1</ele>
        <time>2016-12-11T10:27:02Z</time>
      </trkpt>
      <trkpt lat="49.09274" lon="1.15493">
        <ele>134.2</ele>
        <time>2016-12-11T10:27:04Z</time>
      </trkpt>
      <trkpt lat="49.09267" lon="1.15505">
        <ele>134.3</ele>
        <time>2016-12-11T10:27:06Z</time>
      </trkpt>
      <trkpt lat="49.09259" lon="1.15519">
        <ele>134.4</ele>
        <time>2016-12-11T10:27:08Z</time>
      </trkpt>
      <trkpt lat="49.09253" lon="1.15533">
        <ele>134.6</ele>
        <time>2016-12-11T10:27:10Z</time>
      </trkpt>
      <trkpt lat="49.09247" lon="1.15545">
        <ele>134.7</ele>
        <time>2016-12-11T10:27:12Z</time>
      </trkpt>
      <trkpt lat="49.0924" lon="1.15557">
        <ele>134.8</ele>
        <time>2016-12-11T10:27:14Z</time>
      </trkpt>
      <trkpt lat="49.09234" lon="1.15568">
        <ele>134.8</ele>
        <time>2016-12-11T10:27:16Z</time>
      </trkpt>
      <trkpt lat="49.09225" lon="1.15584">
        <ele>134.9</ele>
        <time>2016-12-11T10:27:19Z</time>
      </trkpt>
      <trkpt lat="49.09216" lon="1.156">
        <ele>135.1</ele>
        <time>2016-12-11T10:27:22Z</time>
      </trkpt>
      <trkpt lat="49.09211" lon="1.15612">
        <ele>135.2</ele>
        <time>2016-12-11T10:27:24Z</time>
      </trkpt>
      <trkpt lat="49.09205" lon="1.15623">
        <ele>135.3</ele>
        <time>2016-12-11T10:27:26Z</time>
      </trkpt>
      <trkpt lat="49.092" lon="1.15635">
        <ele>135.4</ele>
        <time>2016-12-11T10:27:28Z</time>
      </trkpt>
      <trkpt lat="49.09194" lon="1.15647">
        <ele>135.5</ele>
        <time>2016-12-11T10:27:30Z</time>
      </trkpt>
      <trkpt lat="49.09188" lon="1.1566">
        <ele>135.6</ele>
        <time>2016-12-11T10:27:32Z</time>
      </trkpt>
      <trkpt lat="49.09182" lon="1.15672">
        <ele>135.7</ele>
        <time>2016-12-11T10:27:34Z</time>
      </trkpt>
      <trkpt lat="49.09175" lon="1.15683">
        <ele>135.8</ele>
        <time>2016-12-11T10:27:36Z</time>
      </trkpt>
      <trkpt lat="49.09167" lon="1.157">
        <ele>135.9</ele>
        <time>2016-12-11T10:27:39Z</time>
      </trkpt>
      <trkpt lat="49.0916" lon="1.1571">
        <ele>136.1</ele>
        <time>2016-12-11T10:27:41Z</time>
      </trkpt>
      <trkpt lat="49.09154" lon="1.15721">
        <ele>136.2</ele>
        <time>2016-12-11T10:27:43Z</time>
      </trkpt>
      <trkpt lat="49.09147" lon="1.15734">
        <ele>136.3</ele>
        <time>2016-12-11T10:27:45Z</time>
      </trkpt>
      <trkpt lat="49.09141" lon="1.15749">
        <ele>136.5</ele>
        <time>2016-12-11T10:27:47Z</time>
      </trkpt>
      <trkpt lat="49.09134" lon="1.15764">
        <ele>136.6</ele>
        <time>2016-12-11T10:27:49Z</time>
      </trkpt>
      <trkpt lat="49.09126" lon="1.15781">
        <ele>136.7</ele>
        <time>2016-12-11T10:27:51Z</time>
      </trkpt>
      <trkpt lat="49.09121" lon="1.15795">
        <ele>136.8</ele>
        <time>2016-12-11T10:27:53Z</time>
      </trkpt>
      <trkpt lat="49.09113" lon="1.15808">
        <ele>136.9</ele>
        <time>2016-12-11T10:27:55Z</time>
      </trkpt>
      <trkpt lat="49.09106" lon="1.1582">
        <ele>136.9</ele>
        <time>2016-12-11T10:27:57Z</time>
      </trkpt>
      <trkpt lat="49.09099" lon="1.1583">
        <ele>137</ele>
        <time>2016-12-11T10:27:59Z</time>
      </trkpt>
      <trkpt lat="49.09092" lon="1.15844">
        <ele>137.1</ele>
        <time>2016-12-11T10:28:01Z</time>
      </trkpt>
      <trkpt lat="49.09083" lon="1.15858">
        <ele>137.1</ele>
        <time>2016-12-11T10:28:03Z</time>
      </trkpt>
      <trkpt lat="49.09076" lon="1.15872">
        <ele>137.2</ele>
        <time>2016-12-11T10:28:05Z</time>
      </trkpt>
      <trkpt lat="49.09067" lon="1.15884">
        <ele>137.2</ele>
        <time>2016-12-11T10:28:07Z</time>
      </trkpt>
      <trkpt lat="49.0906" lon="1.15897">
        <ele>137.3</ele>
        <time>2016-12-11T10:28:09Z</time>
      </trkpt>
      <trkpt lat="49.09055" lon="1.15911">
        <ele>137.3</ele>
        <time>2016-12-11T10:28:11Z</time>
      </trkpt>
      <trkpt lat="49.09049" lon="1.15924">
        <ele>137.4</ele>
        <time>2016-12-11T10:28:13Z</time>
      </trkpt>
      <trkpt lat="49.09041" lon="1.15936">
        <ele>137.5</ele>
        <time>2016-12-11T10:28:15Z</time>
      </trkpt>
      <trkpt lat="49.09033" lon="1.15949">
        <ele>137.5</ele>
        <time>2016-12-11T10:28:17Z</time>
      </trkpt>
      <trkpt lat="49.09027" lon="1.15962">
        <ele>137.6</ele>
        <time>2016-12-11T10:28:19Z</time>
      </trkpt>
      <trkpt lat="49.09021" lon="1.15975">
        <ele>137.7</ele>
        <time>2016-12-11T10:28:21Z</time>
      </trkpt>
      <trkpt lat="49.09014" lon="1.15988">
        <ele>137.7</ele>
        <time>2016-12-11T10:28:23Z</time>
      </trkpt>
      <trkpt lat="49.09008" lon="1.16001">
        <ele>137.8</ele>
        <time>2016-12-11T10:28:25Z</time>
      </trkpt>
      <trkpt lat="49.09001" lon="1.16012">
        <ele>137.9</ele>
        <time>2016-12-11T10:28:27Z</time>
      </trkpt>
      <trkpt lat="49.08993" lon="1.16024">
        <ele>138</ele>
        <time>2016-12-11T10:28:29Z</time>
      </trkpt>
      <trkpt lat="49.08987" lon="1.16037">
        <ele>138.1</ele>
        <time>2016-12-11T10:28:31Z</time>
      </trkpt>
      <trkpt lat="49.08981" lon="1.16049">
        <ele>138.2</ele>
        <time>2016-12-11T10:28:33Z</time>
      </trkpt>
      <trkpt lat="49.08975" lon="1.16061">
        <ele>138.3</ele>
        <time>2016-12-11T10:28:35Z</time>
      </trkpt>
      <trkpt lat="49.08968" lon="1.16073">
        <ele>138.4</ele>
        <time>2016-12-11T10:28:37Z</time>
      </trkpt>
      <trkpt lat="49.08963" lon="1.16084">
        <ele>138.7</ele>
        <time>2016-12-11T10:28:39Z</time>
      </trkpt>
      <trkpt lat="49.08957" lon="1.16096">
        <ele>138.9</ele>
        <time>2016-12-11T10:28:41Z</time>
      </trkpt>
      <trkpt lat="49.08951" lon="1.16107">
        <ele>139</ele>
        <time>2016-12-11T10:28:43Z</time>
      </trkpt>
      <trkpt lat="49.08945" lon="1.1612">
        <ele>139.1</ele>
        <time>2016-12-11T10:28:45Z</time>
      </trkpt>
      <trkpt lat="49.08939" lon="1.16134">
        <ele>139.2</ele>
        <time>2016-12-11T10:28:47Z</time>
      </trkpt>
      <trkpt lat="49.08933" lon="1.16147">
        <ele>139.4</ele>
        <time>2016-12-11T10:28:49Z</time>
      </trkpt>
      <trkpt lat="49.08927" lon="1.1616">
        <ele>139.5</ele>
        <time>2016-12-11T10:28:51Z</time>
      </trkpt>
      <trkpt lat="49.08921" lon="1.16171">
        <ele>139.5</ele>
        <time>2016-12-11T10:28:53Z</time>
      </trkpt>
      <trkpt lat="49.08915" lon="1.16184">
        <ele>139.6</ele>
        <time>2016-12-11T10:28:55Z</time>
      </trkpt>
      <trkpt lat="49.08909" lon="1.16196">
        <ele>139.6</ele>
        <time>2016-12-11T10:28:57Z</time>
      </trkpt>
      <trkpt lat="49.08902" lon="1.16209">
        <ele>139.6</ele>
        <time>2016-12-11T10:28:59Z</time>
      </trkpt>
      <trkpt lat="49.08895" lon="1.16222">
        <ele>139.7</ele>
        <time>2016-12-11T10:29:01Z</time>
      </trkpt>
      <trkpt lat="49.08888" lon="1.16234">
        <ele>139.7</ele>
        <time>2016-12-11T10:29:03Z</time>
      </trkpt>
      <trkpt lat="49.08881" lon="1.16247">
        <ele>139.8</ele>
        <time>2016-12-11T10:29:05Z</time>
      </trkpt>
      <trkpt lat="49.08874" lon="1.16262">
        <ele>139.9</ele>
        <time>2016-12-11T10:29:07Z</time>
      </trkpt>
      <trkpt lat="49.08867" lon="1.16276">
        <ele>140</ele>
        <time>2016-12-11T10:29:09Z</time>
      </trkpt>
      <trkpt lat="49.08859" lon="1.1629">
        <ele>140.1</ele>
        <time>2016-12-11T10:29:11Z</time>
      </trkpt>
      <trkpt lat="49.08853" lon="1.16303">
        <ele>140.2</ele>
        <time>2016-12-11T10:29:13Z</time>
      </trkpt>
      <trkpt lat="49.08846" lon="1.16317">
        <ele>140.2</ele>
        <time>2016-12-11T10:29:15Z</time>
      </trkpt>
      <trkpt lat="49.08838" lon="1.16332">
        <ele>140.3</ele>
        <time>2016-12-11T10:29:17Z</time>
      </trkpt>
      <trkpt lat="49.0883" lon="1.16345">
        <ele>140.3</ele>
        <time>2016-12-11T10:29:19Z</time>
      </trkpt>
      <trkpt lat="49.08822" lon="1.1636">
        <ele>140.4</ele>
        <time>2016-12-11T10:29:21Z</time>
      </trkpt>
      <trkpt lat="49.08815" lon="1.16375">
        <ele>140.4</ele>
        <time>2016-12-11T10:29:23Z</time>
      </trkpt>
      <trkpt lat="49.08808" lon="1.1639">
        <ele>140.5</ele>
        <time>2016-12-11T10:29:25Z</time>
      </trkpt>
      <trkpt lat="49.08799" lon="1.16402">
        <ele>140.5</ele>
        <time>2016-12-11T10:29:27Z</time>
      </trkpt>
      <trkpt lat="49.08791" lon="1.16415">
        <ele>140.6</ele>
        <time>2016-12-11T10:29:29Z</time>
      </trkpt>
      <trkpt lat="49.08784" lon="1.16429">
        <ele>140.6</ele>
        <time>2016-12-11T10:29:31Z</time>
      </trkpt>
      <trkpt lat="49.08777" lon="1.16446">
        <ele>140.7</ele>
        <time>2016-12-11T10:29:33Z</time>
      </trkpt>
      <trkpt lat="49.08768" lon="1.16462">
        <ele>140.7</ele>
        <time>2016-12-11T10:29:35Z</time>
      </trkpt>
      <trkpt lat="49.0876" lon="1.16477">
        <ele>140.7</ele>
        <time>2016-12-11T10:29:37Z</time>
      </trkpt>
      <trkpt lat="49.08752" lon="1.16491">
        <ele>140.7</ele>
        <time>2016-12-11T10:29:39Z</time>
      </trkpt>
      <trkpt lat="49.08746" lon="1.16506">
        <ele>140.8</ele>
        <time>2016-12-11T10:29:41Z</time>
      </trkpt>
      <trkpt lat="49.08739" lon="1.16521">
        <ele>140.8</ele>
        <time>2016-12-11T10:29:43Z</time>
      </trkpt>
      <trkpt lat="49.08734" lon="1.16536">
        <ele>140.8</ele>
        <time>2016-12-11T10:29:45Z</time>
      </trkpt>
      <trkpt lat="49.08736" lon="1.16554">
        <ele>140.8</ele>
        <time>2016-12-11T10:29:47Z</time>
      </trkpt>
      <trkpt lat="49.08741" lon="1.16572">
        <ele>140.9</ele>
        <time>2016-12-11T10:29:49Z</time>
      </trkpt>
      <trkpt lat="49.08746" lon="1.16592">
        <ele>140.9</ele>
        <time>2016-12-11T10:29:51Z</time>
      </trkpt>
      <trkpt lat="49.08751" lon="1.16609">
        <ele>140.9</ele>
        <time>2016-12-11T10:29:53Z</time>
      </trkpt>
      <trkpt lat="49.08756" lon="1.16627">
        <ele>141</ele>
        <time>2016-12-11T10:29:55Z</time>
      </trkpt>
      <trkpt lat="49.08761" lon="1.16645">
        <ele>141</ele>
        <time>2016-12-11T10:29:57Z</time>
      </trkpt>
      <trkpt lat="49.08766" lon="1.16663">
        <ele>141.1</ele>
        <time>2016-12-11T10:29:59Z</time>
      </trkpt>
      <trkpt lat="49.08772" lon="1.1668">
        <ele>141.2</ele>
        <time>2016-12-11T10:30:01Z</time>
      </trkpt>
      <trkpt lat="49.08778" lon="1.16697">
        <ele>141.3</ele>
        <time>2016-12-11T10:30:03Z</time>
      </trkpt>
      <trkpt lat="49.08782" lon="1.16715">
        <ele>141.4</ele>
        <time>2016-12-11T10:30:05Z</time>
      </trkpt>
      <trkpt lat="49.08782" lon="1.16732">
        <ele>141.5</ele>
        <time>2016-12-11T10:30:07Z</time>
      </trkpt>
      <trkpt lat="49.08777" lon="1.16744">
        <ele>141.6</ele>
        <time>2016-12-11T10:30:09Z</time>
      </trkpt>
      <trkpt lat="49.08769" lon="1.16754">
        <ele>141.6</ele>
        <time>2016-12-11T10:30:11Z</time>
      </trkpt>
      <trkpt lat="49.08759" lon="1.16763">
        <ele>141.7</ele>
        <time>2016-12-11T10:30:13Z</time>
      </trkpt>
      <trkpt lat="49.0875" lon="1.16775">
        <ele>141.7</ele>
        <time>2016-12-11T10:30:15Z</time>
      </trkpt>
      <trkpt lat="49.08741" lon="1.16789">
        <ele>141.8</ele>
        <time>2016-12-11T10:30:17Z</time>
      </trkpt>
      <trkpt lat="49.08735" lon="1.16805">
        <ele>141.8</ele>
        <time>2016-12-11T10:30:19Z</time>
      </trkpt>
      <trkpt lat="49.0873" lon="1.16823">
        <ele>141.8</ele>
        <time>2016-12-11T10:30:21Z</time>
      </trkpt>
      <trkpt lat="49.08726" lon="1.1684">
        <ele>141.9</ele>
        <time>2016-12-11T10:30:23Z</time>
      </trkpt>
      <trkpt lat="49.08722" lon="1.16858">
        <ele>141.9</ele>
        <time>2016-12-11T10:30:25Z</time>
      </trkpt>
      <trkpt lat="49.08719" lon="1.16876">
        <ele>141.9</ele>
        <time>2016-12-11T10:30:27Z</time>
      </trkpt>
      <trkpt lat="49.08717" lon="1.16892">
        <ele>141.9</ele>
        <time>2016-12-11T10:30:29Z</time>
      </trkpt>
      <trkpt lat="49.08716" lon="1.16908">
        <ele>141.9</ele>
        <time>2016-12-11T10:30:31Z</time>
      </trkpt>
      <trkpt lat="49.08714" lon="1.16924">
        <ele>142</ele>
        <time>2016-12-11T10:30:33Z</time>
      </trkpt>
      <trkpt lat="49.08711" lon="1.16938">
        <ele>142</ele>
        <time>2016-12-11T10:30:35Z</time>
      </trkpt>
      <trkpt lat="49.08707" lon="1.16952">
        <ele>142.1</ele>
        <time>2016-12-11T10:30:37Z</time>
      </trkpt>
      <trkpt lat="49.08704" lon="1.16964">
        <ele>142.1</ele>
        <time>2016-12-11T10:30:39Z</time>
      </trkpt>
      <trkpt lat="49.08699" lon="1.16978">
        <ele>142.1</ele>
        <time>2016-12-11T10:30:41Z</time>
      </trkpt>
      <trkpt lat="49.08693" lon="1.1699">
        <ele>142.1</ele>
        <time>2016-12-11T10:30:43Z</time>
      </trkpt>
      <trkpt lat="49.08685" lon="1.17001">
        <ele>142.2</ele>
        <time>2016-12-11T10:30:45Z</time>
      </trkpt>
      <trkpt lat="49.08677" lon="1.17009">
        <ele>142.2</ele>
        <time>2016-12-11T10:30:47Z</time>
      </trkpt>
      <trkpt lat="49.0867" lon="1.17017">
        <ele>142.2</ele>
        <time>2016-12-11T10:30:49Z</time>
      </trkpt>
      <trkpt lat="49.08661" lon="1.17027">
        <ele>142.2</ele>
        <time>2016-12-11T10:30:51Z</time>
      </trkpt>
      <trkpt lat="49.08654" lon="1.1704">
        <ele>142.2</ele>
        <time>2016-12-11T10:30:53Z</time>
      </trkpt>
      <trkpt lat="49.08648" lon="1.17056">
        <ele>142.2</ele>
        <time>2016-12-11T10:30:55Z</time>
      </trkpt>
      <trkpt lat="49.08643" lon="1.17072">
        <ele>142.1</ele>
        <time>2016-12-11T10:30:57Z</time>
      </trkpt>
      <trkpt lat="49.08638" lon="1.17086">
        <ele>142.1</ele>
        <time>2016-12-11T10:30:59Z</time>
      </trkpt>
      <trkpt lat="49.08631" lon="1.17101">
        <ele>142.1</ele>
        <time>2016-12-11T10:31:01Z</time>
      </trkpt>
      <trkpt lat="49.08625" lon="1.17115">
        <ele>142</ele>
        <time>2016-12-11T10:31:03Z</time>
      </trkpt>
      <trkpt lat="49.08619" lon="1.17129">
        <ele>142</ele>
        <time>2016-12-11T10:31:05Z</time>
      </trkpt>
      <trkpt lat="49.08616" lon="1.17144">
        <ele>142</ele>
        <time>2016-12-11T10:31:07Z</time>
      </trkpt>
      <trkpt lat="49.08617" lon="1.1716">
        <ele>141.9</ele>
        <time>2016-12-11T10:31:09Z</time>
      </trkpt>
      <trkpt lat="49.0862" lon="1.17174">
        <ele>141.9</ele>
        <time>2016-12-11T10:31:11Z</time>
      </trkpt>
      <trkpt lat="49.08624" lon="1.17193">
        <ele>141.9</ele>
        <time>2016-12-11T10:31:14Z</time>
      </trkpt>
      <trkpt lat="49.08629" lon="1.17213">
        <ele>141.9</ele>
        <time>2016-12-11T10:31:17Z</time>
      </trkpt>
      <trkpt lat="49.08631" lon="1.17228">
        <ele>141.8</ele>
        <time>2016-12-11T10:31:19Z</time>
      </trkpt>
      <trkpt lat="49.08634" lon="1.17243">
        <ele>141.8</ele>
        <time>2016-12-11T10:31:21Z</time>
      </trkpt>
      <trkpt lat="49.08637" lon="1.17257">
        <ele>141.7</ele>
        <time>2016-12-11T10:31:23Z</time>
      </trkpt>
      <trkpt lat="49.08642" lon="1.17276">
        <ele>141.6</ele>
        <time>2016-12-11T10:31:26Z</time>
      </trkpt>
      <trkpt lat="49.08646" lon="1.17293">
        <ele>141.5</ele>
        <time>2016-12-11T10:31:29Z</time>
      </trkpt>
      <trkpt lat="49.08648" lon="1.17312">
        <ele>141.6</ele>
        <time>2016-12-11T10:31:32Z</time>
      </trkpt>
      <trkpt lat="49.08652" lon="1.17328">
        <ele>141.6</ele>
        <time>2016-12-11T10:31:35Z</time>
      </trkpt>
      <trkpt lat="49.08656" lon="1.17342">
        <ele>141.7</ele>
        <time>2016-12-11T10:31:37Z</time>
      </trkpt>
      <trkpt lat="49.08659" lon="1.17361">
        <ele>141.7</ele>
        <time>2016-12-11T10:31:40Z</time>
      </trkpt>
      <trkpt lat="49.08663" lon="1.17378">
        <ele>141.7</ele>
        <time>2016-12-11T10:31:42Z</time>
      </trkpt>
      <trkpt lat="49.08666" lon="1.17392">
        <ele>141.7</ele>
        <time>2016-12-11T10:31:44Z</time>
      </trkpt>
      <trkpt lat="49.08668" lon="1.17405">
        <ele>141.8</ele>
        <time>2016-12-11T10:31:46Z</time>
      </trkpt>
      <trkpt lat="49.0867" lon="1.17419">
        <ele>141.8</ele>
        <time>2016-12-11T10:31:48Z</time>
      </trkpt>
      <trkpt lat="49.08673" lon="1.17436">
        <ele>141.8</ele>
        <time>2016-12-11T10:31:50Z</time>
      </trkpt>
      <trkpt lat="49.08672" lon="1.17453">
        <ele>141.8</ele>
        <time>2016-12-11T10:31:52Z</time>
      </trkpt>
      <trkpt lat="49.08662" lon="1.17464">
        <ele>141.8</ele>
        <time>2016-12-11T10:31:55Z</time>
      </trkpt>
      <trkpt lat="49.0865" lon="1.17472">
        <ele>141.8</ele>
        <time>2016-12-11T10:31:58Z</time>
      </trkpt>
      <trkpt lat="49.08637" lon="1.17479">
        <ele>141.8</ele>
        <time>2016-12-11T10:32:01Z</time>
      </trkpt>
      <trkpt lat="49.08629" lon="1.17484">
        <ele>141.8</ele>
        <time>2016-12-11T10:32:03Z</time>
      </trkpt>
      <trkpt lat="49.08616" lon="1.17492">
        <ele>141.8</ele>
        <time>2016-12-11T10:32:06Z</time>
      </trkpt>
      <trkpt lat="49.08607" lon="1.17497">
        <ele>141.8</ele>
        <time>2016-12-11T10:32:08Z</time>
      </trkpt>
      <trkpt lat="49.08599" lon="1.17502">
        <ele>141.8</ele>
        <time>2016-12-11T10:32:10Z</time>
      </trkpt>
      <trkpt lat="49.08589" lon="1.17508">
        <ele>141.8</ele>
        <time>2016-12-11T10:32:12Z</time>
      </trkpt>
      <trkpt lat="49.0858" lon="1.17513">
        <ele>141.7</ele>
        <time>2016-12-11T10:32:14Z</time>
      </trkpt>
      <trkpt lat="49.08571" lon="1.17517">
        <ele>141.6</ele>
        <time>2016-12-11T10:32:16Z</time>
      </trkpt>
      <trkpt lat="49.08562" lon="1.17522">
        <ele>141.5</ele>
        <time>2016-12-11T10:32:18Z</time>
      </trkpt>
      <trkpt lat="49.08553" lon="1.17527">
        <ele>141.5</ele>
        <time>2016-12-11T10:32:20Z</time>
      </trkpt>
      <trkpt lat="49.08543" lon="1.17533">
        <ele>141.4</ele>
        <time>2016-12-11T10:32:23Z</time>
      </trkpt>
      <trkpt lat="49.08533" lon="1.17538">
        <ele>141.4</ele>
        <time>2016-12-11T10:32:26Z</time>
      </trkpt>
      <trkpt lat="49.08522" lon="1.1755">
        <ele>141.3</ele>
        <time>2016-12-11T10:32:29Z</time>
      </trkpt>
      <trkpt lat="49.08515" lon="1.17559">
        <ele>141.2</ele>
        <time>2016-12-11T10:32:31Z</time>
      </trkpt>
      <trkpt lat="49.08509" lon="1.17569">
        <ele>141.2</ele>
        <time>2016-12-11T10:32:33Z</time>
      </trkpt>
      <trkpt lat="49.08501" lon="1.1758">
        <ele>141.2</ele>
        <time>2016-12-11T10:32:35Z</time>
      </trkpt>
      <trkpt lat="49.08494" lon="1.1759">
        <ele>141.1</ele>
        <time>2016-12-11T10:32:37Z</time>
      </trkpt>
      <trkpt lat="49.08487" lon="1.176">
        <ele>141.1</ele>
        <time>2016-12-11T10:32:39Z</time>
      </trkpt>
      <trkpt lat="49.0848" lon="1.17609">
        <ele>141</ele>
        <time>2016-12-11T10:32:41Z</time>
      </trkpt>
      <trkpt lat="49.08472" lon="1.17619">
        <ele>140.9</ele>
        <time>2016-12-11T10:32:43Z</time>
      </trkpt>
      <trkpt lat="49.08465" lon="1.1763">
        <ele>140.8</ele>
        <time>2016-12-11T10:32:45Z</time>
      </trkpt>
      <trkpt lat="49.08458" lon="1.17639">
        <ele>140.8</ele>
        <time>2016-12-11T10:32:47Z</time>
      </trkpt>
      <trkpt lat="49.0845" lon="1.17649">
        <ele>140.7</ele>
        <time>2016-12-11T10:32:49Z</time>
      </trkpt>
      <trkpt lat="49.08443" lon="1.17659">
        <ele>140.7</ele>
        <time>2016-12-11T10:32:51Z</time>
      </trkpt>
      <trkpt lat="49.08435" lon="1.17669">
        <ele>140.6</ele>
        <time>2016-12-11T10:32:53Z</time>
      </trkpt>
      <trkpt lat="49.08428" lon="1.17678">
        <ele>140.6</ele>
        <time>2016-12-11T10:32:55Z</time>
      </trkpt>
      <trkpt lat="49.0842" lon="1.17686">
        <ele>140.6</ele>
        <time>2016-12-11T10:32:57Z</time>
      </trkpt>
      <trkpt lat="49.0841" lon="1.17699">
        <ele>140.4</ele>
        <time>2016-12-11T10:33:00Z</time>
      </trkpt>
      <trkpt lat="49.08402" lon="1.17708">
        <ele>140.3</ele>
        <time>2016-12-11T10:33:02Z</time>
      </trkpt>
      <trkpt lat="49.08392" lon="1.17714">
        <ele>140.2</ele>
        <time>2016-12-11T10:33:04Z</time>
      </trkpt>
      <trkpt lat="49.08382" lon="1.17717">
        <ele>140.1</ele>
        <time>2016-12-11T10:33:06Z</time>
      </trkpt>
      <trkpt lat="49.08373" lon="1.1772">
        <ele>140.1</ele>
        <time>2016-12-11T10:33:08Z</time>
      </trkpt>
      <trkpt lat="49.08364" lon="1.1773">
        <ele>140</ele>
        <time>2016-12-11T10:33:11Z</time>
      </trkpt>
      <trkpt lat="49.08354" lon="1.17744">
        <ele>140</ele>
        <time>2016-12-11T10:33:14Z</time>
      </trkpt>
      <trkpt lat="49.08346" lon="1.17756">
        <ele>139.9</ele>
        <time>2016-12-11T10:33:16Z</time>
      </trkpt>
      <trkpt lat="49.08337" lon="1.17767">
        <ele>139.9</ele>
        <time>2016-12-11T10:33:18Z</time>
      </trkpt>
      <trkpt lat="49.0833" lon="1.17777">
        <ele>139.9</ele>
        <time>2016-12-11T10:33:20Z</time>
      </trkpt>
      <trkpt lat="49.08322" lon="1.17786">
        <ele>139.9</ele>
        <time>2016-12-11T10:33:22Z</time>
      </trkpt>
      <trkpt lat="49.08312" lon="1.17789">
        <ele>139.9</ele>
        <time>2016-12-11T10:33:24Z</time>
      </trkpt>
      <trkpt lat="49.08301" lon="1.17791">
        <ele>139.9</ele>
        <time>2016-12-11T10:33:26Z</time>
      </trkpt>
      <trkpt lat="49.08291" lon="1.17798">
        <ele>139.8</ele>
        <time>2016-12-11T10:33:28Z</time>
      </trkpt>
      <trkpt lat="49.08282" lon="1.17806">
        <ele>139.8</ele>
        <time>2016-12-11T10:33:30Z</time>
      </trkpt>
      <trkpt lat="49.08273" lon="1.17815">
        <ele>139.8</ele>
        <time>2016-12-11T10:33:32Z</time>
      </trkpt>
      <trkpt lat="49.08265" lon="1.17825">
        <ele>139.8</ele>
        <time>2016-12-11T10:33:34Z</time>
      </trkpt>
      <trkpt lat="49.08257" lon="1.17834">
        <ele>139.8</ele>
        <time>2016-12-11T10:33:36Z</time>
      </trkpt>
      <trkpt lat="49.08247" lon="1.17844">
        <ele>139.8</ele>
        <time>2016-12-11T10:33:38Z</time>
      </trkpt>
      <trkpt lat="49.08237" lon="1.17855">
        <ele>139.8</ele>
        <time>2016-12-11T10:33:40Z</time>
      </trkpt>
      <trkpt lat="49.08227" lon="1.17866">
        <ele>139.8</ele>
        <time>2016-12-11T10:33:42Z</time>
      </trkpt>
      <trkpt lat="49.08216" lon="1.17878">
        <ele>139.8</ele>
        <time>2016-12-11T10:33:44Z</time>
      </trkpt>
      <trkpt lat="49.08205" lon="1.17892">
        <ele>139.8</ele>
        <time>2016-12-11T10:33:46Z</time>
      </trkpt>
      <trkpt lat="49.08193" lon="1.17904">
        <ele>139.8</ele>
        <time>2016-12-11T10:33:48Z</time>
      </trkpt>
      <trkpt lat="49.08181" lon="1.17914">
        <ele>139.8</ele>
        <time>2016-12-11T10:33:50Z</time>
      </trkpt>
      <trkpt lat="49.08168" lon="1.1792">
        <ele>139.8</ele>
        <time>2016-12-11T10:33:52Z</time>
      </trkpt>
      <trkpt lat="49.08155" lon="1.17921">
        <ele>139.8</ele>
        <time>2016-12-11T10:33:54Z</time>
      </trkpt>
      <trkpt lat="49.08142" lon="1.17921">
        <ele>139.8</ele>
        <time>2016-12-11T10:33:56Z</time>
      </trkpt>
      <trkpt lat="49.08129" lon="1.17924">
        <ele>139.8</ele>
        <time>2016-12-11T10:33:58Z</time>
      </trkpt>
      <trkpt lat="49.08116" lon="1.17924">
        <ele>139.8</ele>
        <time>2016-12-11T10:34:00Z</time>
      </trkpt>
      <trkpt lat="49.08103" lon="1.17914">
        <ele>139.8</ele>
        <time>2016-12-11T10:34:02Z</time>
      </trkpt>
      <trkpt lat="49.08092" lon="1.179">
        <ele>139.8</ele>
        <time>2016-12-11T10:34:04Z</time>
      </trkpt>
      <trkpt lat="49.08081" lon="1.17886">
        <ele>139.7</ele>
        <time>2016-12-11T10:34:06Z</time>
      </trkpt>
      <trkpt lat="49.08069" lon="1.17876">
        <ele>139.7</ele>
        <time>2016-12-11T10:34:08Z</time>
      </trkpt>
      <trkpt lat="49.08055" lon="1.17866">
        <ele>139.7</ele>
        <time>2016-12-11T10:34:10Z</time>
      </trkpt>
      <trkpt lat="49.08038" lon="1.17853">
        <ele>139.6</ele>
        <time>2016-12-11T10:34:12Z</time>
      </trkpt>
      <trkpt lat="49.08031" lon="1.17844">
        <ele>139.6</ele>
        <time>2016-12-11T10:34:13Z</time>
      </trkpt>
      <trkpt lat="49.08023" lon="1.17836">
        <ele>139.6</ele>
        <time>2016-12-11T10:34:14Z</time>
      </trkpt>
      <trkpt lat="49.08016" lon="1.17824">
        <ele>139.5</ele>
        <time>2016-12-11T10:34:15Z</time>
      </trkpt>
      <trkpt lat="49.08009" lon="1.17813">
        <ele>139.5</ele>
        <time>2016-12-11T10:34:16Z</time>
      </trkpt>
      <trkpt lat="49.08003" lon="1.178">
        <ele>139.4</ele>
        <time>2016-12-11T10:34:17Z</time>
      </trkpt>
      <trkpt lat="49.07996" lon="1.17787">
        <ele>139.4</ele>
        <time>2016-12-11T10:34:18Z</time>
      </trkpt>
      <trkpt lat="49.0799" lon="1.17774">
        <ele>139.3</ele>
        <time>2016-12-11T10:34:19Z</time>
      </trkpt>
      <trkpt lat="49.07983" lon="1.17762">
        <ele>139.3</ele>
        <time>2016-12-11T10:34:20Z</time>
      </trkpt>
      <trkpt lat="49.07978" lon="1.17748">
        <ele>139.1</ele>
        <time>2016-12-11T10:34:21Z</time>
      </trkpt>
      <trkpt lat="49.07972" lon="1.17734">
        <ele>139</ele>
        <time>2016-12-11T10:34:22Z</time>
      </trkpt>
      <trkpt lat="49.07967" lon="1.1772">
        <ele>138.9</ele>
        <time>2016-12-11T10:34:23Z</time>
      </trkpt>
      <trkpt lat="49.07962" lon="1.17705">
        <ele>138.8</ele>
        <time>2016-12-11T10:34:24Z</time>
      </trkpt>
      <trkpt lat="49.07959" lon="1.17687">
        <ele>138.7</ele>
        <time>2016-12-11T10:34:25Z</time>
      </trkpt>
      <trkpt lat="49.07958" lon="1.17669">
        <ele>138.5</ele>
        <time>2016-12-11T10:34:26Z</time>
      </trkpt>
      <trkpt lat="49.07957" lon="1.17649">
        <ele>138.4</ele>
        <time>2016-12-11T10:34:27Z</time>
      </trkpt>
      <trkpt lat="49.07958" lon="1.17631">
        <ele>138.2</ele>
        <time>2016-12-11T10:34:28Z</time>
      </trkpt>
      <trkpt lat="49.07959" lon="1.17613">
        <ele>138</ele>
        <time>2016-12-11T10:34:29Z</time>
      </trkpt>
      <trkpt lat="49.07961" lon="1.17595">
        <ele>137.8</ele>
        <time>2016-12-11T10:34:30Z</time>
      </trkpt>
      <trkpt lat="49.07962" lon="1.17577">
        <ele>137.6</ele>
        <time>2016-12-11T10:34:31Z</time>
      </trkpt>
      <trkpt lat="49.07964" lon="1.17559">
        <ele>137.4</ele>
        <time>2016-12-11T10:34:32Z</time>
      </trkpt>
      <trkpt lat="49.07966" lon="1.1754">
        <ele>137.2</ele>
        <time>2016-12-11T10:34:33Z</time>
      </trkpt>
      <trkpt lat="49.07969" lon="1.17522">
        <ele>137</ele>
        <time>2016-12-11T10:34:34Z</time>
      </trkpt>
      <trkpt lat="49.07972" lon="1.17505">
        <ele>136.8</ele>
        <time>2016-12-11T10:34:35Z</time>
      </trkpt>
      <trkpt lat="49.07975" lon="1.17489">
        <ele>136.6</ele>
        <time>2016-12-11T10:34:36Z</time>
      </trkpt>
      <trkpt lat="49.07978" lon="1.17473">
        <ele>136.4</ele>
        <time>2016-12-11T10:34:37Z</time>
      </trkpt>
      <trkpt lat="49.07979" lon="1.17458">
        <ele>136.2</ele>
        <time>2016-12-11T10:34:38Z</time>
      </trkpt>
      <trkpt lat="49.07982" lon="1.17444">
        <ele>136</ele>
        <time>2016-12-11T10:34:39Z</time>
      </trkpt>
      <trkpt lat="49.07985" lon="1.17429">
        <ele>135.7</ele>
        <time>2016-12-11T10:34:40Z</time>
      </trkpt>
      <trkpt lat="49.07988" lon="1.17415">
        <ele>135.5</ele>
        <time>2016-12-11T10:34:41Z</time>
      </trkpt>
      <trkpt lat="49.07991" lon="1.17401">
        <ele>135.2</ele>
        <time>2016-12-11T10:34:42Z</time>
      </trkpt>
      <trkpt lat="49.07995" lon="1.17388">
        <ele>134.9</ele>
        <time>2016-12-11T10:34:43Z</time>
      </trkpt>
      <trkpt lat="49.07999" lon="1.17376">
        <ele>134.7</ele>
        <time>2016-12-11T10:34:44Z</time>
      </trkpt>
      <trkpt lat="49.08004" lon="1.17363">
        <ele>134.4</ele>
        <time>2016-12-11T10:34:45Z</time>
      </trkpt>
      <trkpt lat="49.08009" lon="1.1735">
        <ele>134.2</ele>
        <time>2016-12-11T10:34:46Z</time>
      </trkpt>
      <trkpt lat="49.08015" lon="1.17336">
        <ele>134</ele>
        <time>2016-12-11T10:34:47Z</time>
      </trkpt>
      <trkpt lat="49.08021" lon="1.17322">
        <ele>133.7</ele>
        <time>2016-12-11T10:34:48Z</time>
      </trkpt>
      <trkpt lat="49.08025" lon="1.17308">
        <ele>133.5</ele>
        <time>2016-12-11T10:34:49Z</time>
      </trkpt>
      <trkpt lat="49.08029" lon="1.17294">
        <ele>133.2</ele>
        <time>2016-12-11T10:34:50Z</time>
      </trkpt>
      <trkpt lat="49.08035" lon="1.17281">
        <ele>133</ele>
        <time>2016-12-11T10:34:51Z</time>
      </trkpt>
      <trkpt lat="49.0804" lon="1.17269">
        <ele>132.7</ele>
        <time>2016-12-11T10:34:52Z</time>
      </trkpt>
      <trkpt lat="49.08046" lon="1.17257">
        <ele>132.4</ele>
        <time>2016-12-11T10:34:53Z</time>
      </trkpt>
      <trkpt lat="49.08053" lon="1.17239">
        <ele>132.2</ele>
        <time>2016-12-11T10:34:54Z</time>
      </trkpt>
      <trkpt lat="49.08057" lon="1.17222">
        <ele>131.9</ele>
        <time>2016-12-11T10:34:55Z</time>
      </trkpt>
      <trkpt lat="49.08059" lon="1.17202">
        <ele>131.7</ele>
        <time>2016-12-11T10:34:56Z</time>
      </trkpt>
      <trkpt lat="49.0806" lon="1.17183">
        <ele>131.4</ele>
        <time>2016-12-11T10:34:57Z</time>
      </trkpt>
      <trkpt lat="49.08061" lon="1.17165">
        <ele>131.2</ele>
        <time>2016-12-11T10:34:58Z</time>
      </trkpt>
      <trkpt lat="49.0806" lon="1.17147">
        <ele>130.8</ele>
        <time>2016-12-11T10:34:59Z</time>
      </trkpt>
      <trkpt lat="49.08058" lon="1.1713">
        <ele>130.5</ele>
        <time>2016-12-11T10:35:00Z</time>
      </trkpt>
      <trkpt lat="49.08055" lon="1.17113">
        <ele>130.2</ele>
        <time>2016-12-11T10:35:01Z</time>
      </trkpt>
      <trkpt lat="49.08051" lon="1.17097">
        <ele>129.8</ele>
        <time>2016-12-11T10:35:02Z</time>
      </trkpt>
      <trkpt lat="49.08047" lon="1.17082">
        <ele>129.5</ele>
        <time>2016-12-11T10:35:03Z</time>
      </trkpt>
      <trkpt lat="49.08042" lon="1.17068">
        <ele>129.2</ele>
        <time>2016-12-11T10:35:04Z</time>
      </trkpt>
      <trkpt lat="49.08036" lon="1.17055">
        <ele>128.9</ele>
        <time>2016-12-11T10:35:05Z</time>
      </trkpt>
      <trkpt lat="49.08029" lon="1.17043">
        <ele>128.6</ele>
        <time>2016-12-11T10:35:06Z</time>
      </trkpt>
      <trkpt lat="49.08022" lon="1.17031">
        <ele>128.3</ele>
        <time>2016-12-11T10:35:07Z</time>
      </trkpt>
      <trkpt lat="49.08015" lon="1.1702">
        <ele>128</ele>
        <time>2016-12-11T10:35:08Z</time>
      </trkpt>
      <trkpt lat="49.08008" lon="1.17009">
        <ele>127.8</ele>
        <time>2016-12-11T10:35:09Z</time>
      </trkpt>
      <trkpt lat="49.08001" lon="1.16998">
        <ele>127.6</ele>
        <time>2016-12-11T10:35:10Z</time>
      </trkpt>
      <trkpt lat="49.07994" lon="1.16987">
        <ele>127.3</ele>
        <time>2016-12-11T10:35:11Z</time>
      </trkpt>
      <trkpt lat="49.07987" lon="1.16977">
        <ele>127.1</ele>
        <time>2016-12-11T10:35:12Z</time>
      </trkpt>
      <trkpt lat="49.07979" lon="1.16966">
        <ele>126.8</ele>
        <time>2016-12-11T10:35:13Z</time>
      </trkpt>
      <trkpt lat="49.07972" lon="1.16955">
        <ele>126.5</ele>
        <time>2016-12-11T10:35:14Z</time>
      </trkpt>
      <trkpt lat="49.07965" lon="1.16945">
        <ele>126.3</ele>
        <time>2016-12-11T10:35:15Z</time>
      </trkpt>
      <trkpt lat="49.07958" lon="1.16934">
        <ele>126</ele>
        <time>2016-12-11T10:35:16Z</time>
      </trkpt>
      <trkpt lat="49.07951" lon="1.16923">
        <ele>125.8</ele>
        <time>2016-12-11T10:35:17Z</time>
      </trkpt>
      <trkpt lat="49.07945" lon="1.16913">
        <ele>125.6</ele>
        <time>2016-12-11T10:35:18Z</time>
      </trkpt>
      <trkpt lat="49.07939" lon="1.16902">
        <ele>125.3</ele>
        <time>2016-12-11T10:35:19Z</time>
      </trkpt>
      <trkpt lat="49.07934" lon="1.1689">
        <ele>125.1</ele>
        <time>2016-12-11T10:35:20Z</time>
      </trkpt>
      <trkpt lat="49.07926" lon="1.16867">
        <ele>124.6</ele>
        <time>2016-12-11T10:35:22Z</time>
      </trkpt>
      <trkpt lat="49.07922" lon="1.16854">
        <ele>124.3</ele>
        <time>2016-12-11T10:35:23Z</time>
      </trkpt>
      <trkpt lat="49.07919" lon="1.16842">
        <ele>124</ele>
        <time>2016-12-11T10:35:24Z</time>
      </trkpt>
      <trkpt lat="49.07916" lon="1.16828">
        <ele>123.8</ele>
        <time>2016-12-11T10:35:25Z</time>
      </trkpt>
      <trkpt lat="49.07911" lon="1.16802">
        <ele>123.3</ele>
        <time>2016-12-11T10:35:27Z</time>
      </trkpt>
      <trkpt lat="49.07909" lon="1.16788">
        <ele>123.1</ele>
        <time>2016-12-11T10:35:28Z</time>
      </trkpt>
      <trkpt lat="49.07907" lon="1.16775">
        <ele>122.9</ele>
        <time>2016-12-11T10:35:29Z</time>
      </trkpt>
      <trkpt lat="49.07905" lon="1.16761">
        <ele>122.7</ele>
        <time>2016-12-11T10:35:30Z</time>
      </trkpt>
      <trkpt lat="49.07903" lon="1.16748">
        <ele>122.5</ele>
        <time>2016-12-11T10:35:31Z</time>
      </trkpt>
      <trkpt lat="49.07901" lon="1.16734">
        <ele>122.4</ele>
        <time>2016-12-11T10:35:32Z</time>
      </trkpt>
      <trkpt lat="49.07899" lon="1.1672">
        <ele>122.2</ele>
        <time>2016-12-11T10:35:33Z</time>
      </trkpt>
      <trkpt lat="49.07896" lon="1.16706">
        <ele>121.9</ele>
        <time>2016-12-11T10:35:34Z</time>
      </trkpt>
      <trkpt lat="49.07894" lon="1.16692">
        <ele>121.7</ele>
        <time>2016-12-11T10:35:35Z</time>
      </trkpt>
      <trkpt lat="49.07892" lon="1.16677">
        <ele>121.4</ele>
        <time>2016-12-11T10:35:36Z</time>
      </trkpt>
      <trkpt lat="49.07889" lon="1.16662">
        <ele>121.2</ele>
        <time>2016-12-11T10:35:37Z</time>
      </trkpt>
      <trkpt lat="49.07887" lon="1.16648">
        <ele>120.9</ele>
        <time>2016-12-11T10:35:38Z</time>
      </trkpt>
      <trkpt lat="49.07885" lon="1.16633">
        <ele>120.6</ele>
        <time>2016-12-11T10:35:39Z</time>
      </trkpt>
      <trkpt lat="49.07882" lon="1.16619">
        <ele>120.3</ele>
        <time>2016-12-11T10:35:40Z</time>
      </trkpt>
      <trkpt lat="49.0788" lon="1.16604">
        <ele>120</ele>
        <time>2016-12-11T10:35:41Z</time>
      </trkpt>
      <trkpt lat="49.07878" lon="1.16589">
        <ele>119.6</ele>
        <time>2016-12-11T10:35:42Z</time>
      </trkpt>
      <trkpt lat="49.07876" lon="1.16574">
        <ele>119.3</ele>
        <time>2016-12-11T10:35:43Z</time>
      </trkpt>
      <trkpt lat="49.07873" lon="1.16559">
        <ele>119</ele>
        <time>2016-12-11T10:35:44Z</time>
      </trkpt>
      <trkpt lat="49.07871" lon="1.16544">
        <ele>118.6</ele>
        <time>2016-12-11T10:35:45Z</time>
      </trkpt>
      <trkpt lat="49.07869" lon="1.1653">
        <ele>118.3</ele>
        <time>2016-12-11T10:35:46Z</time>
      </trkpt>
      <trkpt lat="49.07866" lon="1.16515">
        <ele>117.9</ele>
        <time>2016-12-11T10:35:47Z</time>
      </trkpt>
      <trkpt lat="49.07864" lon="1.165">
        <ele>117.5</ele>
        <time>2016-12-11T10:35:48Z</time>
      </trkpt>
      <trkpt lat="49.07862" lon="1.16486">
        <ele>117.2</ele>
        <time>2016-12-11T10:35:49Z</time>
      </trkpt>
      <trkpt lat="49.0786" lon="1.16472">
        <ele>116.8</ele>
        <time>2016-12-11T10:35:50Z</time>
      </trkpt>
      <trkpt lat="49.07857" lon="1.16446">
        <ele>115.9</ele>
        <time>2016-12-11T10:35:52Z</time>
      </trkpt>
      <trkpt lat="49.07853" lon="1.1642">
        <ele>115.1</ele>
        <time>2016-12-11T10:35:54Z</time>
      </trkpt>
      <trkpt lat="49.07849" lon="1.16399">
        <ele>114.3</ele>
        <time>2016-12-11T10:35:56Z</time>
      </trkpt>
      <trkpt lat="49.07844" lon="1.16381">
        <ele>113.5</ele>
        <time>2016-12-11T10:35:58Z</time>
      </trkpt>
      <trkpt lat="49.07836" lon="1.16363">
        <ele>112.7</ele>
        <time>2016-12-11T10:36:00Z</time>
      </trkpt>
      <trkpt lat="49.07826" lon="1.16347">
        <ele>111.9</ele>
        <time>2016-12-11T10:36:02Z</time>
      </trkpt>
      <trkpt lat="49.07817" lon="1.16329">
        <ele>111.2</ele>
        <time>2016-12-11T10:36:04Z</time>
      </trkpt>
      <trkpt lat="49.07808" lon="1.16311">
        <ele>110.4</ele>
        <time>2016-12-11T10:36:06Z</time>
      </trkpt>
      <trkpt lat="49.07797" lon="1.16291">
        <ele>109.7</ele>
        <time>2016-12-11T10:36:08Z</time>
      </trkpt>
      <trkpt lat="49.07786" lon="1.1627">
        <ele>109.1</ele>
        <time>2016-12-11T10:36:10Z</time>
      </trkpt>
      <trkpt lat="49.0778" lon="1.16258">
        <ele>108.7</ele>
        <time>2016-12-11T10:36:11Z</time>
      </trkpt>
      <trkpt lat="49.07774" lon="1.16248">
        <ele>108.3</ele>
        <time>2016-12-11T10:36:12Z</time>
      </trkpt>
      <trkpt lat="49.07768" lon="1.16236">
        <ele>107.9</ele>
        <time>2016-12-11T10:36:13Z</time>
      </trkpt>
      <trkpt lat="49.07762" lon="1.16225">
        <ele>107.5</ele>
        <time>2016-12-11T10:36:14Z</time>
      </trkpt>
      <trkpt lat="49.07756" lon="1.16213">
        <ele>107.1</ele>
        <time>2016-12-11T10:36:15Z</time>
      </trkpt>
      <trkpt lat="49.07749" lon="1.16201">
        <ele>106.7</ele>
        <time>2016-12-11T10:36:16Z</time>
      </trkpt>
      <trkpt lat="49.07743" lon="1.16189">
        <ele>106.3</ele>
        <time>2016-12-11T10:36:17Z</time>
      </trkpt>
      <trkpt lat="49.07737" lon="1.16177">
        <ele>105.9</ele>
        <time>2016-12-11T10:36:18Z</time>
      </trkpt>
      <trkpt lat="49.0773" lon="1.16166">
        <ele>105.4</ele>
        <time>2016-12-11T10:36:19Z</time>
      </trkpt>
      <trkpt lat="49.07723" lon="1.16156">
        <ele>105</ele>
        <time>2016-12-11T10:36:20Z</time>
      </trkpt>
      <trkpt lat="49.07717" lon="1.16145">
        <ele>104.6</ele>
        <time>2016-12-11T10:36:21Z</time>
      </trkpt>
      <trkpt lat="49.07711" lon="1.16135">
        <ele>104.2</ele>
        <time>2016-12-11T10:36:22Z</time>
      </trkpt>
      <trkpt lat="49.077" lon="1.16115">
        <ele>103.3</ele>
        <time>2016-12-11T10:36:24Z</time>
      </trkpt>
      <trkpt lat="49.0769" lon="1.16096">
        <ele>102.6</ele>
        <time>2016-12-11T10:36:26Z</time>
      </trkpt>
      <trkpt lat="49.0768" lon="1.16077">
        <ele>101.8</ele>
        <time>2016-12-11T10:36:28Z</time>
      </trkpt>
      <trkpt lat="49.0767" lon="1.16058">
        <ele>101.1</ele>
        <time>2016-12-11T10:36:30Z</time>
      </trkpt>
      <trkpt lat="49.07661" lon="1.1604">
        <ele>100.4</ele>
        <time>2016-12-11T10:36:32Z</time>
      </trkpt>
      <trkpt lat="49.07652" lon="1.16022">
        <ele>99.7</ele>
        <time>2016-12-11T10:36:34Z</time>
      </trkpt>
      <trkpt lat="49.07642" lon="1.16004">
        <ele>99.2</ele>
        <time>2016-12-11T10:36:36Z</time>
      </trkpt>
      <trkpt lat="49.07633" lon="1.15987">
        <ele>98.6</ele>
        <time>2016-12-11T10:36:38Z</time>
      </trkpt>
      <trkpt lat="49.07624" lon="1.1597">
        <ele>98.2</ele>
        <time>2016-12-11T10:36:40Z</time>
      </trkpt>
      <trkpt lat="49.07615" lon="1.15954">
        <ele>97.8</ele>
        <time>2016-12-11T10:36:42Z</time>
      </trkpt>
      <trkpt lat="49.07606" lon="1.15938">
        <ele>97.4</ele>
        <time>2016-12-11T10:36:44Z</time>
      </trkpt>
      <trkpt lat="49.07598" lon="1.15923">
        <ele>97.1</ele>
        <time>2016-12-11T10:36:46Z</time>
      </trkpt>
      <trkpt lat="49.0759" lon="1.15907">
        <ele>96.8</ele>
        <time>2016-12-11T10:36:48Z</time>
      </trkpt>
      <trkpt lat="49.07583" lon="1.15891">
        <ele>96.6</ele>
        <time>2016-12-11T10:36:50Z</time>
      </trkpt>
      <trkpt lat="49.07575" lon="1.15877">
        <ele>96.3</ele>
        <time>2016-12-11T10:36:52Z</time>
      </trkpt>
      <trkpt lat="49.07567" lon="1.15862">
        <ele>96.1</ele>
        <time>2016-12-11T10:36:54Z</time>
      </trkpt>
      <trkpt lat="49.0756" lon="1.15848">
        <ele>95.9</ele>
        <time>2016-12-11T10:36:56Z</time>
      </trkpt>
      <trkpt lat="49.07552" lon="1.15834">
        <ele>95.7</ele>
        <time>2016-12-11T10:36:58Z</time>
      </trkpt>
      <trkpt lat="49.07544" lon="1.1582">
        <ele>95.6</ele>
        <time>2016-12-11T10:37:00Z</time>
      </trkpt>
      <trkpt lat="49.07537" lon="1.15806">
        <ele>95.4</ele>
        <time>2016-12-11T10:37:02Z</time>
      </trkpt>
      <trkpt lat="49.07529" lon="1.15793">
        <ele>95.3</ele>
        <time>2016-12-11T10:37:04Z</time>
      </trkpt>
      <trkpt lat="49.07522" lon="1.15782">
        <ele>95.1</ele>
        <time>2016-12-11T10:37:06Z</time>
      </trkpt>
      <trkpt lat="49.07514" lon="1.15769">
        <ele>94.9</ele>
        <time>2016-12-11T10:37:08Z</time>
      </trkpt>
      <trkpt lat="49.07507" lon="1.15758">
        <ele>94.8</ele>
        <time>2016-12-11T10:37:10Z</time>
      </trkpt>
      <trkpt lat="49.07498" lon="1.15749">
        <ele>94.6</ele>
        <time>2016-12-11T10:37:13Z</time>
      </trkpt>
      <trkpt lat="49.07491" lon="1.15759">
        <ele>94.4</ele>
        <time>2016-12-11T10:37:19Z</time>
      </trkpt>
      <trkpt lat="49.07485" lon="1.15775">
        <ele>94</ele>
        <time>2016-12-11T10:37:23Z</time>
      </trkpt>
      <trkpt lat="49.07481" lon="1.15788">
        <ele>93.8</ele>
        <time>2016-12-11T10:37:26Z</time>
      </trkpt>
      <trkpt lat="49.07474" lon="1.15804">
        <ele>93.6</ele>
        <time>2016-12-11T10:37:29Z</time>
      </trkpt>
      <trkpt lat="49.07469" lon="1.15816">
        <ele>93.5</ele>
        <time>2016-12-11T10:37:31Z</time>
      </trkpt>
      <trkpt lat="49.07464" lon="1.15828">
        <ele>93.4</ele>
        <time>2016-12-11T10:37:33Z</time>
      </trkpt>
      <trkpt lat="49.07459" lon="1.15841">
        <ele>93.4</ele>
        <time>2016-12-11T10:37:35Z</time>
      </trkpt>
      <trkpt lat="49.07452" lon="1.15857">
        <ele>93.2</ele>
        <time>2016-12-11T10:37:38Z</time>
      </trkpt>
      <trkpt lat="49.07445" lon="1.15866">
        <ele>93.2</ele>
        <time>2016-12-11T10:37:40Z</time>
      </trkpt>
      <trkpt lat="49.07438" lon="1.15876">
        <ele>93.1</ele>
        <time>2016-12-11T10:37:42Z</time>
      </trkpt>
      <trkpt lat="49.07431" lon="1.15885">
        <ele>93</ele>
        <time>2016-12-11T10:37:44Z</time>
      </trkpt>
      <trkpt lat="49.07424" lon="1.15894">
        <ele>93</ele>
        <time>2016-12-11T10:37:46Z</time>
      </trkpt>
      <trkpt lat="49.07416" lon="1.15904">
        <ele>92.9</ele>
        <time>2016-12-11T10:37:48Z</time>
      </trkpt>
      <trkpt lat="49.07407" lon="1.15913">
        <ele>92.9</ele>
        <time>2016-12-11T10:37:50Z</time>
      </trkpt>
      <trkpt lat="49.07399" lon="1.15923">
        <ele>92.8</ele>
        <time>2016-12-11T10:37:52Z</time>
      </trkpt>
      <trkpt lat="49.07392" lon="1.15933">
        <ele>92.8</ele>
        <time>2016-12-11T10:37:54Z</time>
      </trkpt>
      <trkpt lat="49.07385" lon="1.15942">
        <ele>92.7</ele>
        <time>2016-12-11T10:37:56Z</time>
      </trkpt>
      <trkpt lat="49.07377" lon="1.15952">
        <ele>92.6</ele>
        <time>2016-12-11T10:37:58Z</time>
      </trkpt>
      <trkpt lat="49.0737" lon="1.15962">
        <ele>92.5</ele>
        <time>2016-12-11T10:38:00Z</time>
      </trkpt>
      <trkpt lat="49.07363" lon="1.15972">
        <ele>92.4</ele>
        <time>2016-12-11T10:38:02Z</time>
      </trkpt>
      <trkpt lat="49.07355" lon="1.15982">
        <ele>92.3</ele>
        <time>2016-12-11T10:38:04Z</time>
      </trkpt>
      <trkpt lat="49.07348" lon="1.15992">
        <ele>92.2</ele>
        <time>2016-12-11T10:38:06Z</time>
      </trkpt>
      <trkpt lat="49.0734" lon="1.16002">
        <ele>92.2</ele>
        <time>2016-12-11T10:38:08Z</time>
      </trkpt>
      <trkpt lat="49.07332" lon="1.16012">
        <ele>92.2</ele>
        <time>2016-12-11T10:38:10Z</time>
      </trkpt>
      <trkpt lat="49.07325" lon="1.16022">
        <ele>92.2</ele>
        <time>2016-12-11T10:38:12Z</time>
      </trkpt>
      <trkpt lat="49.07318" lon="1.16032">
        <ele>92.2</ele>
        <time>2016-12-11T10:38:14Z</time>
      </trkpt>
      <trkpt lat="49.0731" lon="1.16042">
        <ele>92.2</ele>
        <time>2016-12-11T10:38:16Z</time>
      </trkpt>
      <trkpt lat="49.07303" lon="1.16052">
        <ele>92.2</ele>
        <time>2016-12-11T10:38:18Z</time>
      </trkpt>
      <trkpt lat="49.07295" lon="1.16062">
        <ele>92.2</ele>
        <time>2016-12-11T10:38:20Z</time>
      </trkpt>
      <trkpt lat="49.07287" lon="1.16073">
        <ele>92.1</ele>
        <time>2016-12-11T10:38:22Z</time>
      </trkpt>
      <trkpt lat="49.07279" lon="1.16082">
        <ele>92.1</ele>
        <time>2016-12-11T10:38:24Z</time>
      </trkpt>
      <trkpt lat="49.07272" lon="1.16092">
        <ele>92.1</ele>
        <time>2016-12-11T10:38:26Z</time>
      </trkpt>
      <trkpt lat="49.07265" lon="1.16103">
        <ele>92.1</ele>
        <time>2016-12-11T10:38:28Z</time>
      </trkpt>
      <trkpt lat="49.07257" lon="1.16112">
        <ele>92.1</ele>
        <time>2016-12-11T10:38:30Z</time>
      </trkpt>
      <trkpt lat="49.0725" lon="1.16122">
        <ele>92.1</ele>
        <time>2016-12-11T10:38:32Z</time>
      </trkpt>
      <trkpt lat="49.07242" lon="1.16132">
        <ele>92.1</ele>
        <time>2016-12-11T10:38:34Z</time>
      </trkpt>
      <trkpt lat="49.07234" lon="1.16141">
        <ele>92</ele>
        <time>2016-12-11T10:38:36Z</time>
      </trkpt>
      <trkpt lat="49.07226" lon="1.16151">
        <ele>92</ele>
        <time>2016-12-11T10:38:38Z</time>
      </trkpt>
      <trkpt lat="49.07218" lon="1.16162">
        <ele>92</ele>
        <time>2016-12-11T10:38:40Z</time>
      </trkpt>
      <trkpt lat="49.07211" lon="1.16172">
        <ele>92</ele>
        <time>2016-12-11T10:38:42Z</time>
      </trkpt>
      <trkpt lat="49.07203" lon="1.16182">
        <ele>92</ele>
        <time>2016-12-11T10:38:44Z</time>
      </trkpt>
      <trkpt lat="49.07195" lon="1.16193">
        <ele>92</ele>
        <time>2016-12-11T10:38:46Z</time>
      </trkpt>
      <trkpt lat="49.07188" lon="1.16204">
        <ele>92</ele>
        <time>2016-12-11T10:38:48Z</time>
      </trkpt>
      <trkpt lat="49.0718" lon="1.16214">
        <ele>92</ele>
        <time>2016-12-11T10:38:50Z</time>
      </trkpt>
      <trkpt lat="49.07172" lon="1.16224">
        <ele>92</ele>
        <time>2016-12-11T10:38:52Z</time>
      </trkpt>
      <trkpt lat="49.07164" lon="1.16234">
        <ele>91.9</ele>
        <time>2016-12-11T10:38:54Z</time>
      </trkpt>
      <trkpt lat="49.07156" lon="1.16244">
        <ele>91.8</ele>
        <time>2016-12-11T10:38:56Z</time>
      </trkpt>
      <trkpt lat="49.07149" lon="1.16254">
        <ele>91.7</ele>
        <time>2016-12-11T10:38:58Z</time>
      </trkpt>
      <trkpt lat="49.07141" lon="1.16264">
        <ele>91.6</ele>
        <time>2016-12-11T10:39:00Z</time>
      </trkpt>
      <trkpt lat="49.07133" lon="1.16275">
        <ele>91.6</ele>
        <time>2016-12-11T10:39:02Z</time>
      </trkpt>
      <trkpt lat="49.07125" lon="1.16285">
        <ele>91.5</ele>
        <time>2016-12-11T10:39:04Z</time>
      </trkpt>
      <trkpt lat="49.07117" lon="1.16296">
        <ele>91.5</ele>
        <time>2016-12-11T10:39:06Z</time>
      </trkpt>
      <trkpt lat="49.07109" lon="1.16306">
        <ele>91.4</ele>
        <time>2016-12-11T10:39:08Z</time>
      </trkpt>
      <trkpt lat="49.07101" lon="1.16316">
        <ele>91.4</ele>
        <time>2016-12-11T10:39:10Z</time>
      </trkpt>
      <trkpt lat="49.07093" lon="1.16325">
        <ele>91.4</ele>
        <time>2016-12-11T10:39:12Z</time>
      </trkpt>
      <trkpt lat="49.07086" lon="1.16336">
        <ele>91.4</ele>
        <time>2016-12-11T10:39:14Z</time>
      </trkpt>
      <trkpt lat="49.07078" lon="1.16346">
        <ele>91.3</ele>
        <time>2016-12-11T10:39:16Z</time>
      </trkpt>
      <trkpt lat="49.0707" lon="1.16356">
        <ele>91.3</ele>
        <time>2016-12-11T10:39:18Z</time>
      </trkpt>
      <trkpt lat="49.07062" lon="1.16367">
        <ele>91.3</ele>
        <time>2016-12-11T10:39:20Z</time>
      </trkpt>
      <trkpt lat="49.07055" lon="1.16377">
        <ele>91.3</ele>
        <time>2016-12-11T10:39:22Z</time>
      </trkpt>
      <trkpt lat="49.07047" lon="1.16387">
        <ele>91.3</ele>
        <time>2016-12-11T10:39:24Z</time>
      </trkpt>
      <trkpt lat="49.07039" lon="1.16397">
        <ele>91.3</ele>
        <time>2016-12-11T10:39:26Z</time>
      </trkpt>
      <trkpt lat="49.07031" lon="1.16407">
        <ele>91.3</ele>
        <time>2016-12-11T10:39:28Z</time>
      </trkpt>
      <trkpt lat="49.07024" lon="1.16417">
        <ele>91.3</ele>
        <time>2016-12-11T10:39:30Z</time>
      </trkpt>
      <trkpt lat="49.07016" lon="1.16427">
        <ele>91.4</ele>
        <time>2016-12-11T10:39:32Z</time>
      </trkpt>
      <trkpt lat="49.07008" lon="1.16437">
        <ele>91.4</ele>
        <time>2016-12-11T10:39:34Z</time>
      </trkpt>
      <trkpt lat="49.07" lon="1.16447">
        <ele>91.4</ele>
        <time>2016-12-11T10:39:36Z</time>
      </trkpt>
      <trkpt lat="49.06993" lon="1.16457">
        <ele>91.4</ele>
        <time>2016-12-11T10:39:38Z</time>
      </trkpt>
      <trkpt lat="49.06985" lon="1.16467">
        <ele>91.5</ele>
        <time>2016-12-11T10:39:40Z</time>
      </trkpt>
      <trkpt lat="49.06978" lon="1.16477">
        <ele>91.5</ele>
        <time>2016-12-11T10:39:42Z</time>
      </trkpt>
      <trkpt lat="49.06971" lon="1.16487">
        <ele>91.5</ele>
        <time>2016-12-11T10:39:44Z</time>
      </trkpt>
      <trkpt lat="49.06964" lon="1.16497">
        <ele>91.5</ele>
        <time>2016-12-11T10:39:46Z</time>
      </trkpt>
      <trkpt lat="49.06957" lon="1.16506">
        <ele>91.6</ele>
        <time>2016-12-11T10:39:48Z</time>
      </trkpt>
      <trkpt lat="49.06949" lon="1.16516">
        <ele>91.6</ele>
        <time>2016-12-11T10:39:50Z</time>
      </trkpt>
      <trkpt lat="49.06941" lon="1.16527">
        <ele>91.6</ele>
        <time>2016-12-11T10:39:52Z</time>
      </trkpt>
      <trkpt lat="49.06934" lon="1.16537">
        <ele>91.7</ele>
        <time>2016-12-11T10:39:54Z</time>
      </trkpt>
      <trkpt lat="49.06926" lon="1.16547">
        <ele>91.7</ele>
        <time>2016-12-11T10:39:56Z</time>
      </trkpt>
      <trkpt lat="49.06918" lon="1.16557">
        <ele>91.7</ele>
        <time>2016-12-11T10:39:58Z</time>
      </trkpt>
      <trkpt lat="49.0691" lon="1.16567">
        <ele>91.8</ele>
        <time>2016-12-11T10:40:00Z</time>
      </trkpt>
      <trkpt lat="49.06902" lon="1.16577">
        <ele>91.8</ele>
        <time>2016-12-11T10:40:02Z</time>
      </trkpt>
      <trkpt lat="49.06894" lon="1.16588">
        <ele>91.8</ele>
        <time>2016-12-11T10:40:04Z</time>
      </trkpt>
      <trkpt lat="49.06887" lon="1.16599">
        <ele>91.8</ele>
        <time>2016-12-11T10:40:06Z</time>
      </trkpt>
      <trkpt lat="49.06879" lon="1.16609">
        <ele>91.9</ele>
        <time>2016-12-11T10:40:08Z</time>
      </trkpt>
      <trkpt lat="49.06872" lon="1.1662">
        <ele>91.9</ele>
        <time>2016-12-11T10:40:10Z</time>
      </trkpt>
      <trkpt lat="49.06864" lon="1.16631">
        <ele>91.9</ele>
        <time>2016-12-11T10:40:12Z</time>
      </trkpt>
      <trkpt lat="49.06856" lon="1.16641">
        <ele>91.9</ele>
        <time>2016-12-11T10:40:14Z</time>
      </trkpt>
      <trkpt lat="49.06848" lon="1.16652">
        <ele>91.9</ele>
        <time>2016-12-11T10:40:16Z</time>
      </trkpt>
      <trkpt lat="49.0684" lon="1.16663">
        <ele>91.9</ele>
        <time>2016-12-11T10:40:18Z</time>
      </trkpt>
      <trkpt lat="49.06833" lon="1.16673">
        <ele>91.9</ele>
        <time>2016-12-11T10:40:20Z</time>
      </trkpt>
      <trkpt lat="49.06825" lon="1.16684">
        <ele>91.8</ele>
        <time>2016-12-11T10:40:22Z</time>
      </trkpt>
      <trkpt lat="49.06817" lon="1.16695">
        <ele>91.7</ele>
        <time>2016-12-11T10:40:24Z</time>
      </trkpt>
      <trkpt lat="49.06809" lon="1.16706">
        <ele>91.7</ele>
        <time>2016-12-11T10:40:26Z</time>
      </trkpt>
      <trkpt lat="49.06802" lon="1.16715">
        <ele>91.7</ele>
        <time>2016-12-11T10:40:28Z</time>
      </trkpt>
      <trkpt lat="49.06793" lon="1.16726">
        <ele>91.7</ele>
        <time>2016-12-11T10:40:30Z</time>
      </trkpt>
      <trkpt lat="49.06784" lon="1.16737">
        <ele>91.7</ele>
        <time>2016-12-11T10:40:32Z</time>
      </trkpt>
      <trkpt lat="49.06776" lon="1.16749">
        <ele>91.7</ele>
        <time>2016-12-11T10:40:34Z</time>
      </trkpt>
      <trkpt lat="49.06768" lon="1.16759">
        <ele>91.7</ele>
        <time>2016-12-11T10:40:36Z</time>
      </trkpt>
      <trkpt lat="49.0676" lon="1.16771">
        <ele>91.7</ele>
        <time>2016-12-11T10:40:38Z</time>
      </trkpt>
      <trkpt lat="49.06752" lon="1.16781">
        <ele>91.6</ele>
        <time>2016-12-11T10:40:40Z</time>
      </trkpt>
      <trkpt lat="49.06744" lon="1.16792">
        <ele>91.6</ele>
        <time>2016-12-11T10:40:42Z</time>
      </trkpt>
      <trkpt lat="49.06736" lon="1.16803">
        <ele>91.6</ele>
        <time>2016-12-11T10:40:44Z</time>
      </trkpt>
      <trkpt lat="49.06728" lon="1.16813">
        <ele>91.6</ele>
        <time>2016-12-11T10:40:46Z</time>
      </trkpt>
      <trkpt lat="49.0672" lon="1.16824">
        <ele>91.6</ele>
        <time>2016-12-11T10:40:48Z</time>
      </trkpt>
      <trkpt lat="49.06711" lon="1.16836">
        <ele>91.6</ele>
        <time>2016-12-11T10:40:50Z</time>
      </trkpt>
      <trkpt lat="49.06703" lon="1.16846">
        <ele>91.7</ele>
        <time>2016-12-11T10:40:52Z</time>
      </trkpt>
      <trkpt lat="49.06696" lon="1.16857">
        <ele>91.6</ele>
        <time>2016-12-11T10:40:54Z</time>
      </trkpt>
      <trkpt lat="49.0669" lon="1.16871">
        <ele>91.6</ele>
        <time>2016-12-11T10:40:56Z</time>
      </trkpt>
      <trkpt lat="49.06686" lon="1.16885">
        <ele>91.5</ele>
        <time>2016-12-11T10:40:58Z</time>
      </trkpt>
      <trkpt lat="49.06684" lon="1.16899">
        <ele>91.5</ele>
        <time>2016-12-11T10:41:00Z</time>
      </trkpt>
      <trkpt lat="49.06678" lon="1.16911">
        <ele>91.5</ele>
        <time>2016-12-11T10:41:03Z</time>
      </trkpt>
      <trkpt lat="49.06669" lon="1.16905">
        <ele>91.5</ele>
        <time>2016-12-11T10:41:08Z</time>
      </trkpt>
      <trkpt lat="49.06664" lon="1.16893">
        <ele>91.5</ele>
        <time>2016-12-11T10:41:11Z</time>
      </trkpt>
      <trkpt lat="49.06659" lon="1.16877">
        <ele>91.4</ele>
        <time>2016-12-11T10:41:14Z</time>
      </trkpt>
      <trkpt lat="49.06654" lon="1.16865">
        <ele>91.4</ele>
        <time>2016-12-11T10:41:16Z</time>
      </trkpt>
      <trkpt lat="49.06648" lon="1.16851">
        <ele>91.4</ele>
        <time>2016-12-11T10:41:18Z</time>
      </trkpt>
      <trkpt lat="49.06642" lon="1.16836">
        <ele>91.4</ele>
        <time>2016-12-11T10:41:20Z</time>
      </trkpt>
      <trkpt lat="49.06636" lon="1.16822">
        <ele>91.4</ele>
        <time>2016-12-11T10:41:22Z</time>
      </trkpt>
      <trkpt lat="49.0663" lon="1.16807">
        <ele>91.4</ele>
        <time>2016-12-11T10:41:24Z</time>
      </trkpt>
      <trkpt lat="49.06624" lon="1.16793">
        <ele>91.4</ele>
        <time>2016-12-11T10:41:26Z</time>
      </trkpt>
      <trkpt lat="49.06618" lon="1.16778">
        <ele>91.4</ele>
        <time>2016-12-11T10:41:28Z</time>
      </trkpt>
      <trkpt lat="49.06612" lon="1.16765">
        <ele>91.4</ele>
        <time>2016-12-11T10:41:30Z</time>
      </trkpt>
      <trkpt lat="49.06606" lon="1.16752">
        <ele>91.3</ele>
        <time>2016-12-11T10:41:32Z</time>
      </trkpt>
      <trkpt lat="49.06602" lon="1.1674">
        <ele>91.3</ele>
        <time>2016-12-11T10:41:34Z</time>
      </trkpt>
      <trkpt lat="49.06597" lon="1.16727">
        <ele>91.2</ele>
        <time>2016-12-11T10:41:36Z</time>
      </trkpt>
      <trkpt lat="49.06591" lon="1.16714">
        <ele>91.2</ele>
        <time>2016-12-11T10:41:38Z</time>
      </trkpt>
      <trkpt lat="49.06586" lon="1.167">
        <ele>91.1</ele>
        <time>2016-12-11T10:41:40Z</time>
      </trkpt>
      <trkpt lat="49.0658" lon="1.16686">
        <ele>91.1</ele>
        <time>2016-12-11T10:41:42Z</time>
      </trkpt>
      <trkpt lat="49.06574" lon="1.16672">
        <ele>91</ele>
        <time>2016-12-11T10:41:44Z</time>
      </trkpt>
      <trkpt lat="49.06568" lon="1.16658">
        <ele>91</ele>
        <time>2016-12-11T10:41:46Z</time>
      </trkpt>
      <trkpt lat="49.06563" lon="1.16644">
        <ele>91</ele>
        <time>2016-12-11T10:41:48Z</time>
      </trkpt>
      <trkpt lat="49.06557" lon="1.1663">
        <ele>91</ele>
        <time>2016-12-11T10:41:50Z</time>
      </trkpt>
      <trkpt lat="49.06551" lon="1.16616">
        <ele>91</ele>
        <time>2016-12-11T10:41:52Z</time>
      </trkpt>
      <trkpt lat="49.06545" lon="1.16602">
        <ele>90.9</ele>
        <time>2016-12-11T10:41:54Z</time>
      </trkpt>
      <trkpt lat="49.0654" lon="1.16588">
        <ele>90.9</ele>
        <time>2016-12-11T10:41:56Z</time>
      </trkpt>
      <trkpt lat="49.06534" lon="1.16574">
        <ele>90.9</ele>
        <time>2016-12-11T10:41:58Z</time>
      </trkpt>
      <trkpt lat="49.06528" lon="1.1656">
        <ele>90.9</ele>
        <time>2016-12-11T10:42:00Z</time>
      </trkpt>
      <trkpt lat="49.06522" lon="1.16545">
        <ele>90.9</ele>
        <time>2016-12-11T10:42:02Z</time>
      </trkpt>
      <trkpt lat="49.06516" lon="1.1653">
        <ele>90.9</ele>
        <time>2016-12-11T10:42:04Z</time>
      </trkpt>
      <trkpt lat="49.0651" lon="1.16515">
        <ele>90.8</ele>
        <time>2016-12-11T10:42:06Z</time>
      </trkpt>
      <trkpt lat="49.06503" lon="1.16501">
        <ele>90.8</ele>
        <time>2016-12-11T10:42:08Z</time>
      </trkpt>
      <trkpt lat="49.06497" lon="1.16486">
        <ele>90.8</ele>
        <time>2016-12-11T10:42:10Z</time>
      </trkpt>
      <trkpt lat="49.06491" lon="1.16472">
        <ele>90.8</ele>
        <time>2016-12-11T10:42:12Z</time>
      </trkpt>
      <trkpt lat="49.06485" lon="1.16457">
        <ele>90.8</ele>
        <time>2016-12-11T10:42:14Z</time>
      </trkpt>
      <trkpt lat="49.06479" lon="1.16443">
        <ele>90.7</ele>
        <time>2016-12-11T10:42:16Z</time>
      </trkpt>
      <trkpt lat="49.06473" lon="1.16428">
        <ele>90.7</ele>
        <time>2016-12-11T10:42:18Z</time>
      </trkpt>
      <trkpt lat="49.06468" lon="1.16413">
        <ele>90.6</ele>
        <time>2016-12-11T10:42:20Z</time>
      </trkpt>
      <trkpt lat="49.06462" lon="1.16399">
        <ele>90.6</ele>
        <time>2016-12-11T10:42:22Z</time>
      </trkpt>
      <trkpt lat="49.06456" lon="1.16385">
        <ele>90.6</ele>
        <time>2016-12-11T10:42:24Z</time>
      </trkpt>
      <trkpt lat="49.06451" lon="1.16372">
        <ele>90.5</ele>
        <time>2016-12-11T10:42:26Z</time>
      </trkpt>
      <trkpt lat="49.06445" lon="1.16358">
        <ele>90.5</ele>
        <time>2016-12-11T10:42:28Z</time>
      </trkpt>
      <trkpt lat="49.0644" lon="1.16345">
        <ele>90.5</ele>
        <time>2016-12-11T10:42:30Z</time>
      </trkpt>
      <trkpt lat="49.06434" lon="1.16332">
        <ele>90.5</ele>
        <time>2016-12-11T10:42:32Z</time>
      </trkpt>
      <trkpt lat="49.06429" lon="1.1632">
        <ele>90.4</ele>
        <time>2016-12-11T10:42:34Z</time>
      </trkpt>
      <trkpt lat="49.06423" lon="1.16308">
        <ele>90.4</ele>
        <time>2016-12-11T10:42:36Z</time>
      </trkpt>
      <trkpt lat="49.06416" lon="1.16297">
        <ele>90.4</ele>
        <time>2016-12-11T10:42:38Z</time>
      </trkpt>
      <trkpt lat="49.06405" lon="1.16291">
        <ele>90.4</ele>
        <time>2016-12-11T10:42:40Z</time>
      </trkpt>
      <trkpt lat="49.06394" lon="1.16287">
        <ele>90.5</ele>
        <time>2016-12-11T10:42:42Z</time>
      </trkpt>
      <trkpt lat="49.06383" lon="1.16283">
        <ele>90.5</ele>
        <time>2016-12-11T10:42:44Z</time>
      </trkpt>
      <trkpt lat="49.06373" lon="1.1628">
        <ele>90.6</ele>
        <time>2016-12-11T10:42:46Z</time>
      </trkpt>
      <trkpt lat="49.06363" lon="1.16279">
        <ele>90.7</ele>
        <time>2016-12-11T10:42:48Z</time>
      </trkpt>
      <trkpt lat="49.06353" lon="1.16278">
        <ele>90.8</ele>
        <time>2016-12-11T10:42:50Z</time>
      </trkpt>
      <trkpt lat="49.06342" lon="1.16278">
        <ele>90.9</ele>
        <time>2016-12-11T10:42:52Z</time>
      </trkpt>
      <trkpt lat="49.06332" lon="1.16279">
        <ele>91</ele>
        <time>2016-12-11T10:42:54Z</time>
      </trkpt>
      <trkpt lat="49.06321" lon="1.16281">
        <ele>91.1</ele>
        <time>2016-12-11T10:42:56Z</time>
      </trkpt>
      <trkpt lat="49.06311" lon="1.16283">
        <ele>91.2</ele>
        <time>2016-12-11T10:42:58Z</time>
      </trkpt>
      <trkpt lat="49.063" lon="1.16285">
        <ele>91.3</ele>
        <time>2016-12-11T10:43:00Z</time>
      </trkpt>
      <trkpt lat="49.06289" lon="1.16287">
        <ele>91.5</ele>
        <time>2016-12-11T10:43:02Z</time>
      </trkpt>
      <trkpt lat="49.06279" lon="1.16289">
        <ele>91.6</ele>
        <time>2016-12-11T10:43:04Z</time>
      </trkpt>
      <trkpt lat="49.06269" lon="1.16292">
        <ele>91.8</ele>
        <time>2016-12-11T10:43:06Z</time>
      </trkpt>
      <trkpt lat="49.06258" lon="1.16294">
        <ele>92</ele>
        <time>2016-12-11T10:43:08Z</time>
      </trkpt>
      <trkpt lat="49.06247" lon="1.16296">
        <ele>92.2</ele>
        <time>2016-12-11T10:43:10Z</time>
      </trkpt>
      <trkpt lat="49.06236" lon="1.16296">
        <ele>92.4</ele>
        <time>2016-12-11T10:43:12Z</time>
      </trkpt>
      <trkpt lat="49.06225" lon="1.16298">
        <ele>92.6</ele>
        <time>2016-12-11T10:43:14Z</time>
      </trkpt>
      <trkpt lat="49.06213" lon="1.16299">
        <ele>92.8</ele>
        <time>2016-12-11T10:43:16Z</time>
      </trkpt>
      <trkpt lat="49.06201" lon="1.16301">
        <ele>93</ele>
        <time>2016-12-11T10:43:18Z</time>
      </trkpt>
      <trkpt lat="49.06188" lon="1.16303">
        <ele>93.2</ele>
        <time>2016-12-11T10:43:20Z</time>
      </trkpt>
      <trkpt lat="49.06175" lon="1.16304">
        <ele>93.4</ele>
        <time>2016-12-11T10:43:22Z</time>
      </trkpt>
      <trkpt lat="49.06162" lon="1.16306">
        <ele>93.6</ele>
        <time>2016-12-11T10:43:24Z</time>
      </trkpt>
      <trkpt lat="49.06149" lon="1.16308">
        <ele>93.8</ele>
        <time>2016-12-11T10:43:26Z</time>
      </trkpt>
      <trkpt lat="49.06135" lon="1.1631">
        <ele>94</ele>
        <time>2016-12-11T10:43:28Z</time>
      </trkpt>
      <trkpt lat="49.06121" lon="1.16313">
        <ele>94.2</ele>
        <time>2016-12-11T10:43:30Z</time>
      </trkpt>
      <trkpt lat="49.06107" lon="1.16315">
        <ele>94.3</ele>
        <time>2016-12-11T10:43:32Z</time>
      </trkpt>
      <trkpt lat="49.06092" lon="1.16315">
        <ele>94.5</ele>
        <time>2016-12-11T10:43:34Z</time>
      </trkpt>
      <trkpt lat="49.06077" lon="1.16312">
        <ele>94.6</ele>
        <time>2016-12-11T10:43:36Z</time>
      </trkpt>
      <trkpt lat="49.06061" lon="1.16308">
        <ele>94.8</ele>
        <time>2016-12-11T10:43:38Z</time>
      </trkpt>
      <trkpt lat="49.06045" lon="1.16304">
        <ele>94.9</ele>
        <time>2016-12-11T10:43:40Z</time>
      </trkpt>
      <trkpt lat="49.06029" lon="1.16298">
        <ele>94.9</ele>
        <time>2016-12-11T10:43:42Z</time>
      </trkpt>
      <trkpt lat="49.06012" lon="1.16292">
        <ele>95</ele>
        <time>2016-12-11T10:43:44Z</time>
      </trkpt>
      <trkpt lat="49.05995" lon="1.16286">
        <ele>95.1</ele>
        <time>2016-12-11T10:43:46Z</time>
      </trkpt>
      <trkpt lat="49.05978" lon="1.1628">
        <ele>95.2</ele>
        <time>2016-12-11T10:43:48Z</time>
      </trkpt>
      <trkpt lat="49.05961" lon="1.16274">
        <ele>95.2</ele>
        <time>2016-12-11T10:43:50Z</time>
      </trkpt>
      <trkpt lat="49.05945" lon="1.16269">
        <ele>95.2</ele>
        <time>2016-12-11T10:43:52Z</time>
      </trkpt>
      <trkpt lat="49.05928" lon="1.16263">
        <ele>95</ele>
        <time>2016-12-11T10:43:54Z</time>
      </trkpt>
      <trkpt lat="49.05911" lon="1.16258">
        <ele>94.9</ele>
        <time>2016-12-11T10:43:56Z</time>
      </trkpt>
      <trkpt lat="49.05895" lon="1.16253">
        <ele>94.8</ele>
        <time>2016-12-11T10:43:58Z</time>
      </trkpt>
      <trkpt lat="49.05878" lon="1.16249">
        <ele>94.7</ele>
        <time>2016-12-11T10:44:00Z</time>
      </trkpt>
      <trkpt lat="49.05861" lon="1.16245">
        <ele>94.6</ele>
        <time>2016-12-11T10:44:02Z</time>
      </trkpt>
      <trkpt lat="49.05843" lon="1.1624">
        <ele>94.6</ele>
        <time>2016-12-11T10:44:04Z</time>
      </trkpt>
      <trkpt lat="49.05827" lon="1.16233">
        <ele>94.5</ele>
        <time>2016-12-11T10:44:06Z</time>
      </trkpt>
      <trkpt lat="49.05811" lon="1.16223">
        <ele>94.4</ele>
        <time>2016-12-11T10:44:08Z</time>
      </trkpt>
      <trkpt lat="49.05796" lon="1.1621">
        <ele>94.4</ele>
        <time>2016-12-11T10:44:10Z</time>
      </trkpt>
      <trkpt lat="49.05782" lon="1.16195">
        <ele>94.3</ele>
        <time>2016-12-11T10:44:12Z</time>
      </trkpt>
      <trkpt lat="49.05769" lon="1.16179">
        <ele>94.2</ele>
        <time>2016-12-11T10:44:14Z</time>
      </trkpt>
      <trkpt lat="49.05757" lon="1.16162">
        <ele>94.1</ele>
        <time>2016-12-11T10:44:16Z</time>
      </trkpt>
      <trkpt lat="49.05745" lon="1.16144">
        <ele>94</ele>
        <time>2016-12-11T10:44:18Z</time>
      </trkpt>
      <trkpt lat="49.05734" lon="1.16127">
        <ele>93.9</ele>
        <time>2016-12-11T10:44:20Z</time>
      </trkpt>
      <trkpt lat="49.05723" lon="1.16111">
        <ele>93.9</ele>
        <time>2016-12-11T10:44:22Z</time>
      </trkpt>
      <trkpt lat="49.05711" lon="1.16095">
        <ele>93.8</ele>
        <time>2016-12-11T10:44:24Z</time>
      </trkpt>
      <trkpt lat="49.05699" lon="1.16078">
        <ele>93.7</ele>
        <time>2016-12-11T10:44:26Z</time>
      </trkpt>
      <trkpt lat="49.05687" lon="1.16062">
        <ele>93.7</ele>
        <time>2016-12-11T10:44:28Z</time>
      </trkpt>
      <trkpt lat="49.05676" lon="1.16046">
        <ele>93.7</ele>
        <time>2016-12-11T10:44:30Z</time>
      </trkpt>
      <trkpt lat="49.05664" lon="1.16032">
        <ele>93.6</ele>
        <time>2016-12-11T10:44:32Z</time>
      </trkpt>
      <trkpt lat="49.05653" lon="1.16017">
        <ele>93.6</ele>
        <time>2016-12-11T10:44:34Z</time>
      </trkpt>
      <trkpt lat="49.05642" lon="1.16003">
        <ele>93.6</ele>
        <time>2016-12-11T10:44:36Z</time>
      </trkpt>
      <trkpt lat="49.05631" lon="1.15989">
        <ele>93.5</ele>
        <time>2016-12-11T10:44:38Z</time>
      </trkpt>
      <trkpt lat="49.0562" lon="1.15975">
        <ele>93.5</ele>
        <time>2016-12-11T10:44:40Z</time>
      </trkpt>
      <trkpt lat="49.05609" lon="1.15961">
        <ele>93.5</ele>
        <time>2016-12-11T10:44:42Z</time>
      </trkpt>
      <trkpt lat="49.05597" lon="1.15947">
        <ele>93.5</ele>
        <time>2016-12-11T10:44:44Z</time>
      </trkpt>
      <trkpt lat="49.05586" lon="1.15934">
        <ele>93.5</ele>
        <time>2016-12-11T10:44:46Z</time>
      </trkpt>
      <trkpt lat="49.05575" lon="1.15921">
        <ele>93.5</ele>
        <time>2016-12-11T10:44:48Z</time>
      </trkpt>
      <trkpt lat="49.05563" lon="1.15907">
        <ele>93.5</ele>
        <time>2016-12-11T10:44:50Z</time>
      </trkpt>
      <trkpt lat="49.05551" lon="1.15894">
        <ele>93.4</ele>
        <time>2016-12-11T10:44:52Z</time>
      </trkpt>
      <trkpt lat="49.05539" lon="1.15881">
        <ele>93.4</ele>
        <time>2016-12-11T10:44:54Z</time>
      </trkpt>
      <trkpt lat="49.05527" lon="1.15869">
        <ele>93.4</ele>
        <time>2016-12-11T10:44:56Z</time>
      </trkpt>
      <trkpt lat="49.05515" lon="1.15857">
        <ele>93.4</ele>
        <time>2016-12-11T10:44:58Z</time>
      </trkpt>
      <trkpt lat="49.05503" lon="1.15846">
        <ele>93.4</ele>
        <time>2016-12-11T10:45:00Z</time>
      </trkpt>
      <trkpt lat="49.05491" lon="1.15834">
        <ele>93.4</ele>
        <time>2016-12-11T10:45:02Z</time>
      </trkpt>
      <trkpt lat="49.05479" lon="1.15823">
        <ele>93.4</ele>
        <time>2016-12-11T10:45:04Z</time>
      </trkpt>
      <trkpt lat="49.05467" lon="1.15811">
        <ele>93.4</ele>
        <time>2016-12-11T10:45:06Z</time>
      </trkpt>
      <trkpt lat="49.05456" lon="1.158">
        <ele>93.4</ele>
        <time>2016-12-11T10:45:08Z</time>
      </trkpt>
      <trkpt lat="49.05445" lon="1.1579">
        <ele>93.4</ele>
        <time>2016-12-11T10:45:10Z</time>
      </trkpt>
      <trkpt lat="49.05434" lon="1.1578">
        <ele>93.4</ele>
        <time>2016-12-11T10:45:12Z</time>
      </trkpt>
      <trkpt lat="49.05422" lon="1.1577">
        <ele>93.4</ele>
        <time>2016-12-11T10:45:14Z</time>
      </trkpt>
      <trkpt lat="49.0541" lon="1.15762">
        <ele>93.4</ele>
        <time>2016-12-11T10:45:16Z</time>
      </trkpt>
      <trkpt lat="49.05397" lon="1.15753">
        <ele>93.4</ele>
        <time>2016-12-11T10:45:18Z</time>
      </trkpt>
      <trkpt lat="49.05384" lon="1.15746">
        <ele>93.4</ele>
        <time>2016-12-11T10:45:20Z</time>
      </trkpt>
      <trkpt lat="49.0537" lon="1.1574">
        <ele>93.4</ele>
        <time>2016-12-11T10:45:22Z</time>
      </trkpt>
      <trkpt lat="49.05356" lon="1.15735">
        <ele>93.4</ele>
        <time>2016-12-11T10:45:24Z</time>
      </trkpt>
      <trkpt lat="49.05343" lon="1.15731">
        <ele>93.4</ele>
        <time>2016-12-11T10:45:26Z</time>
      </trkpt>
      <trkpt lat="49.0533" lon="1.15727">
        <ele>93.3</ele>
        <time>2016-12-11T10:45:28Z</time>
      </trkpt>
      <trkpt lat="49.05317" lon="1.15724">
        <ele>93.3</ele>
        <time>2016-12-11T10:45:30Z</time>
      </trkpt>
      <trkpt lat="49.05304" lon="1.1572">
        <ele>93.3</ele>
        <time>2016-12-11T10:45:32Z</time>
      </trkpt>
      <trkpt lat="49.05291" lon="1.15717">
        <ele>93.3</ele>
        <time>2016-12-11T10:45:34Z</time>
      </trkpt>
      <trkpt lat="49.05277" lon="1.15714">
        <ele>93.2</ele>
        <time>2016-12-11T10:45:36Z</time>
      </trkpt>
      <trkpt lat="49.05264" lon="1.15712">
        <ele>93.2</ele>
        <time>2016-12-11T10:45:38Z</time>
      </trkpt>
      <trkpt lat="49.05251" lon="1.15709">
        <ele>93.2</ele>
        <time>2016-12-11T10:45:40Z</time>
      </trkpt>
      <trkpt lat="49.05238" lon="1.15708">
        <ele>93.2</ele>
        <time>2016-12-11T10:45:42Z</time>
      </trkpt>
      <trkpt lat="49.05226" lon="1.15707">
        <ele>93.2</ele>
        <time>2016-12-11T10:45:44Z</time>
      </trkpt>
      <trkpt lat="49.05212" lon="1.15704">
        <ele>93.2</ele>
        <time>2016-12-11T10:45:46Z</time>
      </trkpt>
      <trkpt lat="49.05199" lon="1.15702">
        <ele>93.2</ele>
        <time>2016-12-11T10:45:48Z</time>
      </trkpt>
      <trkpt lat="49.05185" lon="1.15702">
        <ele>93.2</ele>
        <time>2016-12-11T10:45:50Z</time>
      </trkpt>
      <trkpt lat="49.05171" lon="1.15701">
        <ele>93.2</ele>
        <time>2016-12-11T10:45:52Z</time>
      </trkpt>
      <trkpt lat="49.05157" lon="1.15701">
        <ele>93.2</ele>
        <time>2016-12-11T10:45:54Z</time>
      </trkpt>
      <trkpt lat="49.05143" lon="1.15701">
        <ele>93.2</ele>
        <time>2016-12-11T10:45:56Z</time>
      </trkpt>
      <trkpt lat="49.05129" lon="1.15702">
        <ele>93.1</ele>
        <time>2016-12-11T10:45:58Z</time>
      </trkpt>
      <trkpt lat="49.05114" lon="1.15702">
        <ele>93.1</ele>
        <time>2016-12-11T10:46:00Z</time>
      </trkpt>
      <trkpt lat="49.051" lon="1.15702">
        <ele>93.1</ele>
        <time>2016-12-11T10:46:02Z</time>
      </trkpt>
      <trkpt lat="49.05086" lon="1.15703">
        <ele>93</ele>
        <time>2016-12-11T10:46:04Z</time>
      </trkpt>
      <trkpt lat="49.05073" lon="1.15703">
        <ele>93</ele>
        <time>2016-12-11T10:46:06Z</time>
      </trkpt>
      <trkpt lat="49.05059" lon="1.15704">
        <ele>93</ele>
        <time>2016-12-11T10:46:08Z</time>
      </trkpt>
      <trkpt lat="49.05046" lon="1.15705">
        <ele>92.9</ele>
        <time>2016-12-11T10:46:10Z</time>
      </trkpt>
      <trkpt lat="49.05034" lon="1.15707">
        <ele>92.9</ele>
        <time>2016-12-11T10:46:12Z</time>
      </trkpt>
      <trkpt lat="49.0502" lon="1.15706">
        <ele>92.9</ele>
        <time>2016-12-11T10:46:14Z</time>
      </trkpt>
      <trkpt lat="49.05006" lon="1.15705">
        <ele>92.8</ele>
        <time>2016-12-11T10:46:16Z</time>
      </trkpt>
      <trkpt lat="49.04992" lon="1.15706">
        <ele>92.8</ele>
        <time>2016-12-11T10:46:18Z</time>
      </trkpt>
      <trkpt lat="49.04978" lon="1.15706">
        <ele>92.7</ele>
        <time>2016-12-11T10:46:20Z</time>
      </trkpt>
      <trkpt lat="49.04964" lon="1.15707">
        <ele>92.7</ele>
        <time>2016-12-11T10:46:22Z</time>
      </trkpt>
      <trkpt lat="49.0495" lon="1.15707">
        <ele>92.6</ele>
        <time>2016-12-11T10:46:24Z</time>
      </trkpt>
      <trkpt lat="49.04936" lon="1.15708">
        <ele>92.6</ele>
        <time>2016-12-11T10:46:26Z</time>
      </trkpt>
      <trkpt lat="49.04922" lon="1.15709">
        <ele>92.5</ele>
        <time>2016-12-11T10:46:28Z</time>
      </trkpt>
      <trkpt lat="49.04908" lon="1.1571">
        <ele>92.5</ele>
        <time>2016-12-11T10:46:30Z</time>
      </trkpt>
      <trkpt lat="49.04892" lon="1.15712">
        <ele>92.4</ele>
        <time>2016-12-11T10:46:32Z</time>
      </trkpt>
      <trkpt lat="49.04877" lon="1.15712">
        <ele>92.4</ele>
        <time>2016-12-11T10:46:34Z</time>
      </trkpt>
      <trkpt lat="49.04862" lon="1.15712">
        <ele>92.4</ele>
        <time>2016-12-11T10:46:36Z</time>
      </trkpt>
      <trkpt lat="49.04848" lon="1.15713">
        <ele>92.4</ele>
        <time>2016-12-11T10:46:38Z</time>
      </trkpt>
      <trkpt lat="49.04834" lon="1.15713">
        <ele>92.4</ele>
        <time>2016-12-11T10:46:40Z</time>
      </trkpt>
      <trkpt lat="49.04823" lon="1.15713">
        <ele>92.4</ele>
        <time>2016-12-11T10:46:42Z</time>
      </trkpt>
      <trkpt lat="49.04811" lon="1.15704">
        <ele>92.4</ele>
        <time>2016-12-11T10:46:45Z</time>
      </trkpt>
      <trkpt lat="49.04804" lon="1.15698">
        <ele>92.3</ele>
        <time>2016-12-11T10:46:47Z</time>
      </trkpt>
      <trkpt lat="49.04793" lon="1.15695">
        <ele>92.3</ele>
        <time>2016-12-11T10:46:49Z</time>
      </trkpt>
      <trkpt lat="49.04783" lon="1.15694">
        <ele>92.4</ele>
        <time>2016-12-11T10:46:51Z</time>
      </trkpt>
      <trkpt lat="49.04773" lon="1.15693">
        <ele>92.4</ele>
        <time>2016-12-11T10:46:53Z</time>
      </trkpt>
      <trkpt lat="49.04762" lon="1.15692">
        <ele>92.4</ele>
        <time>2016-12-11T10:46:55Z</time>
      </trkpt>
      <trkpt lat="49.04751" lon="1.15691">
        <ele>92.4</ele>
        <time>2016-12-11T10:46:57Z</time>
      </trkpt>
      <trkpt lat="49.0474" lon="1.15691">
        <ele>92.4</ele>
        <time>2016-12-11T10:46:59Z</time>
      </trkpt>
      <trkpt lat="49.04728" lon="1.15691">
        <ele>92.4</ele>
        <time>2016-12-11T10:47:01Z</time>
      </trkpt>
      <trkpt lat="49.04716" lon="1.1569">
        <ele>92.5</ele>
        <time>2016-12-11T10:47:03Z</time>
      </trkpt>
      <trkpt lat="49.04704" lon="1.15689">
        <ele>92.5</ele>
        <time>2016-12-11T10:47:05Z</time>
      </trkpt>
      <trkpt lat="49.04692" lon="1.15688">
        <ele>92.5</ele>
        <time>2016-12-11T10:47:07Z</time>
      </trkpt>
      <trkpt lat="49.0468" lon="1.15687">
        <ele>92.4</ele>
        <time>2016-12-11T10:47:09Z</time>
      </trkpt>
      <trkpt lat="49.04668" lon="1.15686">
        <ele>92.4</ele>
        <time>2016-12-11T10:47:11Z</time>
      </trkpt>
      <trkpt lat="49.04656" lon="1.15686">
        <ele>92.4</ele>
        <time>2016-12-11T10:47:13Z</time>
      </trkpt>
      <trkpt lat="49.04644" lon="1.15685">
        <ele>92.4</ele>
        <time>2016-12-11T10:47:15Z</time>
      </trkpt>
      <trkpt lat="49.04632" lon="1.15686">
        <ele>92.4</ele>
        <time>2016-12-11T10:47:17Z</time>
      </trkpt>
      <trkpt lat="49.04621" lon="1.15687">
        <ele>92.3</ele>
        <time>2016-12-11T10:47:19Z</time>
      </trkpt>
      <trkpt lat="49.04609" lon="1.15689">
        <ele>92.3</ele>
        <time>2016-12-11T10:47:21Z</time>
      </trkpt>
      <trkpt lat="49.04598" lon="1.1569">
        <ele>92.3</ele>
        <time>2016-12-11T10:47:23Z</time>
      </trkpt>
      <trkpt lat="49.04587" lon="1.15694">
        <ele>92.3</ele>
        <time>2016-12-11T10:47:25Z</time>
      </trkpt>
      <trkpt lat="49.04576" lon="1.15699">
        <ele>92.2</ele>
        <time>2016-12-11T10:47:27Z</time>
      </trkpt>
      <trkpt lat="49.04566" lon="1.15704">
        <ele>92.2</ele>
        <time>2016-12-11T10:47:29Z</time>
      </trkpt>
      <trkpt lat="49.04556" lon="1.15708">
        <ele>92.2</ele>
        <time>2016-12-11T10:47:31Z</time>
      </trkpt>
      <trkpt lat="49.04546" lon="1.15712">
        <ele>92.1</ele>
        <time>2016-12-11T10:47:33Z</time>
      </trkpt>
      <trkpt lat="49.04537" lon="1.15717">
        <ele>92.1</ele>
        <time>2016-12-11T10:47:35Z</time>
      </trkpt>
      <trkpt lat="49.04528" lon="1.15721">
        <ele>92</ele>
        <time>2016-12-11T10:47:37Z</time>
      </trkpt>
      <trkpt lat="49.04515" lon="1.15729">
        <ele>92</ele>
        <time>2016-12-11T10:47:40Z</time>
      </trkpt>
      <trkpt lat="49.04505" lon="1.15736">
        <ele>92</ele>
        <time>2016-12-11T10:47:43Z</time>
      </trkpt>
      <trkpt lat="49.04497" lon="1.15742">
        <ele>91</ele>
        <time>2016-12-11T10:48:20Z</time>
      </trkpt>
    </trkseg>
  </trk>
</gpx>